<?xml version="1.0" encoding="UTF-8" standalone="no" ?>
<gpx xmlns="http://www.topografix.com/GPX/1/1" xmlns:xsi="http://www.w3.org/2001/XMLSchema-instance" xsi:schemaLocation="http://www.topografix.com/GPX/1/1 http://www.topografix.com/GPX/1/1/gpx.xsd" version="1.1" creator="VisuGPX - https://www.visugpx.com">
  <metadata>
    <name>Nivillac 24/05/2020</name>
    <desc><![CDATA[Sortie Nivillac dimanche 24 mai 2020]]></desc>
  </metadata>
  <trk>
    <name><![CDATA[Nivillac Cyclisme]]></name>
    <trkseg>
      <trkpt lat="47.56978" lon="-2.27485">
        <ele>18.3</ele>
        <time>2020-05-24T07:04:46.000Z</time>
      </trkpt>
      <trkpt lat="47.56988" lon="-2.27484">
        <ele>17.8</ele>
        <time>2020-05-24T07:04:49.000Z</time>
      </trkpt>
      <trkpt lat="47.56991" lon="-2.27484">
        <ele>-1</ele>
        <time>2020-05-24T07:04:50.000Z</time>
      </trkpt>
      <trkpt lat="47.57004" lon="-2.27483">
        <ele>-1</ele>
        <time>2020-05-24T07:04:52.000Z</time>
      </trkpt>
      <trkpt lat="47.57016" lon="-2.27489">
        <ele>-1</ele>
        <time>2020-05-24T07:04:56.000Z</time>
      </trkpt>
      <trkpt lat="47.57017" lon="-2.2749">
        <ele>-1.3999999761581</ele>
        <time>2020-05-24T07:04:58.000Z</time>
      </trkpt>
      <trkpt lat="47.57016" lon="-2.2749">
        <ele>-1.7999999523163</ele>
        <time>2020-05-24T07:04:59.000Z</time>
      </trkpt>
      <trkpt lat="47.57015" lon="-2.2749">
        <ele>-2.2000000476837</ele>
        <time>2020-05-24T07:05:00.000Z</time>
      </trkpt>
      <trkpt lat="47.57014" lon="-2.27489">
        <ele>-2.5999999046326</ele>
        <time>2020-05-24T07:05:01.000Z</time>
      </trkpt>
      <trkpt lat="47.56973" lon="-2.27419">
        <ele>-3.2000000476837</ele>
        <time>2020-05-24T07:05:59.000Z</time>
      </trkpt>
      <trkpt lat="47.56973" lon="-2.27413">
        <ele>-3.2000000476837</ele>
        <time>2020-05-24T07:06:02.000Z</time>
      </trkpt>
      <trkpt lat="47.56973" lon="-2.2741">
        <ele>-3.2000000476837</ele>
        <time>2020-05-24T07:06:04.000Z</time>
      </trkpt>
      <trkpt lat="47.56973" lon="-2.27405">
        <ele>-3.2000000476837</ele>
        <time>2020-05-24T07:06:06.000Z</time>
      </trkpt>
      <trkpt lat="47.56975" lon="-2.27396">
        <ele>-3.2000000476837</ele>
        <time>2020-05-24T07:06:10.000Z</time>
      </trkpt>
      <trkpt lat="47.5698" lon="-2.27376">
        <ele>-3.2000000476837</ele>
        <time>2020-05-24T07:06:17.000Z</time>
      </trkpt>
      <trkpt lat="47.56985" lon="-2.27366">
        <ele>-2.7999999523163</ele>
        <time>2020-05-24T07:06:23.000Z</time>
      </trkpt>
      <trkpt lat="47.56985" lon="-2.27364">
        <ele>-2.4000000953674</ele>
        <time>2020-05-24T07:06:24.000Z</time>
      </trkpt>
      <trkpt lat="47.56986" lon="-2.27363">
        <ele>-2</ele>
        <time>2020-05-24T07:06:25.000Z</time>
      </trkpt>
      <trkpt lat="47.56986" lon="-2.27361">
        <ele>-1.6000000238419</ele>
        <time>2020-05-24T07:06:26.000Z</time>
      </trkpt>
      <trkpt lat="47.56986" lon="-2.27361">
        <ele>-1.2000000476837</ele>
        <time>2020-05-24T07:06:27.000Z</time>
      </trkpt>
      <trkpt lat="47.56986" lon="-2.2736">
        <ele>-1.2000000476837</ele>
        <time>2020-05-24T07:06:28.000Z</time>
      </trkpt>
      <trkpt lat="47.56975" lon="-2.27358">
        <ele>-1.2000000476837</ele>
        <time>2020-05-24T07:06:47.000Z</time>
      </trkpt>
      <trkpt lat="47.56976" lon="-2.27359">
        <ele>-1.2000000476837</ele>
        <time>2020-05-24T07:06:48.000Z</time>
      </trkpt>
      <trkpt lat="47.5698" lon="-2.27363">
        <ele>-1.2000000476837</ele>
        <time>2020-05-24T07:06:54.000Z</time>
      </trkpt>
      <trkpt lat="47.56981" lon="-2.27366">
        <ele>-1.2000000476837</ele>
        <time>2020-05-24T07:06:56.000Z</time>
      </trkpt>
      <trkpt lat="47.56979" lon="-2.2737">
        <ele>-1.2000000476837</ele>
        <time>2020-05-24T07:07:00.000Z</time>
      </trkpt>
      <trkpt lat="47.56978" lon="-2.27371">
        <ele>-1.2000000476837</ele>
        <time>2020-05-24T07:07:01.000Z</time>
      </trkpt>
      <trkpt lat="47.56976" lon="-2.2737">
        <ele>-1.2000000476837</ele>
        <time>2020-05-24T07:07:02.000Z</time>
      </trkpt>
      <trkpt lat="47.56972" lon="-2.27365">
        <ele>-1.2000000476837</ele>
        <time>2020-05-24T07:07:06.000Z</time>
      </trkpt>
      <trkpt lat="47.5697" lon="-2.27362">
        <ele>-1.2000000476837</ele>
        <time>2020-05-24T07:07:10.000Z</time>
      </trkpt>
      <trkpt lat="47.56951" lon="-2.27359">
        <ele>-1.2000000476837</ele>
        <time>2020-05-24T07:09:59.000Z</time>
      </trkpt>
      <trkpt lat="47.56938" lon="-2.27355">
        <ele>-1.2000000476837</ele>
        <time>2020-05-24T07:10:03.000Z</time>
      </trkpt>
      <trkpt lat="47.56935" lon="-2.27354">
        <ele>-1.2000000476837</ele>
        <time>2020-05-24T07:10:04.000Z</time>
      </trkpt>
      <trkpt lat="47.56915" lon="-2.27348">
        <ele>-0.80000001192093</ele>
        <time>2020-05-24T07:10:11.000Z</time>
      </trkpt>
      <trkpt lat="47.56912" lon="-2.27348">
        <ele>-0.40000000596046</ele>
        <time>2020-05-24T07:10:12.000Z</time>
      </trkpt>
      <trkpt lat="47.5691" lon="-2.27346">
        <ele>27.3</ele>
        <time>2020-05-24T07:10:13.000Z</time>
      </trkpt>
      <trkpt lat="47.56907" lon="-2.27346">
        <ele>0.40000000596046</ele>
        <time>2020-05-24T07:10:14.000Z</time>
      </trkpt>
      <trkpt lat="47.56904" lon="-2.27345">
        <ele>0.80000001192093</ele>
        <time>2020-05-24T07:10:15.000Z</time>
      </trkpt>
      <trkpt lat="47.56893" lon="-2.27341">
        <ele>0.80000001192093</ele>
        <time>2020-05-24T07:10:19.000Z</time>
      </trkpt>
      <trkpt lat="47.56888" lon="-2.27339">
        <ele>1.3999999761581</ele>
        <time>2020-05-24T07:10:21.000Z</time>
      </trkpt>
      <trkpt lat="47.56885" lon="-2.27339">
        <ele>1.7999999523163</ele>
        <time>2020-05-24T07:10:22.000Z</time>
      </trkpt>
      <trkpt lat="47.56883" lon="-2.27338">
        <ele>2.2000000476837</ele>
        <time>2020-05-24T07:10:23.000Z</time>
      </trkpt>
      <trkpt lat="47.5688" lon="-2.27338">
        <ele>2.5999999046326</ele>
        <time>2020-05-24T07:10:24.000Z</time>
      </trkpt>
      <trkpt lat="47.56877" lon="-2.27337">
        <ele>3</ele>
        <time>2020-05-24T07:10:25.000Z</time>
      </trkpt>
      <trkpt lat="47.56873" lon="-2.27336">
        <ele>3</ele>
        <time>2020-05-24T07:10:27.000Z</time>
      </trkpt>
      <trkpt lat="47.56856" lon="-2.2733">
        <ele>3.4000000953674</ele>
        <time>2020-05-24T07:10:33.000Z</time>
      </trkpt>
      <trkpt lat="47.56854" lon="-2.2733">
        <ele>3.7999999523163</ele>
        <time>2020-05-24T07:10:34.000Z</time>
      </trkpt>
      <trkpt lat="47.56851" lon="-2.27329">
        <ele>4.1999998092651</ele>
        <time>2020-05-24T07:10:35.000Z</time>
      </trkpt>
      <trkpt lat="47.56848" lon="-2.27328">
        <ele>4.5999999046326</ele>
        <time>2020-05-24T07:10:36.000Z</time>
      </trkpt>
      <trkpt lat="47.56846" lon="-2.27327">
        <ele>5</ele>
        <time>2020-05-24T07:10:37.000Z</time>
      </trkpt>
      <trkpt lat="47.56838" lon="-2.27325">
        <ele>5</ele>
        <time>2020-05-24T07:10:40.000Z</time>
      </trkpt>
      <trkpt lat="47.56828" lon="-2.27321">
        <ele>5.4000000953674</ele>
        <time>2020-05-24T07:10:44.000Z</time>
      </trkpt>
      <trkpt lat="47.56825" lon="-2.2732">
        <ele>5.8000001907349</ele>
        <time>2020-05-24T07:10:45.000Z</time>
      </trkpt>
      <trkpt lat="47.56823" lon="-2.27318">
        <ele>6.4000000953674</ele>
        <time>2020-05-24T07:10:46.000Z</time>
      </trkpt>
      <trkpt lat="47.56821" lon="-2.27317">
        <ele>6.8000001907349</ele>
        <time>2020-05-24T07:10:47.000Z</time>
      </trkpt>
      <trkpt lat="47.56819" lon="-2.27315">
        <ele>7.1999998092651</ele>
        <time>2020-05-24T07:10:48.000Z</time>
      </trkpt>
      <trkpt lat="47.56803" lon="-2.2731">
        <ele>7.1999998092651</ele>
        <time>2020-05-24T07:10:53.000Z</time>
      </trkpt>
      <trkpt lat="47.56789" lon="-2.2731">
        <ele>7.5999999046326</ele>
        <time>2020-05-24T07:10:59.000Z</time>
      </trkpt>
      <trkpt lat="47.56788" lon="-2.2731">
        <ele>8</ele>
        <time>2020-05-24T07:11:00.000Z</time>
      </trkpt>
      <trkpt lat="47.56784" lon="-2.27308">
        <ele>8.3999996185303</ele>
        <time>2020-05-24T07:11:01.000Z</time>
      </trkpt>
      <trkpt lat="47.56783" lon="-2.27308">
        <ele>8.8000001907349</ele>
        <time>2020-05-24T07:11:02.000Z</time>
      </trkpt>
      <trkpt lat="47.5678" lon="-2.27306">
        <ele>9.1999998092651</ele>
        <time>2020-05-24T07:11:03.000Z</time>
      </trkpt>
      <trkpt lat="47.56771" lon="-2.27295">
        <ele>9.6000003814697</ele>
        <time>2020-05-24T07:11:09.000Z</time>
      </trkpt>
      <trkpt lat="47.5677" lon="-2.27293">
        <ele>10.199999809265</ele>
        <time>2020-05-24T07:11:10.000Z</time>
      </trkpt>
      <trkpt lat="47.56769" lon="-2.27289">
        <ele>10.60000038147</ele>
        <time>2020-05-24T07:11:11.000Z</time>
      </trkpt>
      <trkpt lat="47.56768" lon="-2.27287">
        <ele>11</ele>
        <time>2020-05-24T07:11:12.000Z</time>
      </trkpt>
      <trkpt lat="47.56767" lon="-2.27282">
        <ele>11.39999961853</ele>
        <time>2020-05-24T07:11:13.000Z</time>
      </trkpt>
      <trkpt lat="47.56765" lon="-2.2727">
        <ele>11.39999961853</ele>
        <time>2020-05-24T07:11:16.000Z</time>
      </trkpt>
      <trkpt lat="47.56764" lon="-2.27265">
        <ele>11.800000190735</ele>
        <time>2020-05-24T07:11:17.000Z</time>
      </trkpt>
      <trkpt lat="47.56764" lon="-2.27262">
        <ele>12.199999809265</ele>
        <time>2020-05-24T07:11:18.000Z</time>
      </trkpt>
      <trkpt lat="47.56763" lon="-2.27258">
        <ele>12.60000038147</ele>
        <time>2020-05-24T07:11:19.000Z</time>
      </trkpt>
      <trkpt lat="47.56764" lon="-2.27256">
        <ele>13</ele>
        <time>2020-05-24T07:11:20.000Z</time>
      </trkpt>
      <trkpt lat="47.56764" lon="-2.27252">
        <ele>13.39999961853</ele>
        <time>2020-05-24T07:11:21.000Z</time>
      </trkpt>
      <trkpt lat="47.56763" lon="-2.27245">
        <ele>13.39999961853</ele>
        <time>2020-05-24T07:11:23.000Z</time>
      </trkpt>
      <trkpt lat="47.56756" lon="-2.2722">
        <ele>13.39999961853</ele>
        <time>2020-05-24T07:11:28.000Z</time>
      </trkpt>
      <trkpt lat="47.56752" lon="-2.27191">
        <ele>13.39999961853</ele>
        <time>2020-05-24T07:11:33.000Z</time>
      </trkpt>
      <trkpt lat="47.56752" lon="-2.27176">
        <ele>13.39999961853</ele>
        <time>2020-05-24T07:11:35.000Z</time>
      </trkpt>
      <trkpt lat="47.56749" lon="-2.2716">
        <ele>13.39999961853</ele>
        <time>2020-05-24T07:11:37.000Z</time>
      </trkpt>
      <trkpt lat="47.56742" lon="-2.27131">
        <ele>13.39999961853</ele>
        <time>2020-05-24T07:11:41.000Z</time>
      </trkpt>
      <trkpt lat="47.56738" lon="-2.2712">
        <ele>13.800000190735</ele>
        <time>2020-05-24T07:11:43.000Z</time>
      </trkpt>
      <trkpt lat="47.56737" lon="-2.27115">
        <ele>14.199999809265</ele>
        <time>2020-05-24T07:11:44.000Z</time>
      </trkpt>
      <trkpt lat="47.56735" lon="-2.2711">
        <ele>14.60000038147</ele>
        <time>2020-05-24T07:11:45.000Z</time>
      </trkpt>
      <trkpt lat="47.56734" lon="-2.27105">
        <ele>15</ele>
        <time>2020-05-24T07:11:46.000Z</time>
      </trkpt>
      <trkpt lat="47.56733" lon="-2.27101">
        <ele>15.39999961853</ele>
        <time>2020-05-24T07:11:47.000Z</time>
      </trkpt>
      <trkpt lat="47.56729" lon="-2.2709">
        <ele>15.39999961853</ele>
        <time>2020-05-24T07:11:49.000Z</time>
      </trkpt>
      <trkpt lat="47.56725" lon="-2.27072">
        <ele>15.800000190735</ele>
        <time>2020-05-24T07:11:53.000Z</time>
      </trkpt>
      <trkpt lat="47.56723" lon="-2.27066">
        <ele>16.39999961853</ele>
        <time>2020-05-24T07:11:54.000Z</time>
      </trkpt>
      <trkpt lat="47.56722" lon="-2.27061">
        <ele>16.799999237061</ele>
        <time>2020-05-24T07:11:55.000Z</time>
      </trkpt>
      <trkpt lat="47.56721" lon="-2.27057">
        <ele>17.200000762939</ele>
        <time>2020-05-24T07:11:56.000Z</time>
      </trkpt>
      <trkpt lat="47.56715" lon="-2.27049">
        <ele>17.60000038147</ele>
        <time>2020-05-24T07:11:57.000Z</time>
      </trkpt>
      <trkpt lat="47.56713" lon="-2.27045">
        <ele>17.60000038147</ele>
        <time>2020-05-24T07:11:58.000Z</time>
      </trkpt>
      <trkpt lat="47.56706" lon="-2.27016">
        <ele>18</ele>
        <time>2020-05-24T07:12:04.000Z</time>
      </trkpt>
      <trkpt lat="47.56705" lon="-2.27011">
        <ele>18.39999961853</ele>
        <time>2020-05-24T07:12:05.000Z</time>
      </trkpt>
      <trkpt lat="47.56704" lon="-2.27007">
        <ele>18.799999237061</ele>
        <time>2020-05-24T07:12:06.000Z</time>
      </trkpt>
      <trkpt lat="47.56703" lon="-2.27002">
        <ele>19.200000762939</ele>
        <time>2020-05-24T07:12:07.000Z</time>
      </trkpt>
      <trkpt lat="47.56702" lon="-2.26998">
        <ele>19.60000038147</ele>
        <time>2020-05-24T07:12:08.000Z</time>
      </trkpt>
      <trkpt lat="47.56694" lon="-2.26959">
        <ele>19.60000038147</ele>
        <time>2020-05-24T07:12:17.000Z</time>
      </trkpt>
      <trkpt lat="47.5669" lon="-2.26942">
        <ele>20</ele>
        <time>2020-05-24T07:12:21.000Z</time>
      </trkpt>
      <trkpt lat="47.56689" lon="-2.26938">
        <ele>20.39999961853</ele>
        <time>2020-05-24T07:12:22.000Z</time>
      </trkpt>
      <trkpt lat="47.56688" lon="-2.26934">
        <ele>20.799999237061</ele>
        <time>2020-05-24T07:12:23.000Z</time>
      </trkpt>
      <trkpt lat="47.56687" lon="-2.2693">
        <ele>21.39999961853</ele>
        <time>2020-05-24T07:12:24.000Z</time>
      </trkpt>
      <trkpt lat="47.56686" lon="-2.26925">
        <ele>21.799999237061</ele>
        <time>2020-05-24T07:12:25.000Z</time>
      </trkpt>
      <trkpt lat="47.56682" lon="-2.26904">
        <ele>21.799999237061</ele>
        <time>2020-05-24T07:12:30.000Z</time>
      </trkpt>
      <trkpt lat="47.56674" lon="-2.26865">
        <ele>21.799999237061</ele>
        <time>2020-05-24T07:12:39.000Z</time>
      </trkpt>
      <trkpt lat="47.56667" lon="-2.26828">
        <ele>21.799999237061</ele>
        <time>2020-05-24T07:12:47.000Z</time>
      </trkpt>
      <trkpt lat="47.56674" lon="-2.26822">
        <ele>21.799999237061</ele>
        <time>2020-05-24T07:12:50.000Z</time>
      </trkpt>
      <trkpt lat="47.56682" lon="-2.26823">
        <ele>21.799999237061</ele>
        <time>2020-05-24T07:12:52.000Z</time>
      </trkpt>
      <trkpt lat="47.56702" lon="-2.26824">
        <ele>21.799999237061</ele>
        <time>2020-05-24T07:12:57.000Z</time>
      </trkpt>
      <trkpt lat="47.56737" lon="-2.26826">
        <ele>21.799999237061</ele>
        <time>2020-05-24T07:13:05.000Z</time>
      </trkpt>
      <trkpt lat="47.56758" lon="-2.26828">
        <ele>21.39999961853</ele>
        <time>2020-05-24T07:13:10.000Z</time>
      </trkpt>
      <trkpt lat="47.56763" lon="-2.26828">
        <ele>21</ele>
        <time>2020-05-24T07:13:11.000Z</time>
      </trkpt>
      <trkpt lat="47.56768" lon="-2.26829">
        <ele>20.60000038147</ele>
        <time>2020-05-24T07:13:12.000Z</time>
      </trkpt>
      <trkpt lat="47.56772" lon="-2.26829">
        <ele>20.200000762939</ele>
        <time>2020-05-24T07:13:13.000Z</time>
      </trkpt>
      <trkpt lat="47.56777" lon="-2.26829">
        <ele>19.799999237061</ele>
        <time>2020-05-24T07:13:14.000Z</time>
      </trkpt>
      <trkpt lat="47.568" lon="-2.26831">
        <ele>19.799999237061</ele>
        <time>2020-05-24T07:13:20.000Z</time>
      </trkpt>
      <trkpt lat="47.56805" lon="-2.26831">
        <ele>19.39999961853</ele>
        <time>2020-05-24T07:13:22.000Z</time>
      </trkpt>
      <trkpt lat="47.56807" lon="-2.26831">
        <ele>18.799999237061</ele>
        <time>2020-05-24T07:13:23.000Z</time>
      </trkpt>
      <trkpt lat="47.56809" lon="-2.26831">
        <ele>18.39999961853</ele>
        <time>2020-05-24T07:13:24.000Z</time>
      </trkpt>
      <trkpt lat="47.56811" lon="-2.26831">
        <ele>18</ele>
        <time>2020-05-24T07:13:25.000Z</time>
      </trkpt>
      <trkpt lat="47.56812" lon="-2.26831">
        <ele>17.60000038147</ele>
        <time>2020-05-24T07:13:26.000Z</time>
      </trkpt>
      <trkpt lat="47.56814" lon="-2.26837">
        <ele>17.60000038147</ele>
        <time>2020-05-24T07:13:29.000Z</time>
      </trkpt>
      <trkpt lat="47.56816" lon="-2.26848">
        <ele>17.60000038147</ele>
        <time>2020-05-24T07:13:36.000Z</time>
      </trkpt>
      <trkpt lat="47.56815" lon="-2.26852">
        <ele>17.60000038147</ele>
        <time>2020-05-24T07:13:38.000Z</time>
      </trkpt>
      <trkpt lat="47.56815" lon="-2.26856">
        <ele>17.60000038147</ele>
        <time>2020-05-24T07:13:40.000Z</time>
      </trkpt>
      <trkpt lat="47.56815" lon="-2.26859">
        <ele>17.60000038147</ele>
        <time>2020-05-24T07:13:42.000Z</time>
      </trkpt>
      <trkpt lat="47.56821" lon="-2.26865">
        <ele>17.60000038147</ele>
        <time>2020-05-24T07:13:47.000Z</time>
      </trkpt>
      <trkpt lat="47.56822" lon="-2.26866">
        <ele>17.200000762939</ele>
        <time>2020-05-24T07:13:48.000Z</time>
      </trkpt>
      <trkpt lat="47.56823" lon="-2.26867">
        <ele>16.799999237061</ele>
        <time>2020-05-24T07:13:49.000Z</time>
      </trkpt>
      <trkpt lat="47.56824" lon="-2.26868">
        <ele>16.39999961853</ele>
        <time>2020-05-24T07:13:50.000Z</time>
      </trkpt>
      <trkpt lat="47.56825" lon="-2.2687">
        <ele>16</ele>
        <time>2020-05-24T07:13:51.000Z</time>
      </trkpt>
      <trkpt lat="47.56826" lon="-2.26872">
        <ele>15.60000038147</ele>
        <time>2020-05-24T07:13:52.000Z</time>
      </trkpt>
      <trkpt lat="47.56827" lon="-2.26873">
        <ele>15.60000038147</ele>
        <time>2020-05-24T07:13:53.000Z</time>
      </trkpt>
      <trkpt lat="47.56828" lon="-2.26885">
        <ele>15.199999809265</ele>
        <time>2020-05-24T07:13:58.000Z</time>
      </trkpt>
      <trkpt lat="47.56827" lon="-2.26887">
        <ele>14.800000190735</ele>
        <time>2020-05-24T07:13:59.000Z</time>
      </trkpt>
      <trkpt lat="47.56827" lon="-2.26889">
        <ele>14</ele>
        <time>2020-05-24T07:14:00.000Z</time>
      </trkpt>
      <trkpt lat="47.56827" lon="-2.26892">
        <ele>13.60000038147</ele>
        <time>2020-05-24T07:14:01.000Z</time>
      </trkpt>
      <trkpt lat="47.56827" lon="-2.26902">
        <ele>13.60000038147</ele>
        <time>2020-05-24T07:14:04.000Z</time>
      </trkpt>
      <trkpt lat="47.56833" lon="-2.26915">
        <ele>13.60000038147</ele>
        <time>2020-05-24T07:14:09.000Z</time>
      </trkpt>
      <trkpt lat="47.56838" lon="-2.26926">
        <ele>13.199999809265</ele>
        <time>2020-05-24T07:14:14.000Z</time>
      </trkpt>
      <trkpt lat="47.56838" lon="-2.26928">
        <ele>12.800000190735</ele>
        <time>2020-05-24T07:14:15.000Z</time>
      </trkpt>
      <trkpt lat="47.56837" lon="-2.2693">
        <ele>12.39999961853</ele>
        <time>2020-05-24T07:14:16.000Z</time>
      </trkpt>
      <trkpt lat="47.56837" lon="-2.26931">
        <ele>12</ele>
        <time>2020-05-24T07:14:17.000Z</time>
      </trkpt>
      <trkpt lat="47.56836" lon="-2.26933">
        <ele>11.60000038147</ele>
        <time>2020-05-24T07:14:18.000Z</time>
      </trkpt>
      <trkpt lat="47.56833" lon="-2.26939">
        <ele>11.60000038147</ele>
        <time>2020-05-24T07:14:21.000Z</time>
      </trkpt>
      <trkpt lat="47.56832" lon="-2.26942">
        <ele>11.60000038147</ele>
        <time>2020-05-24T07:14:22.000Z</time>
      </trkpt>
      <trkpt lat="47.56833" lon="-2.26953">
        <ele>11.60000038147</ele>
        <time>2020-05-24T07:14:25.000Z</time>
      </trkpt>
      <trkpt lat="47.56833" lon="-2.2696">
        <ele>11.60000038147</ele>
        <time>2020-05-24T07:14:27.000Z</time>
      </trkpt>
      <trkpt lat="47.56836" lon="-2.26974">
        <ele>11.60000038147</ele>
        <time>2020-05-24T07:14:32.000Z</time>
      </trkpt>
      <trkpt lat="47.56837" lon="-2.26979">
        <ele>11</ele>
        <time>2020-05-24T07:14:35.000Z</time>
      </trkpt>
      <trkpt lat="47.56838" lon="-2.26981">
        <ele>10.60000038147</ele>
        <time>2020-05-24T07:14:36.000Z</time>
      </trkpt>
      <trkpt lat="47.56839" lon="-2.26984">
        <ele>10.199999809265</ele>
        <time>2020-05-24T07:14:37.000Z</time>
      </trkpt>
      <trkpt lat="47.56841" lon="-2.26987">
        <ele>9.8000001907349</ele>
        <time>2020-05-24T07:14:38.000Z</time>
      </trkpt>
      <trkpt lat="47.56843" lon="-2.26991">
        <ele>9.3999996185303</ele>
        <time>2020-05-24T07:14:39.000Z</time>
      </trkpt>
      <trkpt lat="47.56849" lon="-2.27003">
        <ele>9</ele>
        <time>2020-05-24T07:14:43.000Z</time>
      </trkpt>
      <trkpt lat="47.5685" lon="-2.27006">
        <ele>8.6000003814697</ele>
        <time>2020-05-24T07:14:44.000Z</time>
      </trkpt>
      <trkpt lat="47.56851" lon="-2.27009">
        <ele>8</ele>
        <time>2020-05-24T07:14:45.000Z</time>
      </trkpt>
      <trkpt lat="47.56851" lon="-2.27012">
        <ele>7.5999999046326</ele>
        <time>2020-05-24T07:14:46.000Z</time>
      </trkpt>
      <trkpt lat="47.56852" lon="-2.27015">
        <ele>7.1999998092651</ele>
        <time>2020-05-24T07:14:47.000Z</time>
      </trkpt>
      <trkpt lat="47.56852" lon="-2.27016">
        <ele>7.1999998092651</ele>
        <time>2020-05-24T07:14:48.000Z</time>
      </trkpt>
      <trkpt lat="47.56855" lon="-2.27013">
        <ele>4.8000001907349</ele>
        <time>2020-05-24T07:15:03.000Z</time>
      </trkpt>
      <trkpt lat="47.56859" lon="-2.27003">
        <ele>4.4000000953674</ele>
        <time>2020-05-24T07:15:09.000Z</time>
      </trkpt>
      <trkpt lat="47.56858" lon="-2.27002">
        <ele>4</ele>
        <time>2020-05-24T07:15:10.000Z</time>
      </trkpt>
      <trkpt lat="47.56859" lon="-2.27002">
        <ele>3.4000000953674</ele>
        <time>2020-05-24T07:15:11.000Z</time>
      </trkpt>
      <trkpt lat="47.56862" lon="-2.26985">
        <ele>2.5999999046326</ele>
        <time>2020-05-24T07:15:27.000Z</time>
      </trkpt>
      <trkpt lat="47.56863" lon="-2.26982">
        <ele>2.5999999046326</ele>
        <time>2020-05-24T07:15:28.000Z</time>
      </trkpt>
      <trkpt lat="47.56864" lon="-2.26969">
        <ele>2.5999999046326</ele>
        <time>2020-05-24T07:15:32.000Z</time>
      </trkpt>
      <trkpt lat="47.56863" lon="-2.26967">
        <ele>2.5999999046326</ele>
        <time>2020-05-24T07:15:33.000Z</time>
      </trkpt>
      <trkpt lat="47.5686" lon="-2.26958">
        <ele>2.5999999046326</ele>
        <time>2020-05-24T07:15:39.000Z</time>
      </trkpt>
      <trkpt lat="47.56856" lon="-2.26929">
        <ele>5</ele>
        <time>2020-05-24T07:16:09.000Z</time>
      </trkpt>
      <trkpt lat="47.56857" lon="-2.26926">
        <ele>4.5999999046326</ele>
        <time>2020-05-24T07:16:10.000Z</time>
      </trkpt>
      <trkpt lat="47.56857" lon="-2.26923">
        <ele>4.1999998092651</ele>
        <time>2020-05-24T07:16:11.000Z</time>
      </trkpt>
      <trkpt lat="47.56857" lon="-2.2692">
        <ele>3.7999999523163</ele>
        <time>2020-05-24T07:16:12.000Z</time>
      </trkpt>
      <trkpt lat="47.56856" lon="-2.26918">
        <ele>3.4000000953674</ele>
        <time>2020-05-24T07:16:13.000Z</time>
      </trkpt>
      <trkpt lat="47.56856" lon="-2.26916">
        <ele>2.7999999523163</ele>
        <time>2020-05-24T07:16:14.000Z</time>
      </trkpt>
      <trkpt lat="47.56853" lon="-2.26909">
        <ele>2.7999999523163</ele>
        <time>2020-05-24T07:16:20.000Z</time>
      </trkpt>
      <trkpt lat="47.5685" lon="-2.26895">
        <ele>3.7999999523163</ele>
        <time>2020-05-24T07:16:37.000Z</time>
      </trkpt>
      <trkpt lat="47.56849" lon="-2.26892">
        <ele>4.1999998092651</ele>
        <time>2020-05-24T07:16:38.000Z</time>
      </trkpt>
      <trkpt lat="47.56849" lon="-2.26891">
        <ele>4.5999999046326</ele>
        <time>2020-05-24T07:16:39.000Z</time>
      </trkpt>
      <trkpt lat="47.56849" lon="-2.26889">
        <ele>5</ele>
        <time>2020-05-24T07:16:40.000Z</time>
      </trkpt>
      <trkpt lat="47.56848" lon="-2.26883">
        <ele>5</ele>
        <time>2020-05-24T07:16:42.000Z</time>
      </trkpt>
      <trkpt lat="47.56845" lon="-2.26864">
        <ele>5</ele>
        <time>2020-05-24T07:16:48.000Z</time>
      </trkpt>
      <trkpt lat="47.56847" lon="-2.26846">
        <ele>5</ele>
        <time>2020-05-24T07:16:53.000Z</time>
      </trkpt>
      <trkpt lat="47.56849" lon="-2.26842">
        <ele>5</ele>
        <time>2020-05-24T07:16:54.000Z</time>
      </trkpt>
      <trkpt lat="47.5686" lon="-2.26836">
        <ele>4.5999999046326</ele>
        <time>2020-05-24T07:16:57.000Z</time>
      </trkpt>
      <trkpt lat="47.56865" lon="-2.26835">
        <ele>4.1999998092651</ele>
        <time>2020-05-24T07:16:58.000Z</time>
      </trkpt>
      <trkpt lat="47.5687" lon="-2.26834">
        <ele>3.5999999046326</ele>
        <time>2020-05-24T07:16:59.000Z</time>
      </trkpt>
      <trkpt lat="47.56876" lon="-2.26834">
        <ele>3.2000000476837</ele>
        <time>2020-05-24T07:17:00.000Z</time>
      </trkpt>
      <trkpt lat="47.56882" lon="-2.26834">
        <ele>2.7999999523163</ele>
        <time>2020-05-24T07:17:01.000Z</time>
      </trkpt>
      <trkpt lat="47.56888" lon="-2.26834">
        <ele>2.7999999523163</ele>
        <time>2020-05-24T07:17:02.000Z</time>
      </trkpt>
      <trkpt lat="47.56894" lon="-2.26834">
        <ele>2.4000000953674</ele>
        <time>2020-05-24T07:17:03.000Z</time>
      </trkpt>
      <trkpt lat="47.569" lon="-2.26833">
        <ele>2</ele>
        <time>2020-05-24T07:17:04.000Z</time>
      </trkpt>
      <trkpt lat="47.56906" lon="-2.26831">
        <ele>1.6000000238419</ele>
        <time>2020-05-24T07:17:05.000Z</time>
      </trkpt>
      <trkpt lat="47.5691" lon="-2.26827">
        <ele>1.2000000476837</ele>
        <time>2020-05-24T07:17:06.000Z</time>
      </trkpt>
      <trkpt lat="47.56914" lon="-2.26823">
        <ele>0.80000001192093</ele>
        <time>2020-05-24T07:17:07.000Z</time>
      </trkpt>
      <trkpt lat="47.56921" lon="-2.26806">
        <ele>0.80000001192093</ele>
        <time>2020-05-24T07:17:11.000Z</time>
      </trkpt>
      <trkpt lat="47.56924" lon="-2.26791">
        <ele>1.2000000476837</ele>
        <time>2020-05-24T07:17:15.000Z</time>
      </trkpt>
      <trkpt lat="47.56925" lon="-2.26788">
        <ele>1.6000000238419</ele>
        <time>2020-05-24T07:17:16.000Z</time>
      </trkpt>
      <trkpt lat="47.56926" lon="-2.26784">
        <ele>2</ele>
        <time>2020-05-24T07:17:17.000Z</time>
      </trkpt>
      <trkpt lat="47.56926" lon="-2.26781">
        <ele>2.7999999523163</ele>
        <time>2020-05-24T07:17:18.000Z</time>
      </trkpt>
      <trkpt lat="47.56928" lon="-2.26783">
        <ele>2.7999999523163</ele>
        <time>2020-05-24T07:17:21.000Z</time>
      </trkpt>
      <trkpt lat="47.56929" lon="-2.26785">
        <ele>2.7999999523163</ele>
        <time>2020-05-24T07:17:22.000Z</time>
      </trkpt>
      <trkpt lat="47.5693" lon="-2.26806">
        <ele>2.7999999523163</ele>
        <time>2020-05-24T07:17:28.000Z</time>
      </trkpt>
      <trkpt lat="47.5693" lon="-2.26832">
        <ele>2.7999999523163</ele>
        <time>2020-05-24T07:17:34.000Z</time>
      </trkpt>
      <trkpt lat="47.56936" lon="-2.26858">
        <ele>2.7999999523163</ele>
        <time>2020-05-24T07:17:40.000Z</time>
      </trkpt>
      <trkpt lat="47.56943" lon="-2.26884">
        <ele>2.7999999523163</ele>
        <time>2020-05-24T07:17:46.000Z</time>
      </trkpt>
      <trkpt lat="47.56952" lon="-2.26912">
        <ele>2.7999999523163</ele>
        <time>2020-05-24T07:17:52.000Z</time>
      </trkpt>
      <trkpt lat="47.56954" lon="-2.26916">
        <ele>2.7999999523163</ele>
        <time>2020-05-24T07:17:53.000Z</time>
      </trkpt>
      <trkpt lat="47.56963" lon="-2.26938">
        <ele>2.7999999523163</ele>
        <time>2020-05-24T07:17:58.000Z</time>
      </trkpt>
      <trkpt lat="47.5698" lon="-2.26972">
        <ele>2.7999999523163</ele>
        <time>2020-05-24T07:18:05.000Z</time>
      </trkpt>
      <trkpt lat="47.56999" lon="-2.26989">
        <ele>2.7999999523163</ele>
        <time>2020-05-24T07:18:10.000Z</time>
      </trkpt>
      <trkpt lat="47.57021" lon="-2.27004">
        <ele>2.7999999523163</ele>
        <time>2020-05-24T07:18:16.000Z</time>
      </trkpt>
      <trkpt lat="47.57054" lon="-2.27032">
        <ele>2.7999999523163</ele>
        <time>2020-05-24T07:18:24.000Z</time>
      </trkpt>
      <trkpt lat="47.57077" lon="-2.27049">
        <ele>2.7999999523163</ele>
        <time>2020-05-24T07:18:31.000Z</time>
      </trkpt>
      <trkpt lat="47.57098" lon="-2.27064">
        <ele>2.7999999523163</ele>
        <time>2020-05-24T07:18:36.000Z</time>
      </trkpt>
      <trkpt lat="47.57116" lon="-2.27076">
        <ele>2.4000000953674</ele>
        <time>2020-05-24T07:18:40.000Z</time>
      </trkpt>
      <trkpt lat="47.57121" lon="-2.27078">
        <ele>2</ele>
        <time>2020-05-24T07:18:41.000Z</time>
      </trkpt>
      <trkpt lat="47.57126" lon="-2.27081">
        <ele>1.6000000238419</ele>
        <time>2020-05-24T07:18:42.000Z</time>
      </trkpt>
      <trkpt lat="47.57131" lon="-2.27084">
        <ele>1</ele>
        <time>2020-05-24T07:18:43.000Z</time>
      </trkpt>
      <trkpt lat="47.57137" lon="-2.27088">
        <ele>0.60000002384186</ele>
        <time>2020-05-24T07:18:44.000Z</time>
      </trkpt>
      <trkpt lat="47.57143" lon="-2.27092">
        <ele>0.20000000298023</ele>
        <time>2020-05-24T07:18:45.000Z</time>
      </trkpt>
      <trkpt lat="47.57149" lon="-2.27096">
        <ele>-0.20000000298023</ele>
        <time>2020-05-24T07:18:46.000Z</time>
      </trkpt>
      <trkpt lat="47.57156" lon="-2.271">
        <ele>-0.80000001192093</ele>
        <time>2020-05-24T07:18:47.000Z</time>
      </trkpt>
      <trkpt lat="47.57161" lon="-2.27105">
        <ele>-1.2000000476837</ele>
        <time>2020-05-24T07:18:48.000Z</time>
      </trkpt>
      <trkpt lat="47.57167" lon="-2.2711">
        <ele>-1.7999999523163</ele>
        <time>2020-05-24T07:18:49.000Z</time>
      </trkpt>
      <trkpt lat="47.57171" lon="-2.27117">
        <ele>-2.4000000953674</ele>
        <time>2020-05-24T07:18:50.000Z</time>
      </trkpt>
      <trkpt lat="47.57175" lon="-2.27125">
        <ele>-3</ele>
        <time>2020-05-24T07:18:51.000Z</time>
      </trkpt>
      <trkpt lat="47.57179" lon="-2.27135">
        <ele>-3.5999999046326</ele>
        <time>2020-05-24T07:18:52.000Z</time>
      </trkpt>
      <trkpt lat="47.5718" lon="-2.27145">
        <ele>-4.1999998092651</ele>
        <time>2020-05-24T07:18:53.000Z</time>
      </trkpt>
      <trkpt lat="47.57182" lon="-2.27157">
        <ele>-4.8000001907349</ele>
        <time>2020-05-24T07:18:54.000Z</time>
      </trkpt>
      <trkpt lat="47.57184" lon="-2.27169">
        <ele>-5.1999998092651</ele>
        <time>2020-05-24T07:18:55.000Z</time>
      </trkpt>
      <trkpt lat="47.57185" lon="-2.27182">
        <ele>-6.1999998092651</ele>
        <time>2020-05-24T07:18:56.000Z</time>
      </trkpt>
      <trkpt lat="47.57185" lon="-2.27193">
        <ele>-6.5999999046326</ele>
        <time>2020-05-24T07:18:57.000Z</time>
      </trkpt>
      <trkpt lat="47.57187" lon="-2.27228">
        <ele>-7</ele>
        <time>2020-05-24T07:19:00.000Z</time>
      </trkpt>
      <trkpt lat="47.57188" lon="-2.27238">
        <ele>-7.4000000953674</ele>
        <time>2020-05-24T07:19:01.000Z</time>
      </trkpt>
      <trkpt lat="47.57188" lon="-2.27248">
        <ele>-7.8000001907349</ele>
        <time>2020-05-24T07:19:02.000Z</time>
      </trkpt>
      <trkpt lat="47.57188" lon="-2.27258">
        <ele>-8.1999998092651</ele>
        <time>2020-05-24T07:19:03.000Z</time>
      </trkpt>
      <trkpt lat="47.57188" lon="-2.27267">
        <ele>-8.6000003814697</ele>
        <time>2020-05-24T07:19:04.000Z</time>
      </trkpt>
      <trkpt lat="47.57189" lon="-2.27284">
        <ele>-8.6000003814697</ele>
        <time>2020-05-24T07:19:06.000Z</time>
      </trkpt>
      <trkpt lat="47.57194" lon="-2.27341">
        <ele>-8.6000003814697</ele>
        <time>2020-05-24T07:19:13.000Z</time>
      </trkpt>
      <trkpt lat="47.57198" lon="-2.27397">
        <ele>-8.6000003814697</ele>
        <time>2020-05-24T07:19:19.000Z</time>
      </trkpt>
      <trkpt lat="47.57199" lon="-2.27407">
        <ele>-9.1999998092651</ele>
        <time>2020-05-24T07:19:20.000Z</time>
      </trkpt>
      <trkpt lat="47.572" lon="-2.27418">
        <ele>-9.6000003814697</ele>
        <time>2020-05-24T07:19:21.000Z</time>
      </trkpt>
      <trkpt lat="47.57202" lon="-2.27429">
        <ele>-10</ele>
        <time>2020-05-24T07:19:22.000Z</time>
      </trkpt>
      <trkpt lat="47.57203" lon="-2.27441">
        <ele>-10.39999961853</ele>
        <time>2020-05-24T07:19:23.000Z</time>
      </trkpt>
      <trkpt lat="47.57204" lon="-2.27452">
        <ele>-11</ele>
        <time>2020-05-24T07:19:24.000Z</time>
      </trkpt>
      <trkpt lat="47.57204" lon="-2.27464">
        <ele>-11.39999961853</ele>
        <time>2020-05-24T07:19:25.000Z</time>
      </trkpt>
      <trkpt lat="47.57205" lon="-2.27475">
        <ele>-12</ele>
        <time>2020-05-24T07:19:26.000Z</time>
      </trkpt>
      <trkpt lat="47.57206" lon="-2.27487">
        <ele>-12.60000038147</ele>
        <time>2020-05-24T07:19:27.000Z</time>
      </trkpt>
      <trkpt lat="47.57207" lon="-2.27499">
        <ele>-13</ele>
        <time>2020-05-24T07:19:28.000Z</time>
      </trkpt>
      <trkpt lat="47.57208" lon="-2.2751">
        <ele>-13.60000038147</ele>
        <time>2020-05-24T07:19:29.000Z</time>
      </trkpt>
      <trkpt lat="47.57208" lon="-2.27522">
        <ele>-14.199999809265</ele>
        <time>2020-05-24T07:19:30.000Z</time>
      </trkpt>
      <trkpt lat="47.57209" lon="-2.27534">
        <ele>-14.60000038147</ele>
        <time>2020-05-24T07:19:31.000Z</time>
      </trkpt>
      <trkpt lat="47.57209" lon="-2.27545">
        <ele>-15.199999809265</ele>
        <time>2020-05-24T07:19:32.000Z</time>
      </trkpt>
      <trkpt lat="47.5721" lon="-2.27576">
        <ele>-15.60000038147</ele>
        <time>2020-05-24T07:19:35.000Z</time>
      </trkpt>
      <trkpt lat="47.57211" lon="-2.27586">
        <ele>-16</ele>
        <time>2020-05-24T07:19:36.000Z</time>
      </trkpt>
      <trkpt lat="47.57211" lon="-2.27596">
        <ele>-16.39999961853</ele>
        <time>2020-05-24T07:19:37.000Z</time>
      </trkpt>
      <trkpt lat="47.57212" lon="-2.27605">
        <ele>-16.799999237061</ele>
        <time>2020-05-24T07:19:38.000Z</time>
      </trkpt>
      <trkpt lat="47.57212" lon="-2.27613">
        <ele>-17.200000762939</ele>
        <time>2020-05-24T07:19:39.000Z</time>
      </trkpt>
      <trkpt lat="47.5722" lon="-2.2765">
        <ele>-17.200000762939</ele>
        <time>2020-05-24T07:19:44.000Z</time>
      </trkpt>
      <trkpt lat="47.57236" lon="-2.27717">
        <ele>-17.200000762939</ele>
        <time>2020-05-24T07:19:53.000Z</time>
      </trkpt>
      <trkpt lat="47.57248" lon="-2.27759">
        <ele>-17.60000038147</ele>
        <time>2020-05-24T07:19:58.000Z</time>
      </trkpt>
      <trkpt lat="47.5725" lon="-2.27768">
        <ele>-18.200000762939</ele>
        <time>2020-05-24T07:19:59.000Z</time>
      </trkpt>
      <trkpt lat="47.57252" lon="-2.27777">
        <ele>-18.60000038147</ele>
        <time>2020-05-24T07:20:00.000Z</time>
      </trkpt>
      <trkpt lat="47.57255" lon="-2.27787">
        <ele>-19</ele>
        <time>2020-05-24T07:20:01.000Z</time>
      </trkpt>
      <trkpt lat="47.57257" lon="-2.27797">
        <ele>-19.60000038147</ele>
        <time>2020-05-24T07:20:02.000Z</time>
      </trkpt>
      <trkpt lat="47.5726" lon="-2.27807">
        <ele>-19.60000038147</ele>
        <time>2020-05-24T07:20:03.000Z</time>
      </trkpt>
      <trkpt lat="47.57267" lon="-2.27831">
        <ele>-19.60000038147</ele>
        <time>2020-05-24T07:20:07.000Z</time>
      </trkpt>
      <trkpt lat="47.57272" lon="-2.27852">
        <ele>-19.60000038147</ele>
        <time>2020-05-24T07:20:13.000Z</time>
      </trkpt>
      <trkpt lat="47.57274" lon="-2.27858">
        <ele>-19.60000038147</ele>
        <time>2020-05-24T07:20:19.000Z</time>
      </trkpt>
      <trkpt lat="47.57278" lon="-2.27853">
        <ele>-19.200000762939</ele>
        <time>2020-05-24T07:20:26.000Z</time>
      </trkpt>
      <trkpt lat="47.57278" lon="-2.27853">
        <ele>-18.799999237061</ele>
        <time>2020-05-24T07:20:27.000Z</time>
      </trkpt>
      <trkpt lat="47.57279" lon="-2.27852">
        <ele>-18.39999961853</ele>
        <time>2020-05-24T07:20:28.000Z</time>
      </trkpt>
      <trkpt lat="47.5728" lon="-2.27851">
        <ele>-18</ele>
        <time>2020-05-24T07:20:29.000Z</time>
      </trkpt>
      <trkpt lat="47.5728" lon="-2.2785">
        <ele>-17.39999961853</ele>
        <time>2020-05-24T07:20:30.000Z</time>
      </trkpt>
      <trkpt lat="47.57283" lon="-2.27845">
        <ele>-17.39999961853</ele>
        <time>2020-05-24T07:20:35.000Z</time>
      </trkpt>
      <trkpt lat="47.57286" lon="-2.27836">
        <ele>-17.39999961853</ele>
        <time>2020-05-24T07:20:41.000Z</time>
      </trkpt>
      <trkpt lat="47.57288" lon="-2.27834">
        <ele>-17.39999961853</ele>
        <time>2020-05-24T07:20:44.000Z</time>
      </trkpt>
      <trkpt lat="47.57296" lon="-2.27824">
        <ele>-17.39999961853</ele>
        <time>2020-05-24T07:21:18.000Z</time>
      </trkpt>
      <trkpt lat="47.573" lon="-2.27824">
        <ele>-17.39999961853</ele>
        <time>2020-05-24T07:21:20.000Z</time>
      </trkpt>
      <trkpt lat="47.57306" lon="-2.27825">
        <ele>-17.39999961853</ele>
        <time>2020-05-24T07:21:22.000Z</time>
      </trkpt>
      <trkpt lat="47.57313" lon="-2.27825">
        <ele>-17.39999961853</ele>
        <time>2020-05-24T07:21:25.000Z</time>
      </trkpt>
      <trkpt lat="47.57315" lon="-2.27825">
        <ele>-17.39999961853</ele>
        <time>2020-05-24T07:21:26.000Z</time>
      </trkpt>
      <trkpt lat="47.57323" lon="-2.27828">
        <ele>-17.39999961853</ele>
        <time>2020-05-24T07:21:30.000Z</time>
      </trkpt>
      <trkpt lat="47.5733" lon="-2.27829">
        <ele>-17.39999961853</ele>
        <time>2020-05-24T07:21:34.000Z</time>
      </trkpt>
      <trkpt lat="47.57333" lon="-2.27834">
        <ele>-17.39999961853</ele>
        <time>2020-05-24T07:21:36.000Z</time>
      </trkpt>
      <trkpt lat="47.57342" lon="-2.27844">
        <ele>-17.39999961853</ele>
        <time>2020-05-24T07:21:41.000Z</time>
      </trkpt>
      <trkpt lat="47.57351" lon="-2.27846">
        <ele>-18</ele>
        <time>2020-05-24T07:21:44.000Z</time>
      </trkpt>
      <trkpt lat="47.57359" lon="-2.27844">
        <ele>-18.39999961853</ele>
        <time>2020-05-24T07:21:45.000Z</time>
      </trkpt>
      <trkpt lat="47.57365" lon="-2.27842">
        <ele>-18.799999237061</ele>
        <time>2020-05-24T07:21:46.000Z</time>
      </trkpt>
      <trkpt lat="47.5737" lon="-2.2784">
        <ele>-19.39999961853</ele>
        <time>2020-05-24T07:21:47.000Z</time>
      </trkpt>
      <trkpt lat="47.57374" lon="-2.27837">
        <ele>-19.799999237061</ele>
        <time>2020-05-24T07:21:48.000Z</time>
      </trkpt>
      <trkpt lat="47.57379" lon="-2.27831">
        <ele>-19.799999237061</ele>
        <time>2020-05-24T07:21:50.000Z</time>
      </trkpt>
      <trkpt lat="47.57381" lon="-2.27823">
        <ele>-19.799999237061</ele>
        <time>2020-05-24T07:21:53.000Z</time>
      </trkpt>
      <trkpt lat="47.57376" lon="-2.27804">
        <ele>-19.799999237061</ele>
        <time>2020-05-24T07:21:59.000Z</time>
      </trkpt>
      <trkpt lat="47.57377" lon="-2.27796">
        <ele>-19.39999961853</ele>
        <time>2020-05-24T07:22:01.000Z</time>
      </trkpt>
      <trkpt lat="47.57377" lon="-2.27792">
        <ele>-19</ele>
        <time>2020-05-24T07:22:02.000Z</time>
      </trkpt>
      <trkpt lat="47.57377" lon="-2.27789">
        <ele>-18.60000038147</ele>
        <time>2020-05-24T07:22:03.000Z</time>
      </trkpt>
      <trkpt lat="47.57376" lon="-2.27786">
        <ele>-18.200000762939</ele>
        <time>2020-05-24T07:22:04.000Z</time>
      </trkpt>
      <trkpt lat="47.57376" lon="-2.27782">
        <ele>-17.799999237061</ele>
        <time>2020-05-24T07:22:05.000Z</time>
      </trkpt>
      <trkpt lat="47.57379" lon="-2.27766">
        <ele>-17.799999237061</ele>
        <time>2020-05-24T07:22:10.000Z</time>
      </trkpt>
      <trkpt lat="47.57385" lon="-2.27749">
        <ele>-17.799999237061</ele>
        <time>2020-05-24T07:22:15.000Z</time>
      </trkpt>
      <trkpt lat="47.57393" lon="-2.27733">
        <ele>-17.799999237061</ele>
        <time>2020-05-24T07:22:20.000Z</time>
      </trkpt>
      <trkpt lat="47.57406" lon="-2.27723">
        <ele>-17.799999237061</ele>
        <time>2020-05-24T07:22:27.000Z</time>
      </trkpt>
      <trkpt lat="47.57412" lon="-2.27715">
        <ele>-17.799999237061</ele>
        <time>2020-05-24T07:22:34.000Z</time>
      </trkpt>
      <trkpt lat="47.57412" lon="-2.27713">
        <ele>-18.200000762939</ele>
        <time>2020-05-24T07:22:35.000Z</time>
      </trkpt>
      <trkpt lat="47.57411" lon="-2.27711">
        <ele>-18.60000038147</ele>
        <time>2020-05-24T07:22:36.000Z</time>
      </trkpt>
      <trkpt lat="47.57411" lon="-2.27708">
        <ele>-19</ele>
        <time>2020-05-24T07:22:37.000Z</time>
      </trkpt>
      <trkpt lat="47.5741" lon="-2.27705">
        <ele>-19.60000038147</ele>
        <time>2020-05-24T07:22:38.000Z</time>
      </trkpt>
      <trkpt lat="47.57409" lon="-2.27701">
        <ele>-20</ele>
        <time>2020-05-24T07:22:39.000Z</time>
      </trkpt>
      <trkpt lat="47.57409" lon="-2.27697">
        <ele>-20</ele>
        <time>2020-05-24T07:22:40.000Z</time>
      </trkpt>
      <trkpt lat="47.57408" lon="-2.27677">
        <ele>-20</ele>
        <time>2020-05-24T07:22:45.000Z</time>
      </trkpt>
      <trkpt lat="47.57406" lon="-2.27656">
        <ele>-20</ele>
        <time>2020-05-24T07:22:51.000Z</time>
      </trkpt>
      <trkpt lat="47.57412" lon="-2.27638">
        <ele>-20</ele>
        <time>2020-05-24T07:22:55.000Z</time>
      </trkpt>
      <trkpt lat="47.5742" lon="-2.27634">
        <ele>-20</ele>
        <time>2020-05-24T07:22:59.000Z</time>
      </trkpt>
      <trkpt lat="47.57423" lon="-2.27621">
        <ele>-20</ele>
        <time>2020-05-24T07:23:02.000Z</time>
      </trkpt>
      <trkpt lat="47.57425" lon="-2.27607">
        <ele>-20.39999961853</ele>
        <time>2020-05-24T07:23:06.000Z</time>
      </trkpt>
      <trkpt lat="47.57425" lon="-2.27603">
        <ele>-20.799999237061</ele>
        <time>2020-05-24T07:23:07.000Z</time>
      </trkpt>
      <trkpt lat="47.57425" lon="-2.276">
        <ele>-21.200000762939</ele>
        <time>2020-05-24T07:23:08.000Z</time>
      </trkpt>
      <trkpt lat="47.57424" lon="-2.27595">
        <ele>-21.799999237061</ele>
        <time>2020-05-24T07:23:09.000Z</time>
      </trkpt>
      <trkpt lat="47.57424" lon="-2.27591">
        <ele>-22.200000762939</ele>
        <time>2020-05-24T07:23:10.000Z</time>
      </trkpt>
      <trkpt lat="47.57422" lon="-2.27581">
        <ele>-22.60000038147</ele>
        <time>2020-05-24T07:23:12.000Z</time>
      </trkpt>
      <trkpt lat="47.5742" lon="-2.27578">
        <ele>-23</ele>
        <time>2020-05-24T07:23:13.000Z</time>
      </trkpt>
      <trkpt lat="47.57419" lon="-2.27573">
        <ele>-23.39999961853</ele>
        <time>2020-05-24T07:23:14.000Z</time>
      </trkpt>
      <trkpt lat="47.57418" lon="-2.2757">
        <ele>-24</ele>
        <time>2020-05-24T07:23:15.000Z</time>
      </trkpt>
      <trkpt lat="47.57416" lon="-2.27566">
        <ele>-24.39999961853</ele>
        <time>2020-05-24T07:23:16.000Z</time>
      </trkpt>
      <trkpt lat="47.57406" lon="-2.27561">
        <ele>-24.39999961853</ele>
        <time>2020-05-24T07:23:19.000Z</time>
      </trkpt>
      <trkpt lat="47.57394" lon="-2.2755">
        <ele>-24.39999961853</ele>
        <time>2020-05-24T07:23:24.000Z</time>
      </trkpt>
      <trkpt lat="47.57388" lon="-2.27544">
        <ele>-24.799999237061</ele>
        <time>2020-05-24T07:23:26.000Z</time>
      </trkpt>
      <trkpt lat="47.57385" lon="-2.27541">
        <ele>-25.200000762939</ele>
        <time>2020-05-24T07:23:27.000Z</time>
      </trkpt>
      <trkpt lat="47.57382" lon="-2.27538">
        <ele>-26.200000762939</ele>
        <time>2020-05-24T07:23:28.000Z</time>
      </trkpt>
      <trkpt lat="47.57379" lon="-2.27535">
        <ele>-26.60000038147</ele>
        <time>2020-05-24T07:23:29.000Z</time>
      </trkpt>
      <trkpt lat="47.57364" lon="-2.27521">
        <ele>-26.60000038147</ele>
        <time>2020-05-24T07:23:34.000Z</time>
      </trkpt>
      <trkpt lat="47.57362" lon="-2.27517">
        <ele>-26.60000038147</ele>
        <time>2020-05-24T07:23:35.000Z</time>
      </trkpt>
      <trkpt lat="47.57358" lon="-2.27507">
        <ele>-26.60000038147</ele>
        <time>2020-05-24T07:23:38.000Z</time>
      </trkpt>
      <trkpt lat="47.57354" lon="-2.27499">
        <ele>-27</ele>
        <time>2020-05-24T07:23:40.000Z</time>
      </trkpt>
      <trkpt lat="47.57354" lon="-2.27495">
        <ele>-27.60000038147</ele>
        <time>2020-05-24T07:23:41.000Z</time>
      </trkpt>
      <trkpt lat="47.57354" lon="-2.27492">
        <ele>-28</ele>
        <time>2020-05-24T07:23:42.000Z</time>
      </trkpt>
      <trkpt lat="47.57352" lon="-2.27485">
        <ele>-28.60000038147</ele>
        <time>2020-05-24T07:23:43.000Z</time>
      </trkpt>
      <trkpt lat="47.57351" lon="-2.2748">
        <ele>-29.200000762939</ele>
        <time>2020-05-24T07:23:44.000Z</time>
      </trkpt>
      <trkpt lat="47.57351" lon="-2.27474">
        <ele>-29.799999237061</ele>
        <time>2020-05-24T07:23:45.000Z</time>
      </trkpt>
      <trkpt lat="47.57351" lon="-2.27467">
        <ele>-30.39999961853</ele>
        <time>2020-05-24T07:23:46.000Z</time>
      </trkpt>
      <trkpt lat="47.57352" lon="-2.27459">
        <ele>-31.200000762939</ele>
        <time>2020-05-24T07:23:47.000Z</time>
      </trkpt>
      <trkpt lat="47.57352" lon="-2.27451">
        <ele>-32</ele>
        <time>2020-05-24T07:23:48.000Z</time>
      </trkpt>
      <trkpt lat="47.57352" lon="-2.27444">
        <ele>-32.799999237061</ele>
        <time>2020-05-24T07:23:49.000Z</time>
      </trkpt>
      <trkpt lat="47.57352" lon="-2.27439">
        <ele>-33.400001525879</ele>
        <time>2020-05-24T07:23:50.000Z</time>
      </trkpt>
      <trkpt lat="47.57352" lon="-2.27432">
        <ele>-34.200000762939</ele>
        <time>2020-05-24T07:23:51.000Z</time>
      </trkpt>
      <trkpt lat="47.5736" lon="-2.27406">
        <ele>-34.200000762939</ele>
        <time>2020-05-24T07:23:57.000Z</time>
      </trkpt>
      <trkpt lat="47.57367" lon="-2.27381">
        <ele>-34.200000762939</ele>
        <time>2020-05-24T07:24:03.000Z</time>
      </trkpt>
      <trkpt lat="47.57366" lon="-2.27363">
        <ele>-34.200000762939</ele>
        <time>2020-05-24T07:24:08.000Z</time>
      </trkpt>
      <trkpt lat="47.57368" lon="-2.27337">
        <ele>-34.200000762939</ele>
        <time>2020-05-24T07:24:13.000Z</time>
      </trkpt>
      <trkpt lat="47.57374" lon="-2.27312">
        <ele>-34.799999237061</ele>
        <time>2020-05-24T07:24:18.000Z</time>
      </trkpt>
      <trkpt lat="47.57375" lon="-2.27308">
        <ele>-35.200000762939</ele>
        <time>2020-05-24T07:24:19.000Z</time>
      </trkpt>
      <trkpt lat="47.57375" lon="-2.27303">
        <ele>-35.799999237061</ele>
        <time>2020-05-24T07:24:20.000Z</time>
      </trkpt>
      <trkpt lat="47.57376" lon="-2.27299">
        <ele>-36.400001525879</ele>
        <time>2020-05-24T07:24:21.000Z</time>
      </trkpt>
      <trkpt lat="47.57377" lon="-2.27295">
        <ele>-37</ele>
        <time>2020-05-24T07:24:22.000Z</time>
      </trkpt>
      <trkpt lat="47.57377" lon="-2.27292">
        <ele>-37.599998474121</ele>
        <time>2020-05-24T07:24:23.000Z</time>
      </trkpt>
      <trkpt lat="47.57376" lon="-2.27289">
        <ele>-38.200000762939</ele>
        <time>2020-05-24T07:24:24.000Z</time>
      </trkpt>
      <trkpt lat="47.57375" lon="-2.27287">
        <ele>-38.799999237061</ele>
        <time>2020-05-24T07:24:25.000Z</time>
      </trkpt>
      <trkpt lat="47.57369" lon="-2.27281">
        <ele>-38.799999237061</ele>
        <time>2020-05-24T07:24:28.000Z</time>
      </trkpt>
      <trkpt lat="47.57365" lon="-2.27276">
        <ele>-38.799999237061</ele>
        <time>2020-05-24T07:24:30.000Z</time>
      </trkpt>
      <trkpt lat="47.57355" lon="-2.27264">
        <ele>-38.799999237061</ele>
        <time>2020-05-24T07:24:36.000Z</time>
      </trkpt>
      <trkpt lat="47.57348" lon="-2.27254">
        <ele>-38.799999237061</ele>
        <time>2020-05-24T07:24:42.000Z</time>
      </trkpt>
      <trkpt lat="47.57345" lon="-2.27251">
        <ele>-38.400001525879</ele>
        <time>2020-05-24T07:24:44.000Z</time>
      </trkpt>
      <trkpt lat="47.57344" lon="-2.27249">
        <ele>-38</ele>
        <time>2020-05-24T07:24:45.000Z</time>
      </trkpt>
      <trkpt lat="47.57342" lon="-2.27247">
        <ele>-37.400001525879</ele>
        <time>2020-05-24T07:24:46.000Z</time>
      </trkpt>
      <trkpt lat="47.57341" lon="-2.27246">
        <ele>-37</ele>
        <time>2020-05-24T07:24:47.000Z</time>
      </trkpt>
      <trkpt lat="47.5734" lon="-2.27245">
        <ele>-36.599998474121</ele>
        <time>2020-05-24T07:24:48.000Z</time>
      </trkpt>
      <trkpt lat="47.57337" lon="-2.27238">
        <ele>-36.200000762939</ele>
        <time>2020-05-24T07:24:53.000Z</time>
      </trkpt>
      <trkpt lat="47.57337" lon="-2.27236">
        <ele>-35.799999237061</ele>
        <time>2020-05-24T07:24:54.000Z</time>
      </trkpt>
      <trkpt lat="47.57337" lon="-2.27235">
        <ele>-35.400001525879</ele>
        <time>2020-05-24T07:24:55.000Z</time>
      </trkpt>
      <trkpt lat="47.57338" lon="-2.27233">
        <ele>-35</ele>
        <time>2020-05-24T07:24:56.000Z</time>
      </trkpt>
      <trkpt lat="47.57339" lon="-2.27232">
        <ele>-34.599998474121</ele>
        <time>2020-05-24T07:24:57.000Z</time>
      </trkpt>
      <trkpt lat="47.57348" lon="-2.27229">
        <ele>-34.599998474121</ele>
        <time>2020-05-24T07:25:01.000Z</time>
      </trkpt>
      <trkpt lat="47.57362" lon="-2.27227">
        <ele>-34.599998474121</ele>
        <time>2020-05-24T07:25:08.000Z</time>
      </trkpt>
      <trkpt lat="47.57373" lon="-2.27223">
        <ele>-34.599998474121</ele>
        <time>2020-05-24T07:25:15.000Z</time>
      </trkpt>
      <trkpt lat="47.57377" lon="-2.27222">
        <ele>-34.599998474121</ele>
        <time>2020-05-24T07:25:17.000Z</time>
      </trkpt>
      <trkpt lat="47.5738" lon="-2.27216">
        <ele>-34.599998474121</ele>
        <time>2020-05-24T07:25:20.000Z</time>
      </trkpt>
      <trkpt lat="47.5738" lon="-2.27214">
        <ele>-34.599998474121</ele>
        <time>2020-05-24T07:25:21.000Z</time>
      </trkpt>
      <trkpt lat="47.5738" lon="-2.27209">
        <ele>-34.200000762939</ele>
        <time>2020-05-24T07:25:23.000Z</time>
      </trkpt>
      <trkpt lat="47.5738" lon="-2.27208">
        <ele>-33.599998474121</ele>
        <time>2020-05-24T07:25:24.000Z</time>
      </trkpt>
      <trkpt lat="47.5738" lon="-2.27206">
        <ele>-33.200000762939</ele>
        <time>2020-05-24T07:25:25.000Z</time>
      </trkpt>
      <trkpt lat="47.57381" lon="-2.27204">
        <ele>-32.799999237061</ele>
        <time>2020-05-24T07:25:26.000Z</time>
      </trkpt>
      <trkpt lat="47.57381" lon="-2.27202">
        <ele>-32.400001525879</ele>
        <time>2020-05-24T07:25:27.000Z</time>
      </trkpt>
      <trkpt lat="47.57381" lon="-2.27189">
        <ele>-31.39999961853</ele>
        <time>2020-05-24T07:25:33.000Z</time>
      </trkpt>
      <trkpt lat="47.57382" lon="-2.27188">
        <ele>-31</ele>
        <time>2020-05-24T07:25:34.000Z</time>
      </trkpt>
      <trkpt lat="47.57382" lon="-2.27187">
        <ele>-30.60000038147</ele>
        <time>2020-05-24T07:25:35.000Z</time>
      </trkpt>
      <trkpt lat="47.57383" lon="-2.27186">
        <ele>-30.200000762939</ele>
        <time>2020-05-24T07:25:36.000Z</time>
      </trkpt>
      <trkpt lat="47.57385" lon="-2.27182">
        <ele>-30.200000762939</ele>
        <time>2020-05-24T07:25:38.000Z</time>
      </trkpt>
      <trkpt lat="47.57386" lon="-2.27179">
        <ele>-30.200000762939</ele>
        <time>2020-05-24T07:25:39.000Z</time>
      </trkpt>
      <trkpt lat="47.57386" lon="-2.27177">
        <ele>-30.200000762939</ele>
        <time>2020-05-24T07:25:40.000Z</time>
      </trkpt>
      <trkpt lat="47.57388" lon="-2.27169">
        <ele>-30.200000762939</ele>
        <time>2020-05-24T07:25:43.000Z</time>
      </trkpt>
      <trkpt lat="47.57388" lon="-2.27164">
        <ele>-30.200000762939</ele>
        <time>2020-05-24T07:25:45.000Z</time>
      </trkpt>
      <trkpt lat="47.5739" lon="-2.27158">
        <ele>-30.200000762939</ele>
        <time>2020-05-24T07:25:48.000Z</time>
      </trkpt>
      <trkpt lat="47.57391" lon="-2.27155">
        <ele>-30.200000762939</ele>
        <time>2020-05-24T07:25:49.000Z</time>
      </trkpt>
      <trkpt lat="47.57394" lon="-2.27147">
        <ele>-30.200000762939</ele>
        <time>2020-05-24T07:25:52.000Z</time>
      </trkpt>
      <trkpt lat="47.57394" lon="-2.27131">
        <ele>-30.200000762939</ele>
        <time>2020-05-24T07:25:57.000Z</time>
      </trkpt>
      <trkpt lat="47.57392" lon="-2.27125">
        <ele>-30.200000762939</ele>
        <time>2020-05-24T07:26:00.000Z</time>
      </trkpt>
      <trkpt lat="47.57389" lon="-2.27118">
        <ele>-30.200000762939</ele>
        <time>2020-05-24T07:26:03.000Z</time>
      </trkpt>
      <trkpt lat="47.57388" lon="-2.27117">
        <ele>-29.60000038147</ele>
        <time>2020-05-24T07:26:04.000Z</time>
      </trkpt>
      <trkpt lat="47.57387" lon="-2.27115">
        <ele>-29.200000762939</ele>
        <time>2020-05-24T07:26:05.000Z</time>
      </trkpt>
      <trkpt lat="47.57385" lon="-2.27115">
        <ele>-28.799999237061</ele>
        <time>2020-05-24T07:26:06.000Z</time>
      </trkpt>
      <trkpt lat="47.57384" lon="-2.27114">
        <ele>-28.39999961853</ele>
        <time>2020-05-24T07:26:07.000Z</time>
      </trkpt>
      <trkpt lat="47.57383" lon="-2.27114">
        <ele>-28</ele>
        <time>2020-05-24T07:26:08.000Z</time>
      </trkpt>
      <trkpt lat="47.57378" lon="-2.27111">
        <ele>-27.60000038147</ele>
        <time>2020-05-24T07:26:13.000Z</time>
      </trkpt>
      <trkpt lat="47.57353" lon="-2.27078">
        <ele>-26</ele>
        <time>2020-05-24T07:26:40.000Z</time>
      </trkpt>
      <trkpt lat="47.57344" lon="-2.27059">
        <ele>-26</ele>
        <time>2020-05-24T07:26:47.000Z</time>
      </trkpt>
      <trkpt lat="47.57334" lon="-2.2705">
        <ele>-26</ele>
        <time>2020-05-24T07:26:52.000Z</time>
      </trkpt>
      <trkpt lat="47.5733" lon="-2.27047">
        <ele>-26</ele>
        <time>2020-05-24T07:26:55.000Z</time>
      </trkpt>
      <trkpt lat="47.57318" lon="-2.27017">
        <ele>-25.60000038147</ele>
        <time>2020-05-24T07:27:58.000Z</time>
      </trkpt>
      <trkpt lat="47.57321" lon="-2.27015">
        <ele>-26</ele>
        <time>2020-05-24T07:27:59.000Z</time>
      </trkpt>
      <trkpt lat="47.57323" lon="-2.27014">
        <ele>-26.60000038147</ele>
        <time>2020-05-24T07:28:00.000Z</time>
      </trkpt>
      <trkpt lat="47.57325" lon="-2.27012">
        <ele>-27.799999237061</ele>
        <time>2020-05-24T07:28:01.000Z</time>
      </trkpt>
      <trkpt lat="47.57327" lon="-2.2701">
        <ele>-28.39999961853</ele>
        <time>2020-05-24T07:28:02.000Z</time>
      </trkpt>
      <trkpt lat="47.57328" lon="-2.27009">
        <ele>-29</ele>
        <time>2020-05-24T07:28:03.000Z</time>
      </trkpt>
      <trkpt lat="47.5733" lon="-2.27007">
        <ele>-29.60000038147</ele>
        <time>2020-05-24T07:28:04.000Z</time>
      </trkpt>
      <trkpt lat="47.57331" lon="-2.27006">
        <ele>-30.200000762939</ele>
        <time>2020-05-24T07:28:05.000Z</time>
      </trkpt>
      <trkpt lat="47.57333" lon="-2.27005">
        <ele>-31</ele>
        <time>2020-05-24T07:28:06.000Z</time>
      </trkpt>
      <trkpt lat="47.57334" lon="-2.27003">
        <ele>-31.60000038147</ele>
        <time>2020-05-24T07:28:07.000Z</time>
      </trkpt>
      <trkpt lat="47.57335" lon="-2.27">
        <ele>-32.200000762939</ele>
        <time>2020-05-24T07:28:08.000Z</time>
      </trkpt>
      <trkpt lat="47.57337" lon="-2.26998">
        <ele>-32.799999237061</ele>
        <time>2020-05-24T07:28:09.000Z</time>
      </trkpt>
      <trkpt lat="47.57337" lon="-2.26998">
        <ele>-33.400001525879</ele>
        <time>2020-05-24T07:28:10.000Z</time>
      </trkpt>
      <trkpt lat="47.57334" lon="-2.26994">
        <ele>-35.200000762939</ele>
        <time>2020-05-24T07:28:27.000Z</time>
      </trkpt>
      <trkpt lat="47.57333" lon="-2.2698">
        <ele>-35.200000762939</ele>
        <time>2020-05-24T07:28:33.000Z</time>
      </trkpt>
      <trkpt lat="47.57335" lon="-2.26966">
        <ele>-35.200000762939</ele>
        <time>2020-05-24T07:28:40.000Z</time>
      </trkpt>
      <trkpt lat="47.57333" lon="-2.2696">
        <ele>-34.400001525879</ele>
        <time>2020-05-24T07:28:46.000Z</time>
      </trkpt>
      <trkpt lat="47.57333" lon="-2.26957">
        <ele>-34</ele>
        <time>2020-05-24T07:28:47.000Z</time>
      </trkpt>
      <trkpt lat="47.57332" lon="-2.26954">
        <ele>-33.599998474121</ele>
        <time>2020-05-24T07:28:48.000Z</time>
      </trkpt>
      <trkpt lat="47.57331" lon="-2.26951">
        <ele>-33.200000762939</ele>
        <time>2020-05-24T07:28:49.000Z</time>
      </trkpt>
      <trkpt lat="47.57331" lon="-2.26947">
        <ele>-33.200000762939</ele>
        <time>2020-05-24T07:28:50.000Z</time>
      </trkpt>
      <trkpt lat="47.5733" lon="-2.26944">
        <ele>-32.799999237061</ele>
        <time>2020-05-24T07:28:51.000Z</time>
      </trkpt>
      <trkpt lat="47.57329" lon="-2.2694">
        <ele>-32.400001525879</ele>
        <time>2020-05-24T07:28:52.000Z</time>
      </trkpt>
      <trkpt lat="47.57328" lon="-2.26937">
        <ele>-32</ele>
        <time>2020-05-24T07:28:53.000Z</time>
      </trkpt>
      <trkpt lat="47.57328" lon="-2.26934">
        <ele>-31.60000038147</ele>
        <time>2020-05-24T07:28:54.000Z</time>
      </trkpt>
      <trkpt lat="47.57327" lon="-2.26931">
        <ele>-31</ele>
        <time>2020-05-24T07:28:55.000Z</time>
      </trkpt>
      <trkpt lat="47.57327" lon="-2.26926">
        <ele>-31</ele>
        <time>2020-05-24T07:28:57.000Z</time>
      </trkpt>
      <trkpt lat="47.57327" lon="-2.26917">
        <ele>-30.60000038147</ele>
        <time>2020-05-24T07:29:00.000Z</time>
      </trkpt>
      <trkpt lat="47.57327" lon="-2.26914">
        <ele>-30.200000762939</ele>
        <time>2020-05-24T07:29:01.000Z</time>
      </trkpt>
      <trkpt lat="47.57327" lon="-2.26912">
        <ele>-29.799999237061</ele>
        <time>2020-05-24T07:29:02.000Z</time>
      </trkpt>
      <trkpt lat="47.57326" lon="-2.2691">
        <ele>-29.39999961853</ele>
        <time>2020-05-24T07:29:03.000Z</time>
      </trkpt>
      <trkpt lat="47.57326" lon="-2.26908">
        <ele>-29</ele>
        <time>2020-05-24T07:29:04.000Z</time>
      </trkpt>
      <trkpt lat="47.57326" lon="-2.26905">
        <ele>-29</ele>
        <time>2020-05-24T07:29:05.000Z</time>
      </trkpt>
      <trkpt lat="47.57325" lon="-2.26893">
        <ele>-28.60000038147</ele>
        <time>2020-05-24T07:29:09.000Z</time>
      </trkpt>
      <trkpt lat="47.57324" lon="-2.2689">
        <ele>-28.200000762939</ele>
        <time>2020-05-24T07:29:10.000Z</time>
      </trkpt>
      <trkpt lat="47.57323" lon="-2.26887">
        <ele>-27.60000038147</ele>
        <time>2020-05-24T07:29:11.000Z</time>
      </trkpt>
      <trkpt lat="47.57322" lon="-2.26883">
        <ele>-27.200000762939</ele>
        <time>2020-05-24T07:29:12.000Z</time>
      </trkpt>
      <trkpt lat="47.57322" lon="-2.26879">
        <ele>-26.799999237061</ele>
        <time>2020-05-24T07:29:13.000Z</time>
      </trkpt>
      <trkpt lat="47.5732" lon="-2.26868">
        <ele>-26.200000762939</ele>
        <time>2020-05-24T07:29:16.000Z</time>
      </trkpt>
      <trkpt lat="47.5732" lon="-2.26865">
        <ele>-25.799999237061</ele>
        <time>2020-05-24T07:29:17.000Z</time>
      </trkpt>
      <trkpt lat="47.57319" lon="-2.26861">
        <ele>-25.39999961853</ele>
        <time>2020-05-24T07:29:18.000Z</time>
      </trkpt>
      <trkpt lat="47.57318" lon="-2.26858">
        <ele>-25</ele>
        <time>2020-05-24T07:29:19.000Z</time>
      </trkpt>
      <trkpt lat="47.57317" lon="-2.26855">
        <ele>-24.60000038147</ele>
        <time>2020-05-24T07:29:20.000Z</time>
      </trkpt>
      <trkpt lat="47.57313" lon="-2.26842">
        <ele>-24.200000762939</ele>
        <time>2020-05-24T07:29:23.000Z</time>
      </trkpt>
      <trkpt lat="47.57313" lon="-2.26839">
        <ele>-23.799999237061</ele>
        <time>2020-05-24T07:29:24.000Z</time>
      </trkpt>
      <trkpt lat="47.57313" lon="-2.26836">
        <ele>-23.39999961853</ele>
        <time>2020-05-24T07:29:25.000Z</time>
      </trkpt>
      <trkpt lat="47.57313" lon="-2.26833">
        <ele>-23</ele>
        <time>2020-05-24T07:29:26.000Z</time>
      </trkpt>
      <trkpt lat="47.57313" lon="-2.2683">
        <ele>-22.60000038147</ele>
        <time>2020-05-24T07:29:27.000Z</time>
      </trkpt>
      <trkpt lat="47.57312" lon="-2.26822">
        <ele>-22.200000762939</ele>
        <time>2020-05-24T07:29:30.000Z</time>
      </trkpt>
      <trkpt lat="47.57312" lon="-2.26819">
        <ele>-21.799999237061</ele>
        <time>2020-05-24T07:29:31.000Z</time>
      </trkpt>
      <trkpt lat="47.57312" lon="-2.26816">
        <ele>-21.39999961853</ele>
        <time>2020-05-24T07:29:32.000Z</time>
      </trkpt>
      <trkpt lat="47.57312" lon="-2.26814">
        <ele>-20.799999237061</ele>
        <time>2020-05-24T07:29:33.000Z</time>
      </trkpt>
      <trkpt lat="47.57312" lon="-2.26811">
        <ele>-20.39999961853</ele>
        <time>2020-05-24T07:29:34.000Z</time>
      </trkpt>
      <trkpt lat="47.57314" lon="-2.26793">
        <ele>-19.60000038147</ele>
        <time>2020-05-24T07:29:40.000Z</time>
      </trkpt>
      <trkpt lat="47.57314" lon="-2.26791">
        <ele>-19.200000762939</ele>
        <time>2020-05-24T07:29:41.000Z</time>
      </trkpt>
      <trkpt lat="47.57314" lon="-2.26788">
        <ele>-18.799999237061</ele>
        <time>2020-05-24T07:29:42.000Z</time>
      </trkpt>
      <trkpt lat="47.57314" lon="-2.26785">
        <ele>-18.39999961853</ele>
        <time>2020-05-24T07:29:43.000Z</time>
      </trkpt>
      <trkpt lat="47.57314" lon="-2.26776">
        <ele>-18.39999961853</ele>
        <time>2020-05-24T07:29:46.000Z</time>
      </trkpt>
      <trkpt lat="47.57313" lon="-2.26773">
        <ele>-18</ele>
        <time>2020-05-24T07:29:47.000Z</time>
      </trkpt>
      <trkpt lat="47.57313" lon="-2.2677">
        <ele>-17.60000038147</ele>
        <time>2020-05-24T07:29:48.000Z</time>
      </trkpt>
      <trkpt lat="47.57312" lon="-2.26767">
        <ele>-17.200000762939</ele>
        <time>2020-05-24T07:29:49.000Z</time>
      </trkpt>
      <trkpt lat="47.57312" lon="-2.26763">
        <ele>-16.799999237061</ele>
        <time>2020-05-24T07:29:50.000Z</time>
      </trkpt>
      <trkpt lat="47.57311" lon="-2.2676">
        <ele>-16.39999961853</ele>
        <time>2020-05-24T07:29:51.000Z</time>
      </trkpt>
      <trkpt lat="47.5731" lon="-2.26751">
        <ele>-16.39999961853</ele>
        <time>2020-05-24T07:29:54.000Z</time>
      </trkpt>
      <trkpt lat="47.57307" lon="-2.26725">
        <ele>-16.39999961853</ele>
        <time>2020-05-24T07:30:03.000Z</time>
      </trkpt>
      <trkpt lat="47.57307" lon="-2.26715">
        <ele>-16.39999961853</ele>
        <time>2020-05-24T07:30:10.000Z</time>
      </trkpt>
      <trkpt lat="47.57307" lon="-2.26709">
        <ele>-16.39999961853</ele>
        <time>2020-05-24T07:33:21.000Z</time>
      </trkpt>
      <trkpt lat="47.5731" lon="-2.26705">
        <ele>-16.39999961853</ele>
        <time>2020-05-24T07:33:24.000Z</time>
      </trkpt>
      <trkpt lat="47.57317" lon="-2.26699">
        <ele>-16.39999961853</ele>
        <time>2020-05-24T07:33:28.000Z</time>
      </trkpt>
      <trkpt lat="47.5732" lon="-2.26694">
        <ele>-16.39999961853</ele>
        <time>2020-05-24T07:33:30.000Z</time>
      </trkpt>
      <trkpt lat="47.57326" lon="-2.26678">
        <ele>-16.39999961853</ele>
        <time>2020-05-24T07:33:35.000Z</time>
      </trkpt>
      <trkpt lat="47.57328" lon="-2.26657">
        <ele>-16.39999961853</ele>
        <time>2020-05-24T07:33:40.000Z</time>
      </trkpt>
      <trkpt lat="47.57331" lon="-2.26622">
        <ele>-16.39999961853</ele>
        <time>2020-05-24T07:33:49.000Z</time>
      </trkpt>
      <trkpt lat="47.57335" lon="-2.26589">
        <ele>-16.39999961853</ele>
        <time>2020-05-24T07:33:57.000Z</time>
      </trkpt>
      <trkpt lat="47.57339" lon="-2.26556">
        <ele>-16</ele>
        <time>2020-05-24T07:34:06.000Z</time>
      </trkpt>
      <trkpt lat="47.57339" lon="-2.26553">
        <ele>-15.60000038147</ele>
        <time>2020-05-24T07:34:07.000Z</time>
      </trkpt>
      <trkpt lat="47.5734" lon="-2.2655">
        <ele>-15</ele>
        <time>2020-05-24T07:34:08.000Z</time>
      </trkpt>
      <trkpt lat="47.5734" lon="-2.26547">
        <ele>-14.60000038147</ele>
        <time>2020-05-24T07:34:09.000Z</time>
      </trkpt>
      <trkpt lat="47.5734" lon="-2.26544">
        <ele>-14.199999809265</ele>
        <time>2020-05-24T07:34:10.000Z</time>
      </trkpt>
      <trkpt lat="47.57341" lon="-2.26534">
        <ele>-14.199999809265</ele>
        <time>2020-05-24T07:34:13.000Z</time>
      </trkpt>
      <trkpt lat="47.57342" lon="-2.26524">
        <ele>-13.800000190735</ele>
        <time>2020-05-24T07:34:16.000Z</time>
      </trkpt>
      <trkpt lat="47.57342" lon="-2.26522">
        <ele>-13.39999961853</ele>
        <time>2020-05-24T07:34:17.000Z</time>
      </trkpt>
      <trkpt lat="47.57342" lon="-2.26519">
        <ele>-13</ele>
        <time>2020-05-24T07:34:18.000Z</time>
      </trkpt>
      <trkpt lat="47.57343" lon="-2.26517">
        <ele>-12.60000038147</ele>
        <time>2020-05-24T07:34:19.000Z</time>
      </trkpt>
      <trkpt lat="47.57343" lon="-2.26514">
        <ele>-12.199999809265</ele>
        <time>2020-05-24T07:34:20.000Z</time>
      </trkpt>
      <trkpt lat="47.57345" lon="-2.26504">
        <ele>-11.800000190735</ele>
        <time>2020-05-24T07:34:24.000Z</time>
      </trkpt>
      <trkpt lat="47.57345" lon="-2.26501">
        <ele>-11.39999961853</ele>
        <time>2020-05-24T07:34:25.000Z</time>
      </trkpt>
      <trkpt lat="47.57345" lon="-2.26499">
        <ele>-11</ele>
        <time>2020-05-24T07:34:26.000Z</time>
      </trkpt>
      <trkpt lat="47.57345" lon="-2.26497">
        <ele>-10.60000038147</ele>
        <time>2020-05-24T07:34:27.000Z</time>
      </trkpt>
      <trkpt lat="47.57345" lon="-2.26494">
        <ele>-10.199999809265</ele>
        <time>2020-05-24T07:34:28.000Z</time>
      </trkpt>
      <trkpt lat="47.57345" lon="-2.26484">
        <ele>-9.6000003814697</ele>
        <time>2020-05-24T07:34:32.000Z</time>
      </trkpt>
      <trkpt lat="47.57346" lon="-2.26482">
        <ele>-9.1999998092651</ele>
        <time>2020-05-24T07:34:33.000Z</time>
      </trkpt>
      <trkpt lat="47.57346" lon="-2.26479">
        <ele>-8.8000001907349</ele>
        <time>2020-05-24T07:34:34.000Z</time>
      </trkpt>
      <trkpt lat="47.57346" lon="-2.26476">
        <ele>-8.3999996185303</ele>
        <time>2020-05-24T07:34:35.000Z</time>
      </trkpt>
      <trkpt lat="47.57347" lon="-2.26474">
        <ele>-7.8000001907349</ele>
        <time>2020-05-24T07:34:36.000Z</time>
      </trkpt>
      <trkpt lat="47.57349" lon="-2.26465">
        <ele>-7.4000000953674</ele>
        <time>2020-05-24T07:34:39.000Z</time>
      </trkpt>
      <trkpt lat="47.57351" lon="-2.26463">
        <ele>-7</ele>
        <time>2020-05-24T07:34:40.000Z</time>
      </trkpt>
      <trkpt lat="47.57352" lon="-2.26461">
        <ele>-6.5999999046326</ele>
        <time>2020-05-24T07:34:41.000Z</time>
      </trkpt>
      <trkpt lat="47.57353" lon="-2.26459">
        <ele>-6.1999998092651</ele>
        <time>2020-05-24T07:34:42.000Z</time>
      </trkpt>
      <trkpt lat="47.57354" lon="-2.26458">
        <ele>-5.8000001907349</ele>
        <time>2020-05-24T07:34:43.000Z</time>
      </trkpt>
      <trkpt lat="47.57357" lon="-2.26455">
        <ele>-5.8000001907349</ele>
        <time>2020-05-24T07:34:45.000Z</time>
      </trkpt>
      <trkpt lat="47.57364" lon="-2.26452">
        <ele>-5.8000001907349</ele>
        <time>2020-05-24T07:34:50.000Z</time>
      </trkpt>
      <trkpt lat="47.57366" lon="-2.26451">
        <ele>-5.8000001907349</ele>
        <time>2020-05-24T07:34:51.000Z</time>
      </trkpt>
      <trkpt lat="47.57375" lon="-2.26446">
        <ele>-5.8000001907349</ele>
        <time>2020-05-24T07:34:58.000Z</time>
      </trkpt>
      <trkpt lat="47.5738" lon="-2.26443">
        <ele>-5.8000001907349</ele>
        <time>2020-05-24T07:35:01.000Z</time>
      </trkpt>
      <trkpt lat="47.57385" lon="-2.2644">
        <ele>-5.8000001907349</ele>
        <time>2020-05-24T07:35:03.000Z</time>
      </trkpt>
      <trkpt lat="47.57404" lon="-2.2643">
        <ele>-5.8000001907349</ele>
        <time>2020-05-24T07:35:07.000Z</time>
      </trkpt>
      <trkpt lat="47.5741" lon="-2.26426">
        <ele>-5.8000001907349</ele>
        <time>2020-05-24T07:35:08.000Z</time>
      </trkpt>
      <trkpt lat="47.57432" lon="-2.26411">
        <ele>-5.8000001907349</ele>
        <time>2020-05-24T07:35:12.000Z</time>
      </trkpt>
      <trkpt lat="47.57443" lon="-2.26407">
        <ele>-6.1999998092651</ele>
        <time>2020-05-24T07:35:14.000Z</time>
      </trkpt>
      <trkpt lat="47.57448" lon="-2.26405">
        <ele>-6.5999999046326</ele>
        <time>2020-05-24T07:35:15.000Z</time>
      </trkpt>
      <trkpt lat="47.57454" lon="-2.26403">
        <ele>-7</ele>
        <time>2020-05-24T07:35:16.000Z</time>
      </trkpt>
      <trkpt lat="47.57458" lon="-2.26402">
        <ele>-7.4000000953674</ele>
        <time>2020-05-24T07:35:17.000Z</time>
      </trkpt>
      <trkpt lat="47.57463" lon="-2.26401">
        <ele>-8</ele>
        <time>2020-05-24T07:35:18.000Z</time>
      </trkpt>
      <trkpt lat="47.57469" lon="-2.26399">
        <ele>-8.6000003814697</ele>
        <time>2020-05-24T07:35:19.000Z</time>
      </trkpt>
      <trkpt lat="47.57476" lon="-2.26394">
        <ele>-9.1999998092651</ele>
        <time>2020-05-24T07:35:20.000Z</time>
      </trkpt>
      <trkpt lat="47.57481" lon="-2.26387">
        <ele>-9.8000001907349</ele>
        <time>2020-05-24T07:35:21.000Z</time>
      </trkpt>
      <trkpt lat="47.57485" lon="-2.2638">
        <ele>-10.39999961853</ele>
        <time>2020-05-24T07:35:22.000Z</time>
      </trkpt>
      <trkpt lat="47.5749" lon="-2.26372">
        <ele>-11</ele>
        <time>2020-05-24T07:35:23.000Z</time>
      </trkpt>
      <trkpt lat="47.57494" lon="-2.26364">
        <ele>-11.800000190735</ele>
        <time>2020-05-24T07:35:24.000Z</time>
      </trkpt>
      <trkpt lat="47.57498" lon="-2.26357">
        <ele>-12.39999961853</ele>
        <time>2020-05-24T07:35:25.000Z</time>
      </trkpt>
      <trkpt lat="47.57502" lon="-2.26348">
        <ele>-13.39999961853</ele>
        <time>2020-05-24T07:35:26.000Z</time>
      </trkpt>
      <trkpt lat="47.57506" lon="-2.26339">
        <ele>-14</ele>
        <time>2020-05-24T07:35:27.000Z</time>
      </trkpt>
      <trkpt lat="47.57509" lon="-2.2633">
        <ele>-14.60000038147</ele>
        <time>2020-05-24T07:35:28.000Z</time>
      </trkpt>
      <trkpt lat="47.57515" lon="-2.26306">
        <ele>-14.60000038147</ele>
        <time>2020-05-24T07:35:31.000Z</time>
      </trkpt>
      <trkpt lat="47.57517" lon="-2.26286">
        <ele>-14.60000038147</ele>
        <time>2020-05-24T07:35:35.000Z</time>
      </trkpt>
      <trkpt lat="47.57515" lon="-2.26265">
        <ele>-14.199999809265</ele>
        <time>2020-05-24T07:35:39.000Z</time>
      </trkpt>
      <trkpt lat="47.57515" lon="-2.26261">
        <ele>-13.60000038147</ele>
        <time>2020-05-24T07:35:40.000Z</time>
      </trkpt>
      <trkpt lat="47.57514" lon="-2.26257">
        <ele>-13.199999809265</ele>
        <time>2020-05-24T07:35:41.000Z</time>
      </trkpt>
      <trkpt lat="47.57513" lon="-2.26253">
        <ele>-12.800000190735</ele>
        <time>2020-05-24T07:35:42.000Z</time>
      </trkpt>
      <trkpt lat="47.57512" lon="-2.26248">
        <ele>-12.39999961853</ele>
        <time>2020-05-24T07:35:43.000Z</time>
      </trkpt>
      <trkpt lat="47.57511" lon="-2.26236">
        <ele>-12</ele>
        <time>2020-05-24T07:35:45.000Z</time>
      </trkpt>
      <trkpt lat="47.57511" lon="-2.26231">
        <ele>-11.60000038147</ele>
        <time>2020-05-24T07:35:46.000Z</time>
      </trkpt>
      <trkpt lat="47.5751" lon="-2.26225">
        <ele>-11.199999809265</ele>
        <time>2020-05-24T07:35:47.000Z</time>
      </trkpt>
      <trkpt lat="47.57509" lon="-2.2622">
        <ele>-10.800000190735</ele>
        <time>2020-05-24T07:35:48.000Z</time>
      </trkpt>
      <trkpt lat="47.57508" lon="-2.26214">
        <ele>-10.39999961853</ele>
        <time>2020-05-24T07:35:49.000Z</time>
      </trkpt>
      <trkpt lat="47.575" lon="-2.26184">
        <ele>-10.39999961853</ele>
        <time>2020-05-24T07:35:55.000Z</time>
      </trkpt>
      <trkpt lat="47.57487" lon="-2.26139">
        <ele>-10.39999961853</ele>
        <time>2020-05-24T07:36:04.000Z</time>
      </trkpt>
      <trkpt lat="47.57481" lon="-2.26108">
        <ele>-10.39999961853</ele>
        <time>2020-05-24T07:36:11.000Z</time>
      </trkpt>
      <trkpt lat="47.57469" lon="-2.26068">
        <ele>-10.39999961853</ele>
        <time>2020-05-24T07:36:19.000Z</time>
      </trkpt>
      <trkpt lat="47.57463" lon="-2.26046">
        <ele>-10.800000190735</ele>
        <time>2020-05-24T07:36:22.000Z</time>
      </trkpt>
      <trkpt lat="47.57461" lon="-2.26038">
        <ele>-11.199999809265</ele>
        <time>2020-05-24T07:36:23.000Z</time>
      </trkpt>
      <trkpt lat="47.57459" lon="-2.26031">
        <ele>-11.60000038147</ele>
        <time>2020-05-24T07:36:24.000Z</time>
      </trkpt>
      <trkpt lat="47.57456" lon="-2.26024">
        <ele>-12.199999809265</ele>
        <time>2020-05-24T07:36:25.000Z</time>
      </trkpt>
      <trkpt lat="47.57453" lon="-2.26018">
        <ele>-12.800000190735</ele>
        <time>2020-05-24T07:36:26.000Z</time>
      </trkpt>
      <trkpt lat="47.57451" lon="-2.26011">
        <ele>-13.39999961853</ele>
        <time>2020-05-24T07:36:27.000Z</time>
      </trkpt>
      <trkpt lat="47.57448" lon="-2.26005">
        <ele>-14</ele>
        <time>2020-05-24T07:36:28.000Z</time>
      </trkpt>
      <trkpt lat="47.57445" lon="-2.25999">
        <ele>-14.60000038147</ele>
        <time>2020-05-24T07:36:29.000Z</time>
      </trkpt>
      <trkpt lat="47.57442" lon="-2.25992">
        <ele>-15.199999809265</ele>
        <time>2020-05-24T07:36:30.000Z</time>
      </trkpt>
      <trkpt lat="47.57439" lon="-2.25985">
        <ele>-15.800000190735</ele>
        <time>2020-05-24T07:36:31.000Z</time>
      </trkpt>
      <trkpt lat="47.57436" lon="-2.25976">
        <ele>-16.60000038147</ele>
        <time>2020-05-24T07:36:32.000Z</time>
      </trkpt>
      <trkpt lat="47.57433" lon="-2.25967">
        <ele>-17.39999961853</ele>
        <time>2020-05-24T07:36:33.000Z</time>
      </trkpt>
      <trkpt lat="47.57429" lon="-2.25957">
        <ele>-18.200000762939</ele>
        <time>2020-05-24T07:36:34.000Z</time>
      </trkpt>
      <trkpt lat="47.57426" lon="-2.25946">
        <ele>-19.200000762939</ele>
        <time>2020-05-24T07:36:35.000Z</time>
      </trkpt>
      <trkpt lat="47.57423" lon="-2.25934">
        <ele>-20.200000762939</ele>
        <time>2020-05-24T07:36:36.000Z</time>
      </trkpt>
      <trkpt lat="47.5742" lon="-2.25923">
        <ele>-21.39999961853</ele>
        <time>2020-05-24T07:36:37.000Z</time>
      </trkpt>
      <trkpt lat="47.57417" lon="-2.25913">
        <ele>-22.60000038147</ele>
        <time>2020-05-24T07:36:38.000Z</time>
      </trkpt>
      <trkpt lat="47.57414" lon="-2.25904">
        <ele>-23.799999237061</ele>
        <time>2020-05-24T07:36:39.000Z</time>
      </trkpt>
      <trkpt lat="47.57413" lon="-2.25897">
        <ele>-25</ele>
        <time>2020-05-24T07:36:40.000Z</time>
      </trkpt>
      <trkpt lat="47.57412" lon="-2.2589">
        <ele>-27.39999961853</ele>
        <time>2020-05-24T07:36:41.000Z</time>
      </trkpt>
      <trkpt lat="47.57412" lon="-2.25883">
        <ele>-28</ele>
        <time>2020-05-24T07:36:42.000Z</time>
      </trkpt>
      <trkpt lat="47.57412" lon="-2.25876">
        <ele>-28.799999237061</ele>
        <time>2020-05-24T07:36:43.000Z</time>
      </trkpt>
      <trkpt lat="47.57414" lon="-2.25868">
        <ele>-29.60000038147</ele>
        <time>2020-05-24T07:36:44.000Z</time>
      </trkpt>
      <trkpt lat="47.57416" lon="-2.25859">
        <ele>-30.39999961853</ele>
        <time>2020-05-24T07:36:45.000Z</time>
      </trkpt>
      <trkpt lat="47.57419" lon="-2.25851">
        <ele>-31</ele>
        <time>2020-05-24T07:36:46.000Z</time>
      </trkpt>
      <trkpt lat="47.57424" lon="-2.25843">
        <ele>-31.60000038147</ele>
        <time>2020-05-24T07:36:47.000Z</time>
      </trkpt>
      <trkpt lat="47.57428" lon="-2.25833">
        <ele>-32</ele>
        <time>2020-05-24T07:36:48.000Z</time>
      </trkpt>
      <trkpt lat="47.57432" lon="-2.25824">
        <ele>-32.599998474121</ele>
        <time>2020-05-24T07:36:49.000Z</time>
      </trkpt>
      <trkpt lat="47.57437" lon="-2.25814">
        <ele>-33.200000762939</ele>
        <time>2020-05-24T07:36:50.000Z</time>
      </trkpt>
      <trkpt lat="47.5744" lon="-2.25803">
        <ele>-33.599998474121</ele>
        <time>2020-05-24T07:36:51.000Z</time>
      </trkpt>
      <trkpt lat="47.57442" lon="-2.2579">
        <ele>-34</ele>
        <time>2020-05-24T07:36:52.000Z</time>
      </trkpt>
      <trkpt lat="47.57443" lon="-2.25779">
        <ele>-34.599998474121</ele>
        <time>2020-05-24T07:36:53.000Z</time>
      </trkpt>
      <trkpt lat="47.57443" lon="-2.25772">
        <ele>-35</ele>
        <time>2020-05-24T07:36:54.000Z</time>
      </trkpt>
      <trkpt lat="47.57443" lon="-2.25765">
        <ele>-35.400001525879</ele>
        <time>2020-05-24T07:36:55.000Z</time>
      </trkpt>
      <trkpt lat="47.57436" lon="-2.25743">
        <ele>-35.400001525879</ele>
        <time>2020-05-24T07:36:59.000Z</time>
      </trkpt>
      <trkpt lat="47.57434" lon="-2.25737">
        <ele>-35.400001525879</ele>
        <time>2020-05-24T07:37:00.000Z</time>
      </trkpt>
      <trkpt lat="47.5743" lon="-2.25725">
        <ele>-35</ele>
        <time>2020-05-24T07:37:02.000Z</time>
      </trkpt>
      <trkpt lat="47.57427" lon="-2.25719">
        <ele>-34.599998474121</ele>
        <time>2020-05-24T07:37:03.000Z</time>
      </trkpt>
      <trkpt lat="47.57425" lon="-2.25713">
        <ele>-34.200000762939</ele>
        <time>2020-05-24T07:37:04.000Z</time>
      </trkpt>
      <trkpt lat="47.57422" lon="-2.25706">
        <ele>-33.799999237061</ele>
        <time>2020-05-24T07:37:05.000Z</time>
      </trkpt>
      <trkpt lat="47.57419" lon="-2.257">
        <ele>-33.400001525879</ele>
        <time>2020-05-24T07:37:06.000Z</time>
      </trkpt>
      <trkpt lat="47.5741" lon="-2.25675">
        <ele>-33.799999237061</ele>
        <time>2020-05-24T07:37:10.000Z</time>
      </trkpt>
      <trkpt lat="47.57408" lon="-2.25672">
        <ele>-34.200000762939</ele>
        <time>2020-05-24T07:37:11.000Z</time>
      </trkpt>
      <trkpt lat="47.57407" lon="-2.2567">
        <ele>-34.599998474121</ele>
        <time>2020-05-24T07:37:12.000Z</time>
      </trkpt>
      <trkpt lat="47.57406" lon="-2.25667">
        <ele>-35</ele>
        <time>2020-05-24T07:37:13.000Z</time>
      </trkpt>
      <trkpt lat="47.57406" lon="-2.25666">
        <ele>-35.400001525879</ele>
        <time>2020-05-24T07:37:14.000Z</time>
      </trkpt>
      <trkpt lat="47.57406" lon="-2.25666">
        <ele>-35.400001525879</ele>
        <time>2020-05-24T07:37:15.000Z</time>
      </trkpt>
      <trkpt lat="47.5741" lon="-2.25668">
        <ele>-37.599998474121</ele>
        <time>2020-05-24T07:37:37.000Z</time>
      </trkpt>
      <trkpt lat="47.57415" lon="-2.25669">
        <ele>-37.599998474121</ele>
        <time>2020-05-24T07:37:39.000Z</time>
      </trkpt>
      <trkpt lat="47.57428" lon="-2.25667">
        <ele>-38</ele>
        <time>2020-05-24T07:37:42.000Z</time>
      </trkpt>
      <trkpt lat="47.57435" lon="-2.25667">
        <ele>-38.599998474121</ele>
        <time>2020-05-24T07:37:43.000Z</time>
      </trkpt>
      <trkpt lat="47.57442" lon="-2.25665">
        <ele>-39</ele>
        <time>2020-05-24T07:37:44.000Z</time>
      </trkpt>
      <trkpt lat="47.5745" lon="-2.25663">
        <ele>-39.599998474121</ele>
        <time>2020-05-24T07:37:45.000Z</time>
      </trkpt>
      <trkpt lat="47.57458" lon="-2.25661">
        <ele>-40.200000762939</ele>
        <time>2020-05-24T07:37:46.000Z</time>
      </trkpt>
      <trkpt lat="47.57467" lon="-2.25659">
        <ele>-40.799999237061</ele>
        <time>2020-05-24T07:37:47.000Z</time>
      </trkpt>
      <trkpt lat="47.57475" lon="-2.25657">
        <ele>-41.400001525879</ele>
        <time>2020-05-24T07:37:48.000Z</time>
      </trkpt>
      <trkpt lat="47.57485" lon="-2.25654">
        <ele>-42.200000762939</ele>
        <time>2020-05-24T07:37:49.000Z</time>
      </trkpt>
      <trkpt lat="47.57495" lon="-2.25651">
        <ele>-43</ele>
        <time>2020-05-24T07:37:50.000Z</time>
      </trkpt>
      <trkpt lat="47.57505" lon="-2.25649">
        <ele>-43.599998474121</ele>
        <time>2020-05-24T07:37:51.000Z</time>
      </trkpt>
      <trkpt lat="47.57513" lon="-2.25649">
        <ele>-44.400001525879</ele>
        <time>2020-05-24T07:37:52.000Z</time>
      </trkpt>
      <trkpt lat="47.57522" lon="-2.25648">
        <ele>-45.200000762939</ele>
        <time>2020-05-24T07:37:53.000Z</time>
      </trkpt>
      <trkpt lat="47.57531" lon="-2.25645">
        <ele>-46</ele>
        <time>2020-05-24T07:37:54.000Z</time>
      </trkpt>
      <trkpt lat="47.57541" lon="-2.25643">
        <ele>-47.799999237061</ele>
        <time>2020-05-24T07:37:55.000Z</time>
      </trkpt>
      <trkpt lat="47.57551" lon="-2.2564">
        <ele>-48.599998474121</ele>
        <time>2020-05-24T07:37:56.000Z</time>
      </trkpt>
      <trkpt lat="47.57561" lon="-2.25638">
        <ele>-49.400001525879</ele>
        <time>2020-05-24T07:37:57.000Z</time>
      </trkpt>
      <trkpt lat="47.5757" lon="-2.25637">
        <ele>-50</ele>
        <time>2020-05-24T07:37:58.000Z</time>
      </trkpt>
      <trkpt lat="47.57578" lon="-2.25635">
        <ele>-50.599998474121</ele>
        <time>2020-05-24T07:37:59.000Z</time>
      </trkpt>
      <trkpt lat="47.57587" lon="-2.25633">
        <ele>-51.200000762939</ele>
        <time>2020-05-24T07:38:00.000Z</time>
      </trkpt>
      <trkpt lat="47.57595" lon="-2.25632">
        <ele>-51.799999237061</ele>
        <time>2020-05-24T07:38:01.000Z</time>
      </trkpt>
      <trkpt lat="47.57603" lon="-2.25632">
        <ele>-52.400001525879</ele>
        <time>2020-05-24T07:38:02.000Z</time>
      </trkpt>
      <trkpt lat="47.57611" lon="-2.25632">
        <ele>-52.400001525879</ele>
        <time>2020-05-24T07:38:03.000Z</time>
      </trkpt>
      <trkpt lat="47.57662" lon="-2.25628">
        <ele>-52.799999237061</ele>
        <time>2020-05-24T07:38:10.000Z</time>
      </trkpt>
      <trkpt lat="47.57668" lon="-2.25627">
        <ele>-53.200000762939</ele>
        <time>2020-05-24T07:38:11.000Z</time>
      </trkpt>
      <trkpt lat="47.57675" lon="-2.25627">
        <ele>-53.599998474121</ele>
        <time>2020-05-24T07:38:12.000Z</time>
      </trkpt>
      <trkpt lat="47.57681" lon="-2.25626">
        <ele>-54</ele>
        <time>2020-05-24T07:38:13.000Z</time>
      </trkpt>
      <trkpt lat="47.57687" lon="-2.25626">
        <ele>-54.400001525879</ele>
        <time>2020-05-24T07:38:14.000Z</time>
      </trkpt>
      <trkpt lat="47.577" lon="-2.25626">
        <ele>-54.400001525879</ele>
        <time>2020-05-24T07:38:16.000Z</time>
      </trkpt>
      <trkpt lat="47.57736" lon="-2.25623">
        <ele>-54.400001525879</ele>
        <time>2020-05-24T07:38:22.000Z</time>
      </trkpt>
      <trkpt lat="47.57748" lon="-2.2562">
        <ele>-54.400001525879</ele>
        <time>2020-05-24T07:38:24.000Z</time>
      </trkpt>
      <trkpt lat="47.57753" lon="-2.25608">
        <ele>-54.400001525879</ele>
        <time>2020-05-24T07:38:26.000Z</time>
      </trkpt>
      <trkpt lat="47.57748" lon="-2.25588">
        <ele>-54.400001525879</ele>
        <time>2020-05-24T07:38:29.000Z</time>
      </trkpt>
      <trkpt lat="47.57745" lon="-2.25581">
        <ele>-54.400001525879</ele>
        <time>2020-05-24T07:38:30.000Z</time>
      </trkpt>
      <trkpt lat="47.57731" lon="-2.25544">
        <ele>-54.400001525879</ele>
        <time>2020-05-24T07:38:35.000Z</time>
      </trkpt>
      <trkpt lat="47.57716" lon="-2.25505">
        <ele>-54.400001525879</ele>
        <time>2020-05-24T07:38:41.000Z</time>
      </trkpt>
      <trkpt lat="47.57704" lon="-2.25468">
        <ele>-54.400001525879</ele>
        <time>2020-05-24T07:38:47.000Z</time>
      </trkpt>
      <trkpt lat="47.57701" lon="-2.25462">
        <ele>-54.400001525879</ele>
        <time>2020-05-24T07:38:48.000Z</time>
      </trkpt>
      <trkpt lat="47.57691" lon="-2.25437">
        <ele>-54.400001525879</ele>
        <time>2020-05-24T07:38:52.000Z</time>
      </trkpt>
      <trkpt lat="47.57689" lon="-2.25432">
        <ele>-54.400001525879</ele>
        <time>2020-05-24T07:38:53.000Z</time>
      </trkpt>
      <trkpt lat="47.57683" lon="-2.25425">
        <ele>-54.799999237061</ele>
        <time>2020-05-24T07:38:55.000Z</time>
      </trkpt>
      <trkpt lat="47.57679" lon="-2.25423">
        <ele>-55.200000762939</ele>
        <time>2020-05-24T07:38:56.000Z</time>
      </trkpt>
      <trkpt lat="47.57675" lon="-2.25422">
        <ele>-55.599998474121</ele>
        <time>2020-05-24T07:38:57.000Z</time>
      </trkpt>
      <trkpt lat="47.57672" lon="-2.25419">
        <ele>-56</ele>
        <time>2020-05-24T07:38:58.000Z</time>
      </trkpt>
      <trkpt lat="47.5767" lon="-2.25414">
        <ele>-56.400001525879</ele>
        <time>2020-05-24T07:38:59.000Z</time>
      </trkpt>
      <trkpt lat="47.5767" lon="-2.25409">
        <ele>-56.400001525879</ele>
        <time>2020-05-24T07:39:00.000Z</time>
      </trkpt>
      <trkpt lat="47.57671" lon="-2.25405">
        <ele>-56.400001525879</ele>
        <time>2020-05-24T07:39:01.000Z</time>
      </trkpt>
      <trkpt lat="47.57675" lon="-2.25387">
        <ele>-56.400001525879</ele>
        <time>2020-05-24T07:39:06.000Z</time>
      </trkpt>
      <trkpt lat="47.57674" lon="-2.25379">
        <ele>-56.400001525879</ele>
        <time>2020-05-24T07:39:09.000Z</time>
      </trkpt>
      <trkpt lat="47.57672" lon="-2.25373">
        <ele>-56.400001525879</ele>
        <time>2020-05-24T07:39:11.000Z</time>
      </trkpt>
      <trkpt lat="47.5766" lon="-2.25349">
        <ele>-56.400001525879</ele>
        <time>2020-05-24T07:39:18.000Z</time>
      </trkpt>
      <trkpt lat="47.57644" lon="-2.25323">
        <ele>-56.400001525879</ele>
        <time>2020-05-24T07:39:25.000Z</time>
      </trkpt>
      <trkpt lat="47.57629" lon="-2.25324">
        <ele>-56.400001525879</ele>
        <time>2020-05-24T07:39:29.000Z</time>
      </trkpt>
      <trkpt lat="47.57614" lon="-2.25311">
        <ele>-56.400001525879</ele>
        <time>2020-05-24T07:39:34.000Z</time>
      </trkpt>
      <trkpt lat="47.57615" lon="-2.2529">
        <ele>-56.400001525879</ele>
        <time>2020-05-24T07:39:38.000Z</time>
      </trkpt>
      <trkpt lat="47.57618" lon="-2.25254">
        <ele>-56.400001525879</ele>
        <time>2020-05-24T07:39:45.000Z</time>
      </trkpt>
      <trkpt lat="47.57609" lon="-2.25231">
        <ele>-56.400001525879</ele>
        <time>2020-05-24T07:39:50.000Z</time>
      </trkpt>
      <trkpt lat="47.57592" lon="-2.25203">
        <ele>-56.400001525879</ele>
        <time>2020-05-24T07:39:58.000Z</time>
      </trkpt>
      <trkpt lat="47.57576" lon="-2.25194">
        <ele>-56.400001525879</ele>
        <time>2020-05-24T07:40:03.000Z</time>
      </trkpt>
      <trkpt lat="47.57557" lon="-2.25185">
        <ele>-56.400001525879</ele>
        <time>2020-05-24T07:40:09.000Z</time>
      </trkpt>
      <trkpt lat="47.57535" lon="-2.25179">
        <ele>-56.400001525879</ele>
        <time>2020-05-24T07:40:17.000Z</time>
      </trkpt>
      <trkpt lat="47.57526" lon="-2.25177">
        <ele>-56.400001525879</ele>
        <time>2020-05-24T07:40:23.000Z</time>
      </trkpt>
      <trkpt lat="47.57527" lon="-2.25177">
        <ele>-56.400001525879</ele>
        <time>2020-05-24T07:40:24.000Z</time>
      </trkpt>
      <trkpt lat="47.57513" lon="-2.25136">
        <ele>-58.400001525879</ele>
        <time>2020-05-24T07:45:21.000Z</time>
      </trkpt>
      <trkpt lat="47.57514" lon="-2.25129">
        <ele>-58.400001525879</ele>
        <time>2020-05-24T07:45:24.000Z</time>
      </trkpt>
      <trkpt lat="47.57514" lon="-2.25125">
        <ele>-58.400001525879</ele>
        <time>2020-05-24T07:45:26.000Z</time>
      </trkpt>
      <trkpt lat="47.57515" lon="-2.25125">
        <ele>-58.400001525879</ele>
        <time>2020-05-24T07:45:27.000Z</time>
      </trkpt>
      <trkpt lat="47.57515" lon="-2.25123">
        <ele>-58.400001525879</ele>
        <time>2020-05-24T07:45:32.000Z</time>
      </trkpt>
      <trkpt lat="47.57516" lon="-2.2512">
        <ele>-58.400001525879</ele>
        <time>2020-05-24T07:45:33.000Z</time>
      </trkpt>
      <trkpt lat="47.57519" lon="-2.25097">
        <ele>-58.400001525879</ele>
        <time>2020-05-24T07:45:41.000Z</time>
      </trkpt>
      <trkpt lat="47.57512" lon="-2.25079">
        <ele>-58.400001525879</ele>
        <time>2020-05-24T07:45:46.000Z</time>
      </trkpt>
      <trkpt lat="47.575" lon="-2.25063">
        <ele>-58.400001525879</ele>
        <time>2020-05-24T07:45:51.000Z</time>
      </trkpt>
      <trkpt lat="47.57488" lon="-2.25048">
        <ele>-58.400001525879</ele>
        <time>2020-05-24T07:45:57.000Z</time>
      </trkpt>
      <trkpt lat="47.57474" lon="-2.25032">
        <ele>-58.400001525879</ele>
        <time>2020-05-24T07:46:03.000Z</time>
      </trkpt>
      <trkpt lat="47.57454" lon="-2.25005">
        <ele>-58.400001525879</ele>
        <time>2020-05-24T07:46:10.000Z</time>
      </trkpt>
      <trkpt lat="47.57444" lon="-2.24995">
        <ele>-58.400001525879</ele>
        <time>2020-05-24T07:46:16.000Z</time>
      </trkpt>
      <trkpt lat="47.57436" lon="-2.24983">
        <ele>-58.400001525879</ele>
        <time>2020-05-24T07:46:22.000Z</time>
      </trkpt>
      <trkpt lat="47.57421" lon="-2.24968">
        <ele>-58.400001525879</ele>
        <time>2020-05-24T07:46:28.000Z</time>
      </trkpt>
      <trkpt lat="47.57408" lon="-2.24962">
        <ele>-58.400001525879</ele>
        <time>2020-05-24T07:46:32.000Z</time>
      </trkpt>
      <trkpt lat="47.57403" lon="-2.24958">
        <ele>-58.400001525879</ele>
        <time>2020-05-24T07:46:34.000Z</time>
      </trkpt>
      <trkpt lat="47.57392" lon="-2.24947">
        <ele>-58.400001525879</ele>
        <time>2020-05-24T07:46:39.000Z</time>
      </trkpt>
      <trkpt lat="47.57377" lon="-2.24938">
        <ele>-58.400001525879</ele>
        <time>2020-05-24T07:46:44.000Z</time>
      </trkpt>
      <trkpt lat="47.57362" lon="-2.24935">
        <ele>-58.400001525879</ele>
        <time>2020-05-24T07:46:48.000Z</time>
      </trkpt>
      <trkpt lat="47.57358" lon="-2.24934">
        <ele>-58.400001525879</ele>
        <time>2020-05-24T07:46:49.000Z</time>
      </trkpt>
      <trkpt lat="47.57348" lon="-2.24929">
        <ele>-58</ele>
        <time>2020-05-24T07:46:53.000Z</time>
      </trkpt>
      <trkpt lat="47.57347" lon="-2.24928">
        <ele>-57.599998474121</ele>
        <time>2020-05-24T07:46:54.000Z</time>
      </trkpt>
      <trkpt lat="47.57345" lon="-2.24926">
        <ele>-57.200000762939</ele>
        <time>2020-05-24T07:46:55.000Z</time>
      </trkpt>
      <trkpt lat="47.57342" lon="-2.24925">
        <ele>-56.400001525879</ele>
        <time>2020-05-24T07:46:56.000Z</time>
      </trkpt>
      <trkpt lat="47.57337" lon="-2.2492">
        <ele>-56</ele>
        <time>2020-05-24T07:47:00.000Z</time>
      </trkpt>
      <trkpt lat="47.57336" lon="-2.24919">
        <ele>-55.400001525879</ele>
        <time>2020-05-24T07:47:01.000Z</time>
      </trkpt>
      <trkpt lat="47.57336" lon="-2.24919">
        <ele>-55</ele>
        <time>2020-05-24T07:47:02.000Z</time>
      </trkpt>
      <trkpt lat="47.57335" lon="-2.24918">
        <ele>-54.599998474121</ele>
        <time>2020-05-24T07:47:03.000Z</time>
      </trkpt>
      <trkpt lat="47.57333" lon="-2.24915">
        <ele>-54.200000762939</ele>
        <time>2020-05-24T07:47:04.000Z</time>
      </trkpt>
      <trkpt lat="47.57329" lon="-2.24909">
        <ele>-54.200000762939</ele>
        <time>2020-05-24T07:47:07.000Z</time>
      </trkpt>
      <trkpt lat="47.57327" lon="-2.24905">
        <ele>-54.200000762939</ele>
        <time>2020-05-24T07:47:08.000Z</time>
      </trkpt>
      <trkpt lat="47.57326" lon="-2.24903">
        <ele>-53.799999237061</ele>
        <time>2020-05-24T07:47:09.000Z</time>
      </trkpt>
      <trkpt lat="47.57324" lon="-2.249">
        <ele>-53.400001525879</ele>
        <time>2020-05-24T07:47:10.000Z</time>
      </trkpt>
      <trkpt lat="47.57322" lon="-2.24896">
        <ele>-53</ele>
        <time>2020-05-24T07:47:11.000Z</time>
      </trkpt>
      <trkpt lat="47.57319" lon="-2.24892">
        <ele>-52.400001525879</ele>
        <time>2020-05-24T07:47:12.000Z</time>
      </trkpt>
      <trkpt lat="47.57318" lon="-2.24889">
        <ele>-52</ele>
        <time>2020-05-24T07:47:13.000Z</time>
      </trkpt>
      <trkpt lat="47.57318" lon="-2.24887">
        <ele>-52</ele>
        <time>2020-05-24T07:47:14.000Z</time>
      </trkpt>
      <trkpt lat="47.57318" lon="-2.24882">
        <ele>-52</ele>
        <time>2020-05-24T07:47:16.000Z</time>
      </trkpt>
      <trkpt lat="47.57317" lon="-2.24874">
        <ele>-51.599998474121</ele>
        <time>2020-05-24T07:47:20.000Z</time>
      </trkpt>
      <trkpt lat="47.57316" lon="-2.24872">
        <ele>-51.200000762939</ele>
        <time>2020-05-24T07:47:21.000Z</time>
      </trkpt>
      <trkpt lat="47.57315" lon="-2.2487">
        <ele>-50.799999237061</ele>
        <time>2020-05-24T07:47:22.000Z</time>
      </trkpt>
      <trkpt lat="47.57314" lon="-2.24868">
        <ele>-50</ele>
        <time>2020-05-24T07:47:23.000Z</time>
      </trkpt>
      <trkpt lat="47.57306" lon="-2.2485">
        <ele>-50</ele>
        <time>2020-05-24T07:47:31.000Z</time>
      </trkpt>
      <trkpt lat="47.57301" lon="-2.24842">
        <ele>-50</ele>
        <time>2020-05-24T07:47:34.000Z</time>
      </trkpt>
      <trkpt lat="47.57298" lon="-2.24842">
        <ele>-50</ele>
        <time>2020-05-24T07:47:35.000Z</time>
      </trkpt>
      <trkpt lat="47.57284" lon="-2.24852">
        <ele>-50</ele>
        <time>2020-05-24T07:47:39.000Z</time>
      </trkpt>
      <trkpt lat="47.57281" lon="-2.24856">
        <ele>-50</ele>
        <time>2020-05-24T07:47:40.000Z</time>
      </trkpt>
      <trkpt lat="47.57279" lon="-2.24863">
        <ele>-50</ele>
        <time>2020-05-24T07:47:42.000Z</time>
      </trkpt>
      <trkpt lat="47.57281" lon="-2.24874">
        <ele>-50</ele>
        <time>2020-05-24T07:47:44.000Z</time>
      </trkpt>
      <trkpt lat="47.57284" lon="-2.24894">
        <ele>-50.599998474121</ele>
        <time>2020-05-24T07:47:48.000Z</time>
      </trkpt>
      <trkpt lat="47.57284" lon="-2.24897">
        <ele>-51</ele>
        <time>2020-05-24T07:47:49.000Z</time>
      </trkpt>
      <trkpt lat="47.57283" lon="-2.24898">
        <ele>-51.400001525879</ele>
        <time>2020-05-24T07:47:50.000Z</time>
      </trkpt>
      <trkpt lat="47.57283" lon="-2.24899">
        <ele>-52</ele>
        <time>2020-05-24T07:47:51.000Z</time>
      </trkpt>
      <trkpt lat="47.57282" lon="-2.24901">
        <ele>-52.400001525879</ele>
        <time>2020-05-24T07:47:52.000Z</time>
      </trkpt>
      <trkpt lat="47.57281" lon="-2.24902">
        <ele>-52.400001525879</ele>
        <time>2020-05-24T07:47:53.000Z</time>
      </trkpt>
      <trkpt lat="47.57279" lon="-2.24902">
        <ele>-52.400001525879</ele>
        <time>2020-05-24T07:47:54.000Z</time>
      </trkpt>
      <trkpt lat="47.57271" lon="-2.24904">
        <ele>-52.400001525879</ele>
        <time>2020-05-24T07:47:59.000Z</time>
      </trkpt>
      <trkpt lat="47.57269" lon="-2.24905">
        <ele>-52.799999237061</ele>
        <time>2020-05-24T07:48:02.000Z</time>
      </trkpt>
      <trkpt lat="47.57268" lon="-2.24906">
        <ele>-53.200000762939</ele>
        <time>2020-05-24T07:48:03.000Z</time>
      </trkpt>
      <trkpt lat="47.57267" lon="-2.24907">
        <ele>-53.599998474121</ele>
        <time>2020-05-24T07:48:04.000Z</time>
      </trkpt>
      <trkpt lat="47.57266" lon="-2.24908">
        <ele>-54</ele>
        <time>2020-05-24T07:48:05.000Z</time>
      </trkpt>
      <trkpt lat="47.57265" lon="-2.24908">
        <ele>-54.599998474121</ele>
        <time>2020-05-24T07:48:06.000Z</time>
      </trkpt>
      <trkpt lat="47.57255" lon="-2.24914">
        <ele>-54.599998474121</ele>
        <time>2020-05-24T07:48:14.000Z</time>
      </trkpt>
      <trkpt lat="47.57247" lon="-2.24914">
        <ele>-54</ele>
        <time>2020-05-24T07:48:19.000Z</time>
      </trkpt>
      <trkpt lat="47.57246" lon="-2.24914">
        <ele>-53.599998474121</ele>
        <time>2020-05-24T07:48:20.000Z</time>
      </trkpt>
      <trkpt lat="47.57213" lon="-2.24915">
        <ele>-45.200000762939</ele>
        <time>2020-05-24T07:49:31.000Z</time>
      </trkpt>
      <trkpt lat="47.57211" lon="-2.24915">
        <ele>-44.799999237061</ele>
        <time>2020-05-24T07:49:32.000Z</time>
      </trkpt>
      <trkpt lat="47.5721" lon="-2.24915">
        <ele>-44.400001525879</ele>
        <time>2020-05-24T07:49:33.000Z</time>
      </trkpt>
      <trkpt lat="47.57209" lon="-2.24916">
        <ele>-43.799999237061</ele>
        <time>2020-05-24T07:49:34.000Z</time>
      </trkpt>
      <trkpt lat="47.57206" lon="-2.24917">
        <ele>-43.400001525879</ele>
        <time>2020-05-24T07:49:37.000Z</time>
      </trkpt>
      <trkpt lat="47.57204" lon="-2.24917">
        <ele>-43</ele>
        <time>2020-05-24T07:49:38.000Z</time>
      </trkpt>
      <trkpt lat="47.57203" lon="-2.24916">
        <ele>-42.599998474121</ele>
        <time>2020-05-24T07:49:39.000Z</time>
      </trkpt>
      <trkpt lat="47.57202" lon="-2.24916">
        <ele>-42.200000762939</ele>
        <time>2020-05-24T07:49:40.000Z</time>
      </trkpt>
      <trkpt lat="47.572" lon="-2.24917">
        <ele>-41.799999237061</ele>
        <time>2020-05-24T07:49:41.000Z</time>
      </trkpt>
      <trkpt lat="47.57197" lon="-2.24917">
        <ele>-41.400001525879</ele>
        <time>2020-05-24T07:49:44.000Z</time>
      </trkpt>
      <trkpt lat="47.57196" lon="-2.24917">
        <ele>-41</ele>
        <time>2020-05-24T07:49:45.000Z</time>
      </trkpt>
      <trkpt lat="47.57194" lon="-2.24917">
        <ele>-40.599998474121</ele>
        <time>2020-05-24T07:49:46.000Z</time>
      </trkpt>
      <trkpt lat="47.57193" lon="-2.24918">
        <ele>-40.200000762939</ele>
        <time>2020-05-24T07:49:47.000Z</time>
      </trkpt>
      <trkpt lat="47.57191" lon="-2.24918">
        <ele>-39.799999237061</ele>
        <time>2020-05-24T07:49:48.000Z</time>
      </trkpt>
      <trkpt lat="47.57188" lon="-2.24919">
        <ele>-39.400001525879</ele>
        <time>2020-05-24T07:49:50.000Z</time>
      </trkpt>
      <trkpt lat="47.57186" lon="-2.2492">
        <ele>-38.599998474121</ele>
        <time>2020-05-24T07:49:51.000Z</time>
      </trkpt>
      <trkpt lat="47.57185" lon="-2.2492">
        <ele>-38.200000762939</ele>
        <time>2020-05-24T07:49:52.000Z</time>
      </trkpt>
      <trkpt lat="47.57183" lon="-2.24921">
        <ele>-37.799999237061</ele>
        <time>2020-05-24T07:49:53.000Z</time>
      </trkpt>
      <trkpt lat="47.57178" lon="-2.24924">
        <ele>-37.200000762939</ele>
        <time>2020-05-24T07:49:57.000Z</time>
      </trkpt>
      <trkpt lat="47.57176" lon="-2.24924">
        <ele>-36.799999237061</ele>
        <time>2020-05-24T07:49:58.000Z</time>
      </trkpt>
      <trkpt lat="47.57175" lon="-2.24924">
        <ele>-36.400001525879</ele>
        <time>2020-05-24T07:49:59.000Z</time>
      </trkpt>
      <trkpt lat="47.57173" lon="-2.24925">
        <ele>-36</ele>
        <time>2020-05-24T07:50:00.000Z</time>
      </trkpt>
      <trkpt lat="47.57172" lon="-2.24925">
        <ele>-35.599998474121</ele>
        <time>2020-05-24T07:50:01.000Z</time>
      </trkpt>
      <trkpt lat="47.57165" lon="-2.24927">
        <ele>-35.599998474121</ele>
        <time>2020-05-24T07:50:05.000Z</time>
      </trkpt>
      <trkpt lat="47.57163" lon="-2.24927">
        <ele>-35</ele>
        <time>2020-05-24T07:50:06.000Z</time>
      </trkpt>
      <trkpt lat="47.57161" lon="-2.24927">
        <ele>-34.599998474121</ele>
        <time>2020-05-24T07:50:07.000Z</time>
      </trkpt>
      <trkpt lat="47.57159" lon="-2.24927">
        <ele>-34.200000762939</ele>
        <time>2020-05-24T07:50:08.000Z</time>
      </trkpt>
      <trkpt lat="47.57156" lon="-2.24928">
        <ele>-33.799999237061</ele>
        <time>2020-05-24T07:50:09.000Z</time>
      </trkpt>
      <trkpt lat="47.57153" lon="-2.24929">
        <ele>-33.400001525879</ele>
        <time>2020-05-24T07:50:10.000Z</time>
      </trkpt>
      <trkpt lat="47.57144" lon="-2.2493">
        <ele>-33.400001525879</ele>
        <time>2020-05-24T07:50:14.000Z</time>
      </trkpt>
      <trkpt lat="47.57142" lon="-2.24931">
        <ele>-33</ele>
        <time>2020-05-24T07:50:15.000Z</time>
      </trkpt>
      <trkpt lat="47.57141" lon="-2.24931">
        <ele>-32</ele>
        <time>2020-05-24T07:50:16.000Z</time>
      </trkpt>
      <trkpt lat="47.57139" lon="-2.24931">
        <ele>-31.60000038147</ele>
        <time>2020-05-24T07:50:17.000Z</time>
      </trkpt>
      <trkpt lat="47.57138" lon="-2.24931">
        <ele>-31.200000762939</ele>
        <time>2020-05-24T07:50:18.000Z</time>
      </trkpt>
      <trkpt lat="47.57132" lon="-2.24932">
        <ele>-31.200000762939</ele>
        <time>2020-05-24T07:50:21.000Z</time>
      </trkpt>
      <trkpt lat="47.57118" lon="-2.24937">
        <ele>-31.200000762939</ele>
        <time>2020-05-24T07:50:27.000Z</time>
      </trkpt>
      <trkpt lat="47.57101" lon="-2.24951">
        <ele>-31.200000762939</ele>
        <time>2020-05-24T07:50:33.000Z</time>
      </trkpt>
      <trkpt lat="47.57087" lon="-2.24953">
        <ele>-31.200000762939</ele>
        <time>2020-05-24T07:50:37.000Z</time>
      </trkpt>
      <trkpt lat="47.57079" lon="-2.24945">
        <ele>-31.200000762939</ele>
        <time>2020-05-24T07:50:41.000Z</time>
      </trkpt>
      <trkpt lat="47.57072" lon="-2.24925">
        <ele>-31.200000762939</ele>
        <time>2020-05-24T07:50:46.000Z</time>
      </trkpt>
      <trkpt lat="47.57068" lon="-2.24887">
        <ele>-31.200000762939</ele>
        <time>2020-05-24T07:50:54.000Z</time>
      </trkpt>
      <trkpt lat="47.57064" lon="-2.24864">
        <ele>-30.799999237061</ele>
        <time>2020-05-24T07:51:00.000Z</time>
      </trkpt>
      <trkpt lat="47.57063" lon="-2.2486">
        <ele>-30.39999961853</ele>
        <time>2020-05-24T07:51:01.000Z</time>
      </trkpt>
      <trkpt lat="47.57062" lon="-2.24857">
        <ele>-30</ele>
        <time>2020-05-24T07:51:02.000Z</time>
      </trkpt>
      <trkpt lat="47.57062" lon="-2.24853">
        <ele>-29.60000038147</ele>
        <time>2020-05-24T07:51:03.000Z</time>
      </trkpt>
      <trkpt lat="47.57062" lon="-2.2485">
        <ele>-29.200000762939</ele>
        <time>2020-05-24T07:51:04.000Z</time>
      </trkpt>
      <trkpt lat="47.57059" lon="-2.24832">
        <ele>-29.200000762939</ele>
        <time>2020-05-24T07:51:10.000Z</time>
      </trkpt>
      <trkpt lat="47.57058" lon="-2.24822">
        <ele>-28.799999237061</ele>
        <time>2020-05-24T07:51:13.000Z</time>
      </trkpt>
      <trkpt lat="47.57057" lon="-2.24819">
        <ele>-28.39999961853</ele>
        <time>2020-05-24T07:51:14.000Z</time>
      </trkpt>
      <trkpt lat="47.57057" lon="-2.24816">
        <ele>-28</ele>
        <time>2020-05-24T07:51:15.000Z</time>
      </trkpt>
      <trkpt lat="47.57056" lon="-2.24813">
        <ele>-27.39999961853</ele>
        <time>2020-05-24T07:51:16.000Z</time>
      </trkpt>
      <trkpt lat="47.57056" lon="-2.24809">
        <ele>-27</ele>
        <time>2020-05-24T07:51:17.000Z</time>
      </trkpt>
      <trkpt lat="47.57055" lon="-2.24803">
        <ele>-27</ele>
        <time>2020-05-24T07:51:19.000Z</time>
      </trkpt>
      <trkpt lat="47.57051" lon="-2.24785">
        <ele>-27</ele>
        <time>2020-05-24T07:51:25.000Z</time>
      </trkpt>
      <trkpt lat="47.5705" lon="-2.24779">
        <ele>-26.60000038147</ele>
        <time>2020-05-24T07:51:27.000Z</time>
      </trkpt>
      <trkpt lat="47.57049" lon="-2.24775">
        <ele>-26.200000762939</ele>
        <time>2020-05-24T07:51:28.000Z</time>
      </trkpt>
      <trkpt lat="47.57048" lon="-2.24772">
        <ele>-25.799999237061</ele>
        <time>2020-05-24T07:51:29.000Z</time>
      </trkpt>
      <trkpt lat="47.57048" lon="-2.24768">
        <ele>-25</ele>
        <time>2020-05-24T07:51:30.000Z</time>
      </trkpt>
      <trkpt lat="47.57046" lon="-2.24761">
        <ele>-25</ele>
        <time>2020-05-24T07:51:32.000Z</time>
      </trkpt>
      <trkpt lat="47.57043" lon="-2.24751">
        <ele>-24.60000038147</ele>
        <time>2020-05-24T07:51:35.000Z</time>
      </trkpt>
      <trkpt lat="47.57042" lon="-2.24747">
        <ele>-24.200000762939</ele>
        <time>2020-05-24T07:51:36.000Z</time>
      </trkpt>
      <trkpt lat="47.57041" lon="-2.24744">
        <ele>-23.60000038147</ele>
        <time>2020-05-24T07:51:37.000Z</time>
      </trkpt>
      <trkpt lat="47.5704" lon="-2.2474">
        <ele>-23.200000762939</ele>
        <time>2020-05-24T07:51:38.000Z</time>
      </trkpt>
      <trkpt lat="47.57039" lon="-2.24737">
        <ele>-22.799999237061</ele>
        <time>2020-05-24T07:51:39.000Z</time>
      </trkpt>
      <trkpt lat="47.57035" lon="-2.24718">
        <ele>-22.39999961853</ele>
        <time>2020-05-24T07:51:44.000Z</time>
      </trkpt>
      <trkpt lat="47.57034" lon="-2.24714">
        <ele>-22</ele>
        <time>2020-05-24T07:51:45.000Z</time>
      </trkpt>
      <trkpt lat="47.57034" lon="-2.2471">
        <ele>-21.60000038147</ele>
        <time>2020-05-24T07:51:46.000Z</time>
      </trkpt>
      <trkpt lat="47.57033" lon="-2.24705">
        <ele>-21.200000762939</ele>
        <time>2020-05-24T07:51:47.000Z</time>
      </trkpt>
      <trkpt lat="47.57032" lon="-2.24701">
        <ele>-20.799999237061</ele>
        <time>2020-05-24T07:51:48.000Z</time>
      </trkpt>
      <trkpt lat="47.57028" lon="-2.24676">
        <ele>-20.799999237061</ele>
        <time>2020-05-24T07:51:54.000Z</time>
      </trkpt>
      <trkpt lat="47.57026" lon="-2.24668">
        <ele>-20.39999961853</ele>
        <time>2020-05-24T07:51:56.000Z</time>
      </trkpt>
      <trkpt lat="47.57025" lon="-2.24663">
        <ele>-19.799999237061</ele>
        <time>2020-05-24T07:51:57.000Z</time>
      </trkpt>
      <trkpt lat="47.57024" lon="-2.24659">
        <ele>-19.39999961853</ele>
        <time>2020-05-24T07:51:58.000Z</time>
      </trkpt>
      <trkpt lat="47.57024" lon="-2.24655">
        <ele>-19</ele>
        <time>2020-05-24T07:51:59.000Z</time>
      </trkpt>
      <trkpt lat="47.57023" lon="-2.2465">
        <ele>-18.60000038147</ele>
        <time>2020-05-24T07:52:00.000Z</time>
      </trkpt>
      <trkpt lat="47.57021" lon="-2.24636">
        <ele>-18.60000038147</ele>
        <time>2020-05-24T07:52:03.000Z</time>
      </trkpt>
      <trkpt lat="47.57019" lon="-2.24622">
        <ele>-18.200000762939</ele>
        <time>2020-05-24T07:52:06.000Z</time>
      </trkpt>
      <trkpt lat="47.57018" lon="-2.24617">
        <ele>-17.799999237061</ele>
        <time>2020-05-24T07:52:07.000Z</time>
      </trkpt>
      <trkpt lat="47.57017" lon="-2.24613">
        <ele>-17.39999961853</ele>
        <time>2020-05-24T07:52:08.000Z</time>
      </trkpt>
      <trkpt lat="47.57017" lon="-2.24608">
        <ele>-16.799999237061</ele>
        <time>2020-05-24T07:52:09.000Z</time>
      </trkpt>
      <trkpt lat="47.57016" lon="-2.24603">
        <ele>-16.39999961853</ele>
        <time>2020-05-24T07:52:10.000Z</time>
      </trkpt>
      <trkpt lat="47.57015" lon="-2.24598">
        <ele>-16.39999961853</ele>
        <time>2020-05-24T07:52:11.000Z</time>
      </trkpt>
      <trkpt lat="47.57009" lon="-2.24568">
        <ele>-16.39999961853</ele>
        <time>2020-05-24T07:52:18.000Z</time>
      </trkpt>
      <trkpt lat="47.57008" lon="-2.24559">
        <ele>-16</ele>
        <time>2020-05-24T07:52:20.000Z</time>
      </trkpt>
      <trkpt lat="47.57007" lon="-2.24555">
        <ele>-15.60000038147</ele>
        <time>2020-05-24T07:52:21.000Z</time>
      </trkpt>
      <trkpt lat="47.57006" lon="-2.2455">
        <ele>-15.199999809265</ele>
        <time>2020-05-24T07:52:22.000Z</time>
      </trkpt>
      <trkpt lat="47.57006" lon="-2.24546">
        <ele>-14.800000190735</ele>
        <time>2020-05-24T07:52:23.000Z</time>
      </trkpt>
      <trkpt lat="47.57005" lon="-2.24542">
        <ele>-14.39999961853</ele>
        <time>2020-05-24T07:52:24.000Z</time>
      </trkpt>
      <trkpt lat="47.57003" lon="-2.24529">
        <ele>-14.39999961853</ele>
        <time>2020-05-24T07:52:27.000Z</time>
      </trkpt>
      <trkpt lat="47.56998" lon="-2.24497">
        <ele>-14</ele>
        <time>2020-05-24T07:52:33.000Z</time>
      </trkpt>
      <trkpt lat="47.56997" lon="-2.2449">
        <ele>-13.39999961853</ele>
        <time>2020-05-24T07:52:34.000Z</time>
      </trkpt>
      <trkpt lat="47.56996" lon="-2.24485">
        <ele>-13</ele>
        <time>2020-05-24T07:52:35.000Z</time>
      </trkpt>
      <trkpt lat="47.56995" lon="-2.24479">
        <ele>-12.60000038147</ele>
        <time>2020-05-24T07:52:36.000Z</time>
      </trkpt>
      <trkpt lat="47.56994" lon="-2.24473">
        <ele>-12.199999809265</ele>
        <time>2020-05-24T07:52:37.000Z</time>
      </trkpt>
      <trkpt lat="47.5699" lon="-2.24441">
        <ele>-12.199999809265</ele>
        <time>2020-05-24T07:52:42.000Z</time>
      </trkpt>
      <trkpt lat="47.56989" lon="-2.24435">
        <ele>-12.199999809265</ele>
        <time>2020-05-24T07:52:43.000Z</time>
      </trkpt>
      <trkpt lat="47.56983" lon="-2.24411">
        <ele>-12.199999809265</ele>
        <time>2020-05-24T07:52:47.000Z</time>
      </trkpt>
      <trkpt lat="47.56973" lon="-2.24354">
        <ele>-12.199999809265</ele>
        <time>2020-05-24T07:52:56.000Z</time>
      </trkpt>
      <trkpt lat="47.5697" lon="-2.24336">
        <ele>-12.199999809265</ele>
        <time>2020-05-24T07:52:59.000Z</time>
      </trkpt>
      <trkpt lat="47.56966" lon="-2.24313">
        <ele>-12.199999809265</ele>
        <time>2020-05-24T07:53:03.000Z</time>
      </trkpt>
      <trkpt lat="47.56958" lon="-2.24271">
        <ele>-12.199999809265</ele>
        <time>2020-05-24T07:53:11.000Z</time>
      </trkpt>
      <trkpt lat="47.56953" lon="-2.24237">
        <ele>-12.199999809265</ele>
        <time>2020-05-24T07:53:18.000Z</time>
      </trkpt>
      <trkpt lat="47.56947" lon="-2.2421">
        <ele>-12.199999809265</ele>
        <time>2020-05-24T07:53:25.000Z</time>
      </trkpt>
      <trkpt lat="47.56946" lon="-2.24208">
        <ele>-12.199999809265</ele>
        <time>2020-05-24T07:53:27.000Z</time>
      </trkpt>
      <trkpt lat="47.56943" lon="-2.24208">
        <ele>-12.199999809265</ele>
        <time>2020-05-24T07:55:54.000Z</time>
      </trkpt>
      <trkpt lat="47.56942" lon="-2.24208">
        <ele>-12.199999809265</ele>
        <time>2020-05-24T07:55:55.000Z</time>
      </trkpt>
      <trkpt lat="47.56937" lon="-2.2421">
        <ele>-12.199999809265</ele>
        <time>2020-05-24T07:55:58.000Z</time>
      </trkpt>
      <trkpt lat="47.56929" lon="-2.24215">
        <ele>-12.199999809265</ele>
        <time>2020-05-24T07:56:02.000Z</time>
      </trkpt>
      <trkpt lat="47.56919" lon="-2.24219">
        <ele>-12.199999809265</ele>
        <time>2020-05-24T07:56:08.000Z</time>
      </trkpt>
      <trkpt lat="47.56915" lon="-2.2422">
        <ele>-12.199999809265</ele>
        <time>2020-05-24T07:56:11.000Z</time>
      </trkpt>
      <trkpt lat="47.56909" lon="-2.24224">
        <ele>-12.199999809265</ele>
        <time>2020-05-24T07:56:14.000Z</time>
      </trkpt>
      <trkpt lat="47.5689" lon="-2.24234">
        <ele>-12.199999809265</ele>
        <time>2020-05-24T07:56:20.000Z</time>
      </trkpt>
      <trkpt lat="47.56867" lon="-2.24247">
        <ele>-12.60000038147</ele>
        <time>2020-05-24T07:56:25.000Z</time>
      </trkpt>
      <trkpt lat="47.56861" lon="-2.24251">
        <ele>-13.39999961853</ele>
        <time>2020-05-24T07:56:26.000Z</time>
      </trkpt>
      <trkpt lat="47.56855" lon="-2.24254">
        <ele>-13.800000190735</ele>
        <time>2020-05-24T07:56:27.000Z</time>
      </trkpt>
      <trkpt lat="47.56849" lon="-2.24257">
        <ele>-14.199999809265</ele>
        <time>2020-05-24T07:56:28.000Z</time>
      </trkpt>
      <trkpt lat="47.56822" lon="-2.24272">
        <ele>-14.60000038147</ele>
        <time>2020-05-24T07:56:32.000Z</time>
      </trkpt>
      <trkpt lat="47.56815" lon="-2.24276">
        <ele>-15</ele>
        <time>2020-05-24T07:56:33.000Z</time>
      </trkpt>
      <trkpt lat="47.56808" lon="-2.2428">
        <ele>-15.60000038147</ele>
        <time>2020-05-24T07:56:34.000Z</time>
      </trkpt>
      <trkpt lat="47.56801" lon="-2.24284">
        <ele>-16</ele>
        <time>2020-05-24T07:56:35.000Z</time>
      </trkpt>
      <trkpt lat="47.56794" lon="-2.24287">
        <ele>-16.39999961853</ele>
        <time>2020-05-24T07:56:36.000Z</time>
      </trkpt>
      <trkpt lat="47.56766" lon="-2.24298">
        <ele>-16.39999961853</ele>
        <time>2020-05-24T07:56:40.000Z</time>
      </trkpt>
      <trkpt lat="47.56752" lon="-2.24301">
        <ele>-16.799999237061</ele>
        <time>2020-05-24T07:56:42.000Z</time>
      </trkpt>
      <trkpt lat="47.56746" lon="-2.24304">
        <ele>-17.200000762939</ele>
        <time>2020-05-24T07:56:43.000Z</time>
      </trkpt>
      <trkpt lat="47.56739" lon="-2.24306">
        <ele>-17.60000038147</ele>
        <time>2020-05-24T07:56:44.000Z</time>
      </trkpt>
      <trkpt lat="47.56733" lon="-2.24309">
        <ele>-18</ele>
        <time>2020-05-24T07:56:45.000Z</time>
      </trkpt>
      <trkpt lat="47.56727" lon="-2.24314">
        <ele>-18.39999961853</ele>
        <time>2020-05-24T07:56:46.000Z</time>
      </trkpt>
      <trkpt lat="47.56699" lon="-2.24333">
        <ele>-18.39999961853</ele>
        <time>2020-05-24T07:56:51.000Z</time>
      </trkpt>
      <trkpt lat="47.56694" lon="-2.24335">
        <ele>-18.39999961853</ele>
        <time>2020-05-24T07:56:52.000Z</time>
      </trkpt>
      <trkpt lat="47.56665" lon="-2.2434">
        <ele>-18.39999961853</ele>
        <time>2020-05-24T07:56:57.000Z</time>
      </trkpt>
      <trkpt lat="47.56635" lon="-2.2434">
        <ele>-18.799999237061</ele>
        <time>2020-05-24T07:57:02.000Z</time>
      </trkpt>
      <trkpt lat="47.56629" lon="-2.24339">
        <ele>-19.200000762939</ele>
        <time>2020-05-24T07:57:03.000Z</time>
      </trkpt>
      <trkpt lat="47.56623" lon="-2.24337">
        <ele>-19.60000038147</ele>
        <time>2020-05-24T07:57:04.000Z</time>
      </trkpt>
      <trkpt lat="47.56616" lon="-2.24336">
        <ele>-20</ele>
        <time>2020-05-24T07:57:05.000Z</time>
      </trkpt>
      <trkpt lat="47.56611" lon="-2.24333">
        <ele>-20.60000038147</ele>
        <time>2020-05-24T07:57:06.000Z</time>
      </trkpt>
      <trkpt lat="47.566" lon="-2.2433">
        <ele>-20.60000038147</ele>
        <time>2020-05-24T07:57:08.000Z</time>
      </trkpt>
      <trkpt lat="47.56572" lon="-2.24327">
        <ele>-20.60000038147</ele>
        <time>2020-05-24T07:57:14.000Z</time>
      </trkpt>
      <trkpt lat="47.56553" lon="-2.24328">
        <ele>-20.200000762939</ele>
        <time>2020-05-24T07:57:19.000Z</time>
      </trkpt>
      <trkpt lat="47.5655" lon="-2.24329">
        <ele>-19.60000038147</ele>
        <time>2020-05-24T07:57:20.000Z</time>
      </trkpt>
      <trkpt lat="47.56546" lon="-2.24329">
        <ele>-19.200000762939</ele>
        <time>2020-05-24T07:57:21.000Z</time>
      </trkpt>
      <trkpt lat="47.56543" lon="-2.2433">
        <ele>-18.799999237061</ele>
        <time>2020-05-24T07:57:22.000Z</time>
      </trkpt>
      <trkpt lat="47.5654" lon="-2.24331">
        <ele>-18.39999961853</ele>
        <time>2020-05-24T07:57:23.000Z</time>
      </trkpt>
      <trkpt lat="47.56523" lon="-2.24334">
        <ele>-18</ele>
        <time>2020-05-24T07:57:28.000Z</time>
      </trkpt>
      <trkpt lat="47.5652" lon="-2.24336">
        <ele>-17.60000038147</ele>
        <time>2020-05-24T07:57:29.000Z</time>
      </trkpt>
      <trkpt lat="47.56518" lon="-2.2434">
        <ele>-17.200000762939</ele>
        <time>2020-05-24T07:57:30.000Z</time>
      </trkpt>
      <trkpt lat="47.56517" lon="-2.24346">
        <ele>-16.799999237061</ele>
        <time>2020-05-24T07:57:31.000Z</time>
      </trkpt>
      <trkpt lat="47.56516" lon="-2.24352">
        <ele>-16.39999961853</ele>
        <time>2020-05-24T07:57:32.000Z</time>
      </trkpt>
      <trkpt lat="47.56518" lon="-2.24369">
        <ele>-16.39999961853</ele>
        <time>2020-05-24T07:57:35.000Z</time>
      </trkpt>
      <trkpt lat="47.56521" lon="-2.2438">
        <ele>-16.39999961853</ele>
        <time>2020-05-24T07:57:37.000Z</time>
      </trkpt>
      <trkpt lat="47.56528" lon="-2.2441">
        <ele>-16.39999961853</ele>
        <time>2020-05-24T07:57:42.000Z</time>
      </trkpt>
      <trkpt lat="47.56532" lon="-2.24427">
        <ele>-16.39999961853</ele>
        <time>2020-05-24T07:57:46.000Z</time>
      </trkpt>
      <trkpt lat="47.56538" lon="-2.24456">
        <ele>-16.39999961853</ele>
        <time>2020-05-24T07:57:52.000Z</time>
      </trkpt>
      <trkpt lat="47.56544" lon="-2.24493">
        <ele>-16.39999961853</ele>
        <time>2020-05-24T07:57:57.000Z</time>
      </trkpt>
      <trkpt lat="47.56549" lon="-2.24519">
        <ele>-16.39999961853</ele>
        <time>2020-05-24T07:58:01.000Z</time>
      </trkpt>
      <trkpt lat="47.56558" lon="-2.24535">
        <ele>-16.39999961853</ele>
        <time>2020-05-24T07:58:04.000Z</time>
      </trkpt>
      <trkpt lat="47.56567" lon="-2.24551">
        <ele>-16.39999961853</ele>
        <time>2020-05-24T07:58:07.000Z</time>
      </trkpt>
      <trkpt lat="47.56578" lon="-2.24568">
        <ele>-16</ele>
        <time>2020-05-24T07:58:10.000Z</time>
      </trkpt>
      <trkpt lat="47.56581" lon="-2.24573">
        <ele>-15.60000038147</ele>
        <time>2020-05-24T07:58:11.000Z</time>
      </trkpt>
      <trkpt lat="47.56585" lon="-2.24578">
        <ele>-15.199999809265</ele>
        <time>2020-05-24T07:58:12.000Z</time>
      </trkpt>
      <trkpt lat="47.56588" lon="-2.24583">
        <ele>-14.800000190735</ele>
        <time>2020-05-24T07:58:13.000Z</time>
      </trkpt>
      <trkpt lat="47.56591" lon="-2.24589">
        <ele>-14.39999961853</ele>
        <time>2020-05-24T07:58:14.000Z</time>
      </trkpt>
      <trkpt lat="47.56614" lon="-2.24626">
        <ele>-14.39999961853</ele>
        <time>2020-05-24T07:58:21.000Z</time>
      </trkpt>
      <trkpt lat="47.56631" lon="-2.24651">
        <ele>-14.39999961853</ele>
        <time>2020-05-24T07:58:26.000Z</time>
      </trkpt>
      <trkpt lat="47.56634" lon="-2.24656">
        <ele>-14.39999961853</ele>
        <time>2020-05-24T07:58:27.000Z</time>
      </trkpt>
      <trkpt lat="47.56654" lon="-2.24689">
        <ele>-14.39999961853</ele>
        <time>2020-05-24T07:58:34.000Z</time>
      </trkpt>
      <trkpt lat="47.56678" lon="-2.24729">
        <ele>-14.800000190735</ele>
        <time>2020-05-24T07:58:41.000Z</time>
      </trkpt>
      <trkpt lat="47.56682" lon="-2.24736">
        <ele>-15.199999809265</ele>
        <time>2020-05-24T07:58:42.000Z</time>
      </trkpt>
      <trkpt lat="47.56685" lon="-2.24742">
        <ele>-15.60000038147</ele>
        <time>2020-05-24T07:58:43.000Z</time>
      </trkpt>
      <trkpt lat="47.56689" lon="-2.24749">
        <ele>-16</ele>
        <time>2020-05-24T07:58:44.000Z</time>
      </trkpt>
      <trkpt lat="47.56694" lon="-2.24757">
        <ele>-16.39999961853</ele>
        <time>2020-05-24T07:58:45.000Z</time>
      </trkpt>
      <trkpt lat="47.56702" lon="-2.24773">
        <ele>-16.39999961853</ele>
        <time>2020-05-24T07:58:47.000Z</time>
      </trkpt>
      <trkpt lat="47.5671" lon="-2.24791">
        <ele>-16.799999237061</ele>
        <time>2020-05-24T07:58:49.000Z</time>
      </trkpt>
      <trkpt lat="47.56714" lon="-2.248">
        <ele>-17.39999961853</ele>
        <time>2020-05-24T07:58:50.000Z</time>
      </trkpt>
      <trkpt lat="47.56718" lon="-2.2481">
        <ele>-17.799999237061</ele>
        <time>2020-05-24T07:58:51.000Z</time>
      </trkpt>
      <trkpt lat="47.56721" lon="-2.2482">
        <ele>-18.200000762939</ele>
        <time>2020-05-24T07:58:52.000Z</time>
      </trkpt>
      <trkpt lat="47.56725" lon="-2.24831">
        <ele>-18.60000038147</ele>
        <time>2020-05-24T07:58:53.000Z</time>
      </trkpt>
      <trkpt lat="47.56728" lon="-2.24841">
        <ele>-19.60000038147</ele>
        <time>2020-05-24T07:58:54.000Z</time>
      </trkpt>
      <trkpt lat="47.56732" lon="-2.24853">
        <ele>-20</ele>
        <time>2020-05-24T07:58:55.000Z</time>
      </trkpt>
      <trkpt lat="47.56736" lon="-2.24865">
        <ele>-20.60000038147</ele>
        <time>2020-05-24T07:58:56.000Z</time>
      </trkpt>
      <trkpt lat="47.5674" lon="-2.24877">
        <ele>-21</ele>
        <time>2020-05-24T07:58:57.000Z</time>
      </trkpt>
      <trkpt lat="47.56744" lon="-2.24889">
        <ele>-21.60000038147</ele>
        <time>2020-05-24T07:58:58.000Z</time>
      </trkpt>
      <trkpt lat="47.56747" lon="-2.24901">
        <ele>-22.200000762939</ele>
        <time>2020-05-24T07:58:59.000Z</time>
      </trkpt>
      <trkpt lat="47.56751" lon="-2.24913">
        <ele>-22.799999237061</ele>
        <time>2020-05-24T07:59:00.000Z</time>
      </trkpt>
      <trkpt lat="47.56755" lon="-2.24925">
        <ele>-23.39999961853</ele>
        <time>2020-05-24T07:59:01.000Z</time>
      </trkpt>
      <trkpt lat="47.56759" lon="-2.24937">
        <ele>-24.200000762939</ele>
        <time>2020-05-24T07:59:02.000Z</time>
      </trkpt>
      <trkpt lat="47.56763" lon="-2.2495">
        <ele>-24.799999237061</ele>
        <time>2020-05-24T07:59:03.000Z</time>
      </trkpt>
      <trkpt lat="47.56768" lon="-2.24962">
        <ele>-25.39999961853</ele>
        <time>2020-05-24T07:59:04.000Z</time>
      </trkpt>
      <trkpt lat="47.56772" lon="-2.24974">
        <ele>-26.200000762939</ele>
        <time>2020-05-24T07:59:05.000Z</time>
      </trkpt>
      <trkpt lat="47.56776" lon="-2.24986">
        <ele>-26.799999237061</ele>
        <time>2020-05-24T07:59:06.000Z</time>
      </trkpt>
      <trkpt lat="47.56779" lon="-2.24997">
        <ele>-27.60000038147</ele>
        <time>2020-05-24T07:59:07.000Z</time>
      </trkpt>
      <trkpt lat="47.56783" lon="-2.25008">
        <ele>-28.39999961853</ele>
        <time>2020-05-24T07:59:08.000Z</time>
      </trkpt>
      <trkpt lat="47.56786" lon="-2.25017">
        <ele>-29.39999961853</ele>
        <time>2020-05-24T07:59:09.000Z</time>
      </trkpt>
      <trkpt lat="47.56789" lon="-2.25027">
        <ele>-30.39999961853</ele>
        <time>2020-05-24T07:59:10.000Z</time>
      </trkpt>
      <trkpt lat="47.56791" lon="-2.25034">
        <ele>-31.200000762939</ele>
        <time>2020-05-24T07:59:11.000Z</time>
      </trkpt>
      <trkpt lat="47.56792" lon="-2.25041">
        <ele>-32.200000762939</ele>
        <time>2020-05-24T07:59:12.000Z</time>
      </trkpt>
      <trkpt lat="47.56791" lon="-2.25048">
        <ele>-33</ele>
        <time>2020-05-24T07:59:13.000Z</time>
      </trkpt>
      <trkpt lat="47.56789" lon="-2.25053">
        <ele>-33.799999237061</ele>
        <time>2020-05-24T07:59:14.000Z</time>
      </trkpt>
      <trkpt lat="47.56786" lon="-2.25057">
        <ele>-34.799999237061</ele>
        <time>2020-05-24T07:59:15.000Z</time>
      </trkpt>
      <trkpt lat="47.56783" lon="-2.2506">
        <ele>-35.599998474121</ele>
        <time>2020-05-24T07:59:16.000Z</time>
      </trkpt>
      <trkpt lat="47.56779" lon="-2.25061">
        <ele>-36.400001525879</ele>
        <time>2020-05-24T07:59:17.000Z</time>
      </trkpt>
      <trkpt lat="47.56776" lon="-2.25062">
        <ele>-38.200000762939</ele>
        <time>2020-05-24T07:59:18.000Z</time>
      </trkpt>
      <trkpt lat="47.56772" lon="-2.25063">
        <ele>-38.200000762939</ele>
        <time>2020-05-24T07:59:19.000Z</time>
      </trkpt>
      <trkpt lat="47.56742" lon="-2.25071">
        <ele>-37.799999237061</ele>
        <time>2020-05-24T07:59:26.000Z</time>
      </trkpt>
      <trkpt lat="47.56739" lon="-2.25073">
        <ele>-37.400001525879</ele>
        <time>2020-05-24T07:59:27.000Z</time>
      </trkpt>
      <trkpt lat="47.56735" lon="-2.25074">
        <ele>-36.799999237061</ele>
        <time>2020-05-24T07:59:28.000Z</time>
      </trkpt>
      <trkpt lat="47.56731" lon="-2.25074">
        <ele>-36.400001525879</ele>
        <time>2020-05-24T07:59:29.000Z</time>
      </trkpt>
      <trkpt lat="47.56727" lon="-2.25075">
        <ele>-36</ele>
        <time>2020-05-24T07:59:30.000Z</time>
      </trkpt>
      <trkpt lat="47.56716" lon="-2.25077">
        <ele>-36</ele>
        <time>2020-05-24T07:59:33.000Z</time>
      </trkpt>
      <trkpt lat="47.56698" lon="-2.25079">
        <ele>-36</ele>
        <time>2020-05-24T07:59:39.000Z</time>
      </trkpt>
      <trkpt lat="47.5669" lon="-2.25084">
        <ele>-36</ele>
        <time>2020-05-24T07:59:45.000Z</time>
      </trkpt>
      <trkpt lat="47.56689" lon="-2.25086">
        <ele>-36</ele>
        <time>2020-05-24T07:59:46.000Z</time>
      </trkpt>
      <trkpt lat="47.56686" lon="-2.25101">
        <ele>-36.400001525879</ele>
        <time>2020-05-24T07:59:53.000Z</time>
      </trkpt>
      <trkpt lat="47.56686" lon="-2.25103">
        <ele>-36.799999237061</ele>
        <time>2020-05-24T07:59:54.000Z</time>
      </trkpt>
      <trkpt lat="47.56686" lon="-2.25105">
        <ele>-37.200000762939</ele>
        <time>2020-05-24T07:59:55.000Z</time>
      </trkpt>
      <trkpt lat="47.56685" lon="-2.25106">
        <ele>-37.599998474121</ele>
        <time>2020-05-24T07:59:56.000Z</time>
      </trkpt>
      <trkpt lat="47.56685" lon="-2.25107">
        <ele>-38.200000762939</ele>
        <time>2020-05-24T07:59:57.000Z</time>
      </trkpt>
      <trkpt lat="47.56685" lon="-2.25109">
        <ele>-38.200000762939</ele>
        <time>2020-05-24T07:59:58.000Z</time>
      </trkpt>
      <trkpt lat="47.56685" lon="-2.25111">
        <ele>-38.599998474121</ele>
        <time>2020-05-24T07:59:59.000Z</time>
      </trkpt>
      <trkpt lat="47.56685" lon="-2.25112">
        <ele>-39</ele>
        <time>2020-05-24T08:00:00.000Z</time>
      </trkpt>
      <trkpt lat="47.56685" lon="-2.25114">
        <ele>-39.400001525879</ele>
        <time>2020-05-24T08:00:01.000Z</time>
      </trkpt>
      <trkpt lat="47.56685" lon="-2.25115">
        <ele>-39.799999237061</ele>
        <time>2020-05-24T08:00:02.000Z</time>
      </trkpt>
      <trkpt lat="47.56686" lon="-2.25116">
        <ele>-40.400001525879</ele>
        <time>2020-05-24T08:00:03.000Z</time>
      </trkpt>
      <trkpt lat="47.56688" lon="-2.25116">
        <ele>-40.400001525879</ele>
        <time>2020-05-24T08:00:04.000Z</time>
      </trkpt>
      <trkpt lat="47.567" lon="-2.25117">
        <ele>-40.400001525879</ele>
        <time>2020-05-24T08:00:10.000Z</time>
      </trkpt>
      <trkpt lat="47.56701" lon="-2.25129">
        <ele>-40.799999237061</ele>
        <time>2020-05-24T08:00:15.000Z</time>
      </trkpt>
      <trkpt lat="47.56701" lon="-2.25132">
        <ele>-41.200000762939</ele>
        <time>2020-05-24T08:00:16.000Z</time>
      </trkpt>
      <trkpt lat="47.56701" lon="-2.25134">
        <ele>-41.599998474121</ele>
        <time>2020-05-24T08:00:17.000Z</time>
      </trkpt>
      <trkpt lat="47.56701" lon="-2.25137">
        <ele>-42</ele>
        <time>2020-05-24T08:00:18.000Z</time>
      </trkpt>
      <trkpt lat="47.56701" lon="-2.2514">
        <ele>-42.400001525879</ele>
        <time>2020-05-24T08:00:19.000Z</time>
      </trkpt>
      <trkpt lat="47.56701" lon="-2.25142">
        <ele>-42.400001525879</ele>
        <time>2020-05-24T08:00:20.000Z</time>
      </trkpt>
      <trkpt lat="47.56702" lon="-2.25147">
        <ele>-42.799999237061</ele>
        <time>2020-05-24T08:00:22.000Z</time>
      </trkpt>
      <trkpt lat="47.56701" lon="-2.25149">
        <ele>-43.200000762939</ele>
        <time>2020-05-24T08:00:23.000Z</time>
      </trkpt>
      <trkpt lat="47.56701" lon="-2.25151">
        <ele>-43.799999237061</ele>
        <time>2020-05-24T08:00:24.000Z</time>
      </trkpt>
      <trkpt lat="47.567" lon="-2.25152">
        <ele>-44.200000762939</ele>
        <time>2020-05-24T08:00:25.000Z</time>
      </trkpt>
      <trkpt lat="47.56699" lon="-2.25153">
        <ele>-44.599998474121</ele>
        <time>2020-05-24T08:00:26.000Z</time>
      </trkpt>
      <trkpt lat="47.56697" lon="-2.25154">
        <ele>-45.200000762939</ele>
        <time>2020-05-24T08:00:28.000Z</time>
      </trkpt>
      <trkpt lat="47.56695" lon="-2.25153">
        <ele>-45.599998474121</ele>
        <time>2020-05-24T08:00:29.000Z</time>
      </trkpt>
      <trkpt lat="47.56694" lon="-2.25153">
        <ele>-46</ele>
        <time>2020-05-24T08:00:30.000Z</time>
      </trkpt>
      <trkpt lat="47.56692" lon="-2.25152">
        <ele>-46.400001525879</ele>
        <time>2020-05-24T08:00:31.000Z</time>
      </trkpt>
      <trkpt lat="47.56691" lon="-2.25151">
        <ele>-46.799999237061</ele>
        <time>2020-05-24T08:00:32.000Z</time>
      </trkpt>
      <trkpt lat="47.5669" lon="-2.2515">
        <ele>-46.799999237061</ele>
        <time>2020-05-24T08:00:33.000Z</time>
      </trkpt>
      <trkpt lat="47.5668" lon="-2.25148">
        <ele>-46.799999237061</ele>
        <time>2020-05-24T08:00:39.000Z</time>
      </trkpt>
      <trkpt lat="47.56678" lon="-2.25146">
        <ele>-46.799999237061</ele>
        <time>2020-05-24T08:00:40.000Z</time>
      </trkpt>
      <trkpt lat="47.56675" lon="-2.25141">
        <ele>-46.400001525879</ele>
        <time>2020-05-24T08:00:42.000Z</time>
      </trkpt>
      <trkpt lat="47.56674" lon="-2.25139">
        <ele>-46</ele>
        <time>2020-05-24T08:00:43.000Z</time>
      </trkpt>
      <trkpt lat="47.56673" lon="-2.25137">
        <ele>-45.599998474121</ele>
        <time>2020-05-24T08:00:44.000Z</time>
      </trkpt>
      <trkpt lat="47.56672" lon="-2.25135">
        <ele>-45.200000762939</ele>
        <time>2020-05-24T08:00:45.000Z</time>
      </trkpt>
      <trkpt lat="47.56671" lon="-2.25134">
        <ele>-44.799999237061</ele>
        <time>2020-05-24T08:00:46.000Z</time>
      </trkpt>
      <trkpt lat="47.56668" lon="-2.25133">
        <ele>-44.400001525879</ele>
        <time>2020-05-24T08:00:49.000Z</time>
      </trkpt>
      <trkpt lat="47.56667" lon="-2.25133">
        <ele>-44</ele>
        <time>2020-05-24T08:00:50.000Z</time>
      </trkpt>
      <trkpt lat="47.56666" lon="-2.25134">
        <ele>-43.599998474121</ele>
        <time>2020-05-24T08:00:51.000Z</time>
      </trkpt>
      <trkpt lat="47.56665" lon="-2.25135">
        <ele>-43.200000762939</ele>
        <time>2020-05-24T08:00:52.000Z</time>
      </trkpt>
      <trkpt lat="47.56664" lon="-2.25136">
        <ele>-42.599998474121</ele>
        <time>2020-05-24T08:00:53.000Z</time>
      </trkpt>
      <trkpt lat="47.56663" lon="-2.25138">
        <ele>-42.599998474121</ele>
        <time>2020-05-24T08:00:54.000Z</time>
      </trkpt>
      <trkpt lat="47.56659" lon="-2.2514">
        <ele>-42.599998474121</ele>
        <time>2020-05-24T08:00:57.000Z</time>
      </trkpt>
      <trkpt lat="47.56655" lon="-2.2514">
        <ele>-42.599998474121</ele>
        <time>2020-05-24T08:00:59.000Z</time>
      </trkpt>
      <trkpt lat="47.56652" lon="-2.2514">
        <ele>-42.200000762939</ele>
        <time>2020-05-24T08:01:01.000Z</time>
      </trkpt>
      <trkpt lat="47.5665" lon="-2.25142">
        <ele>-41.799999237061</ele>
        <time>2020-05-24T08:01:02.000Z</time>
      </trkpt>
      <trkpt lat="47.56648" lon="-2.25144">
        <ele>-41.400001525879</ele>
        <time>2020-05-24T08:01:03.000Z</time>
      </trkpt>
      <trkpt lat="47.56647" lon="-2.25147">
        <ele>-41</ele>
        <time>2020-05-24T08:01:04.000Z</time>
      </trkpt>
      <trkpt lat="47.56646" lon="-2.25149">
        <ele>-40.400001525879</ele>
        <time>2020-05-24T08:01:05.000Z</time>
      </trkpt>
      <trkpt lat="47.56645" lon="-2.25169">
        <ele>-41</ele>
        <time>2020-05-24T08:01:10.000Z</time>
      </trkpt>
      <trkpt lat="47.56645" lon="-2.25172">
        <ele>-41.400001525879</ele>
        <time>2020-05-24T08:01:11.000Z</time>
      </trkpt>
      <trkpt lat="47.56646" lon="-2.25175">
        <ele>-42</ele>
        <time>2020-05-24T08:01:12.000Z</time>
      </trkpt>
      <trkpt lat="47.56646" lon="-2.25178">
        <ele>-42.400001525879</ele>
        <time>2020-05-24T08:01:13.000Z</time>
      </trkpt>
      <trkpt lat="47.56646" lon="-2.2518">
        <ele>-43</ele>
        <time>2020-05-24T08:01:14.000Z</time>
      </trkpt>
      <trkpt lat="47.56645" lon="-2.25182">
        <ele>-43.400001525879</ele>
        <time>2020-05-24T08:01:15.000Z</time>
      </trkpt>
      <trkpt lat="47.56644" lon="-2.25185">
        <ele>-44</ele>
        <time>2020-05-24T08:01:16.000Z</time>
      </trkpt>
      <trkpt lat="47.56642" lon="-2.25187">
        <ele>-44.400001525879</ele>
        <time>2020-05-24T08:01:17.000Z</time>
      </trkpt>
      <trkpt lat="47.5664" lon="-2.25188">
        <ele>-45</ele>
        <time>2020-05-24T08:01:18.000Z</time>
      </trkpt>
      <trkpt lat="47.56635" lon="-2.25192">
        <ele>-45</ele>
        <time>2020-05-24T08:01:20.000Z</time>
      </trkpt>
      <trkpt lat="47.56616" lon="-2.252">
        <ele>-45</ele>
        <time>2020-05-24T08:01:26.000Z</time>
      </trkpt>
      <trkpt lat="47.56596" lon="-2.2521">
        <ele>-45</ele>
        <time>2020-05-24T08:01:33.000Z</time>
      </trkpt>
      <trkpt lat="47.56576" lon="-2.25214">
        <ele>-45</ele>
        <time>2020-05-24T08:01:40.000Z</time>
      </trkpt>
      <trkpt lat="47.56573" lon="-2.25215">
        <ele>-45</ele>
        <time>2020-05-24T08:01:41.000Z</time>
      </trkpt>
      <trkpt lat="47.56566" lon="-2.25217">
        <ele>-45</ele>
        <time>2020-05-24T08:01:44.000Z</time>
      </trkpt>
      <trkpt lat="47.56553" lon="-2.25218">
        <ele>-45</ele>
        <time>2020-05-24T08:01:48.000Z</time>
      </trkpt>
      <trkpt lat="47.5654" lon="-2.2522">
        <ele>-45</ele>
        <time>2020-05-24T08:01:53.000Z</time>
      </trkpt>
      <trkpt lat="47.56538" lon="-2.25219">
        <ele>-45</ele>
        <time>2020-05-24T08:01:54.000Z</time>
      </trkpt>
      <trkpt lat="47.56532" lon="-2.25215">
        <ele>-44.599998474121</ele>
        <time>2020-05-24T08:01:59.000Z</time>
      </trkpt>
      <trkpt lat="47.56532" lon="-2.25215">
        <ele>-44</ele>
        <time>2020-05-24T08:02:00.000Z</time>
      </trkpt>
      <trkpt lat="47.56531" lon="-2.25214">
        <ele>-43.599998474121</ele>
        <time>2020-05-24T08:02:01.000Z</time>
      </trkpt>
      <trkpt lat="47.5653" lon="-2.25211">
        <ele>-43.200000762939</ele>
        <time>2020-05-24T08:02:02.000Z</time>
      </trkpt>
      <trkpt lat="47.56529" lon="-2.25211">
        <ele>-42.799999237061</ele>
        <time>2020-05-24T08:02:03.000Z</time>
      </trkpt>
      <trkpt lat="47.56524" lon="-2.25208">
        <ele>-42.799999237061</ele>
        <time>2020-05-24T08:02:06.000Z</time>
      </trkpt>
      <trkpt lat="47.5652" lon="-2.25207">
        <ele>-42.400001525879</ele>
        <time>2020-05-24T08:02:09.000Z</time>
      </trkpt>
      <trkpt lat="47.56519" lon="-2.25207">
        <ele>-42</ele>
        <time>2020-05-24T08:02:10.000Z</time>
      </trkpt>
      <trkpt lat="47.56517" lon="-2.25207">
        <ele>-41.200000762939</ele>
        <time>2020-05-24T08:02:11.000Z</time>
      </trkpt>
      <trkpt lat="47.56515" lon="-2.25208">
        <ele>-40.599998474121</ele>
        <time>2020-05-24T08:02:12.000Z</time>
      </trkpt>
      <trkpt lat="47.56514" lon="-2.25207">
        <ele>-40.599998474121</ele>
        <time>2020-05-24T08:02:13.000Z</time>
      </trkpt>
      <trkpt lat="47.565" lon="-2.25204">
        <ele>-40.599998474121</ele>
        <time>2020-05-24T08:02:22.000Z</time>
      </trkpt>
      <trkpt lat="47.56497" lon="-2.25204">
        <ele>-40.200000762939</ele>
        <time>2020-05-24T08:02:25.000Z</time>
      </trkpt>
      <trkpt lat="47.56496" lon="-2.25204">
        <ele>-39.799999237061</ele>
        <time>2020-05-24T08:02:26.000Z</time>
      </trkpt>
      <trkpt lat="47.56494" lon="-2.25205">
        <ele>-39.400001525879</ele>
        <time>2020-05-24T08:02:27.000Z</time>
      </trkpt>
      <trkpt lat="47.56492" lon="-2.25205">
        <ele>-39</ele>
        <time>2020-05-24T08:02:28.000Z</time>
      </trkpt>
      <trkpt lat="47.56491" lon="-2.25204">
        <ele>-38.599998474121</ele>
        <time>2020-05-24T08:02:29.000Z</time>
      </trkpt>
      <trkpt lat="47.56489" lon="-2.25204">
        <ele>-38.599998474121</ele>
        <time>2020-05-24T08:02:30.000Z</time>
      </trkpt>
      <trkpt lat="47.56485" lon="-2.25204">
        <ele>-38.599998474121</ele>
        <time>2020-05-24T08:02:32.000Z</time>
      </trkpt>
      <trkpt lat="47.56477" lon="-2.25205">
        <ele>-38.599998474121</ele>
        <time>2020-05-24T08:02:38.000Z</time>
      </trkpt>
      <trkpt lat="47.56471" lon="-2.25202">
        <ele>-38.200000762939</ele>
        <time>2020-05-24T08:02:43.000Z</time>
      </trkpt>
      <trkpt lat="47.5647" lon="-2.25201">
        <ele>-37.799999237061</ele>
        <time>2020-05-24T08:02:44.000Z</time>
      </trkpt>
      <trkpt lat="47.56469" lon="-2.25201">
        <ele>-37.400001525879</ele>
        <time>2020-05-24T08:02:45.000Z</time>
      </trkpt>
      <trkpt lat="47.56467" lon="-2.25201">
        <ele>-37</ele>
        <time>2020-05-24T08:02:46.000Z</time>
      </trkpt>
      <trkpt lat="47.56466" lon="-2.25201">
        <ele>-36.599998474121</ele>
        <time>2020-05-24T08:02:47.000Z</time>
      </trkpt>
      <trkpt lat="47.56457" lon="-2.25204">
        <ele>-36.599998474121</ele>
        <time>2020-05-24T08:02:51.000Z</time>
      </trkpt>
      <trkpt lat="47.56443" lon="-2.25198">
        <ele>-36.599998474121</ele>
        <time>2020-05-24T08:02:58.000Z</time>
      </trkpt>
      <trkpt lat="47.5644" lon="-2.25193">
        <ele>-35.799999237061</ele>
        <time>2020-05-24T08:03:01.000Z</time>
      </trkpt>
      <trkpt lat="47.56439" lon="-2.25191">
        <ele>-35.200000762939</ele>
        <time>2020-05-24T08:03:02.000Z</time>
      </trkpt>
      <trkpt lat="47.56438" lon="-2.2519">
        <ele>-34.799999237061</ele>
        <time>2020-05-24T08:03:03.000Z</time>
      </trkpt>
      <trkpt lat="47.56437" lon="-2.25189">
        <ele>-34.400001525879</ele>
        <time>2020-05-24T08:03:04.000Z</time>
      </trkpt>
      <trkpt lat="47.56436" lon="-2.25188">
        <ele>-34.400001525879</ele>
        <time>2020-05-24T08:03:05.000Z</time>
      </trkpt>
      <trkpt lat="47.56404" lon="-2.25157">
        <ele>-28</ele>
        <time>2020-05-24T08:03:55.000Z</time>
      </trkpt>
      <trkpt lat="47.56397" lon="-2.25159">
        <ele>-28</ele>
        <time>2020-05-24T08:03:58.000Z</time>
      </trkpt>
      <trkpt lat="47.56394" lon="-2.25159">
        <ele>-27.60000038147</ele>
        <time>2020-05-24T08:03:59.000Z</time>
      </trkpt>
      <trkpt lat="47.56391" lon="-2.25159">
        <ele>-27.200000762939</ele>
        <time>2020-05-24T08:04:00.000Z</time>
      </trkpt>
      <trkpt lat="47.56389" lon="-2.25159">
        <ele>-26.799999237061</ele>
        <time>2020-05-24T08:04:01.000Z</time>
      </trkpt>
      <trkpt lat="47.56387" lon="-2.25159">
        <ele>-26.39999961853</ele>
        <time>2020-05-24T08:04:02.000Z</time>
      </trkpt>
      <trkpt lat="47.56384" lon="-2.25159">
        <ele>-26</ele>
        <time>2020-05-24T08:04:03.000Z</time>
      </trkpt>
      <trkpt lat="47.56379" lon="-2.25159">
        <ele>-26</ele>
        <time>2020-05-24T08:04:05.000Z</time>
      </trkpt>
      <trkpt lat="47.56369" lon="-2.25159">
        <ele>-25.60000038147</ele>
        <time>2020-05-24T08:04:09.000Z</time>
      </trkpt>
      <trkpt lat="47.56366" lon="-2.2516">
        <ele>-25.200000762939</ele>
        <time>2020-05-24T08:04:10.000Z</time>
      </trkpt>
      <trkpt lat="47.56363" lon="-2.25161">
        <ele>-24.799999237061</ele>
        <time>2020-05-24T08:04:11.000Z</time>
      </trkpt>
      <trkpt lat="47.56361" lon="-2.25163">
        <ele>-24.39999961853</ele>
        <time>2020-05-24T08:04:12.000Z</time>
      </trkpt>
      <trkpt lat="47.56358" lon="-2.25166">
        <ele>-24</ele>
        <time>2020-05-24T08:04:13.000Z</time>
      </trkpt>
      <trkpt lat="47.56353" lon="-2.25169">
        <ele>-24</ele>
        <time>2020-05-24T08:04:15.000Z</time>
      </trkpt>
      <trkpt lat="47.56351" lon="-2.25169">
        <ele>-24</ele>
        <time>2020-05-24T08:04:16.000Z</time>
      </trkpt>
      <trkpt lat="47.56344" lon="-2.25166">
        <ele>-24</ele>
        <time>2020-05-24T08:04:19.000Z</time>
      </trkpt>
      <trkpt lat="47.56343" lon="-2.25163">
        <ele>-24</ele>
        <time>2020-05-24T08:04:20.000Z</time>
      </trkpt>
      <trkpt lat="47.56341" lon="-2.25152">
        <ele>-24</ele>
        <time>2020-05-24T08:04:23.000Z</time>
      </trkpt>
      <trkpt lat="47.56332" lon="-2.25148">
        <ele>-24</ele>
        <time>2020-05-24T08:04:28.000Z</time>
      </trkpt>
      <trkpt lat="47.5633" lon="-2.25149">
        <ele>-24</ele>
        <time>2020-05-24T08:04:29.000Z</time>
      </trkpt>
      <trkpt lat="47.56319" lon="-2.25149">
        <ele>-24.39999961853</ele>
        <time>2020-05-24T08:04:34.000Z</time>
      </trkpt>
      <trkpt lat="47.56317" lon="-2.25149">
        <ele>-24.799999237061</ele>
        <time>2020-05-24T08:04:35.000Z</time>
      </trkpt>
      <trkpt lat="47.56315" lon="-2.25149">
        <ele>-25.39999961853</ele>
        <time>2020-05-24T08:04:36.000Z</time>
      </trkpt>
      <trkpt lat="47.56313" lon="-2.25148">
        <ele>-25.799999237061</ele>
        <time>2020-05-24T08:04:37.000Z</time>
      </trkpt>
      <trkpt lat="47.5631" lon="-2.25147">
        <ele>-26.200000762939</ele>
        <time>2020-05-24T08:04:38.000Z</time>
      </trkpt>
      <trkpt lat="47.56303" lon="-2.25144">
        <ele>-26.200000762939</ele>
        <time>2020-05-24T08:04:40.000Z</time>
      </trkpt>
      <trkpt lat="47.56286" lon="-2.25137">
        <ele>-26.200000762939</ele>
        <time>2020-05-24T08:04:46.000Z</time>
      </trkpt>
      <trkpt lat="47.5628" lon="-2.25141">
        <ele>-26.200000762939</ele>
        <time>2020-05-24T08:04:49.000Z</time>
      </trkpt>
      <trkpt lat="47.56279" lon="-2.25145">
        <ele>-26.799999237061</ele>
        <time>2020-05-24T08:04:50.000Z</time>
      </trkpt>
      <trkpt lat="47.56279" lon="-2.25148">
        <ele>-27.200000762939</ele>
        <time>2020-05-24T08:04:51.000Z</time>
      </trkpt>
      <trkpt lat="47.5628" lon="-2.25152">
        <ele>-27.60000038147</ele>
        <time>2020-05-24T08:04:52.000Z</time>
      </trkpt>
      <trkpt lat="47.56283" lon="-2.25156">
        <ele>-28</ele>
        <time>2020-05-24T08:04:53.000Z</time>
      </trkpt>
      <trkpt lat="47.56287" lon="-2.25159">
        <ele>-28.60000038147</ele>
        <time>2020-05-24T08:04:54.000Z</time>
      </trkpt>
      <trkpt lat="47.56294" lon="-2.25165">
        <ele>-28.60000038147</ele>
        <time>2020-05-24T08:04:56.000Z</time>
      </trkpt>
      <trkpt lat="47.56308" lon="-2.25171">
        <ele>-28.60000038147</ele>
        <time>2020-05-24T08:04:59.000Z</time>
      </trkpt>
      <trkpt lat="47.56311" lon="-2.25174">
        <ele>-29</ele>
        <time>2020-05-24T08:05:00.000Z</time>
      </trkpt>
      <trkpt lat="47.56314" lon="-2.25176">
        <ele>-29.39999961853</ele>
        <time>2020-05-24T08:05:01.000Z</time>
      </trkpt>
      <trkpt lat="47.56317" lon="-2.25178">
        <ele>-29.799999237061</ele>
        <time>2020-05-24T08:05:02.000Z</time>
      </trkpt>
      <trkpt lat="47.5632" lon="-2.25181">
        <ele>-30.200000762939</ele>
        <time>2020-05-24T08:05:03.000Z</time>
      </trkpt>
      <trkpt lat="47.56323" lon="-2.25183">
        <ele>-30.60000038147</ele>
        <time>2020-05-24T08:05:04.000Z</time>
      </trkpt>
      <trkpt lat="47.56337" lon="-2.25199">
        <ele>-31.200000762939</ele>
        <time>2020-05-24T08:05:08.000Z</time>
      </trkpt>
      <trkpt lat="47.56342" lon="-2.25203">
        <ele>-31.799999237061</ele>
        <time>2020-05-24T08:05:09.000Z</time>
      </trkpt>
      <trkpt lat="47.56346" lon="-2.25205">
        <ele>-32.200000762939</ele>
        <time>2020-05-24T08:05:10.000Z</time>
      </trkpt>
      <trkpt lat="47.56352" lon="-2.25211">
        <ele>-33</ele>
        <time>2020-05-24T08:05:11.000Z</time>
      </trkpt>
      <trkpt lat="47.56355" lon="-2.25215">
        <ele>-33.599998474121</ele>
        <time>2020-05-24T08:05:12.000Z</time>
      </trkpt>
      <trkpt lat="47.56357" lon="-2.2522">
        <ele>-34.400001525879</ele>
        <time>2020-05-24T08:05:13.000Z</time>
      </trkpt>
      <trkpt lat="47.5636" lon="-2.25223">
        <ele>-35</ele>
        <time>2020-05-24T08:05:14.000Z</time>
      </trkpt>
      <trkpt lat="47.56362" lon="-2.25224">
        <ele>-35.599998474121</ele>
        <time>2020-05-24T08:05:15.000Z</time>
      </trkpt>
      <trkpt lat="47.56365" lon="-2.25223">
        <ele>-36.200000762939</ele>
        <time>2020-05-24T08:05:16.000Z</time>
      </trkpt>
      <trkpt lat="47.56367" lon="-2.25224">
        <ele>-36.799999237061</ele>
        <time>2020-05-24T08:05:17.000Z</time>
      </trkpt>
      <trkpt lat="47.56369" lon="-2.25224">
        <ele>-37.400001525879</ele>
        <time>2020-05-24T08:05:18.000Z</time>
      </trkpt>
      <trkpt lat="47.56371" lon="-2.25223">
        <ele>-38</ele>
        <time>2020-05-24T08:05:19.000Z</time>
      </trkpt>
      <trkpt lat="47.56375" lon="-2.25224">
        <ele>-38</ele>
        <time>2020-05-24T08:05:22.000Z</time>
      </trkpt>
      <trkpt lat="47.56376" lon="-2.25226">
        <ele>-38</ele>
        <time>2020-05-24T08:05:23.000Z</time>
      </trkpt>
      <trkpt lat="47.56379" lon="-2.25234">
        <ele>-38</ele>
        <time>2020-05-24T08:05:27.000Z</time>
      </trkpt>
      <trkpt lat="47.5638" lon="-2.25238">
        <ele>-38</ele>
        <time>2020-05-24T08:05:30.000Z</time>
      </trkpt>
      <trkpt lat="47.56387" lon="-2.2524">
        <ele>-35.799999237061</ele>
        <time>2020-05-24T08:06:48.000Z</time>
      </trkpt>
      <trkpt lat="47.56389" lon="-2.25241">
        <ele>-35.799999237061</ele>
        <time>2020-05-24T08:06:49.000Z</time>
      </trkpt>
      <trkpt lat="47.56398" lon="-2.25244">
        <ele>-36.200000762939</ele>
        <time>2020-05-24T08:06:53.000Z</time>
      </trkpt>
      <trkpt lat="47.56401" lon="-2.25246">
        <ele>-36.599998474121</ele>
        <time>2020-05-24T08:06:54.000Z</time>
      </trkpt>
      <trkpt lat="47.56403" lon="-2.25247">
        <ele>-37</ele>
        <time>2020-05-24T08:06:55.000Z</time>
      </trkpt>
      <trkpt lat="47.56406" lon="-2.25249">
        <ele>-37.400001525879</ele>
        <time>2020-05-24T08:06:56.000Z</time>
      </trkpt>
      <trkpt lat="47.56408" lon="-2.25251">
        <ele>-37.799999237061</ele>
        <time>2020-05-24T08:06:57.000Z</time>
      </trkpt>
      <trkpt lat="47.56421" lon="-2.2526">
        <ele>-37.799999237061</ele>
        <time>2020-05-24T08:07:02.000Z</time>
      </trkpt>
      <trkpt lat="47.56442" lon="-2.25273">
        <ele>-37.799999237061</ele>
        <time>2020-05-24T08:07:10.000Z</time>
      </trkpt>
      <trkpt lat="47.56444" lon="-2.25271">
        <ele>-37.799999237061</ele>
        <time>2020-05-24T08:07:11.000Z</time>
      </trkpt>
      <trkpt lat="47.56455" lon="-2.2527">
        <ele>-37.799999237061</ele>
        <time>2020-05-24T08:07:14.000Z</time>
      </trkpt>
      <trkpt lat="47.56463" lon="-2.25273">
        <ele>-37.799999237061</ele>
        <time>2020-05-24T08:07:16.000Z</time>
      </trkpt>
      <trkpt lat="47.56475" lon="-2.25277">
        <ele>-37.799999237061</ele>
        <time>2020-05-24T08:07:19.000Z</time>
      </trkpt>
      <trkpt lat="47.56495" lon="-2.25282">
        <ele>-37.799999237061</ele>
        <time>2020-05-24T08:07:24.000Z</time>
      </trkpt>
      <trkpt lat="47.56512" lon="-2.25286">
        <ele>-37.799999237061</ele>
        <time>2020-05-24T08:07:30.000Z</time>
      </trkpt>
      <trkpt lat="47.56523" lon="-2.25283">
        <ele>-37.799999237061</ele>
        <time>2020-05-24T08:07:36.000Z</time>
      </trkpt>
      <trkpt lat="47.56541" lon="-2.25284">
        <ele>-37.799999237061</ele>
        <time>2020-05-24T08:07:42.000Z</time>
      </trkpt>
      <trkpt lat="47.56549" lon="-2.25287">
        <ele>-37.799999237061</ele>
        <time>2020-05-24T08:07:45.000Z</time>
      </trkpt>
      <trkpt lat="47.56556" lon="-2.25286">
        <ele>-37.799999237061</ele>
        <time>2020-05-24T08:07:47.000Z</time>
      </trkpt>
      <trkpt lat="47.56582" lon="-2.25293">
        <ele>-37.799999237061</ele>
        <time>2020-05-24T08:07:53.000Z</time>
      </trkpt>
      <trkpt lat="47.56587" lon="-2.25295">
        <ele>-37.799999237061</ele>
        <time>2020-05-24T08:07:54.000Z</time>
      </trkpt>
      <trkpt lat="47.56599" lon="-2.25305">
        <ele>-37.799999237061</ele>
        <time>2020-05-24T08:07:58.000Z</time>
      </trkpt>
      <trkpt lat="47.56601" lon="-2.25307">
        <ele>-37.799999237061</ele>
        <time>2020-05-24T08:07:59.000Z</time>
      </trkpt>
      <trkpt lat="47.56613" lon="-2.25326">
        <ele>-37.799999237061</ele>
        <time>2020-05-24T08:08:06.000Z</time>
      </trkpt>
      <trkpt lat="47.5662" lon="-2.25337">
        <ele>-37.799999237061</ele>
        <time>2020-05-24T08:08:11.000Z</time>
      </trkpt>
      <trkpt lat="47.56628" lon="-2.25328">
        <ele>-37.799999237061</ele>
        <time>2020-05-24T08:08:15.000Z</time>
      </trkpt>
      <trkpt lat="47.56645" lon="-2.25319">
        <ele>-37.799999237061</ele>
        <time>2020-05-24T08:08:20.000Z</time>
      </trkpt>
      <trkpt lat="47.56649" lon="-2.25317">
        <ele>-38.799999237061</ele>
        <time>2020-05-24T08:08:21.000Z</time>
      </trkpt>
      <trkpt lat="47.56653" lon="-2.25318">
        <ele>-39.400001525879</ele>
        <time>2020-05-24T08:08:22.000Z</time>
      </trkpt>
      <trkpt lat="47.56656" lon="-2.25321">
        <ele>-40</ele>
        <time>2020-05-24T08:08:23.000Z</time>
      </trkpt>
      <trkpt lat="47.56659" lon="-2.25324">
        <ele>-40.599998474121</ele>
        <time>2020-05-24T08:08:24.000Z</time>
      </trkpt>
      <trkpt lat="47.56661" lon="-2.25327">
        <ele>-41.400001525879</ele>
        <time>2020-05-24T08:08:25.000Z</time>
      </trkpt>
      <trkpt lat="47.56662" lon="-2.25331">
        <ele>-42</ele>
        <time>2020-05-24T08:08:26.000Z</time>
      </trkpt>
      <trkpt lat="47.56663" lon="-2.25335">
        <ele>-42.599998474121</ele>
        <time>2020-05-24T08:08:27.000Z</time>
      </trkpt>
      <trkpt lat="47.56663" lon="-2.25339">
        <ele>-43.200000762939</ele>
        <time>2020-05-24T08:08:28.000Z</time>
      </trkpt>
      <trkpt lat="47.56663" lon="-2.25343">
        <ele>-43.799999237061</ele>
        <time>2020-05-24T08:08:29.000Z</time>
      </trkpt>
      <trkpt lat="47.56661" lon="-2.25352">
        <ele>-44.200000762939</ele>
        <time>2020-05-24T08:08:30.000Z</time>
      </trkpt>
      <trkpt lat="47.56659" lon="-2.25359">
        <ele>-44.799999237061</ele>
        <time>2020-05-24T08:08:31.000Z</time>
      </trkpt>
      <trkpt lat="47.56657" lon="-2.25367">
        <ele>-44.799999237061</ele>
        <time>2020-05-24T08:08:32.000Z</time>
      </trkpt>
      <trkpt lat="47.56651" lon="-2.25391">
        <ele>-44.799999237061</ele>
        <time>2020-05-24T08:08:36.000Z</time>
      </trkpt>
      <trkpt lat="47.56643" lon="-2.25421">
        <ele>-44.400001525879</ele>
        <time>2020-05-24T08:08:42.000Z</time>
      </trkpt>
      <trkpt lat="47.56643" lon="-2.25424">
        <ele>-44</ele>
        <time>2020-05-24T08:08:43.000Z</time>
      </trkpt>
      <trkpt lat="47.56642" lon="-2.25428">
        <ele>-43.599998474121</ele>
        <time>2020-05-24T08:08:44.000Z</time>
      </trkpt>
      <trkpt lat="47.56641" lon="-2.25431">
        <ele>-43.200000762939</ele>
        <time>2020-05-24T08:08:45.000Z</time>
      </trkpt>
      <trkpt lat="47.5664" lon="-2.25435">
        <ele>-42.799999237061</ele>
        <time>2020-05-24T08:08:46.000Z</time>
      </trkpt>
      <trkpt lat="47.56639" lon="-2.25439">
        <ele>-42.799999237061</ele>
        <time>2020-05-24T08:08:47.000Z</time>
      </trkpt>
      <trkpt lat="47.56635" lon="-2.25457">
        <ele>-42.799999237061</ele>
        <time>2020-05-24T08:08:53.000Z</time>
      </trkpt>
      <trkpt lat="47.56631" lon="-2.25473">
        <ele>-42.799999237061</ele>
        <time>2020-05-24T08:08:58.000Z</time>
      </trkpt>
      <trkpt lat="47.56628" lon="-2.2548">
        <ele>-42.799999237061</ele>
        <time>2020-05-24T08:09:00.000Z</time>
      </trkpt>
      <trkpt lat="47.56625" lon="-2.25482">
        <ele>-42.799999237061</ele>
        <time>2020-05-24T08:09:02.000Z</time>
      </trkpt>
      <trkpt lat="47.5662" lon="-2.25486">
        <ele>-42.799999237061</ele>
        <time>2020-05-24T08:09:07.000Z</time>
      </trkpt>
      <trkpt lat="47.56616" lon="-2.25488">
        <ele>-42.799999237061</ele>
        <time>2020-05-24T08:09:13.000Z</time>
      </trkpt>
      <trkpt lat="47.56605" lon="-2.25497">
        <ele>-40.799999237061</ele>
        <time>2020-05-24T08:09:23.000Z</time>
      </trkpt>
      <trkpt lat="47.566" lon="-2.25499">
        <ele>-40.799999237061</ele>
        <time>2020-05-24T08:09:25.000Z</time>
      </trkpt>
      <trkpt lat="47.56594" lon="-2.25502">
        <ele>-40.799999237061</ele>
        <time>2020-05-24T08:09:28.000Z</time>
      </trkpt>
      <trkpt lat="47.5658" lon="-2.25507">
        <ele>-40.799999237061</ele>
        <time>2020-05-24T08:09:35.000Z</time>
      </trkpt>
      <trkpt lat="47.56574" lon="-2.25511">
        <ele>-40.799999237061</ele>
        <time>2020-05-24T08:09:40.000Z</time>
      </trkpt>
      <trkpt lat="47.56561" lon="-2.25516">
        <ele>-40.799999237061</ele>
        <time>2020-05-24T08:09:46.000Z</time>
      </trkpt>
      <trkpt lat="47.56559" lon="-2.25518">
        <ele>-40.799999237061</ele>
        <time>2020-05-24T08:09:47.000Z</time>
      </trkpt>
      <trkpt lat="47.56554" lon="-2.25526">
        <ele>-40.799999237061</ele>
        <time>2020-05-24T08:09:51.000Z</time>
      </trkpt>
      <trkpt lat="47.56551" lon="-2.25528">
        <ele>-40.799999237061</ele>
        <time>2020-05-24T08:09:53.000Z</time>
      </trkpt>
      <trkpt lat="47.56543" lon="-2.25535">
        <ele>-40.799999237061</ele>
        <time>2020-05-24T08:09:57.000Z</time>
      </trkpt>
      <trkpt lat="47.56541" lon="-2.25538">
        <ele>-40.200000762939</ele>
        <time>2020-05-24T08:09:58.000Z</time>
      </trkpt>
      <trkpt lat="47.56539" lon="-2.25539">
        <ele>-39.799999237061</ele>
        <time>2020-05-24T08:09:59.000Z</time>
      </trkpt>
      <trkpt lat="47.56537" lon="-2.2554">
        <ele>-39</ele>
        <time>2020-05-24T08:10:00.000Z</time>
      </trkpt>
      <trkpt lat="47.56535" lon="-2.25541">
        <ele>-38.599998474121</ele>
        <time>2020-05-24T08:10:01.000Z</time>
      </trkpt>
      <trkpt lat="47.56533" lon="-2.25545">
        <ele>-38.599998474121</ele>
        <time>2020-05-24T08:10:02.000Z</time>
      </trkpt>
      <trkpt lat="47.56524" lon="-2.25549">
        <ele>-38.599998474121</ele>
        <time>2020-05-24T08:10:06.000Z</time>
      </trkpt>
      <trkpt lat="47.56514" lon="-2.25556">
        <ele>-38.599998474121</ele>
        <time>2020-05-24T08:10:12.000Z</time>
      </trkpt>
      <trkpt lat="47.56512" lon="-2.2556">
        <ele>-38.599998474121</ele>
        <time>2020-05-24T08:10:17.000Z</time>
      </trkpt>
      <trkpt lat="47.56512" lon="-2.25567">
        <ele>-38.599998474121</ele>
        <time>2020-05-24T08:10:23.000Z</time>
      </trkpt>
      <trkpt lat="47.56512" lon="-2.2557">
        <ele>-38.599998474121</ele>
        <time>2020-05-24T08:10:26.000Z</time>
      </trkpt>
      <trkpt lat="47.56513" lon="-2.25575">
        <ele>-38.599998474121</ele>
        <time>2020-05-24T08:10:56.000Z</time>
      </trkpt>
      <trkpt lat="47.56514" lon="-2.25578">
        <ele>-38.599998474121</ele>
        <time>2020-05-24T08:10:57.000Z</time>
      </trkpt>
      <trkpt lat="47.56509" lon="-2.2559">
        <ele>-38.599998474121</ele>
        <time>2020-05-24T08:11:02.000Z</time>
      </trkpt>
      <trkpt lat="47.56507" lon="-2.25593">
        <ele>-38.200000762939</ele>
        <time>2020-05-24T08:11:04.000Z</time>
      </trkpt>
      <trkpt lat="47.56505" lon="-2.25594">
        <ele>-37.799999237061</ele>
        <time>2020-05-24T08:11:05.000Z</time>
      </trkpt>
      <trkpt lat="47.56503" lon="-2.25596">
        <ele>-37.400001525879</ele>
        <time>2020-05-24T08:11:06.000Z</time>
      </trkpt>
      <trkpt lat="47.56502" lon="-2.25598">
        <ele>-37</ele>
        <time>2020-05-24T08:11:07.000Z</time>
      </trkpt>
      <trkpt lat="47.565" lon="-2.25601">
        <ele>-36.599998474121</ele>
        <time>2020-05-24T08:11:08.000Z</time>
      </trkpt>
      <trkpt lat="47.56496" lon="-2.25603">
        <ele>-36.599998474121</ele>
        <time>2020-05-24T08:11:10.000Z</time>
      </trkpt>
      <trkpt lat="47.56492" lon="-2.25605">
        <ele>-36.599998474121</ele>
        <time>2020-05-24T08:11:15.000Z</time>
      </trkpt>
      <trkpt lat="47.56485" lon="-2.25617">
        <ele>-35.799999237061</ele>
        <time>2020-05-24T08:11:54.000Z</time>
      </trkpt>
      <trkpt lat="47.56483" lon="-2.25619">
        <ele>-35.400001525879</ele>
        <time>2020-05-24T08:11:55.000Z</time>
      </trkpt>
      <trkpt lat="47.56481" lon="-2.25622">
        <ele>-35</ele>
        <time>2020-05-24T08:11:56.000Z</time>
      </trkpt>
      <trkpt lat="47.56479" lon="-2.25623">
        <ele>-34.400001525879</ele>
        <time>2020-05-24T08:11:57.000Z</time>
      </trkpt>
      <trkpt lat="47.56475" lon="-2.25629">
        <ele>-34.400001525879</ele>
        <time>2020-05-24T08:12:00.000Z</time>
      </trkpt>
      <trkpt lat="47.56468" lon="-2.25643">
        <ele>-34.400001525879</ele>
        <time>2020-05-24T08:12:06.000Z</time>
      </trkpt>
      <trkpt lat="47.56457" lon="-2.25664">
        <ele>-34.400001525879</ele>
        <time>2020-05-24T08:12:13.000Z</time>
      </trkpt>
      <trkpt lat="47.56452" lon="-2.25694">
        <ele>-34.400001525879</ele>
        <time>2020-05-24T08:12:18.000Z</time>
      </trkpt>
      <trkpt lat="47.56452" lon="-2.25733">
        <ele>-34.400001525879</ele>
        <time>2020-05-24T08:12:26.000Z</time>
      </trkpt>
      <trkpt lat="47.56452" lon="-2.25763">
        <ele>-34.400001525879</ele>
        <time>2020-05-24T08:12:33.000Z</time>
      </trkpt>
      <trkpt lat="47.56452" lon="-2.25774">
        <ele>-34</ele>
        <time>2020-05-24T08:12:36.000Z</time>
      </trkpt>
      <trkpt lat="47.56451" lon="-2.25778">
        <ele>-33.599998474121</ele>
        <time>2020-05-24T08:12:37.000Z</time>
      </trkpt>
      <trkpt lat="47.56451" lon="-2.25781">
        <ele>-33.200000762939</ele>
        <time>2020-05-24T08:12:38.000Z</time>
      </trkpt>
      <trkpt lat="47.56451" lon="-2.25783">
        <ele>-32.799999237061</ele>
        <time>2020-05-24T08:12:39.000Z</time>
      </trkpt>
      <trkpt lat="47.56452" lon="-2.25785">
        <ele>-32.400001525879</ele>
        <time>2020-05-24T08:12:40.000Z</time>
      </trkpt>
      <trkpt lat="47.56451" lon="-2.25797">
        <ele>-32.400001525879</ele>
        <time>2020-05-24T08:12:47.000Z</time>
      </trkpt>
      <trkpt lat="47.5645" lon="-2.25798">
        <ele>-32.400001525879</ele>
        <time>2020-05-24T08:12:48.000Z</time>
      </trkpt>
      <trkpt lat="47.56446" lon="-2.25801">
        <ele>-32.400001525879</ele>
        <time>2020-05-24T08:12:51.000Z</time>
      </trkpt>
      <trkpt lat="47.56441" lon="-2.25801">
        <ele>-32.400001525879</ele>
        <time>2020-05-24T08:12:53.000Z</time>
      </trkpt>
      <trkpt lat="47.56427" lon="-2.25801">
        <ele>-32.400001525879</ele>
        <time>2020-05-24T08:12:59.000Z</time>
      </trkpt>
      <trkpt lat="47.56409" lon="-2.25804">
        <ele>-32.400001525879</ele>
        <time>2020-05-24T08:13:06.000Z</time>
      </trkpt>
      <trkpt lat="47.56396" lon="-2.25806">
        <ele>-32.400001525879</ele>
        <time>2020-05-24T08:13:12.000Z</time>
      </trkpt>
      <trkpt lat="47.56378" lon="-2.25808">
        <ele>-32</ele>
        <time>2020-05-24T08:13:19.000Z</time>
      </trkpt>
      <trkpt lat="47.56375" lon="-2.25808">
        <ele>-31.60000038147</ele>
        <time>2020-05-24T08:13:20.000Z</time>
      </trkpt>
      <trkpt lat="47.56373" lon="-2.25809">
        <ele>-31.200000762939</ele>
        <time>2020-05-24T08:13:21.000Z</time>
      </trkpt>
      <trkpt lat="47.5637" lon="-2.25809">
        <ele>-30.799999237061</ele>
        <time>2020-05-24T08:13:22.000Z</time>
      </trkpt>
      <trkpt lat="47.56367" lon="-2.25809">
        <ele>-30.39999961853</ele>
        <time>2020-05-24T08:13:23.000Z</time>
      </trkpt>
      <trkpt lat="47.56356" lon="-2.25811">
        <ele>-30</ele>
        <time>2020-05-24T08:13:28.000Z</time>
      </trkpt>
      <trkpt lat="47.56354" lon="-2.25811">
        <ele>-29.60000038147</ele>
        <time>2020-05-24T08:13:29.000Z</time>
      </trkpt>
      <trkpt lat="47.56352" lon="-2.25812">
        <ele>-29.200000762939</ele>
        <time>2020-05-24T08:13:30.000Z</time>
      </trkpt>
      <trkpt lat="47.5635" lon="-2.25813">
        <ele>-28.799999237061</ele>
        <time>2020-05-24T08:13:31.000Z</time>
      </trkpt>
      <trkpt lat="47.56348" lon="-2.25813">
        <ele>-28.39999961853</ele>
        <time>2020-05-24T08:13:32.000Z</time>
      </trkpt>
      <trkpt lat="47.56344" lon="-2.25815">
        <ele>-28.39999961853</ele>
        <time>2020-05-24T08:13:34.000Z</time>
      </trkpt>
      <trkpt lat="47.56335" lon="-2.25816">
        <ele>-28</ele>
        <time>2020-05-24T08:13:38.000Z</time>
      </trkpt>
      <trkpt lat="47.56333" lon="-2.25817">
        <ele>-27.60000038147</ele>
        <time>2020-05-24T08:13:39.000Z</time>
      </trkpt>
      <trkpt lat="47.56331" lon="-2.25817">
        <ele>-27.200000762939</ele>
        <time>2020-05-24T08:13:40.000Z</time>
      </trkpt>
      <trkpt lat="47.56329" lon="-2.25817">
        <ele>-26.799999237061</ele>
        <time>2020-05-24T08:13:41.000Z</time>
      </trkpt>
      <trkpt lat="47.56327" lon="-2.25817">
        <ele>-26.39999961853</ele>
        <time>2020-05-24T08:13:42.000Z</time>
      </trkpt>
      <trkpt lat="47.56314" lon="-2.25818">
        <ele>-26.39999961853</ele>
        <time>2020-05-24T08:13:48.000Z</time>
      </trkpt>
      <trkpt lat="47.56301" lon="-2.2582">
        <ele>-26</ele>
        <time>2020-05-24T08:13:54.000Z</time>
      </trkpt>
      <trkpt lat="47.56299" lon="-2.2582">
        <ele>-25.60000038147</ele>
        <time>2020-05-24T08:13:55.000Z</time>
      </trkpt>
      <trkpt lat="47.56297" lon="-2.2582">
        <ele>-25.200000762939</ele>
        <time>2020-05-24T08:13:56.000Z</time>
      </trkpt>
      <trkpt lat="47.56296" lon="-2.2582">
        <ele>-24.799999237061</ele>
        <time>2020-05-24T08:13:57.000Z</time>
      </trkpt>
      <trkpt lat="47.56296" lon="-2.2582">
        <ele>-24.39999961853</ele>
        <time>2020-05-24T08:13:58.000Z</time>
      </trkpt>
      <trkpt lat="47.56284" lon="-2.25821">
        <ele>-24.39999961853</ele>
        <time>2020-05-24T08:14:11.000Z</time>
      </trkpt>
      <trkpt lat="47.56271" lon="-2.25824">
        <ele>-24.39999961853</ele>
        <time>2020-05-24T08:14:16.000Z</time>
      </trkpt>
      <trkpt lat="47.56254" lon="-2.25826">
        <ele>-24.39999961853</ele>
        <time>2020-05-24T08:14:23.000Z</time>
      </trkpt>
      <trkpt lat="47.56234" lon="-2.25828">
        <ele>-24.39999961853</ele>
        <time>2020-05-24T08:14:30.000Z</time>
      </trkpt>
      <trkpt lat="47.56228" lon="-2.25829">
        <ele>-23.799999237061</ele>
        <time>2020-05-24T08:14:33.000Z</time>
      </trkpt>
      <trkpt lat="47.56226" lon="-2.25829">
        <ele>-23.39999961853</ele>
        <time>2020-05-24T08:14:34.000Z</time>
      </trkpt>
      <trkpt lat="47.56224" lon="-2.2583">
        <ele>-23</ele>
        <time>2020-05-24T08:14:35.000Z</time>
      </trkpt>
      <trkpt lat="47.56222" lon="-2.25832">
        <ele>-22.60000038147</ele>
        <time>2020-05-24T08:14:36.000Z</time>
      </trkpt>
      <trkpt lat="47.5622" lon="-2.25833">
        <ele>-22.200000762939</ele>
        <time>2020-05-24T08:14:37.000Z</time>
      </trkpt>
      <trkpt lat="47.56203" lon="-2.2584">
        <ele>-22.200000762939</ele>
        <time>2020-05-24T08:14:43.000Z</time>
      </trkpt>
      <trkpt lat="47.56185" lon="-2.25848">
        <ele>-21.799999237061</ele>
        <time>2020-05-24T08:14:50.000Z</time>
      </trkpt>
      <trkpt lat="47.56183" lon="-2.25849">
        <ele>-21.39999961853</ele>
        <time>2020-05-24T08:14:51.000Z</time>
      </trkpt>
      <trkpt lat="47.5618" lon="-2.2585">
        <ele>-21</ele>
        <time>2020-05-24T08:14:52.000Z</time>
      </trkpt>
      <trkpt lat="47.56179" lon="-2.2585">
        <ele>-20.60000038147</ele>
        <time>2020-05-24T08:14:53.000Z</time>
      </trkpt>
      <trkpt lat="47.56178" lon="-2.2585">
        <ele>-20.200000762939</ele>
        <time>2020-05-24T08:14:54.000Z</time>
      </trkpt>
      <trkpt lat="47.56176" lon="-2.25851">
        <ele>-20.200000762939</ele>
        <time>2020-05-24T08:14:55.000Z</time>
      </trkpt>
      <trkpt lat="47.56168" lon="-2.25855">
        <ele>-20.200000762939</ele>
        <time>2020-05-24T08:14:59.000Z</time>
      </trkpt>
      <trkpt lat="47.56163" lon="-2.25857">
        <ele>-20.200000762939</ele>
        <time>2020-05-24T08:15:01.000Z</time>
      </trkpt>
      <trkpt lat="47.56161" lon="-2.25857">
        <ele>-20.200000762939</ele>
        <time>2020-05-24T08:15:02.000Z</time>
      </trkpt>
      <trkpt lat="47.56145" lon="-2.25861">
        <ele>-20.200000762939</ele>
        <time>2020-05-24T08:15:10.000Z</time>
      </trkpt>
      <trkpt lat="47.56141" lon="-2.25861">
        <ele>-19.799999237061</ele>
        <time>2020-05-24T08:15:12.000Z</time>
      </trkpt>
      <trkpt lat="47.56139" lon="-2.25861">
        <ele>-19.39999961853</ele>
        <time>2020-05-24T08:15:13.000Z</time>
      </trkpt>
      <trkpt lat="47.56137" lon="-2.25861">
        <ele>-19</ele>
        <time>2020-05-24T08:15:14.000Z</time>
      </trkpt>
      <trkpt lat="47.56135" lon="-2.25862">
        <ele>-18.39999961853</ele>
        <time>2020-05-24T08:15:15.000Z</time>
      </trkpt>
      <trkpt lat="47.56134" lon="-2.25863">
        <ele>-18</ele>
        <time>2020-05-24T08:15:16.000Z</time>
      </trkpt>
      <trkpt lat="47.5612" lon="-2.25866">
        <ele>-18</ele>
        <time>2020-05-24T08:15:23.000Z</time>
      </trkpt>
      <trkpt lat="47.56111" lon="-2.25871">
        <ele>-17.60000038147</ele>
        <time>2020-05-24T08:15:28.000Z</time>
      </trkpt>
      <trkpt lat="47.5611" lon="-2.25872">
        <ele>-17.200000762939</ele>
        <time>2020-05-24T08:15:29.000Z</time>
      </trkpt>
      <trkpt lat="47.56109" lon="-2.25875">
        <ele>-16.799999237061</ele>
        <time>2020-05-24T08:15:30.000Z</time>
      </trkpt>
      <trkpt lat="47.56109" lon="-2.25879">
        <ele>-16.39999961853</ele>
        <time>2020-05-24T08:15:31.000Z</time>
      </trkpt>
      <trkpt lat="47.5611" lon="-2.25882">
        <ele>-16</ele>
        <time>2020-05-24T08:15:32.000Z</time>
      </trkpt>
      <trkpt lat="47.5611" lon="-2.25885">
        <ele>-16</ele>
        <time>2020-05-24T08:15:33.000Z</time>
      </trkpt>
      <trkpt lat="47.56111" lon="-2.25897">
        <ele>-16</ele>
        <time>2020-05-24T08:15:38.000Z</time>
      </trkpt>
      <trkpt lat="47.56113" lon="-2.25906">
        <ele>-16</ele>
        <time>2020-05-24T08:15:42.000Z</time>
      </trkpt>
      <trkpt lat="47.56113" lon="-2.25913">
        <ele>-16</ele>
        <time>2020-05-24T08:15:45.000Z</time>
      </trkpt>
      <trkpt lat="47.56114" lon="-2.25915">
        <ele>-16</ele>
        <time>2020-05-24T08:15:46.000Z</time>
      </trkpt>
      <trkpt lat="47.56115" lon="-2.25925">
        <ele>-16</ele>
        <time>2020-05-24T08:15:50.000Z</time>
      </trkpt>
      <trkpt lat="47.56115" lon="-2.25928">
        <ele>-16</ele>
        <time>2020-05-24T08:15:51.000Z</time>
      </trkpt>
      <trkpt lat="47.56115" lon="-2.25938">
        <ele>-16</ele>
        <time>2020-05-24T08:15:56.000Z</time>
      </trkpt>
      <trkpt lat="47.56114" lon="-2.25942">
        <ele>-16</ele>
        <time>2020-05-24T08:15:57.000Z</time>
      </trkpt>
      <trkpt lat="47.56115" lon="-2.25946">
        <ele>-16</ele>
        <time>2020-05-24T08:15:59.000Z</time>
      </trkpt>
      <trkpt lat="47.56116" lon="-2.25951">
        <ele>-16</ele>
        <time>2020-05-24T08:16:01.000Z</time>
      </trkpt>
      <trkpt lat="47.56117" lon="-2.25954">
        <ele>-15.60000038147</ele>
        <time>2020-05-24T08:16:02.000Z</time>
      </trkpt>
      <trkpt lat="47.56118" lon="-2.25957">
        <ele>-15.199999809265</ele>
        <time>2020-05-24T08:16:03.000Z</time>
      </trkpt>
      <trkpt lat="47.56118" lon="-2.2596">
        <ele>-14.60000038147</ele>
        <time>2020-05-24T08:16:04.000Z</time>
      </trkpt>
      <trkpt lat="47.56118" lon="-2.25963">
        <ele>-14.199999809265</ele>
        <time>2020-05-24T08:16:05.000Z</time>
      </trkpt>
      <trkpt lat="47.56117" lon="-2.25965">
        <ele>-13.800000190735</ele>
        <time>2020-05-24T08:16:06.000Z</time>
      </trkpt>
      <trkpt lat="47.56115" lon="-2.25967">
        <ele>-13.800000190735</ele>
        <time>2020-05-24T08:16:07.000Z</time>
      </trkpt>
      <trkpt lat="47.56113" lon="-2.25969">
        <ele>-13.800000190735</ele>
        <time>2020-05-24T08:16:09.000Z</time>
      </trkpt>
      <trkpt lat="47.56105" lon="-2.25973">
        <ele>-13.800000190735</ele>
        <time>2020-05-24T08:16:13.000Z</time>
      </trkpt>
      <trkpt lat="47.56092" lon="-2.25978">
        <ele>-13.800000190735</ele>
        <time>2020-05-24T08:16:19.000Z</time>
      </trkpt>
      <trkpt lat="47.56079" lon="-2.25983">
        <ele>-13.800000190735</ele>
        <time>2020-05-24T08:16:26.000Z</time>
      </trkpt>
      <trkpt lat="47.56066" lon="-2.25987">
        <ele>-13.39999961853</ele>
        <time>2020-05-24T08:16:32.000Z</time>
      </trkpt>
      <trkpt lat="47.56064" lon="-2.25987">
        <ele>-13</ele>
        <time>2020-05-24T08:16:33.000Z</time>
      </trkpt>
      <trkpt lat="47.56062" lon="-2.25987">
        <ele>-12.60000038147</ele>
        <time>2020-05-24T08:16:34.000Z</time>
      </trkpt>
      <trkpt lat="47.5606" lon="-2.25988">
        <ele>-12.199999809265</ele>
        <time>2020-05-24T08:16:35.000Z</time>
      </trkpt>
      <trkpt lat="47.56058" lon="-2.25989">
        <ele>-11.800000190735</ele>
        <time>2020-05-24T08:16:36.000Z</time>
      </trkpt>
      <trkpt lat="47.56049" lon="-2.25995">
        <ele>-11.800000190735</ele>
        <time>2020-05-24T08:16:40.000Z</time>
      </trkpt>
      <trkpt lat="47.56035" lon="-2.26003">
        <ele>-11.800000190735</ele>
        <time>2020-05-24T08:16:46.000Z</time>
      </trkpt>
      <trkpt lat="47.56019" lon="-2.26013">
        <ele>-11.800000190735</ele>
        <time>2020-05-24T08:16:52.000Z</time>
      </trkpt>
      <trkpt lat="47.56006" lon="-2.26023">
        <ele>-11.800000190735</ele>
        <time>2020-05-24T08:16:57.000Z</time>
      </trkpt>
      <trkpt lat="47.56005" lon="-2.26026">
        <ele>-11.800000190735</ele>
        <time>2020-05-24T08:16:58.000Z</time>
      </trkpt>
      <trkpt lat="47.56004" lon="-2.26029">
        <ele>-11.39999961853</ele>
        <time>2020-05-24T08:16:59.000Z</time>
      </trkpt>
      <trkpt lat="47.56004" lon="-2.26032">
        <ele>-10.60000038147</ele>
        <time>2020-05-24T08:17:00.000Z</time>
      </trkpt>
      <trkpt lat="47.56004" lon="-2.26034">
        <ele>-10.199999809265</ele>
        <time>2020-05-24T08:17:01.000Z</time>
      </trkpt>
      <trkpt lat="47.56004" lon="-2.26036">
        <ele>-9.8000001907349</ele>
        <time>2020-05-24T08:17:02.000Z</time>
      </trkpt>
      <trkpt lat="47.56006" lon="-2.26045">
        <ele>-9.8000001907349</ele>
        <time>2020-05-24T08:17:06.000Z</time>
      </trkpt>
      <trkpt lat="47.56007" lon="-2.26052">
        <ele>-9.8000001907349</ele>
        <time>2020-05-24T08:17:08.000Z</time>
      </trkpt>
      <trkpt lat="47.56009" lon="-2.26068">
        <ele>-9.8000001907349</ele>
        <time>2020-05-24T08:17:12.000Z</time>
      </trkpt>
      <trkpt lat="47.56012" lon="-2.261">
        <ele>-9.8000001907349</ele>
        <time>2020-05-24T08:17:18.000Z</time>
      </trkpt>
      <trkpt lat="47.56018" lon="-2.26122">
        <ele>-9.8000001907349</ele>
        <time>2020-05-24T08:17:23.000Z</time>
      </trkpt>
      <trkpt lat="47.56021" lon="-2.26143">
        <ele>-9.8000001907349</ele>
        <time>2020-05-24T08:17:27.000Z</time>
      </trkpt>
      <trkpt lat="47.5602" lon="-2.26147">
        <ele>-9.8000001907349</ele>
        <time>2020-05-24T08:17:28.000Z</time>
      </trkpt>
      <trkpt lat="47.5601" lon="-2.26161">
        <ele>-9.8000001907349</ele>
        <time>2020-05-24T08:17:32.000Z</time>
      </trkpt>
      <trkpt lat="47.56007" lon="-2.26167">
        <ele>-9.8000001907349</ele>
        <time>2020-05-24T08:17:33.000Z</time>
      </trkpt>
      <trkpt lat="47.55996" lon="-2.26184">
        <ele>-9.8000001907349</ele>
        <time>2020-05-24T08:17:37.000Z</time>
      </trkpt>
      <trkpt lat="47.55985" lon="-2.26212">
        <ele>-9.8000001907349</ele>
        <time>2020-05-24T08:17:42.000Z</time>
      </trkpt>
      <trkpt lat="47.55978" lon="-2.26245">
        <ele>-9.8000001907349</ele>
        <time>2020-05-24T08:17:48.000Z</time>
      </trkpt>
      <trkpt lat="47.55972" lon="-2.26262">
        <ele>-9.8000001907349</ele>
        <time>2020-05-24T08:17:51.000Z</time>
      </trkpt>
      <trkpt lat="47.55961" lon="-2.26285">
        <ele>-9.8000001907349</ele>
        <time>2020-05-24T08:17:55.000Z</time>
      </trkpt>
      <trkpt lat="47.55944" lon="-2.26322">
        <ele>-9.8000001907349</ele>
        <time>2020-05-24T08:18:01.000Z</time>
      </trkpt>
      <trkpt lat="47.55936" lon="-2.26351">
        <ele>-9.8000001907349</ele>
        <time>2020-05-24T08:18:06.000Z</time>
      </trkpt>
      <trkpt lat="47.55944" lon="-2.26369">
        <ele>-9.8000001907349</ele>
        <time>2020-05-24T08:18:10.000Z</time>
      </trkpt>
      <trkpt lat="47.55947" lon="-2.26374">
        <ele>-9.8000001907349</ele>
        <time>2020-05-24T08:18:11.000Z</time>
      </trkpt>
      <trkpt lat="47.55956" lon="-2.26391">
        <ele>-9.8000001907349</ele>
        <time>2020-05-24T08:18:15.000Z</time>
      </trkpt>
      <trkpt lat="47.55971" lon="-2.26422">
        <ele>-9.8000001907349</ele>
        <time>2020-05-24T08:18:22.000Z</time>
      </trkpt>
      <trkpt lat="47.55979" lon="-2.26444">
        <ele>-9.8000001907349</ele>
        <time>2020-05-24T08:18:27.000Z</time>
      </trkpt>
      <trkpt lat="47.55981" lon="-2.2645">
        <ele>-9.8000001907349</ele>
        <time>2020-05-24T08:18:29.000Z</time>
      </trkpt>
      <trkpt lat="47.55986" lon="-2.26457">
        <ele>-9.8000001907349</ele>
        <time>2020-05-24T08:18:32.000Z</time>
      </trkpt>
      <trkpt lat="47.55985" lon="-2.26469">
        <ele>-9.8000001907349</ele>
        <time>2020-05-24T08:18:36.000Z</time>
      </trkpt>
      <trkpt lat="47.55983" lon="-2.26472">
        <ele>-9.8000001907349</ele>
        <time>2020-05-24T08:18:37.000Z</time>
      </trkpt>
      <trkpt lat="47.55978" lon="-2.26488">
        <ele>-9.8000001907349</ele>
        <time>2020-05-24T08:18:40.000Z</time>
      </trkpt>
      <trkpt lat="47.55979" lon="-2.26492">
        <ele>-9.8000001907349</ele>
        <time>2020-05-24T08:18:41.000Z</time>
      </trkpt>
      <trkpt lat="47.5598" lon="-2.26498">
        <ele>-9.8000001907349</ele>
        <time>2020-05-24T08:18:43.000Z</time>
      </trkpt>
      <trkpt lat="47.55981" lon="-2.26504">
        <ele>-9.8000001907349</ele>
        <time>2020-05-24T08:18:45.000Z</time>
      </trkpt>
      <trkpt lat="47.55981" lon="-2.26511">
        <ele>-9.8000001907349</ele>
        <time>2020-05-24T08:18:47.000Z</time>
      </trkpt>
      <trkpt lat="47.55986" lon="-2.26523">
        <ele>-9.8000001907349</ele>
        <time>2020-05-24T08:18:51.000Z</time>
      </trkpt>
      <trkpt lat="47.55987" lon="-2.26526">
        <ele>-9.8000001907349</ele>
        <time>2020-05-24T08:18:52.000Z</time>
      </trkpt>
      <trkpt lat="47.56" lon="-2.26543">
        <ele>-9.8000001907349</ele>
        <time>2020-05-24T08:18:59.000Z</time>
      </trkpt>
      <trkpt lat="47.56001" lon="-2.2655">
        <ele>-9.8000001907349</ele>
        <time>2020-05-24T08:19:01.000Z</time>
      </trkpt>
      <trkpt lat="47.56003" lon="-2.26554">
        <ele>-9.8000001907349</ele>
        <time>2020-05-24T08:19:03.000Z</time>
      </trkpt>
      <trkpt lat="47.56007" lon="-2.26568">
        <ele>-9.8000001907349</ele>
        <time>2020-05-24T08:19:07.000Z</time>
      </trkpt>
      <trkpt lat="47.56008" lon="-2.26572">
        <ele>-9.8000001907349</ele>
        <time>2020-05-24T08:19:09.000Z</time>
      </trkpt>
      <trkpt lat="47.56009" lon="-2.26586">
        <ele>-9.8000001907349</ele>
        <time>2020-05-24T08:19:13.000Z</time>
      </trkpt>
      <trkpt lat="47.5601" lon="-2.26601">
        <ele>-9.8000001907349</ele>
        <time>2020-05-24T08:19:19.000Z</time>
      </trkpt>
      <trkpt lat="47.56004" lon="-2.26614">
        <ele>-9.8000001907349</ele>
        <time>2020-05-24T08:19:23.000Z</time>
      </trkpt>
      <trkpt lat="47.55996" lon="-2.26623">
        <ele>-9.8000001907349</ele>
        <time>2020-05-24T08:19:28.000Z</time>
      </trkpt>
      <trkpt lat="47.55984" lon="-2.26627">
        <ele>-10.199999809265</ele>
        <time>2020-05-24T08:19:32.000Z</time>
      </trkpt>
      <trkpt lat="47.55981" lon="-2.2663">
        <ele>-10.60000038147</ele>
        <time>2020-05-24T08:19:33.000Z</time>
      </trkpt>
      <trkpt lat="47.55978" lon="-2.26631">
        <ele>-11</ele>
        <time>2020-05-24T08:19:34.000Z</time>
      </trkpt>
      <trkpt lat="47.55975" lon="-2.26633">
        <ele>-11.39999961853</ele>
        <time>2020-05-24T08:19:35.000Z</time>
      </trkpt>
      <trkpt lat="47.55972" lon="-2.26635">
        <ele>-11.800000190735</ele>
        <time>2020-05-24T08:19:36.000Z</time>
      </trkpt>
      <trkpt lat="47.55965" lon="-2.26639">
        <ele>-11.800000190735</ele>
        <time>2020-05-24T08:19:39.000Z</time>
      </trkpt>
      <trkpt lat="47.55964" lon="-2.26638">
        <ele>-11.800000190735</ele>
        <time>2020-05-24T08:19:40.000Z</time>
      </trkpt>
      <trkpt lat="47.55959" lon="-2.26639">
        <ele>-11.800000190735</ele>
        <time>2020-05-24T08:19:43.000Z</time>
      </trkpt>
      <trkpt lat="47.55953" lon="-2.26641">
        <ele>-11.800000190735</ele>
        <time>2020-05-24T08:19:46.000Z</time>
      </trkpt>
      <trkpt lat="47.55945" lon="-2.26647">
        <ele>-11.800000190735</ele>
        <time>2020-05-24T08:19:49.000Z</time>
      </trkpt>
      <trkpt lat="47.55932" lon="-2.26657">
        <ele>-11.800000190735</ele>
        <time>2020-05-24T08:19:54.000Z</time>
      </trkpt>
      <trkpt lat="47.55926" lon="-2.2666">
        <ele>-12.199999809265</ele>
        <time>2020-05-24T08:19:55.000Z</time>
      </trkpt>
      <trkpt lat="47.55921" lon="-2.26663">
        <ele>-12.800000190735</ele>
        <time>2020-05-24T08:19:56.000Z</time>
      </trkpt>
      <trkpt lat="47.55917" lon="-2.26666">
        <ele>-13.199999809265</ele>
        <time>2020-05-24T08:19:57.000Z</time>
      </trkpt>
      <trkpt lat="47.55913" lon="-2.26669">
        <ele>-13.60000038147</ele>
        <time>2020-05-24T08:19:58.000Z</time>
      </trkpt>
      <trkpt lat="47.55909" lon="-2.26672">
        <ele>-14</ele>
        <time>2020-05-24T08:19:59.000Z</time>
      </trkpt>
      <trkpt lat="47.55906" lon="-2.26675">
        <ele>-14</ele>
        <time>2020-05-24T08:20:00.000Z</time>
      </trkpt>
      <trkpt lat="47.559" lon="-2.26674">
        <ele>-14</ele>
        <time>2020-05-24T08:20:02.000Z</time>
      </trkpt>
      <trkpt lat="47.55898" lon="-2.2667">
        <ele>-14</ele>
        <time>2020-05-24T08:20:03.000Z</time>
      </trkpt>
      <trkpt lat="47.55891" lon="-2.26647">
        <ele>-14</ele>
        <time>2020-05-24T08:20:07.000Z</time>
      </trkpt>
      <trkpt lat="47.55886" lon="-2.26634">
        <ele>-14</ele>
        <time>2020-05-24T08:20:09.000Z</time>
      </trkpt>
      <trkpt lat="47.55876" lon="-2.26604">
        <ele>-14</ele>
        <time>2020-05-24T08:20:14.000Z</time>
      </trkpt>
      <trkpt lat="47.55866" lon="-2.2658">
        <ele>-14</ele>
        <time>2020-05-24T08:20:20.000Z</time>
      </trkpt>
      <trkpt lat="47.55866" lon="-2.2658">
        <ele>-14.39999961853</ele>
        <time>2020-05-24T08:20:21.000Z</time>
      </trkpt>
      <trkpt lat="47.55866" lon="-2.2658">
        <ele>-14.800000190735</ele>
        <time>2020-05-24T08:20:22.000Z</time>
      </trkpt>
      <trkpt lat="47.55863" lon="-2.26578">
        <ele>-16.200000762939</ele>
        <time>2020-05-24T08:22:43.000Z</time>
      </trkpt>
      <trkpt lat="47.55861" lon="-2.26579">
        <ele>-16.200000762939</ele>
        <time>2020-05-24T08:22:44.000Z</time>
      </trkpt>
      <trkpt lat="47.55854" lon="-2.26586">
        <ele>-16.200000762939</ele>
        <time>2020-05-24T08:22:48.000Z</time>
      </trkpt>
      <trkpt lat="47.55838" lon="-2.26601">
        <ele>-16.200000762939</ele>
        <time>2020-05-24T08:22:54.000Z</time>
      </trkpt>
      <trkpt lat="47.55835" lon="-2.26605">
        <ele>-16.60000038147</ele>
        <time>2020-05-24T08:22:56.000Z</time>
      </trkpt>
      <trkpt lat="47.55834" lon="-2.26607">
        <ele>-17</ele>
        <time>2020-05-24T08:22:57.000Z</time>
      </trkpt>
      <trkpt lat="47.55832" lon="-2.26609">
        <ele>-17.39999961853</ele>
        <time>2020-05-24T08:22:58.000Z</time>
      </trkpt>
      <trkpt lat="47.55831" lon="-2.2661">
        <ele>-17.799999237061</ele>
        <time>2020-05-24T08:22:59.000Z</time>
      </trkpt>
      <trkpt lat="47.5583" lon="-2.26612">
        <ele>-18.200000762939</ele>
        <time>2020-05-24T08:23:00.000Z</time>
      </trkpt>
      <trkpt lat="47.55821" lon="-2.26617">
        <ele>-18.200000762939</ele>
        <time>2020-05-24T08:23:04.000Z</time>
      </trkpt>
      <trkpt lat="47.55799" lon="-2.2663">
        <ele>-18.200000762939</ele>
        <time>2020-05-24T08:23:12.000Z</time>
      </trkpt>
      <trkpt lat="47.55787" lon="-2.26639">
        <ele>-18.200000762939</ele>
        <time>2020-05-24T08:23:17.000Z</time>
      </trkpt>
      <trkpt lat="47.55774" lon="-2.26647">
        <ele>-18.200000762939</ele>
        <time>2020-05-24T08:23:23.000Z</time>
      </trkpt>
      <trkpt lat="47.55762" lon="-2.26653">
        <ele>-18.200000762939</ele>
        <time>2020-05-24T08:23:29.000Z</time>
      </trkpt>
      <trkpt lat="47.55755" lon="-2.26648">
        <ele>-18.60000038147</ele>
        <time>2020-05-24T08:23:33.000Z</time>
      </trkpt>
      <trkpt lat="47.55754" lon="-2.26647">
        <ele>-19</ele>
        <time>2020-05-24T08:23:34.000Z</time>
      </trkpt>
      <trkpt lat="47.55753" lon="-2.26646">
        <ele>-19.39999961853</ele>
        <time>2020-05-24T08:23:35.000Z</time>
      </trkpt>
      <trkpt lat="47.55752" lon="-2.26645">
        <ele>-20.200000762939</ele>
        <time>2020-05-24T08:23:36.000Z</time>
      </trkpt>
      <trkpt lat="47.55745" lon="-2.26638">
        <ele>-20.200000762939</ele>
        <time>2020-05-24T08:23:40.000Z</time>
      </trkpt>
      <trkpt lat="47.55743" lon="-2.26637">
        <ele>-20.200000762939</ele>
        <time>2020-05-24T08:23:41.000Z</time>
      </trkpt>
      <trkpt lat="47.55735" lon="-2.26638">
        <ele>-20.200000762939</ele>
        <time>2020-05-24T08:23:44.000Z</time>
      </trkpt>
      <trkpt lat="47.55721" lon="-2.2664">
        <ele>-20.200000762939</ele>
        <time>2020-05-24T08:23:49.000Z</time>
      </trkpt>
      <trkpt lat="47.55702" lon="-2.26652">
        <ele>-20.200000762939</ele>
        <time>2020-05-24T08:23:55.000Z</time>
      </trkpt>
      <trkpt lat="47.55687" lon="-2.26659">
        <ele>-20.200000762939</ele>
        <time>2020-05-24T08:23:59.000Z</time>
      </trkpt>
      <trkpt lat="47.55682" lon="-2.26662">
        <ele>-20.200000762939</ele>
        <time>2020-05-24T08:24:00.000Z</time>
      </trkpt>
      <trkpt lat="47.55664" lon="-2.26664">
        <ele>-20.200000762939</ele>
        <time>2020-05-24T08:24:04.000Z</time>
      </trkpt>
      <trkpt lat="47.55659" lon="-2.26664">
        <ele>-20.200000762939</ele>
        <time>2020-05-24T08:24:05.000Z</time>
      </trkpt>
      <trkpt lat="47.55642" lon="-2.26652">
        <ele>-20.200000762939</ele>
        <time>2020-05-24T08:24:09.000Z</time>
      </trkpt>
      <trkpt lat="47.55634" lon="-2.26639">
        <ele>-20.200000762939</ele>
        <time>2020-05-24T08:24:12.000Z</time>
      </trkpt>
      <trkpt lat="47.55631" lon="-2.26631">
        <ele>-20.200000762939</ele>
        <time>2020-05-24T08:24:14.000Z</time>
      </trkpt>
      <trkpt lat="47.55624" lon="-2.26634">
        <ele>-20.200000762939</ele>
        <time>2020-05-24T08:24:17.000Z</time>
      </trkpt>
      <trkpt lat="47.55615" lon="-2.26639">
        <ele>-20.200000762939</ele>
        <time>2020-05-24T08:24:20.000Z</time>
      </trkpt>
      <trkpt lat="47.55607" lon="-2.26642">
        <ele>-20.200000762939</ele>
        <time>2020-05-24T08:24:22.000Z</time>
      </trkpt>
      <trkpt lat="47.55575" lon="-2.26657">
        <ele>-20.200000762939</ele>
        <time>2020-05-24T08:24:28.000Z</time>
      </trkpt>
      <trkpt lat="47.55569" lon="-2.2666">
        <ele>-20.200000762939</ele>
        <time>2020-05-24T08:24:29.000Z</time>
      </trkpt>
      <trkpt lat="47.55541" lon="-2.26675">
        <ele>-20.200000762939</ele>
        <time>2020-05-24T08:24:34.000Z</time>
      </trkpt>
      <trkpt lat="47.55519" lon="-2.26688">
        <ele>-20.60000038147</ele>
        <time>2020-05-24T08:24:39.000Z</time>
      </trkpt>
      <trkpt lat="47.55515" lon="-2.2669">
        <ele>-21.200000762939</ele>
        <time>2020-05-24T08:24:40.000Z</time>
      </trkpt>
      <trkpt lat="47.5551" lon="-2.26693">
        <ele>-21.60000038147</ele>
        <time>2020-05-24T08:24:41.000Z</time>
      </trkpt>
      <trkpt lat="47.55506" lon="-2.26695">
        <ele>-22</ele>
        <time>2020-05-24T08:24:42.000Z</time>
      </trkpt>
      <trkpt lat="47.55502" lon="-2.26698">
        <ele>-22.60000038147</ele>
        <time>2020-05-24T08:24:43.000Z</time>
      </trkpt>
      <trkpt lat="47.55484" lon="-2.26708">
        <ele>-22.60000038147</ele>
        <time>2020-05-24T08:24:47.000Z</time>
      </trkpt>
      <trkpt lat="47.55473" lon="-2.26715">
        <ele>-23</ele>
        <time>2020-05-24T08:24:50.000Z</time>
      </trkpt>
      <trkpt lat="47.55469" lon="-2.26717">
        <ele>-23.39999961853</ele>
        <time>2020-05-24T08:24:51.000Z</time>
      </trkpt>
      <trkpt lat="47.55464" lon="-2.26719">
        <ele>-23.799999237061</ele>
        <time>2020-05-24T08:24:52.000Z</time>
      </trkpt>
      <trkpt lat="47.5546" lon="-2.26721">
        <ele>-24.200000762939</ele>
        <time>2020-05-24T08:24:53.000Z</time>
      </trkpt>
      <trkpt lat="47.55456" lon="-2.26724">
        <ele>-24.60000038147</ele>
        <time>2020-05-24T08:24:54.000Z</time>
      </trkpt>
      <trkpt lat="47.55452" lon="-2.26726">
        <ele>-24.60000038147</ele>
        <time>2020-05-24T08:24:55.000Z</time>
      </trkpt>
      <trkpt lat="47.55444" lon="-2.2673">
        <ele>-24.60000038147</ele>
        <time>2020-05-24T08:24:57.000Z</time>
      </trkpt>
      <trkpt lat="47.55435" lon="-2.26733">
        <ele>-24.60000038147</ele>
        <time>2020-05-24T08:24:59.000Z</time>
      </trkpt>
      <trkpt lat="47.55425" lon="-2.26735">
        <ele>-24.60000038147</ele>
        <time>2020-05-24T08:25:01.000Z</time>
      </trkpt>
      <trkpt lat="47.55411" lon="-2.26742">
        <ele>-24.60000038147</ele>
        <time>2020-05-24T08:25:04.000Z</time>
      </trkpt>
      <trkpt lat="47.55397" lon="-2.2675">
        <ele>-24.60000038147</ele>
        <time>2020-05-24T08:25:07.000Z</time>
      </trkpt>
      <trkpt lat="47.5536" lon="-2.26772">
        <ele>-24.60000038147</ele>
        <time>2020-05-24T08:25:14.000Z</time>
      </trkpt>
      <trkpt lat="47.55307" lon="-2.26802">
        <ele>-24.60000038147</ele>
        <time>2020-05-24T08:25:23.000Z</time>
      </trkpt>
      <trkpt lat="47.55302" lon="-2.26807">
        <ele>-24.60000038147</ele>
        <time>2020-05-24T08:25:24.000Z</time>
      </trkpt>
      <trkpt lat="47.55299" lon="-2.26813">
        <ele>-25</ele>
        <time>2020-05-24T08:25:25.000Z</time>
      </trkpt>
      <trkpt lat="47.55297" lon="-2.2682">
        <ele>-25.39999961853</ele>
        <time>2020-05-24T08:25:26.000Z</time>
      </trkpt>
      <trkpt lat="47.55297" lon="-2.26828">
        <ele>-25.799999237061</ele>
        <time>2020-05-24T08:25:27.000Z</time>
      </trkpt>
      <trkpt lat="47.55298" lon="-2.26837">
        <ele>-26.200000762939</ele>
        <time>2020-05-24T08:25:28.000Z</time>
      </trkpt>
      <trkpt lat="47.55299" lon="-2.26847">
        <ele>-26.60000038147</ele>
        <time>2020-05-24T08:25:29.000Z</time>
      </trkpt>
      <trkpt lat="47.553" lon="-2.26857">
        <ele>-26.60000038147</ele>
        <time>2020-05-24T08:25:30.000Z</time>
      </trkpt>
      <trkpt lat="47.55307" lon="-2.26898">
        <ele>-27</ele>
        <time>2020-05-24T08:25:34.000Z</time>
      </trkpt>
      <trkpt lat="47.55309" lon="-2.26909">
        <ele>-27.60000038147</ele>
        <time>2020-05-24T08:25:35.000Z</time>
      </trkpt>
      <trkpt lat="47.5531" lon="-2.26921">
        <ele>-28</ele>
        <time>2020-05-24T08:25:36.000Z</time>
      </trkpt>
      <trkpt lat="47.55312" lon="-2.26933">
        <ele>-28.39999961853</ele>
        <time>2020-05-24T08:25:37.000Z</time>
      </trkpt>
      <trkpt lat="47.55313" lon="-2.26946">
        <ele>-28.799999237061</ele>
        <time>2020-05-24T08:25:38.000Z</time>
      </trkpt>
      <trkpt lat="47.55316" lon="-2.26973">
        <ele>-29.60000038147</ele>
        <time>2020-05-24T08:25:40.000Z</time>
      </trkpt>
      <trkpt lat="47.55316" lon="-2.26987">
        <ele>-30</ele>
        <time>2020-05-24T08:25:41.000Z</time>
      </trkpt>
      <trkpt lat="47.55316" lon="-2.27001">
        <ele>-30.39999961853</ele>
        <time>2020-05-24T08:25:42.000Z</time>
      </trkpt>
      <trkpt lat="47.55315" lon="-2.27015">
        <ele>-30.799999237061</ele>
        <time>2020-05-24T08:25:43.000Z</time>
      </trkpt>
      <trkpt lat="47.55314" lon="-2.27028">
        <ele>-30.799999237061</ele>
        <time>2020-05-24T08:25:44.000Z</time>
      </trkpt>
      <trkpt lat="47.55313" lon="-2.27042">
        <ele>-31.39999961853</ele>
        <time>2020-05-24T08:25:45.000Z</time>
      </trkpt>
      <trkpt lat="47.55313" lon="-2.27054">
        <ele>-31.799999237061</ele>
        <time>2020-05-24T08:25:46.000Z</time>
      </trkpt>
      <trkpt lat="47.55312" lon="-2.27066">
        <ele>-32.200000762939</ele>
        <time>2020-05-24T08:25:47.000Z</time>
      </trkpt>
      <trkpt lat="47.55312" lon="-2.27078">
        <ele>-32.599998474121</ele>
        <time>2020-05-24T08:25:48.000Z</time>
      </trkpt>
      <trkpt lat="47.55311" lon="-2.27088">
        <ele>-33</ele>
        <time>2020-05-24T08:25:49.000Z</time>
      </trkpt>
      <trkpt lat="47.55302" lon="-2.27147">
        <ele>-33</ele>
        <time>2020-05-24T08:25:55.000Z</time>
      </trkpt>
      <trkpt lat="47.55289" lon="-2.27209">
        <ele>-33</ele>
        <time>2020-05-24T08:26:02.000Z</time>
      </trkpt>
      <trkpt lat="47.55277" lon="-2.27262">
        <ele>-33</ele>
        <time>2020-05-24T08:26:08.000Z</time>
      </trkpt>
      <trkpt lat="47.55268" lon="-2.27327">
        <ele>-33</ele>
        <time>2020-05-24T08:26:15.000Z</time>
      </trkpt>
      <trkpt lat="47.55263" lon="-2.27388">
        <ele>-33</ele>
        <time>2020-05-24T08:26:22.000Z</time>
      </trkpt>
      <trkpt lat="47.55262" lon="-2.27418">
        <ele>-33</ele>
        <time>2020-05-24T08:26:27.000Z</time>
      </trkpt>
      <trkpt lat="47.55258" lon="-2.27426">
        <ele>-33</ele>
        <time>2020-05-24T08:26:31.000Z</time>
      </trkpt>
      <trkpt lat="47.55248" lon="-2.27431">
        <ele>-33</ele>
        <time>2020-05-24T08:26:37.000Z</time>
      </trkpt>
      <trkpt lat="47.55225" lon="-2.27428">
        <ele>-33</ele>
        <time>2020-05-24T08:26:44.000Z</time>
      </trkpt>
      <trkpt lat="47.55192" lon="-2.27428">
        <ele>-33</ele>
        <time>2020-05-24T08:26:52.000Z</time>
      </trkpt>
      <trkpt lat="47.55171" lon="-2.27425">
        <ele>-33.599998474121</ele>
        <time>2020-05-24T08:26:56.000Z</time>
      </trkpt>
      <trkpt lat="47.55166" lon="-2.27424">
        <ele>-34</ele>
        <time>2020-05-24T08:26:57.000Z</time>
      </trkpt>
      <trkpt lat="47.5516" lon="-2.27423">
        <ele>-34.400001525879</ele>
        <time>2020-05-24T08:26:58.000Z</time>
      </trkpt>
      <trkpt lat="47.55155" lon="-2.27422">
        <ele>-34.799999237061</ele>
        <time>2020-05-24T08:26:59.000Z</time>
      </trkpt>
      <trkpt lat="47.55149" lon="-2.27422">
        <ele>-35.200000762939</ele>
        <time>2020-05-24T08:27:00.000Z</time>
      </trkpt>
      <trkpt lat="47.5511" lon="-2.27419">
        <ele>-35.200000762939</ele>
        <time>2020-05-24T08:27:07.000Z</time>
      </trkpt>
      <trkpt lat="47.55063" lon="-2.27416">
        <ele>-35.200000762939</ele>
        <time>2020-05-24T08:27:16.000Z</time>
      </trkpt>
      <trkpt lat="47.55023" lon="-2.27413">
        <ele>-35.599998474121</ele>
        <time>2020-05-24T08:27:24.000Z</time>
      </trkpt>
      <trkpt lat="47.55019" lon="-2.27413">
        <ele>-36</ele>
        <time>2020-05-24T08:27:25.000Z</time>
      </trkpt>
      <trkpt lat="47.55014" lon="-2.27413">
        <ele>-36.400001525879</ele>
        <time>2020-05-24T08:27:26.000Z</time>
      </trkpt>
      <trkpt lat="47.55009" lon="-2.27412">
        <ele>-36.799999237061</ele>
        <time>2020-05-24T08:27:27.000Z</time>
      </trkpt>
      <trkpt lat="47.55004" lon="-2.27411">
        <ele>-37.400001525879</ele>
        <time>2020-05-24T08:27:28.000Z</time>
      </trkpt>
      <trkpt lat="47.54998" lon="-2.2741">
        <ele>-37.799999237061</ele>
        <time>2020-05-24T08:27:29.000Z</time>
      </trkpt>
      <trkpt lat="47.5499" lon="-2.27409">
        <ele>-38.400001525879</ele>
        <time>2020-05-24T08:27:30.000Z</time>
      </trkpt>
      <trkpt lat="47.54983" lon="-2.27409">
        <ele>-39.200000762939</ele>
        <time>2020-05-24T08:27:31.000Z</time>
      </trkpt>
      <trkpt lat="47.54975" lon="-2.27408">
        <ele>-39.799999237061</ele>
        <time>2020-05-24T08:27:32.000Z</time>
      </trkpt>
      <trkpt lat="47.54968" lon="-2.27408">
        <ele>-40.599998474121</ele>
        <time>2020-05-24T08:27:33.000Z</time>
      </trkpt>
      <trkpt lat="47.54962" lon="-2.27408">
        <ele>-41.400001525879</ele>
        <time>2020-05-24T08:27:34.000Z</time>
      </trkpt>
      <trkpt lat="47.54956" lon="-2.27407">
        <ele>-42</ele>
        <time>2020-05-24T08:27:35.000Z</time>
      </trkpt>
      <trkpt lat="47.5493" lon="-2.27402">
        <ele>-42</ele>
        <time>2020-05-24T08:27:40.000Z</time>
      </trkpt>
      <trkpt lat="47.54928" lon="-2.27401">
        <ele>-41.599998474121</ele>
        <time>2020-05-24T08:27:41.000Z</time>
      </trkpt>
      <trkpt lat="47.54927" lon="-2.274">
        <ele>-41.200000762939</ele>
        <time>2020-05-24T08:27:42.000Z</time>
      </trkpt>
      <trkpt lat="47.54926" lon="-2.274">
        <ele>-40.799999237061</ele>
        <time>2020-05-24T08:27:43.000Z</time>
      </trkpt>
      <trkpt lat="47.54925" lon="-2.27399">
        <ele>-39.799999237061</ele>
        <time>2020-05-24T08:27:44.000Z</time>
      </trkpt>
      <trkpt lat="47.54925" lon="-2.27399">
        <ele>-39.400001525879</ele>
        <time>2020-05-24T08:27:45.000Z</time>
      </trkpt>
      <trkpt lat="47.54924" lon="-2.27399">
        <ele>-38.799999237061</ele>
        <time>2020-05-24T08:27:46.000Z</time>
      </trkpt>
      <trkpt lat="47.54923" lon="-2.27399">
        <ele>-38.400001525879</ele>
        <time>2020-05-24T08:27:47.000Z</time>
      </trkpt>
      <trkpt lat="47.54923" lon="-2.27399">
        <ele>-37.799999237061</ele>
        <time>2020-05-24T08:27:48.000Z</time>
      </trkpt>
      <trkpt lat="47.54922" lon="-2.27399">
        <ele>-37.400001525879</ele>
        <time>2020-05-24T08:27:49.000Z</time>
      </trkpt>
      <trkpt lat="47.54921" lon="-2.27399">
        <ele>-36.799999237061</ele>
        <time>2020-05-24T08:27:51.000Z</time>
      </trkpt>
      <trkpt lat="47.5492" lon="-2.27399">
        <ele>-36.400001525879</ele>
        <time>2020-05-24T08:27:52.000Z</time>
      </trkpt>
      <trkpt lat="47.54918" lon="-2.27398">
        <ele>-36</ele>
        <time>2020-05-24T08:27:53.000Z</time>
      </trkpt>
      <trkpt lat="47.54916" lon="-2.27398">
        <ele>-35.400001525879</ele>
        <time>2020-05-24T08:27:54.000Z</time>
      </trkpt>
      <trkpt lat="47.54913" lon="-2.27397">
        <ele>-35</ele>
        <time>2020-05-24T08:27:55.000Z</time>
      </trkpt>
      <trkpt lat="47.54912" lon="-2.27397">
        <ele>-35</ele>
        <time>2020-05-24T08:27:56.000Z</time>
      </trkpt>
      <trkpt lat="47.54904" lon="-2.27398">
        <ele>-34.599998474121</ele>
        <time>2020-05-24T08:28:00.000Z</time>
      </trkpt>
      <trkpt lat="47.54903" lon="-2.27398">
        <ele>-34.200000762939</ele>
        <time>2020-05-24T08:28:01.000Z</time>
      </trkpt>
      <trkpt lat="47.54902" lon="-2.27398">
        <ele>-33.799999237061</ele>
        <time>2020-05-24T08:28:02.000Z</time>
      </trkpt>
      <trkpt lat="47.54901" lon="-2.27399">
        <ele>-33.400001525879</ele>
        <time>2020-05-24T08:28:03.000Z</time>
      </trkpt>
      <trkpt lat="47.549" lon="-2.27399">
        <ele>-32.799999237061</ele>
        <time>2020-05-24T08:28:04.000Z</time>
      </trkpt>
      <trkpt lat="47.54894" lon="-2.27401">
        <ele>-32.799999237061</ele>
        <time>2020-05-24T08:28:08.000Z</time>
      </trkpt>
      <trkpt lat="47.54893" lon="-2.27403">
        <ele>-32.799999237061</ele>
        <time>2020-05-24T08:28:09.000Z</time>
      </trkpt>
      <trkpt lat="47.54892" lon="-2.27407">
        <ele>-32.799999237061</ele>
        <time>2020-05-24T08:28:14.000Z</time>
      </trkpt>
      <trkpt lat="47.54892" lon="-2.27409">
        <ele>-32.799999237061</ele>
        <time>2020-05-24T08:28:43.000Z</time>
      </trkpt>
      <trkpt lat="47.54891" lon="-2.27418">
        <ele>-32.799999237061</ele>
        <time>2020-05-24T08:28:46.000Z</time>
      </trkpt>
      <trkpt lat="47.54896" lon="-2.27432">
        <ele>-32.799999237061</ele>
        <time>2020-05-24T08:28:50.000Z</time>
      </trkpt>
      <trkpt lat="47.549" lon="-2.27459">
        <ele>-33.400001525879</ele>
        <time>2020-05-24T08:28:56.000Z</time>
      </trkpt>
      <trkpt lat="47.54901" lon="-2.27464">
        <ele>-33.799999237061</ele>
        <time>2020-05-24T08:28:57.000Z</time>
      </trkpt>
      <trkpt lat="47.54901" lon="-2.27467">
        <ele>-34.799999237061</ele>
        <time>2020-05-24T08:28:58.000Z</time>
      </trkpt>
      <trkpt lat="47.54902" lon="-2.2747">
        <ele>-35.200000762939</ele>
        <time>2020-05-24T08:28:59.000Z</time>
      </trkpt>
      <trkpt lat="47.54903" lon="-2.27472">
        <ele>-35.599998474121</ele>
        <time>2020-05-24T08:29:00.000Z</time>
      </trkpt>
      <trkpt lat="47.54902" lon="-2.27475">
        <ele>-36</ele>
        <time>2020-05-24T08:29:01.000Z</time>
      </trkpt>
      <trkpt lat="47.54901" lon="-2.2748">
        <ele>-36.400001525879</ele>
        <time>2020-05-24T08:29:02.000Z</time>
      </trkpt>
      <trkpt lat="47.54899" lon="-2.27484">
        <ele>-36.799999237061</ele>
        <time>2020-05-24T08:29:03.000Z</time>
      </trkpt>
      <trkpt lat="47.54896" lon="-2.27487">
        <ele>-37.400001525879</ele>
        <time>2020-05-24T08:29:04.000Z</time>
      </trkpt>
      <trkpt lat="47.54891" lon="-2.2749">
        <ele>-37.400001525879</ele>
        <time>2020-05-24T08:29:06.000Z</time>
      </trkpt>
      <trkpt lat="47.54888" lon="-2.27491">
        <ele>-37.400001525879</ele>
        <time>2020-05-24T08:29:07.000Z</time>
      </trkpt>
      <trkpt lat="47.54877" lon="-2.27503">
        <ele>-37.400001525879</ele>
        <time>2020-05-24T08:29:10.000Z</time>
      </trkpt>
      <trkpt lat="47.54875" lon="-2.27508">
        <ele>-37.799999237061</ele>
        <time>2020-05-24T08:29:11.000Z</time>
      </trkpt>
      <trkpt lat="47.54874" lon="-2.27513">
        <ele>-38.200000762939</ele>
        <time>2020-05-24T08:29:12.000Z</time>
      </trkpt>
      <trkpt lat="47.54874" lon="-2.27518">
        <ele>-38.599998474121</ele>
        <time>2020-05-24T08:29:13.000Z</time>
      </trkpt>
      <trkpt lat="47.54873" lon="-2.27523">
        <ele>-39</ele>
        <time>2020-05-24T08:29:14.000Z</time>
      </trkpt>
      <trkpt lat="47.54873" lon="-2.27528">
        <ele>-39.599998474121</ele>
        <time>2020-05-24T08:29:15.000Z</time>
      </trkpt>
      <trkpt lat="47.54872" lon="-2.27531">
        <ele>-40.200000762939</ele>
        <time>2020-05-24T08:29:16.000Z</time>
      </trkpt>
      <trkpt lat="47.5487" lon="-2.27534">
        <ele>-40.799999237061</ele>
        <time>2020-05-24T08:29:17.000Z</time>
      </trkpt>
      <trkpt lat="47.54868" lon="-2.27533">
        <ele>-41.400001525879</ele>
        <time>2020-05-24T08:29:18.000Z</time>
      </trkpt>
      <trkpt lat="47.54866" lon="-2.27531">
        <ele>-41.799999237061</ele>
        <time>2020-05-24T08:29:19.000Z</time>
      </trkpt>
      <trkpt lat="47.54864" lon="-2.27529">
        <ele>-41.799999237061</ele>
        <time>2020-05-24T08:29:20.000Z</time>
      </trkpt>
      <trkpt lat="47.54851" lon="-2.27517">
        <ele>-41.799999237061</ele>
        <time>2020-05-24T08:29:24.000Z</time>
      </trkpt>
      <trkpt lat="47.54839" lon="-2.27515">
        <ele>-41.799999237061</ele>
        <time>2020-05-24T08:29:28.000Z</time>
      </trkpt>
      <trkpt lat="47.54836" lon="-2.27516">
        <ele>-41.799999237061</ele>
        <time>2020-05-24T08:29:29.000Z</time>
      </trkpt>
      <trkpt lat="47.54831" lon="-2.27521">
        <ele>-41.799999237061</ele>
        <time>2020-05-24T08:29:31.000Z</time>
      </trkpt>
      <trkpt lat="47.54825" lon="-2.27524">
        <ele>-42.400001525879</ele>
        <time>2020-05-24T08:29:33.000Z</time>
      </trkpt>
      <trkpt lat="47.54821" lon="-2.27524">
        <ele>-42.799999237061</ele>
        <time>2020-05-24T08:29:34.000Z</time>
      </trkpt>
      <trkpt lat="47.54817" lon="-2.27521">
        <ele>-43.200000762939</ele>
        <time>2020-05-24T08:29:35.000Z</time>
      </trkpt>
      <trkpt lat="47.54815" lon="-2.27517">
        <ele>-43.599998474121</ele>
        <time>2020-05-24T08:29:36.000Z</time>
      </trkpt>
      <trkpt lat="47.54813" lon="-2.27513">
        <ele>-44</ele>
        <time>2020-05-24T08:29:37.000Z</time>
      </trkpt>
      <trkpt lat="47.54803" lon="-2.27504">
        <ele>-44</ele>
        <time>2020-05-24T08:29:41.000Z</time>
      </trkpt>
      <trkpt lat="47.54795" lon="-2.27501">
        <ele>-44</ele>
        <time>2020-05-24T08:29:43.000Z</time>
      </trkpt>
      <trkpt lat="47.54788" lon="-2.27505">
        <ele>-44</ele>
        <time>2020-05-24T08:29:45.000Z</time>
      </trkpt>
      <trkpt lat="47.54777" lon="-2.27508">
        <ele>-44.400001525879</ele>
        <time>2020-05-24T08:29:48.000Z</time>
      </trkpt>
      <trkpt lat="47.54773" lon="-2.27509">
        <ele>-44.799999237061</ele>
        <time>2020-05-24T08:29:49.000Z</time>
      </trkpt>
      <trkpt lat="47.54771" lon="-2.2751">
        <ele>-45.200000762939</ele>
        <time>2020-05-24T08:29:50.000Z</time>
      </trkpt>
      <trkpt lat="47.54768" lon="-2.2751">
        <ele>-45.799999237061</ele>
        <time>2020-05-24T08:29:51.000Z</time>
      </trkpt>
      <trkpt lat="47.54766" lon="-2.2751">
        <ele>-46.200000762939</ele>
        <time>2020-05-24T08:29:52.000Z</time>
      </trkpt>
      <trkpt lat="47.54765" lon="-2.27509">
        <ele>-46.200000762939</ele>
        <time>2020-05-24T08:29:53.000Z</time>
      </trkpt>
      <trkpt lat="47.54765" lon="-2.27488">
        <ele>-46.200000762939</ele>
        <time>2020-05-24T08:29:58.000Z</time>
      </trkpt>
      <trkpt lat="47.54764" lon="-2.27483">
        <ele>-46.200000762939</ele>
        <time>2020-05-24T08:30:00.000Z</time>
      </trkpt>
      <trkpt lat="47.54762" lon="-2.27481">
        <ele>-45.799999237061</ele>
        <time>2020-05-24T08:30:01.000Z</time>
      </trkpt>
      <trkpt lat="47.54761" lon="-2.27479">
        <ele>-45.400001525879</ele>
        <time>2020-05-24T08:30:02.000Z</time>
      </trkpt>
      <trkpt lat="47.54758" lon="-2.27477">
        <ele>-44.799999237061</ele>
        <time>2020-05-24T08:30:03.000Z</time>
      </trkpt>
      <trkpt lat="47.54756" lon="-2.27476">
        <ele>-44.400001525879</ele>
        <time>2020-05-24T08:30:04.000Z</time>
      </trkpt>
      <trkpt lat="47.54753" lon="-2.27474">
        <ele>-44</ele>
        <time>2020-05-24T08:30:05.000Z</time>
      </trkpt>
      <trkpt lat="47.54745" lon="-2.27473">
        <ele>-44</ele>
        <time>2020-05-24T08:30:07.000Z</time>
      </trkpt>
      <trkpt lat="47.54729" lon="-2.27467">
        <ele>-44</ele>
        <time>2020-05-24T08:30:12.000Z</time>
      </trkpt>
      <trkpt lat="47.54726" lon="-2.27465">
        <ele>-44</ele>
        <time>2020-05-24T08:30:13.000Z</time>
      </trkpt>
      <trkpt lat="47.54712" lon="-2.27459">
        <ele>-44</ele>
        <time>2020-05-24T08:30:17.000Z</time>
      </trkpt>
      <trkpt lat="47.54702" lon="-2.27446">
        <ele>-44</ele>
        <time>2020-05-24T08:30:22.000Z</time>
      </trkpt>
      <trkpt lat="47.54697" lon="-2.27435">
        <ele>-44</ele>
        <time>2020-05-24T08:30:25.000Z</time>
      </trkpt>
      <trkpt lat="47.54695" lon="-2.27427">
        <ele>-44</ele>
        <time>2020-05-24T08:30:27.000Z</time>
      </trkpt>
      <trkpt lat="47.54693" lon="-2.27417">
        <ele>-44</ele>
        <time>2020-05-24T08:30:29.000Z</time>
      </trkpt>
      <trkpt lat="47.5469" lon="-2.27397">
        <ele>-44</ele>
        <time>2020-05-24T08:30:34.000Z</time>
      </trkpt>
      <trkpt lat="47.54688" lon="-2.27385">
        <ele>-43.599998474121</ele>
        <time>2020-05-24T08:30:37.000Z</time>
      </trkpt>
      <trkpt lat="47.54687" lon="-2.27381">
        <ele>-43.200000762939</ele>
        <time>2020-05-24T08:30:38.000Z</time>
      </trkpt>
      <trkpt lat="47.54687" lon="-2.27377">
        <ele>-42.799999237061</ele>
        <time>2020-05-24T08:30:39.000Z</time>
      </trkpt>
      <trkpt lat="47.54686" lon="-2.27373">
        <ele>-42.400001525879</ele>
        <time>2020-05-24T08:30:40.000Z</time>
      </trkpt>
      <trkpt lat="47.54686" lon="-2.2737">
        <ele>-42</ele>
        <time>2020-05-24T08:30:41.000Z</time>
      </trkpt>
      <trkpt lat="47.54686" lon="-2.27367">
        <ele>-42</ele>
        <time>2020-05-24T08:30:42.000Z</time>
      </trkpt>
      <trkpt lat="47.54687" lon="-2.27364">
        <ele>-42</ele>
        <time>2020-05-24T08:30:44.000Z</time>
      </trkpt>
      <trkpt lat="47.54695" lon="-2.27366">
        <ele>-40</ele>
        <time>2020-05-24T08:31:32.000Z</time>
      </trkpt>
      <trkpt lat="47.54696" lon="-2.27367">
        <ele>-40</ele>
        <time>2020-05-24T08:31:33.000Z</time>
      </trkpt>
      <trkpt lat="47.54703" lon="-2.27374">
        <ele>-40</ele>
        <time>2020-05-24T08:31:39.000Z</time>
      </trkpt>
      <trkpt lat="47.54708" lon="-2.27375">
        <ele>-40</ele>
        <time>2020-05-24T08:31:42.000Z</time>
      </trkpt>
      <trkpt lat="47.54713" lon="-2.27383">
        <ele>-40</ele>
        <time>2020-05-24T08:31:45.000Z</time>
      </trkpt>
      <trkpt lat="47.54721" lon="-2.27403">
        <ele>-40</ele>
        <time>2020-05-24T08:31:50.000Z</time>
      </trkpt>
      <trkpt lat="47.54729" lon="-2.27416">
        <ele>-40</ele>
        <time>2020-05-24T08:31:54.000Z</time>
      </trkpt>
      <trkpt lat="47.54741" lon="-2.27437">
        <ele>-40.400001525879</ele>
        <time>2020-05-24T08:32:00.000Z</time>
      </trkpt>
      <trkpt lat="47.54742" lon="-2.27439">
        <ele>-40.799999237061</ele>
        <time>2020-05-24T08:32:01.000Z</time>
      </trkpt>
      <trkpt lat="47.54744" lon="-2.27442">
        <ele>-41.200000762939</ele>
        <time>2020-05-24T08:32:02.000Z</time>
      </trkpt>
      <trkpt lat="47.54747" lon="-2.27443">
        <ele>-41.599998474121</ele>
        <time>2020-05-24T08:32:03.000Z</time>
      </trkpt>
      <trkpt lat="47.54751" lon="-2.27445">
        <ele>-42</ele>
        <time>2020-05-24T08:32:04.000Z</time>
      </trkpt>
      <trkpt lat="47.54759" lon="-2.27446">
        <ele>-42</ele>
        <time>2020-05-24T08:32:06.000Z</time>
      </trkpt>
      <trkpt lat="47.54763" lon="-2.27444">
        <ele>-42</ele>
        <time>2020-05-24T08:32:08.000Z</time>
      </trkpt>
      <trkpt lat="47.54765" lon="-2.27441">
        <ele>-42</ele>
        <time>2020-05-24T08:32:10.000Z</time>
      </trkpt>
      <trkpt lat="47.54765" lon="-2.27437">
        <ele>-41.599998474121</ele>
        <time>2020-05-24T08:32:13.000Z</time>
      </trkpt>
      <trkpt lat="47.54765" lon="-2.27436">
        <ele>-41.200000762939</ele>
        <time>2020-05-24T08:32:14.000Z</time>
      </trkpt>
      <trkpt lat="47.54766" lon="-2.27436">
        <ele>-40.799999237061</ele>
        <time>2020-05-24T08:32:15.000Z</time>
      </trkpt>
      <trkpt lat="47.54768" lon="-2.27436">
        <ele>-40.200000762939</ele>
        <time>2020-05-24T08:32:16.000Z</time>
      </trkpt>
      <trkpt lat="47.5477" lon="-2.27435">
        <ele>-39.799999237061</ele>
        <time>2020-05-24T08:32:17.000Z</time>
      </trkpt>
      <trkpt lat="47.54775" lon="-2.27433">
        <ele>-39.400001525879</ele>
        <time>2020-05-24T08:32:19.000Z</time>
      </trkpt>
      <trkpt lat="47.54776" lon="-2.27433">
        <ele>-39</ele>
        <time>2020-05-24T08:32:20.000Z</time>
      </trkpt>
      <trkpt lat="47.54779" lon="-2.27433">
        <ele>-38.400001525879</ele>
        <time>2020-05-24T08:32:21.000Z</time>
      </trkpt>
      <trkpt lat="47.54781" lon="-2.27432">
        <ele>-38</ele>
        <time>2020-05-24T08:32:22.000Z</time>
      </trkpt>
      <trkpt lat="47.54784" lon="-2.27431">
        <ele>-37.599998474121</ele>
        <time>2020-05-24T08:32:23.000Z</time>
      </trkpt>
      <trkpt lat="47.54786" lon="-2.2743">
        <ele>-37.599998474121</ele>
        <time>2020-05-24T08:32:25.000Z</time>
      </trkpt>
      <trkpt lat="47.54787" lon="-2.2743">
        <ele>-37.599998474121</ele>
        <time>2020-05-24T08:32:26.000Z</time>
      </trkpt>
      <trkpt lat="47.54787" lon="-2.27425">
        <ele>-36</ele>
        <time>2020-05-24T08:32:31.000Z</time>
      </trkpt>
      <trkpt lat="47.54787" lon="-2.27422">
        <ele>-35.599998474121</ele>
        <time>2020-05-24T08:32:32.000Z</time>
      </trkpt>
      <trkpt lat="47.54786" lon="-2.2742">
        <ele>-35.599998474121</ele>
        <time>2020-05-24T08:32:33.000Z</time>
      </trkpt>
      <trkpt lat="47.54779" lon="-2.27415">
        <ele>-35.599998474121</ele>
        <time>2020-05-24T08:32:38.000Z</time>
      </trkpt>
      <trkpt lat="47.54778" lon="-2.27413">
        <ele>-35.599998474121</ele>
        <time>2020-05-24T08:32:39.000Z</time>
      </trkpt>
      <trkpt lat="47.54776" lon="-2.27406">
        <ele>-35.599998474121</ele>
        <time>2020-05-24T08:32:42.000Z</time>
      </trkpt>
      <trkpt lat="47.54775" lon="-2.274">
        <ele>-35.599998474121</ele>
        <time>2020-05-24T08:32:44.000Z</time>
      </trkpt>
      <trkpt lat="47.54776" lon="-2.27396">
        <ele>-35.599998474121</ele>
        <time>2020-05-24T08:32:46.000Z</time>
      </trkpt>
      <trkpt lat="47.54778" lon="-2.27393">
        <ele>-35.599998474121</ele>
        <time>2020-05-24T08:32:48.000Z</time>
      </trkpt>
      <trkpt lat="47.54781" lon="-2.27389">
        <ele>-35.599998474121</ele>
        <time>2020-05-24T08:32:50.000Z</time>
      </trkpt>
      <trkpt lat="47.54784" lon="-2.27391">
        <ele>-35.200000762939</ele>
        <time>2020-05-24T08:32:52.000Z</time>
      </trkpt>
      <trkpt lat="47.54785" lon="-2.27392">
        <ele>-34.799999237061</ele>
        <time>2020-05-24T08:32:53.000Z</time>
      </trkpt>
      <trkpt lat="47.54787" lon="-2.27393">
        <ele>-34.400001525879</ele>
        <time>2020-05-24T08:32:54.000Z</time>
      </trkpt>
      <trkpt lat="47.54788" lon="-2.27394">
        <ele>-34</ele>
        <time>2020-05-24T08:32:55.000Z</time>
      </trkpt>
      <trkpt lat="47.54789" lon="-2.27396">
        <ele>-33.599998474121</ele>
        <time>2020-05-24T08:32:56.000Z</time>
      </trkpt>
      <trkpt lat="47.54792" lon="-2.27401">
        <ele>-33.599998474121</ele>
        <time>2020-05-24T08:32:59.000Z</time>
      </trkpt>
      <trkpt lat="47.54792" lon="-2.27402">
        <ele>-33.599998474121</ele>
        <time>2020-05-24T08:33:00.000Z</time>
      </trkpt>
      <trkpt lat="47.54793" lon="-2.27403">
        <ele>-33.599998474121</ele>
        <time>2020-05-24T08:33:01.000Z</time>
      </trkpt>
      <trkpt lat="47.54791" lon="-2.27404">
        <ele>-33.599998474121</ele>
        <time>2020-05-24T08:33:04.000Z</time>
      </trkpt>
      <trkpt lat="47.54789" lon="-2.27404">
        <ele>-33.599998474121</ele>
        <time>2020-05-24T08:33:05.000Z</time>
      </trkpt>
      <trkpt lat="47.54788" lon="-2.27409">
        <ele>-33.599998474121</ele>
        <time>2020-05-24T08:33:09.000Z</time>
      </trkpt>
      <trkpt lat="47.54789" lon="-2.2741">
        <ele>-33.599998474121</ele>
        <time>2020-05-24T08:33:10.000Z</time>
      </trkpt>
      <trkpt lat="47.54795" lon="-2.27415">
        <ele>-33.599998474121</ele>
        <time>2020-05-24T08:33:15.000Z</time>
      </trkpt>
      <trkpt lat="47.54803" lon="-2.27415">
        <ele>-33.599998474121</ele>
        <time>2020-05-24T08:33:19.000Z</time>
      </trkpt>
      <trkpt lat="47.54804" lon="-2.27412">
        <ele>-33.599998474121</ele>
        <time>2020-05-24T08:33:20.000Z</time>
      </trkpt>
      <trkpt lat="47.54799" lon="-2.27406">
        <ele>-33.599998474121</ele>
        <time>2020-05-24T08:33:24.000Z</time>
      </trkpt>
      <trkpt lat="47.54792" lon="-2.27394">
        <ele>-33.599998474121</ele>
        <time>2020-05-24T08:33:29.000Z</time>
      </trkpt>
      <trkpt lat="47.54793" lon="-2.27379">
        <ele>-33.599998474121</ele>
        <time>2020-05-24T08:33:33.000Z</time>
      </trkpt>
      <trkpt lat="47.54794" lon="-2.27374">
        <ele>-33.599998474121</ele>
        <time>2020-05-24T08:33:34.000Z</time>
      </trkpt>
      <trkpt lat="47.54795" lon="-2.27371">
        <ele>-33.200000762939</ele>
        <time>2020-05-24T08:33:35.000Z</time>
      </trkpt>
      <trkpt lat="47.54794" lon="-2.27368">
        <ele>-32.799999237061</ele>
        <time>2020-05-24T08:33:36.000Z</time>
      </trkpt>
      <trkpt lat="47.54792" lon="-2.27365">
        <ele>-32.400001525879</ele>
        <time>2020-05-24T08:33:37.000Z</time>
      </trkpt>
      <trkpt lat="47.54791" lon="-2.27362">
        <ele>-32</ele>
        <time>2020-05-24T08:33:38.000Z</time>
      </trkpt>
      <trkpt lat="47.5479" lon="-2.27359">
        <ele>-31.60000038147</ele>
        <time>2020-05-24T08:33:39.000Z</time>
      </trkpt>
      <trkpt lat="47.54785" lon="-2.27353">
        <ele>-31.60000038147</ele>
        <time>2020-05-24T08:33:42.000Z</time>
      </trkpt>
      <trkpt lat="47.54782" lon="-2.2735">
        <ele>-31.60000038147</ele>
        <time>2020-05-24T08:33:44.000Z</time>
      </trkpt>
      <trkpt lat="47.54781" lon="-2.2735">
        <ele>-31.60000038147</ele>
        <time>2020-05-24T08:33:46.000Z</time>
      </trkpt>
      <trkpt lat="47.54778" lon="-2.27349">
        <ele>-31.60000038147</ele>
        <time>2020-05-24T08:34:33.000Z</time>
      </trkpt>
      <trkpt lat="47.54777" lon="-2.27348">
        <ele>-31.60000038147</ele>
        <time>2020-05-24T08:34:34.000Z</time>
      </trkpt>
      <trkpt lat="47.54763" lon="-2.27347">
        <ele>-31.60000038147</ele>
        <time>2020-05-24T08:34:39.000Z</time>
      </trkpt>
      <trkpt lat="47.54741" lon="-2.27349">
        <ele>-32</ele>
        <time>2020-05-24T08:34:44.000Z</time>
      </trkpt>
      <trkpt lat="47.54737" lon="-2.27347">
        <ele>-32.799999237061</ele>
        <time>2020-05-24T08:34:45.000Z</time>
      </trkpt>
      <trkpt lat="47.54733" lon="-2.27344">
        <ele>-33.200000762939</ele>
        <time>2020-05-24T08:34:46.000Z</time>
      </trkpt>
      <trkpt lat="47.54728" lon="-2.2734">
        <ele>-33.599998474121</ele>
        <time>2020-05-24T08:34:47.000Z</time>
      </trkpt>
      <trkpt lat="47.54723" lon="-2.27336">
        <ele>-33.599998474121</ele>
        <time>2020-05-24T08:34:48.000Z</time>
      </trkpt>
      <trkpt lat="47.54718" lon="-2.27332">
        <ele>-33.599998474121</ele>
        <time>2020-05-24T08:34:49.000Z</time>
      </trkpt>
      <trkpt lat="47.54698" lon="-2.27318">
        <ele>-34</ele>
        <time>2020-05-24T08:34:53.000Z</time>
      </trkpt>
      <trkpt lat="47.54692" lon="-2.27315">
        <ele>-34.400001525879</ele>
        <time>2020-05-24T08:34:54.000Z</time>
      </trkpt>
      <trkpt lat="47.54687" lon="-2.27312">
        <ele>-34.799999237061</ele>
        <time>2020-05-24T08:34:55.000Z</time>
      </trkpt>
      <trkpt lat="47.54681" lon="-2.27311">
        <ele>-35.200000762939</ele>
        <time>2020-05-24T08:34:56.000Z</time>
      </trkpt>
      <trkpt lat="47.54675" lon="-2.27309">
        <ele>-35.599998474121</ele>
        <time>2020-05-24T08:34:57.000Z</time>
      </trkpt>
      <trkpt lat="47.54668" lon="-2.27309">
        <ele>-35.599998474121</ele>
        <time>2020-05-24T08:34:58.000Z</time>
      </trkpt>
      <trkpt lat="47.54662" lon="-2.27311">
        <ele>-36</ele>
        <time>2020-05-24T08:34:59.000Z</time>
      </trkpt>
      <trkpt lat="47.54656" lon="-2.27314">
        <ele>-36.400001525879</ele>
        <time>2020-05-24T08:35:00.000Z</time>
      </trkpt>
      <trkpt lat="47.54649" lon="-2.27318">
        <ele>-37</ele>
        <time>2020-05-24T08:35:01.000Z</time>
      </trkpt>
      <trkpt lat="47.54643" lon="-2.27323">
        <ele>-37.400001525879</ele>
        <time>2020-05-24T08:35:02.000Z</time>
      </trkpt>
      <trkpt lat="47.54636" lon="-2.27329">
        <ele>-38</ele>
        <time>2020-05-24T08:35:03.000Z</time>
      </trkpt>
      <trkpt lat="47.5463" lon="-2.27335">
        <ele>-38.599998474121</ele>
        <time>2020-05-24T08:35:04.000Z</time>
      </trkpt>
      <trkpt lat="47.54622" lon="-2.27341">
        <ele>-39.200000762939</ele>
        <time>2020-05-24T08:35:05.000Z</time>
      </trkpt>
      <trkpt lat="47.54613" lon="-2.27347">
        <ele>-40</ele>
        <time>2020-05-24T08:35:06.000Z</time>
      </trkpt>
      <trkpt lat="47.54604" lon="-2.27352">
        <ele>-40.599998474121</ele>
        <time>2020-05-24T08:35:07.000Z</time>
      </trkpt>
      <trkpt lat="47.54596" lon="-2.27357">
        <ele>-41.400001525879</ele>
        <time>2020-05-24T08:35:08.000Z</time>
      </trkpt>
      <trkpt lat="47.54588" lon="-2.27361">
        <ele>-42.200000762939</ele>
        <time>2020-05-24T08:35:09.000Z</time>
      </trkpt>
      <trkpt lat="47.54581" lon="-2.27365">
        <ele>-43</ele>
        <time>2020-05-24T08:35:10.000Z</time>
      </trkpt>
      <trkpt lat="47.54569" lon="-2.27373">
        <ele>-43</ele>
        <time>2020-05-24T08:35:12.000Z</time>
      </trkpt>
      <trkpt lat="47.54538" lon="-2.27392">
        <ele>-43</ele>
        <time>2020-05-24T08:35:18.000Z</time>
      </trkpt>
      <trkpt lat="47.54501" lon="-2.27416">
        <ele>-43</ele>
        <time>2020-05-24T08:35:25.000Z</time>
      </trkpt>
      <trkpt lat="47.54467" lon="-2.27437">
        <ele>-42.400001525879</ele>
        <time>2020-05-24T08:35:32.000Z</time>
      </trkpt>
      <trkpt lat="47.54463" lon="-2.2744">
        <ele>-42</ele>
        <time>2020-05-24T08:35:33.000Z</time>
      </trkpt>
      <trkpt lat="47.54458" lon="-2.27443">
        <ele>-41.200000762939</ele>
        <time>2020-05-24T08:35:34.000Z</time>
      </trkpt>
      <trkpt lat="47.54454" lon="-2.27446">
        <ele>-40.599998474121</ele>
        <time>2020-05-24T08:35:35.000Z</time>
      </trkpt>
      <trkpt lat="47.54428" lon="-2.27463">
        <ele>-40.599998474121</ele>
        <time>2020-05-24T08:35:41.000Z</time>
      </trkpt>
      <trkpt lat="47.54399" lon="-2.27482">
        <ele>-40.599998474121</ele>
        <time>2020-05-24T08:35:48.000Z</time>
      </trkpt>
      <trkpt lat="47.54386" lon="-2.27491">
        <ele>-40.200000762939</ele>
        <time>2020-05-24T08:35:51.000Z</time>
      </trkpt>
      <trkpt lat="47.54382" lon="-2.27493">
        <ele>-39.799999237061</ele>
        <time>2020-05-24T08:35:52.000Z</time>
      </trkpt>
      <trkpt lat="47.54378" lon="-2.27496">
        <ele>-39.400001525879</ele>
        <time>2020-05-24T08:35:53.000Z</time>
      </trkpt>
      <trkpt lat="47.54373" lon="-2.27499">
        <ele>-39</ele>
        <time>2020-05-24T08:35:54.000Z</time>
      </trkpt>
      <trkpt lat="47.54369" lon="-2.27502">
        <ele>-38.599998474121</ele>
        <time>2020-05-24T08:35:55.000Z</time>
      </trkpt>
      <trkpt lat="47.5436" lon="-2.27508">
        <ele>-38.599998474121</ele>
        <time>2020-05-24T08:35:57.000Z</time>
      </trkpt>
      <trkpt lat="47.54329" lon="-2.27528">
        <ele>-38.599998474121</ele>
        <time>2020-05-24T08:36:04.000Z</time>
      </trkpt>
      <trkpt lat="47.54299" lon="-2.27547">
        <ele>-38.599998474121</ele>
        <time>2020-05-24T08:36:11.000Z</time>
      </trkpt>
      <trkpt lat="47.5427" lon="-2.27565">
        <ele>-38.200000762939</ele>
        <time>2020-05-24T08:36:18.000Z</time>
      </trkpt>
      <trkpt lat="47.54266" lon="-2.27568">
        <ele>-37.799999237061</ele>
        <time>2020-05-24T08:36:19.000Z</time>
      </trkpt>
      <trkpt lat="47.54262" lon="-2.27571">
        <ele>-37.400001525879</ele>
        <time>2020-05-24T08:36:20.000Z</time>
      </trkpt>
      <trkpt lat="47.54258" lon="-2.27573">
        <ele>-37</ele>
        <time>2020-05-24T08:36:21.000Z</time>
      </trkpt>
      <trkpt lat="47.54255" lon="-2.27576">
        <ele>-36.599998474121</ele>
        <time>2020-05-24T08:36:22.000Z</time>
      </trkpt>
      <trkpt lat="47.54237" lon="-2.27588">
        <ele>-36.599998474121</ele>
        <time>2020-05-24T08:36:27.000Z</time>
      </trkpt>
      <trkpt lat="47.54203" lon="-2.2761">
        <ele>-36</ele>
        <time>2020-05-24T08:36:36.000Z</time>
      </trkpt>
      <trkpt lat="47.54199" lon="-2.27612">
        <ele>-35.599998474121</ele>
        <time>2020-05-24T08:36:37.000Z</time>
      </trkpt>
      <trkpt lat="47.54196" lon="-2.27615">
        <ele>-35.200000762939</ele>
        <time>2020-05-24T08:36:38.000Z</time>
      </trkpt>
      <trkpt lat="47.54193" lon="-2.27617">
        <ele>-34.799999237061</ele>
        <time>2020-05-24T08:36:39.000Z</time>
      </trkpt>
      <trkpt lat="47.54189" lon="-2.27619">
        <ele>-34.400001525879</ele>
        <time>2020-05-24T08:36:40.000Z</time>
      </trkpt>
      <trkpt lat="47.54174" lon="-2.27629">
        <ele>-34.400001525879</ele>
        <time>2020-05-24T08:36:44.000Z</time>
      </trkpt>
      <trkpt lat="47.54157" lon="-2.27641">
        <ele>-33.799999237061</ele>
        <time>2020-05-24T08:36:49.000Z</time>
      </trkpt>
      <trkpt lat="47.54153" lon="-2.27643">
        <ele>-33.400001525879</ele>
        <time>2020-05-24T08:36:50.000Z</time>
      </trkpt>
      <trkpt lat="47.5415" lon="-2.27645">
        <ele>-33</ele>
        <time>2020-05-24T08:36:51.000Z</time>
      </trkpt>
      <trkpt lat="47.54146" lon="-2.27647">
        <ele>-32.599998474121</ele>
        <time>2020-05-24T08:36:52.000Z</time>
      </trkpt>
      <trkpt lat="47.54143" lon="-2.2765">
        <ele>-32.200000762939</ele>
        <time>2020-05-24T08:36:53.000Z</time>
      </trkpt>
      <trkpt lat="47.54126" lon="-2.27662">
        <ele>-32.200000762939</ele>
        <time>2020-05-24T08:36:58.000Z</time>
      </trkpt>
      <trkpt lat="47.54109" lon="-2.27671">
        <ele>-31.799999237061</ele>
        <time>2020-05-24T08:37:03.000Z</time>
      </trkpt>
      <trkpt lat="47.54104" lon="-2.27672">
        <ele>-31.39999961853</ele>
        <time>2020-05-24T08:37:04.000Z</time>
      </trkpt>
      <trkpt lat="47.541" lon="-2.27672">
        <ele>-31</ele>
        <time>2020-05-24T08:37:05.000Z</time>
      </trkpt>
      <trkpt lat="47.54096" lon="-2.27672">
        <ele>-30.60000038147</ele>
        <time>2020-05-24T08:37:06.000Z</time>
      </trkpt>
      <trkpt lat="47.54092" lon="-2.27672">
        <ele>-30</ele>
        <time>2020-05-24T08:37:07.000Z</time>
      </trkpt>
      <trkpt lat="47.5408" lon="-2.2767">
        <ele>-30</ele>
        <time>2020-05-24T08:37:10.000Z</time>
      </trkpt>
      <trkpt lat="47.54059" lon="-2.27662">
        <ele>-30</ele>
        <time>2020-05-24T08:37:16.000Z</time>
      </trkpt>
      <trkpt lat="47.54053" lon="-2.27658">
        <ele>-30</ele>
        <time>2020-05-24T08:37:18.000Z</time>
      </trkpt>
      <trkpt lat="47.5404" lon="-2.27648">
        <ele>-30</ele>
        <time>2020-05-24T08:37:22.000Z</time>
      </trkpt>
      <trkpt lat="47.54014" lon="-2.27632">
        <ele>-30</ele>
        <time>2020-05-24T08:37:28.000Z</time>
      </trkpt>
      <trkpt lat="47.5399" lon="-2.27623">
        <ele>-30</ele>
        <time>2020-05-24T08:37:34.000Z</time>
      </trkpt>
      <trkpt lat="47.53987" lon="-2.27626">
        <ele>-30</ele>
        <time>2020-05-24T08:37:35.000Z</time>
      </trkpt>
      <trkpt lat="47.53985" lon="-2.27635">
        <ele>-30</ele>
        <time>2020-05-24T08:37:37.000Z</time>
      </trkpt>
      <trkpt lat="47.53982" lon="-2.27651">
        <ele>-30</ele>
        <time>2020-05-24T08:37:42.000Z</time>
      </trkpt>
      <trkpt lat="47.5398" lon="-2.27675">
        <ele>-30</ele>
        <time>2020-05-24T08:37:49.000Z</time>
      </trkpt>
      <trkpt lat="47.5398" lon="-2.27705">
        <ele>-30</ele>
        <time>2020-05-24T08:37:55.000Z</time>
      </trkpt>
      <trkpt lat="47.53977" lon="-2.27726">
        <ele>-30</ele>
        <time>2020-05-24T08:38:00.000Z</time>
      </trkpt>
      <trkpt lat="47.53975" lon="-2.2773">
        <ele>-30</ele>
        <time>2020-05-24T08:38:01.000Z</time>
      </trkpt>
      <trkpt lat="47.53963" lon="-2.27744">
        <ele>-30</ele>
        <time>2020-05-24T08:38:05.000Z</time>
      </trkpt>
      <trkpt lat="47.53959" lon="-2.27745">
        <ele>-30</ele>
        <time>2020-05-24T08:38:06.000Z</time>
      </trkpt>
      <trkpt lat="47.53955" lon="-2.27747">
        <ele>-29.60000038147</ele>
        <time>2020-05-24T08:38:07.000Z</time>
      </trkpt>
      <trkpt lat="47.53951" lon="-2.27748">
        <ele>-29.200000762939</ele>
        <time>2020-05-24T08:38:08.000Z</time>
      </trkpt>
      <trkpt lat="47.53947" lon="-2.27752">
        <ele>-28.799999237061</ele>
        <time>2020-05-24T08:38:09.000Z</time>
      </trkpt>
      <trkpt lat="47.53943" lon="-2.27755">
        <ele>-28.39999961853</ele>
        <time>2020-05-24T08:38:10.000Z</time>
      </trkpt>
      <trkpt lat="47.53939" lon="-2.27758">
        <ele>-28</ele>
        <time>2020-05-24T08:38:11.000Z</time>
      </trkpt>
      <trkpt lat="47.53924" lon="-2.27766">
        <ele>-28</ele>
        <time>2020-05-24T08:38:15.000Z</time>
      </trkpt>
      <trkpt lat="47.53908" lon="-2.27781">
        <ele>-28</ele>
        <time>2020-05-24T08:38:20.000Z</time>
      </trkpt>
      <trkpt lat="47.53898" lon="-2.27782">
        <ele>-28</ele>
        <time>2020-05-24T08:38:22.000Z</time>
      </trkpt>
      <trkpt lat="47.53888" lon="-2.27784">
        <ele>-28</ele>
        <time>2020-05-24T08:38:24.000Z</time>
      </trkpt>
      <trkpt lat="47.53883" lon="-2.27787">
        <ele>-28</ele>
        <time>2020-05-24T08:38:25.000Z</time>
      </trkpt>
      <trkpt lat="47.53876" lon="-2.27795">
        <ele>-28</ele>
        <time>2020-05-24T08:38:27.000Z</time>
      </trkpt>
      <trkpt lat="47.5386" lon="-2.27805">
        <ele>-28</ele>
        <time>2020-05-24T08:38:31.000Z</time>
      </trkpt>
      <trkpt lat="47.53855" lon="-2.27805">
        <ele>-28</ele>
        <time>2020-05-24T08:38:32.000Z</time>
      </trkpt>
      <trkpt lat="47.53836" lon="-2.27807">
        <ele>-28</ele>
        <time>2020-05-24T08:38:36.000Z</time>
      </trkpt>
      <trkpt lat="47.53831" lon="-2.27808">
        <ele>-28</ele>
        <time>2020-05-24T08:38:37.000Z</time>
      </trkpt>
      <trkpt lat="47.53812" lon="-2.27815">
        <ele>-28</ele>
        <time>2020-05-24T08:38:42.000Z</time>
      </trkpt>
      <trkpt lat="47.53799" lon="-2.27826">
        <ele>-28</ele>
        <time>2020-05-24T08:38:46.000Z</time>
      </trkpt>
      <trkpt lat="47.53795" lon="-2.2783">
        <ele>-28.60000038147</ele>
        <time>2020-05-24T08:38:47.000Z</time>
      </trkpt>
      <trkpt lat="47.53792" lon="-2.27834">
        <ele>-29</ele>
        <time>2020-05-24T08:38:48.000Z</time>
      </trkpt>
      <trkpt lat="47.5379" lon="-2.27839">
        <ele>-29.39999961853</ele>
        <time>2020-05-24T08:38:49.000Z</time>
      </trkpt>
      <trkpt lat="47.5379" lon="-2.27844">
        <ele>-29.799999237061</ele>
        <time>2020-05-24T08:38:50.000Z</time>
      </trkpt>
      <trkpt lat="47.53791" lon="-2.27848">
        <ele>-30.200000762939</ele>
        <time>2020-05-24T08:38:51.000Z</time>
      </trkpt>
      <trkpt lat="47.53795" lon="-2.27857">
        <ele>-30.200000762939</ele>
        <time>2020-05-24T08:38:53.000Z</time>
      </trkpt>
      <trkpt lat="47.53799" lon="-2.27878">
        <ele>-30.200000762939</ele>
        <time>2020-05-24T08:38:58.000Z</time>
      </trkpt>
      <trkpt lat="47.53796" lon="-2.2788">
        <ele>-30.200000762939</ele>
        <time>2020-05-24T08:38:59.000Z</time>
      </trkpt>
      <trkpt lat="47.53787" lon="-2.27901">
        <ele>-30.200000762939</ele>
        <time>2020-05-24T08:39:04.000Z</time>
      </trkpt>
      <trkpt lat="47.53787" lon="-2.27907">
        <ele>-30.60000038147</ele>
        <time>2020-05-24T08:39:05.000Z</time>
      </trkpt>
      <trkpt lat="47.53787" lon="-2.27915">
        <ele>-31</ele>
        <time>2020-05-24T08:39:06.000Z</time>
      </trkpt>
      <trkpt lat="47.53788" lon="-2.27923">
        <ele>-31.39999961853</ele>
        <time>2020-05-24T08:39:07.000Z</time>
      </trkpt>
      <trkpt lat="47.53788" lon="-2.27931">
        <ele>-32</ele>
        <time>2020-05-24T08:39:08.000Z</time>
      </trkpt>
      <trkpt lat="47.53788" lon="-2.27939">
        <ele>-32.400001525879</ele>
        <time>2020-05-24T08:39:09.000Z</time>
      </trkpt>
      <trkpt lat="47.53791" lon="-2.27974">
        <ele>-32.400001525879</ele>
        <time>2020-05-24T08:39:14.000Z</time>
      </trkpt>
      <trkpt lat="47.53789" lon="-2.27978">
        <ele>-32.400001525879</ele>
        <time>2020-05-24T08:39:15.000Z</time>
      </trkpt>
      <trkpt lat="47.53782" lon="-2.27984">
        <ele>-32.400001525879</ele>
        <time>2020-05-24T08:39:17.000Z</time>
      </trkpt>
      <trkpt lat="47.53771" lon="-2.27986">
        <ele>-32.400001525879</ele>
        <time>2020-05-24T08:39:20.000Z</time>
      </trkpt>
      <trkpt lat="47.53757" lon="-2.27989">
        <ele>-32.400001525879</ele>
        <time>2020-05-24T08:39:22.000Z</time>
      </trkpt>
      <trkpt lat="47.5375" lon="-2.27991">
        <ele>-32.799999237061</ele>
        <time>2020-05-24T08:39:23.000Z</time>
      </trkpt>
      <trkpt lat="47.53743" lon="-2.27993">
        <ele>-33.200000762939</ele>
        <time>2020-05-24T08:39:24.000Z</time>
      </trkpt>
      <trkpt lat="47.53736" lon="-2.27995">
        <ele>-33.599998474121</ele>
        <time>2020-05-24T08:39:25.000Z</time>
      </trkpt>
      <trkpt lat="47.53729" lon="-2.27997">
        <ele>-34</ele>
        <time>2020-05-24T08:39:26.000Z</time>
      </trkpt>
      <trkpt lat="47.53721" lon="-2.27998">
        <ele>-34.400001525879</ele>
        <time>2020-05-24T08:39:27.000Z</time>
      </trkpt>
      <trkpt lat="47.53706" lon="-2.28002">
        <ele>-34.400001525879</ele>
        <time>2020-05-24T08:39:29.000Z</time>
      </trkpt>
      <trkpt lat="47.5368" lon="-2.28008">
        <ele>-34.799999237061</ele>
        <time>2020-05-24T08:39:33.000Z</time>
      </trkpt>
      <trkpt lat="47.53674" lon="-2.28009">
        <ele>-35.200000762939</ele>
        <time>2020-05-24T08:39:34.000Z</time>
      </trkpt>
      <trkpt lat="47.53667" lon="-2.28011">
        <ele>-35.599998474121</ele>
        <time>2020-05-24T08:39:35.000Z</time>
      </trkpt>
      <trkpt lat="47.53661" lon="-2.28012">
        <ele>-36</ele>
        <time>2020-05-24T08:39:36.000Z</time>
      </trkpt>
      <trkpt lat="47.53655" lon="-2.28013">
        <ele>-36.400001525879</ele>
        <time>2020-05-24T08:39:37.000Z</time>
      </trkpt>
      <trkpt lat="47.53637" lon="-2.28017">
        <ele>-36.400001525879</ele>
        <time>2020-05-24T08:39:40.000Z</time>
      </trkpt>
      <trkpt lat="47.53632" lon="-2.2802">
        <ele>-37</ele>
        <time>2020-05-24T08:39:41.000Z</time>
      </trkpt>
      <trkpt lat="47.53627" lon="-2.28026">
        <ele>-37.799999237061</ele>
        <time>2020-05-24T08:39:42.000Z</time>
      </trkpt>
      <trkpt lat="47.53624" lon="-2.28034">
        <ele>-38.200000762939</ele>
        <time>2020-05-24T08:39:43.000Z</time>
      </trkpt>
      <trkpt lat="47.53622" lon="-2.28043">
        <ele>-38.599998474121</ele>
        <time>2020-05-24T08:39:44.000Z</time>
      </trkpt>
      <trkpt lat="47.5362" lon="-2.28052">
        <ele>-38.599998474121</ele>
        <time>2020-05-24T08:39:45.000Z</time>
      </trkpt>
      <trkpt lat="47.53614" lon="-2.2809">
        <ele>-38.599998474121</ele>
        <time>2020-05-24T08:39:49.000Z</time>
      </trkpt>
      <trkpt lat="47.53614" lon="-2.28111">
        <ele>-39</ele>
        <time>2020-05-24T08:39:51.000Z</time>
      </trkpt>
      <trkpt lat="47.53614" lon="-2.28121">
        <ele>-39.400001525879</ele>
        <time>2020-05-24T08:39:52.000Z</time>
      </trkpt>
      <trkpt lat="47.53616" lon="-2.28131">
        <ele>-39.799999237061</ele>
        <time>2020-05-24T08:39:53.000Z</time>
      </trkpt>
      <trkpt lat="47.53617" lon="-2.2814">
        <ele>-40.400001525879</ele>
        <time>2020-05-24T08:39:54.000Z</time>
      </trkpt>
      <trkpt lat="47.53617" lon="-2.28148">
        <ele>-40.799999237061</ele>
        <time>2020-05-24T08:39:55.000Z</time>
      </trkpt>
      <trkpt lat="47.53618" lon="-2.28155">
        <ele>-40.799999237061</ele>
        <time>2020-05-24T08:39:56.000Z</time>
      </trkpt>
      <trkpt lat="47.53616" lon="-2.2817">
        <ele>-41.200000762939</ele>
        <time>2020-05-24T08:39:58.000Z</time>
      </trkpt>
      <trkpt lat="47.53613" lon="-2.28177">
        <ele>-41.599998474121</ele>
        <time>2020-05-24T08:39:59.000Z</time>
      </trkpt>
      <trkpt lat="47.5361" lon="-2.28183">
        <ele>-42</ele>
        <time>2020-05-24T08:40:00.000Z</time>
      </trkpt>
      <trkpt lat="47.53607" lon="-2.28188">
        <ele>-42.400001525879</ele>
        <time>2020-05-24T08:40:01.000Z</time>
      </trkpt>
      <trkpt lat="47.53602" lon="-2.28193">
        <ele>-42.799999237061</ele>
        <time>2020-05-24T08:40:02.000Z</time>
      </trkpt>
      <trkpt lat="47.5359" lon="-2.28198">
        <ele>-42.799999237061</ele>
        <time>2020-05-24T08:40:04.000Z</time>
      </trkpt>
      <trkpt lat="47.53584" lon="-2.282">
        <ele>-42.799999237061</ele>
        <time>2020-05-24T08:40:05.000Z</time>
      </trkpt>
      <trkpt lat="47.53578" lon="-2.28203">
        <ele>-42.799999237061</ele>
        <time>2020-05-24T08:40:06.000Z</time>
      </trkpt>
      <trkpt lat="47.53572" lon="-2.28207">
        <ele>-43.200000762939</ele>
        <time>2020-05-24T08:40:07.000Z</time>
      </trkpt>
      <trkpt lat="47.53567" lon="-2.28212">
        <ele>-43.599998474121</ele>
        <time>2020-05-24T08:40:08.000Z</time>
      </trkpt>
      <trkpt lat="47.53561" lon="-2.28216">
        <ele>-44</ele>
        <time>2020-05-24T08:40:09.000Z</time>
      </trkpt>
      <trkpt lat="47.53556" lon="-2.28221">
        <ele>-44.400001525879</ele>
        <time>2020-05-24T08:40:10.000Z</time>
      </trkpt>
      <trkpt lat="47.5355" lon="-2.28225">
        <ele>-44.799999237061</ele>
        <time>2020-05-24T08:40:11.000Z</time>
      </trkpt>
      <trkpt lat="47.53519" lon="-2.28249">
        <ele>-44.799999237061</ele>
        <time>2020-05-24T08:40:17.000Z</time>
      </trkpt>
      <trkpt lat="47.53506" lon="-2.28257">
        <ele>-44.799999237061</ele>
        <time>2020-05-24T08:40:20.000Z</time>
      </trkpt>
      <trkpt lat="47.53503" lon="-2.2826">
        <ele>-44.799999237061</ele>
        <time>2020-05-24T08:40:21.000Z</time>
      </trkpt>
      <trkpt lat="47.53502" lon="-2.2828">
        <ele>-44.799999237061</ele>
        <time>2020-05-24T08:40:24.000Z</time>
      </trkpt>
      <trkpt lat="47.53505" lon="-2.28301">
        <ele>-44.799999237061</ele>
        <time>2020-05-24T08:40:27.000Z</time>
      </trkpt>
      <trkpt lat="47.53508" lon="-2.28321">
        <ele>-44.799999237061</ele>
        <time>2020-05-24T08:40:30.000Z</time>
      </trkpt>
      <trkpt lat="47.53512" lon="-2.28346">
        <ele>-44.799999237061</ele>
        <time>2020-05-24T08:40:34.000Z</time>
      </trkpt>
      <trkpt lat="47.53512" lon="-2.28357">
        <ele>-45.200000762939</ele>
        <time>2020-05-24T08:40:36.000Z</time>
      </trkpt>
      <trkpt lat="47.53511" lon="-2.28362">
        <ele>-45.599998474121</ele>
        <time>2020-05-24T08:40:37.000Z</time>
      </trkpt>
      <trkpt lat="47.53511" lon="-2.28366">
        <ele>-46.200000762939</ele>
        <time>2020-05-24T08:40:38.000Z</time>
      </trkpt>
      <trkpt lat="47.5351" lon="-2.2837">
        <ele>-46.599998474121</ele>
        <time>2020-05-24T08:40:39.000Z</time>
      </trkpt>
      <trkpt lat="47.5351" lon="-2.28373">
        <ele>-47</ele>
        <time>2020-05-24T08:40:40.000Z</time>
      </trkpt>
      <trkpt lat="47.53507" lon="-2.28378">
        <ele>-47</ele>
        <time>2020-05-24T08:40:42.000Z</time>
      </trkpt>
      <trkpt lat="47.53506" lon="-2.28378">
        <ele>-47</ele>
        <time>2020-05-24T08:40:43.000Z</time>
      </trkpt>
      <trkpt lat="47.53502" lon="-2.28375">
        <ele>-47</ele>
        <time>2020-05-24T08:40:46.000Z</time>
      </trkpt>
      <trkpt lat="47.53495" lon="-2.28373">
        <ele>-47</ele>
        <time>2020-05-24T08:40:50.000Z</time>
      </trkpt>
      <trkpt lat="47.53492" lon="-2.28371">
        <ele>-47</ele>
        <time>2020-05-24T08:40:52.000Z</time>
      </trkpt>
      <trkpt lat="47.53488" lon="-2.28365">
        <ele>-47</ele>
        <time>2020-05-24T08:40:56.000Z</time>
      </trkpt>
      <trkpt lat="47.53482" lon="-2.28364">
        <ele>-47</ele>
        <time>2020-05-24T08:41:01.000Z</time>
      </trkpt>
      <trkpt lat="47.53479" lon="-2.28362">
        <ele>-47</ele>
        <time>2020-05-24T08:41:45.000Z</time>
      </trkpt>
      <trkpt lat="47.53475" lon="-2.2836">
        <ele>-47</ele>
        <time>2020-05-24T08:41:47.000Z</time>
      </trkpt>
      <trkpt lat="47.53469" lon="-2.28358">
        <ele>-47</ele>
        <time>2020-05-24T08:41:52.000Z</time>
      </trkpt>
      <trkpt lat="47.53466" lon="-2.28359">
        <ele>-47.400001525879</ele>
        <time>2020-05-24T08:42:16.000Z</time>
      </trkpt>
      <trkpt lat="47.53464" lon="-2.28361">
        <ele>-47.799999237061</ele>
        <time>2020-05-24T08:42:17.000Z</time>
      </trkpt>
      <trkpt lat="47.53463" lon="-2.28363">
        <ele>-48.200000762939</ele>
        <time>2020-05-24T08:42:18.000Z</time>
      </trkpt>
      <trkpt lat="47.53461" lon="-2.28365">
        <ele>-48.599998474121</ele>
        <time>2020-05-24T08:42:19.000Z</time>
      </trkpt>
      <trkpt lat="47.53459" lon="-2.28369">
        <ele>-49</ele>
        <time>2020-05-24T08:42:20.000Z</time>
      </trkpt>
      <trkpt lat="47.53457" lon="-2.28372">
        <ele>-49</ele>
        <time>2020-05-24T08:42:21.000Z</time>
      </trkpt>
      <trkpt lat="47.53452" lon="-2.28383">
        <ele>-49</ele>
        <time>2020-05-24T08:42:24.000Z</time>
      </trkpt>
      <trkpt lat="47.53446" lon="-2.28406">
        <ele>-49</ele>
        <time>2020-05-24T08:42:30.000Z</time>
      </trkpt>
      <trkpt lat="47.53454" lon="-2.28435">
        <ele>-49</ele>
        <time>2020-05-24T08:42:34.000Z</time>
      </trkpt>
      <trkpt lat="47.53464" lon="-2.285">
        <ele>-49</ele>
        <time>2020-05-24T08:42:42.000Z</time>
      </trkpt>
      <trkpt lat="47.53475" lon="-2.28524">
        <ele>-49.400001525879</ele>
        <time>2020-05-24T08:42:45.000Z</time>
      </trkpt>
      <trkpt lat="47.5348" lon="-2.2853">
        <ele>-49.799999237061</ele>
        <time>2020-05-24T08:42:46.000Z</time>
      </trkpt>
      <trkpt lat="47.53483" lon="-2.28536">
        <ele>-50.200000762939</ele>
        <time>2020-05-24T08:42:47.000Z</time>
      </trkpt>
      <trkpt lat="47.53483" lon="-2.28543">
        <ele>-50.599998474121</ele>
        <time>2020-05-24T08:42:48.000Z</time>
      </trkpt>
      <trkpt lat="47.53482" lon="-2.28549">
        <ele>-51</ele>
        <time>2020-05-24T08:42:49.000Z</time>
      </trkpt>
      <trkpt lat="47.53468" lon="-2.2856">
        <ele>-51</ele>
        <time>2020-05-24T08:42:52.000Z</time>
      </trkpt>
      <trkpt lat="47.53462" lon="-2.28563">
        <ele>-51</ele>
        <time>2020-05-24T08:42:53.000Z</time>
      </trkpt>
      <trkpt lat="47.53451" lon="-2.2857">
        <ele>-51.599998474121</ele>
        <time>2020-05-24T08:42:55.000Z</time>
      </trkpt>
      <trkpt lat="47.53445" lon="-2.28573">
        <ele>-52</ele>
        <time>2020-05-24T08:42:56.000Z</time>
      </trkpt>
      <trkpt lat="47.53439" lon="-2.28578">
        <ele>-52.400001525879</ele>
        <time>2020-05-24T08:42:57.000Z</time>
      </trkpt>
      <trkpt lat="47.53432" lon="-2.28582">
        <ele>-52.799999237061</ele>
        <time>2020-05-24T08:42:58.000Z</time>
      </trkpt>
      <trkpt lat="47.53426" lon="-2.28586">
        <ele>-53.200000762939</ele>
        <time>2020-05-24T08:42:59.000Z</time>
      </trkpt>
      <trkpt lat="47.53411" lon="-2.28597">
        <ele>-53.599998474121</ele>
        <time>2020-05-24T08:43:02.000Z</time>
      </trkpt>
      <trkpt lat="47.53406" lon="-2.28601">
        <ele>-54</ele>
        <time>2020-05-24T08:43:03.000Z</time>
      </trkpt>
      <trkpt lat="47.53402" lon="-2.28605">
        <ele>-54.400001525879</ele>
        <time>2020-05-24T08:43:04.000Z</time>
      </trkpt>
      <trkpt lat="47.53397" lon="-2.2861">
        <ele>-54.799999237061</ele>
        <time>2020-05-24T08:43:05.000Z</time>
      </trkpt>
      <trkpt lat="47.53394" lon="-2.28613">
        <ele>-55.200000762939</ele>
        <time>2020-05-24T08:43:06.000Z</time>
      </trkpt>
      <trkpt lat="47.5339" lon="-2.28618">
        <ele>-55.200000762939</ele>
        <time>2020-05-24T08:43:08.000Z</time>
      </trkpt>
      <trkpt lat="47.53382" lon="-2.28629">
        <ele>-55.200000762939</ele>
        <time>2020-05-24T08:43:14.000Z</time>
      </trkpt>
      <trkpt lat="47.53379" lon="-2.28635">
        <ele>-55.200000762939</ele>
        <time>2020-05-24T08:43:17.000Z</time>
      </trkpt>
      <trkpt lat="47.53375" lon="-2.28635">
        <ele>-55.200000762939</ele>
        <time>2020-05-24T08:43:19.000Z</time>
      </trkpt>
      <trkpt lat="47.53359" lon="-2.28632">
        <ele>-55.200000762939</ele>
        <time>2020-05-24T08:43:22.000Z</time>
      </trkpt>
      <trkpt lat="47.53353" lon="-2.28632">
        <ele>-55.799999237061</ele>
        <time>2020-05-24T08:43:23.000Z</time>
      </trkpt>
      <trkpt lat="47.53348" lon="-2.28632">
        <ele>-56.200000762939</ele>
        <time>2020-05-24T08:43:24.000Z</time>
      </trkpt>
      <trkpt lat="47.53343" lon="-2.28633">
        <ele>-57.200000762939</ele>
        <time>2020-05-24T08:43:25.000Z</time>
      </trkpt>
      <trkpt lat="47.53337" lon="-2.28633">
        <ele>-57.599998474121</ele>
        <time>2020-05-24T08:43:26.000Z</time>
      </trkpt>
      <trkpt lat="47.53332" lon="-2.28633">
        <ele>-57.599998474121</ele>
        <time>2020-05-24T08:43:27.000Z</time>
      </trkpt>
      <trkpt lat="47.53326" lon="-2.28631">
        <ele>-57.599998474121</ele>
        <time>2020-05-24T08:43:28.000Z</time>
      </trkpt>
      <trkpt lat="47.53311" lon="-2.28624">
        <ele>-57.599998474121</ele>
        <time>2020-05-24T08:43:31.000Z</time>
      </trkpt>
      <trkpt lat="47.53306" lon="-2.28622">
        <ele>-58.200000762939</ele>
        <time>2020-05-24T08:43:32.000Z</time>
      </trkpt>
      <trkpt lat="47.53302" lon="-2.28619">
        <ele>-58.599998474121</ele>
        <time>2020-05-24T08:43:33.000Z</time>
      </trkpt>
      <trkpt lat="47.53298" lon="-2.28615">
        <ele>-59</ele>
        <time>2020-05-24T08:43:34.000Z</time>
      </trkpt>
      <trkpt lat="47.53293" lon="-2.28612">
        <ele>-59.400001525879</ele>
        <time>2020-05-24T08:43:35.000Z</time>
      </trkpt>
      <trkpt lat="47.53289" lon="-2.28608">
        <ele>-59.799999237061</ele>
        <time>2020-05-24T08:43:36.000Z</time>
      </trkpt>
      <trkpt lat="47.53277" lon="-2.28585">
        <ele>-59.799999237061</ele>
        <time>2020-05-24T08:43:40.000Z</time>
      </trkpt>
      <trkpt lat="47.53266" lon="-2.28551">
        <ele>-59.799999237061</ele>
        <time>2020-05-24T08:43:45.000Z</time>
      </trkpt>
      <trkpt lat="47.53265" lon="-2.28543">
        <ele>-59.799999237061</ele>
        <time>2020-05-24T08:43:46.000Z</time>
      </trkpt>
      <trkpt lat="47.53264" lon="-2.28535">
        <ele>-59.799999237061</ele>
        <time>2020-05-24T08:43:47.000Z</time>
      </trkpt>
      <trkpt lat="47.53264" lon="-2.28505">
        <ele>-59.799999237061</ele>
        <time>2020-05-24T08:43:51.000Z</time>
      </trkpt>
      <trkpt lat="47.53262" lon="-2.2847">
        <ele>-59.799999237061</ele>
        <time>2020-05-24T08:43:57.000Z</time>
      </trkpt>
      <trkpt lat="47.5326" lon="-2.28452">
        <ele>-59.799999237061</ele>
        <time>2020-05-24T08:44:02.000Z</time>
      </trkpt>
      <trkpt lat="47.53258" lon="-2.28451">
        <ele>-59.799999237061</ele>
        <time>2020-05-24T08:44:03.000Z</time>
      </trkpt>
      <trkpt lat="47.53252" lon="-2.28453">
        <ele>-59.799999237061</ele>
        <time>2020-05-24T08:44:05.000Z</time>
      </trkpt>
      <trkpt lat="47.53226" lon="-2.28457">
        <ele>-59.799999237061</ele>
        <time>2020-05-24T08:44:12.000Z</time>
      </trkpt>
      <trkpt lat="47.53222" lon="-2.28461">
        <ele>-59.799999237061</ele>
        <time>2020-05-24T08:44:13.000Z</time>
      </trkpt>
      <trkpt lat="47.53219" lon="-2.28472">
        <ele>-59.799999237061</ele>
        <time>2020-05-24T08:44:15.000Z</time>
      </trkpt>
      <trkpt lat="47.53216" lon="-2.28497">
        <ele>-59.799999237061</ele>
        <time>2020-05-24T08:44:19.000Z</time>
      </trkpt>
      <trkpt lat="47.53209" lon="-2.28532">
        <ele>-60.200000762939</ele>
        <time>2020-05-24T08:44:25.000Z</time>
      </trkpt>
      <trkpt lat="47.53208" lon="-2.28539">
        <ele>-60.599998474121</ele>
        <time>2020-05-24T08:44:26.000Z</time>
      </trkpt>
      <trkpt lat="47.53208" lon="-2.28547">
        <ele>-61.200000762939</ele>
        <time>2020-05-24T08:44:27.000Z</time>
      </trkpt>
      <trkpt lat="47.53208" lon="-2.28557">
        <ele>-61.599998474121</ele>
        <time>2020-05-24T08:44:28.000Z</time>
      </trkpt>
      <trkpt lat="47.53208" lon="-2.28567">
        <ele>-62</ele>
        <time>2020-05-24T08:44:29.000Z</time>
      </trkpt>
      <trkpt lat="47.53208" lon="-2.28577">
        <ele>-62.400001525879</ele>
        <time>2020-05-24T08:44:30.000Z</time>
      </trkpt>
      <trkpt lat="47.53208" lon="-2.28588">
        <ele>-63</ele>
        <time>2020-05-24T08:44:31.000Z</time>
      </trkpt>
      <trkpt lat="47.53208" lon="-2.28598">
        <ele>-63.400001525879</ele>
        <time>2020-05-24T08:44:32.000Z</time>
      </trkpt>
      <trkpt lat="47.53208" lon="-2.28606">
        <ele>-63.799999237061</ele>
        <time>2020-05-24T08:44:33.000Z</time>
      </trkpt>
      <trkpt lat="47.53207" lon="-2.28612">
        <ele>-64.199996948242</ele>
        <time>2020-05-24T08:44:34.000Z</time>
      </trkpt>
      <trkpt lat="47.53205" lon="-2.28616">
        <ele>-64.800003051758</ele>
        <time>2020-05-24T08:44:35.000Z</time>
      </trkpt>
      <trkpt lat="47.53201" lon="-2.28618">
        <ele>-65.199996948242</ele>
        <time>2020-05-24T08:44:36.000Z</time>
      </trkpt>
      <trkpt lat="47.53197" lon="-2.28615">
        <ele>-65.800003051758</ele>
        <time>2020-05-24T08:44:37.000Z</time>
      </trkpt>
      <trkpt lat="47.53193" lon="-2.28613">
        <ele>-66.199996948242</ele>
        <time>2020-05-24T08:44:38.000Z</time>
      </trkpt>
      <trkpt lat="47.53171" lon="-2.286">
        <ele>-66.199996948242</ele>
        <time>2020-05-24T08:44:43.000Z</time>
      </trkpt>
      <trkpt lat="47.53166" lon="-2.28598">
        <ele>-66.199996948242</ele>
        <time>2020-05-24T08:44:44.000Z</time>
      </trkpt>
      <trkpt lat="47.53149" lon="-2.28588">
        <ele>-66.199996948242</ele>
        <time>2020-05-24T08:44:48.000Z</time>
      </trkpt>
      <trkpt lat="47.53129" lon="-2.28575">
        <ele>-66.199996948242</ele>
        <time>2020-05-24T08:44:54.000Z</time>
      </trkpt>
      <trkpt lat="47.53116" lon="-2.2858">
        <ele>-66.199996948242</ele>
        <time>2020-05-24T08:44:59.000Z</time>
      </trkpt>
      <trkpt lat="47.53097" lon="-2.28595">
        <ele>-66.199996948242</ele>
        <time>2020-05-24T08:45:05.000Z</time>
      </trkpt>
      <trkpt lat="47.53077" lon="-2.28607">
        <ele>-66.199996948242</ele>
        <time>2020-05-24T08:45:11.000Z</time>
      </trkpt>
      <trkpt lat="47.53055" lon="-2.2862">
        <ele>-66.199996948242</ele>
        <time>2020-05-24T08:45:18.000Z</time>
      </trkpt>
      <trkpt lat="47.53046" lon="-2.28631">
        <ele>-66.199996948242</ele>
        <time>2020-05-24T08:45:23.000Z</time>
      </trkpt>
      <trkpt lat="47.53039" lon="-2.28639">
        <ele>-65.800003051758</ele>
        <time>2020-05-24T08:45:27.000Z</time>
      </trkpt>
      <trkpt lat="47.53037" lon="-2.28642">
        <ele>-65</ele>
        <time>2020-05-24T08:45:28.000Z</time>
      </trkpt>
      <trkpt lat="47.53035" lon="-2.28644">
        <ele>-64.599998474121</ele>
        <time>2020-05-24T08:45:29.000Z</time>
      </trkpt>
      <trkpt lat="47.53032" lon="-2.28647">
        <ele>-64.199996948242</ele>
        <time>2020-05-24T08:45:30.000Z</time>
      </trkpt>
      <trkpt lat="47.53018" lon="-2.28662">
        <ele>-64.199996948242</ele>
        <time>2020-05-24T08:45:36.000Z</time>
      </trkpt>
      <trkpt lat="47.53006" lon="-2.28684">
        <ele>-64.199996948242</ele>
        <time>2020-05-24T08:45:43.000Z</time>
      </trkpt>
      <trkpt lat="47.53007" lon="-2.28694">
        <ele>-64.199996948242</ele>
        <time>2020-05-24T08:45:45.000Z</time>
      </trkpt>
      <trkpt lat="47.53011" lon="-2.28704">
        <ele>-64.199996948242</ele>
        <time>2020-05-24T08:45:47.000Z</time>
      </trkpt>
      <trkpt lat="47.53015" lon="-2.28715">
        <ele>-64.199996948242</ele>
        <time>2020-05-24T08:45:49.000Z</time>
      </trkpt>
      <trkpt lat="47.53025" lon="-2.28742">
        <ele>-64.199996948242</ele>
        <time>2020-05-24T08:45:53.000Z</time>
      </trkpt>
      <trkpt lat="47.53047" lon="-2.28787">
        <ele>-64.199996948242</ele>
        <time>2020-05-24T08:46:00.000Z</time>
      </trkpt>
      <trkpt lat="47.53068" lon="-2.28824">
        <ele>-64.199996948242</ele>
        <time>2020-05-24T08:46:06.000Z</time>
      </trkpt>
      <trkpt lat="47.53093" lon="-2.2886">
        <ele>-64.199996948242</ele>
        <time>2020-05-24T08:46:12.000Z</time>
      </trkpt>
      <trkpt lat="47.53108" lon="-2.28878">
        <ele>-64.599998474121</ele>
        <time>2020-05-24T08:46:16.000Z</time>
      </trkpt>
      <trkpt lat="47.53111" lon="-2.28882">
        <ele>-65</ele>
        <time>2020-05-24T08:46:17.000Z</time>
      </trkpt>
      <trkpt lat="47.53112" lon="-2.28888">
        <ele>-66</ele>
        <time>2020-05-24T08:46:18.000Z</time>
      </trkpt>
      <trkpt lat="47.53111" lon="-2.28894">
        <ele>-66.400001525879</ele>
        <time>2020-05-24T08:46:19.000Z</time>
      </trkpt>
      <trkpt lat="47.5311" lon="-2.289">
        <ele>-66.400001525879</ele>
        <time>2020-05-24T08:46:20.000Z</time>
      </trkpt>
      <trkpt lat="47.53109" lon="-2.28907">
        <ele>-66.400001525879</ele>
        <time>2020-05-24T08:46:21.000Z</time>
      </trkpt>
      <trkpt lat="47.53109" lon="-2.28914">
        <ele>-66.400001525879</ele>
        <time>2020-05-24T08:46:22.000Z</time>
      </trkpt>
      <trkpt lat="47.53111" lon="-2.28927">
        <ele>-66.400001525879</ele>
        <time>2020-05-24T08:46:24.000Z</time>
      </trkpt>
      <trkpt lat="47.53115" lon="-2.28939">
        <ele>-66.400001525879</ele>
        <time>2020-05-24T08:46:26.000Z</time>
      </trkpt>
      <trkpt lat="47.53118" lon="-2.28944">
        <ele>-66.400001525879</ele>
        <time>2020-05-24T08:46:27.000Z</time>
      </trkpt>
      <trkpt lat="47.53123" lon="-2.28952">
        <ele>-66.400001525879</ele>
        <time>2020-05-24T08:46:29.000Z</time>
      </trkpt>
      <trkpt lat="47.53135" lon="-2.28974">
        <ele>-66.400001525879</ele>
        <time>2020-05-24T08:46:34.000Z</time>
      </trkpt>
      <trkpt lat="47.53138" lon="-2.28987">
        <ele>-66.400001525879</ele>
        <time>2020-05-24T08:46:36.000Z</time>
      </trkpt>
      <trkpt lat="47.5315" lon="-2.29032">
        <ele>-66.400001525879</ele>
        <time>2020-05-24T08:46:43.000Z</time>
      </trkpt>
      <trkpt lat="47.53157" lon="-2.29058">
        <ele>-66.400001525879</ele>
        <time>2020-05-24T08:46:48.000Z</time>
      </trkpt>
      <trkpt lat="47.53167" lon="-2.29089">
        <ele>-66.400001525879</ele>
        <time>2020-05-24T08:46:55.000Z</time>
      </trkpt>
      <trkpt lat="47.53171" lon="-2.29102">
        <ele>-66.400001525879</ele>
        <time>2020-05-24T08:47:01.000Z</time>
      </trkpt>
      <trkpt lat="47.53175" lon="-2.29114">
        <ele>-66.400001525879</ele>
        <time>2020-05-24T08:47:08.000Z</time>
      </trkpt>
      <trkpt lat="47.53178" lon="-2.29124">
        <ele>-66.400001525879</ele>
        <time>2020-05-24T08:47:15.000Z</time>
      </trkpt>
      <trkpt lat="47.53184" lon="-2.29143">
        <ele>-66.400001525879</ele>
        <time>2020-05-24T08:47:21.000Z</time>
      </trkpt>
      <trkpt lat="47.53193" lon="-2.29169">
        <ele>-66.400001525879</ele>
        <time>2020-05-24T08:47:26.000Z</time>
      </trkpt>
      <trkpt lat="47.53199" lon="-2.29179">
        <ele>-66.800003051758</ele>
        <time>2020-05-24T08:47:28.000Z</time>
      </trkpt>
      <trkpt lat="47.53203" lon="-2.29182">
        <ele>-67.199996948242</ele>
        <time>2020-05-24T08:47:29.000Z</time>
      </trkpt>
      <trkpt lat="47.53207" lon="-2.29184">
        <ele>-67.599998474121</ele>
        <time>2020-05-24T08:47:30.000Z</time>
      </trkpt>
      <trkpt lat="47.5321" lon="-2.29185">
        <ele>-68</ele>
        <time>2020-05-24T08:47:31.000Z</time>
      </trkpt>
      <trkpt lat="47.53213" lon="-2.29181">
        <ele>-69</ele>
        <time>2020-05-24T08:47:32.000Z</time>
      </trkpt>
      <trkpt lat="47.53216" lon="-2.29178">
        <ele>-69.400001525879</ele>
        <time>2020-05-24T08:47:33.000Z</time>
      </trkpt>
      <trkpt lat="47.53218" lon="-2.29175">
        <ele>-69.800003051758</ele>
        <time>2020-05-24T08:47:34.000Z</time>
      </trkpt>
      <trkpt lat="47.53219" lon="-2.29172">
        <ele>-70.199996948242</ele>
        <time>2020-05-24T08:47:35.000Z</time>
      </trkpt>
      <trkpt lat="47.53221" lon="-2.29169">
        <ele>-70.599998474121</ele>
        <time>2020-05-24T08:47:36.000Z</time>
      </trkpt>
      <trkpt lat="47.53223" lon="-2.29166">
        <ele>-70.599998474121</ele>
        <time>2020-05-24T08:47:37.000Z</time>
      </trkpt>
      <trkpt lat="47.53227" lon="-2.29154">
        <ele>-70.599998474121</ele>
        <time>2020-05-24T08:47:43.000Z</time>
      </trkpt>
      <trkpt lat="47.53229" lon="-2.2915">
        <ele>-70.599998474121</ele>
        <time>2020-05-24T08:47:54.000Z</time>
      </trkpt>
      <trkpt lat="47.53231" lon="-2.29144">
        <ele>-70.599998474121</ele>
        <time>2020-05-24T08:47:57.000Z</time>
      </trkpt>
      <trkpt lat="47.53232" lon="-2.29123">
        <ele>-70.599998474121</ele>
        <time>2020-05-24T08:48:03.000Z</time>
      </trkpt>
      <trkpt lat="47.53237" lon="-2.29097">
        <ele>-70.599998474121</ele>
        <time>2020-05-24T08:48:09.000Z</time>
      </trkpt>
      <trkpt lat="47.53237" lon="-2.29092">
        <ele>-70.599998474121</ele>
        <time>2020-05-24T08:48:11.000Z</time>
      </trkpt>
      <trkpt lat="47.5324" lon="-2.29087">
        <ele>-70.599998474121</ele>
        <time>2020-05-24T08:48:14.000Z</time>
      </trkpt>
      <trkpt lat="47.53241" lon="-2.29085">
        <ele>-70.599998474121</ele>
        <time>2020-05-24T08:48:15.000Z</time>
      </trkpt>
      <trkpt lat="47.53245" lon="-2.29071">
        <ele>-70.599998474121</ele>
        <time>2020-05-24T08:48:18.000Z</time>
      </trkpt>
      <trkpt lat="47.53252" lon="-2.29062">
        <ele>-70.599998474121</ele>
        <time>2020-05-24T08:48:21.000Z</time>
      </trkpt>
      <trkpt lat="47.53255" lon="-2.29061">
        <ele>-70.599998474121</ele>
        <time>2020-05-24T08:48:22.000Z</time>
      </trkpt>
      <trkpt lat="47.5327" lon="-2.29056">
        <ele>-70.599998474121</ele>
        <time>2020-05-24T08:48:26.000Z</time>
      </trkpt>
      <trkpt lat="47.53302" lon="-2.29042">
        <ele>-70.599998474121</ele>
        <time>2020-05-24T08:48:33.000Z</time>
      </trkpt>
      <trkpt lat="47.53324" lon="-2.2903">
        <ele>-70.599998474121</ele>
        <time>2020-05-24T08:48:39.000Z</time>
      </trkpt>
      <trkpt lat="47.53328" lon="-2.29033">
        <ele>-70.599998474121</ele>
        <time>2020-05-24T08:48:40.000Z</time>
      </trkpt>
      <trkpt lat="47.53333" lon="-2.29037">
        <ele>-70.599998474121</ele>
        <time>2020-05-24T08:48:42.000Z</time>
      </trkpt>
      <trkpt lat="47.53333" lon="-2.29041">
        <ele>-70.599998474121</ele>
        <time>2020-05-24T08:48:43.000Z</time>
      </trkpt>
      <trkpt lat="47.53333" lon="-2.29043">
        <ele>-70.599998474121</ele>
        <time>2020-05-24T08:48:45.000Z</time>
      </trkpt>
      <trkpt lat="47.53331" lon="-2.29044">
        <ele>-70.599998474121</ele>
        <time>2020-05-24T08:48:47.000Z</time>
      </trkpt>
      <trkpt lat="47.53325" lon="-2.29051">
        <ele>-70.599998474121</ele>
        <time>2020-05-24T08:48:50.000Z</time>
      </trkpt>
      <trkpt lat="47.53322" lon="-2.29057">
        <ele>-70.199996948242</ele>
        <time>2020-05-24T08:48:52.000Z</time>
      </trkpt>
      <trkpt lat="47.53322" lon="-2.2906">
        <ele>-69.800003051758</ele>
        <time>2020-05-24T08:48:53.000Z</time>
      </trkpt>
      <trkpt lat="47.53322" lon="-2.29064">
        <ele>-69.400001525879</ele>
        <time>2020-05-24T08:48:54.000Z</time>
      </trkpt>
      <trkpt lat="47.53321" lon="-2.29067">
        <ele>-69</ele>
        <time>2020-05-24T08:48:55.000Z</time>
      </trkpt>
      <trkpt lat="47.53321" lon="-2.29069">
        <ele>-68.599998474121</ele>
        <time>2020-05-24T08:48:56.000Z</time>
      </trkpt>
      <trkpt lat="47.53318" lon="-2.29074">
        <ele>-68.599998474121</ele>
        <time>2020-05-24T08:48:59.000Z</time>
      </trkpt>
      <trkpt lat="47.53314" lon="-2.29074">
        <ele>-68.599998474121</ele>
        <time>2020-05-24T08:49:01.000Z</time>
      </trkpt>
      <trkpt lat="47.53298" lon="-2.29076">
        <ele>-68.599998474121</ele>
        <time>2020-05-24T08:49:06.000Z</time>
      </trkpt>
      <trkpt lat="47.5329" lon="-2.29084">
        <ele>-68.599998474121</ele>
        <time>2020-05-24T08:49:10.000Z</time>
      </trkpt>
      <trkpt lat="47.5329" lon="-2.29087">
        <ele>-68.599998474121</ele>
        <time>2020-05-24T08:49:11.000Z</time>
      </trkpt>
      <trkpt lat="47.53289" lon="-2.29091">
        <ele>-68.599998474121</ele>
        <time>2020-05-24T08:49:14.000Z</time>
      </trkpt>
      <trkpt lat="47.5328" lon="-2.29118">
        <ele>-70.599998474121</ele>
        <time>2020-05-24T08:50:21.000Z</time>
      </trkpt>
      <trkpt lat="47.5328" lon="-2.29121">
        <ele>-70.599998474121</ele>
        <time>2020-05-24T08:50:22.000Z</time>
      </trkpt>
      <trkpt lat="47.53279" lon="-2.29124">
        <ele>-70.599998474121</ele>
        <time>2020-05-24T08:50:25.000Z</time>
      </trkpt>
      <trkpt lat="47.53277" lon="-2.29134">
        <ele>-70.599998474121</ele>
        <time>2020-05-24T08:50:30.000Z</time>
      </trkpt>
      <trkpt lat="47.53277" lon="-2.29137">
        <ele>-70.599998474121</ele>
        <time>2020-05-24T08:50:31.000Z</time>
      </trkpt>
      <trkpt lat="47.53274" lon="-2.29153">
        <ele>-70.599998474121</ele>
        <time>2020-05-24T08:50:38.000Z</time>
      </trkpt>
      <trkpt lat="47.53272" lon="-2.29165">
        <ele>-70.599998474121</ele>
        <time>2020-05-24T08:50:43.000Z</time>
      </trkpt>
      <trkpt lat="47.53272" lon="-2.29165">
        <ele>-70.599998474121</ele>
        <time>2020-05-24T08:50:45.000Z</time>
      </trkpt>
      <trkpt lat="47.53268" lon="-2.29178">
        <ele>-69</ele>
        <time>2020-05-24T08:51:00.000Z</time>
      </trkpt>
      <trkpt lat="47.53266" lon="-2.29182">
        <ele>-68.599998474121</ele>
        <time>2020-05-24T08:51:01.000Z</time>
      </trkpt>
      <trkpt lat="47.53261" lon="-2.29191">
        <ele>-68.599998474121</ele>
        <time>2020-05-24T08:51:04.000Z</time>
      </trkpt>
      <trkpt lat="47.53255" lon="-2.292">
        <ele>-68.599998474121</ele>
        <time>2020-05-24T08:51:08.000Z</time>
      </trkpt>
      <trkpt lat="47.53253" lon="-2.29203">
        <ele>-68.599998474121</ele>
        <time>2020-05-24T08:51:10.000Z</time>
      </trkpt>
      <trkpt lat="47.53242" lon="-2.29229">
        <ele>-68.599998474121</ele>
        <time>2020-05-24T08:51:39.000Z</time>
      </trkpt>
      <trkpt lat="47.53242" lon="-2.29232">
        <ele>-68.599998474121</ele>
        <time>2020-05-24T08:51:40.000Z</time>
      </trkpt>
      <trkpt lat="47.53242" lon="-2.29234">
        <ele>-68.599998474121</ele>
        <time>2020-05-24T08:51:41.000Z</time>
      </trkpt>
      <trkpt lat="47.53247" lon="-2.29248">
        <ele>-68.599998474121</ele>
        <time>2020-05-24T08:51:46.000Z</time>
      </trkpt>
      <trkpt lat="47.53251" lon="-2.29254">
        <ele>-68.199996948242</ele>
        <time>2020-05-24T08:51:49.000Z</time>
      </trkpt>
      <trkpt lat="47.53252" lon="-2.29256">
        <ele>-67.800003051758</ele>
        <time>2020-05-24T08:51:50.000Z</time>
      </trkpt>
      <trkpt lat="47.53253" lon="-2.29257">
        <ele>-67.400001525879</ele>
        <time>2020-05-24T08:51:51.000Z</time>
      </trkpt>
      <trkpt lat="47.53254" lon="-2.29259">
        <ele>-67</ele>
        <time>2020-05-24T08:51:52.000Z</time>
      </trkpt>
      <trkpt lat="47.53255" lon="-2.2926">
        <ele>-66.599998474121</ele>
        <time>2020-05-24T08:51:53.000Z</time>
      </trkpt>
      <trkpt lat="47.53256" lon="-2.29262">
        <ele>-66.599998474121</ele>
        <time>2020-05-24T08:51:54.000Z</time>
      </trkpt>
      <trkpt lat="47.53257" lon="-2.29264">
        <ele>-66.599998474121</ele>
        <time>2020-05-24T08:51:56.000Z</time>
      </trkpt>
      <trkpt lat="47.53263" lon="-2.29281">
        <ele>-66.599998474121</ele>
        <time>2020-05-24T08:52:16.000Z</time>
      </trkpt>
      <trkpt lat="47.53264" lon="-2.29287">
        <ele>-66.599998474121</ele>
        <time>2020-05-24T08:52:18.000Z</time>
      </trkpt>
      <trkpt lat="47.53271" lon="-2.29304">
        <ele>-66.599998474121</ele>
        <time>2020-05-24T08:52:23.000Z</time>
      </trkpt>
      <trkpt lat="47.53279" lon="-2.29317">
        <ele>-66.599998474121</ele>
        <time>2020-05-24T08:52:28.000Z</time>
      </trkpt>
      <trkpt lat="47.53292" lon="-2.2933">
        <ele>-66.599998474121</ele>
        <time>2020-05-24T08:52:35.000Z</time>
      </trkpt>
      <trkpt lat="47.533" lon="-2.29342">
        <ele>-66.599998474121</ele>
        <time>2020-05-24T08:52:41.000Z</time>
      </trkpt>
      <trkpt lat="47.53306" lon="-2.29355">
        <ele>-66.599998474121</ele>
        <time>2020-05-24T08:52:46.000Z</time>
      </trkpt>
      <trkpt lat="47.53308" lon="-2.29361">
        <ele>-66.599998474121</ele>
        <time>2020-05-24T08:52:49.000Z</time>
      </trkpt>
      <trkpt lat="47.53311" lon="-2.29374">
        <ele>-66.599998474121</ele>
        <time>2020-05-24T08:52:52.000Z</time>
      </trkpt>
      <trkpt lat="47.53316" lon="-2.29389">
        <ele>-67</ele>
        <time>2020-05-24T08:52:55.000Z</time>
      </trkpt>
      <trkpt lat="47.53318" lon="-2.29394">
        <ele>-67.400001525879</ele>
        <time>2020-05-24T08:52:56.000Z</time>
      </trkpt>
      <trkpt lat="47.5332" lon="-2.29398">
        <ele>-67.800003051758</ele>
        <time>2020-05-24T08:52:57.000Z</time>
      </trkpt>
      <trkpt lat="47.53323" lon="-2.2941">
        <ele>-68.800003051758</ele>
        <time>2020-05-24T08:52:58.000Z</time>
      </trkpt>
      <trkpt lat="47.53327" lon="-2.29415">
        <ele>-68.800003051758</ele>
        <time>2020-05-24T08:53:02.000Z</time>
      </trkpt>
      <trkpt lat="47.53334" lon="-2.29421">
        <ele>-68.800003051758</ele>
        <time>2020-05-24T08:53:05.000Z</time>
      </trkpt>
      <trkpt lat="47.53342" lon="-2.29436">
        <ele>-68.800003051758</ele>
        <time>2020-05-24T08:53:11.000Z</time>
      </trkpt>
      <trkpt lat="47.53343" lon="-2.29438">
        <ele>-68.800003051758</ele>
        <time>2020-05-24T08:53:13.000Z</time>
      </trkpt>
      <trkpt lat="47.53341" lon="-2.29446">
        <ele>-68.800003051758</ele>
        <time>2020-05-24T08:53:59.000Z</time>
      </trkpt>
      <trkpt lat="47.53339" lon="-2.29449">
        <ele>-68.800003051758</ele>
        <time>2020-05-24T08:54:00.000Z</time>
      </trkpt>
      <trkpt lat="47.5332" lon="-2.29467">
        <ele>-68.800003051758</ele>
        <time>2020-05-24T08:54:05.000Z</time>
      </trkpt>
      <trkpt lat="47.53291" lon="-2.29483">
        <ele>-68.800003051758</ele>
        <time>2020-05-24T08:54:11.000Z</time>
      </trkpt>
      <trkpt lat="47.53286" lon="-2.29485">
        <ele>-69.199996948242</ele>
        <time>2020-05-24T08:54:13.000Z</time>
      </trkpt>
      <trkpt lat="47.53285" lon="-2.29484">
        <ele>-69.599998474121</ele>
        <time>2020-05-24T08:54:14.000Z</time>
      </trkpt>
      <trkpt lat="47.53285" lon="-2.29484">
        <ele>-70</ele>
        <time>2020-05-24T08:54:15.000Z</time>
      </trkpt>
      <trkpt lat="47.53285" lon="-2.29484">
        <ele>-70.599998474121</ele>
        <time>2020-05-24T08:54:16.000Z</time>
      </trkpt>
      <trkpt lat="47.53284" lon="-2.29484">
        <ele>-71</ele>
        <time>2020-05-24T08:54:17.000Z</time>
      </trkpt>
      <trkpt lat="47.53281" lon="-2.29482">
        <ele>-71</ele>
        <time>2020-05-24T08:55:10.000Z</time>
      </trkpt>
      <trkpt lat="47.5328" lon="-2.29476">
        <ele>-71</ele>
        <time>2020-05-24T08:55:12.000Z</time>
      </trkpt>
      <trkpt lat="47.53278" lon="-2.29469">
        <ele>-71</ele>
        <time>2020-05-24T08:55:14.000Z</time>
      </trkpt>
      <trkpt lat="47.53273" lon="-2.29451">
        <ele>-71</ele>
        <time>2020-05-24T08:55:18.000Z</time>
      </trkpt>
      <trkpt lat="47.53263" lon="-2.29424">
        <ele>-71</ele>
        <time>2020-05-24T08:55:24.000Z</time>
      </trkpt>
      <trkpt lat="47.53247" lon="-2.29384">
        <ele>-71</ele>
        <time>2020-05-24T08:55:31.000Z</time>
      </trkpt>
      <trkpt lat="47.53242" lon="-2.29378">
        <ele>-71</ele>
        <time>2020-05-24T08:55:33.000Z</time>
      </trkpt>
      <trkpt lat="47.53236" lon="-2.29379">
        <ele>-71</ele>
        <time>2020-05-24T08:55:35.000Z</time>
      </trkpt>
      <trkpt lat="47.53231" lon="-2.29387">
        <ele>-71</ele>
        <time>2020-05-24T08:55:38.000Z</time>
      </trkpt>
      <trkpt lat="47.5323" lon="-2.29398">
        <ele>-70.599998474121</ele>
        <time>2020-05-24T08:55:43.000Z</time>
      </trkpt>
      <trkpt lat="47.5323" lon="-2.294">
        <ele>-70</ele>
        <time>2020-05-24T08:55:44.000Z</time>
      </trkpt>
      <trkpt lat="47.5323" lon="-2.29403">
        <ele>-69.599998474121</ele>
        <time>2020-05-24T08:55:45.000Z</time>
      </trkpt>
      <trkpt lat="47.5323" lon="-2.29406">
        <ele>-68.800003051758</ele>
        <time>2020-05-24T08:55:46.000Z</time>
      </trkpt>
      <trkpt lat="47.53231" lon="-2.29419">
        <ele>-68.800003051758</ele>
        <time>2020-05-24T08:55:50.000Z</time>
      </trkpt>
      <trkpt lat="47.53232" lon="-2.29425">
        <ele>-68.400001525879</ele>
        <time>2020-05-24T08:55:52.000Z</time>
      </trkpt>
      <trkpt lat="47.53232" lon="-2.29428">
        <ele>-68</ele>
        <time>2020-05-24T08:55:53.000Z</time>
      </trkpt>
      <trkpt lat="47.53232" lon="-2.29432">
        <ele>-67.599998474121</ele>
        <time>2020-05-24T08:55:54.000Z</time>
      </trkpt>
      <trkpt lat="47.53232" lon="-2.29435">
        <ele>-67.199996948242</ele>
        <time>2020-05-24T08:55:55.000Z</time>
      </trkpt>
      <trkpt lat="47.53232" lon="-2.29438">
        <ele>-66.800003051758</ele>
        <time>2020-05-24T08:55:56.000Z</time>
      </trkpt>
      <trkpt lat="47.53233" lon="-2.29445">
        <ele>-66.400001525879</ele>
        <time>2020-05-24T08:55:58.000Z</time>
      </trkpt>
      <trkpt lat="47.53233" lon="-2.29448">
        <ele>-66</ele>
        <time>2020-05-24T08:55:59.000Z</time>
      </trkpt>
      <trkpt lat="47.53233" lon="-2.29451">
        <ele>-65.599998474121</ele>
        <time>2020-05-24T08:56:00.000Z</time>
      </trkpt>
      <trkpt lat="47.53233" lon="-2.29455">
        <ele>-65.199996948242</ele>
        <time>2020-05-24T08:56:01.000Z</time>
      </trkpt>
      <trkpt lat="47.53234" lon="-2.2946">
        <ele>-64.800003051758</ele>
        <time>2020-05-24T08:56:02.000Z</time>
      </trkpt>
      <trkpt lat="47.53234" lon="-2.29464">
        <ele>-64.199996948242</ele>
        <time>2020-05-24T08:56:03.000Z</time>
      </trkpt>
      <trkpt lat="47.53234" lon="-2.29468">
        <ele>-63.799999237061</ele>
        <time>2020-05-24T08:56:04.000Z</time>
      </trkpt>
      <trkpt lat="47.53234" lon="-2.29471">
        <ele>-63.400001525879</ele>
        <time>2020-05-24T08:56:05.000Z</time>
      </trkpt>
      <trkpt lat="47.53234" lon="-2.29474">
        <ele>-63</ele>
        <time>2020-05-24T08:56:06.000Z</time>
      </trkpt>
      <trkpt lat="47.53233" lon="-2.29477">
        <ele>-62.599998474121</ele>
        <time>2020-05-24T08:56:07.000Z</time>
      </trkpt>
      <trkpt lat="47.53233" lon="-2.2948">
        <ele>-62.200000762939</ele>
        <time>2020-05-24T08:56:08.000Z</time>
      </trkpt>
      <trkpt lat="47.53233" lon="-2.29484">
        <ele>-61.799999237061</ele>
        <time>2020-05-24T08:56:09.000Z</time>
      </trkpt>
      <trkpt lat="47.53233" lon="-2.29486">
        <ele>-61.400001525879</ele>
        <time>2020-05-24T08:56:10.000Z</time>
      </trkpt>
      <trkpt lat="47.53232" lon="-2.2949">
        <ele>-60.400001525879</ele>
        <time>2020-05-24T08:56:11.000Z</time>
      </trkpt>
      <trkpt lat="47.53231" lon="-2.29493">
        <ele>-60</ele>
        <time>2020-05-24T08:56:12.000Z</time>
      </trkpt>
      <trkpt lat="47.53231" lon="-2.29497">
        <ele>-59.599998474121</ele>
        <time>2020-05-24T08:56:13.000Z</time>
      </trkpt>
      <trkpt lat="47.5323" lon="-2.295">
        <ele>-59.200000762939</ele>
        <time>2020-05-24T08:56:14.000Z</time>
      </trkpt>
      <trkpt lat="47.5323" lon="-2.29502">
        <ele>-58.799999237061</ele>
        <time>2020-05-24T08:56:15.000Z</time>
      </trkpt>
      <trkpt lat="47.53229" lon="-2.29504">
        <ele>-58.400001525879</ele>
        <time>2020-05-24T08:56:16.000Z</time>
      </trkpt>
      <trkpt lat="47.53229" lon="-2.2951">
        <ele>-58</ele>
        <time>2020-05-24T08:56:18.000Z</time>
      </trkpt>
      <trkpt lat="47.53228" lon="-2.29512">
        <ele>-57.599998474121</ele>
        <time>2020-05-24T08:56:19.000Z</time>
      </trkpt>
      <trkpt lat="47.53228" lon="-2.29515">
        <ele>-57.200000762939</ele>
        <time>2020-05-24T08:56:20.000Z</time>
      </trkpt>
      <trkpt lat="47.53228" lon="-2.29517">
        <ele>-56.799999237061</ele>
        <time>2020-05-24T08:56:21.000Z</time>
      </trkpt>
      <trkpt lat="47.53228" lon="-2.2952">
        <ele>-56.200000762939</ele>
        <time>2020-05-24T08:56:22.000Z</time>
      </trkpt>
      <trkpt lat="47.53228" lon="-2.29526">
        <ele>-55.799999237061</ele>
        <time>2020-05-24T08:56:24.000Z</time>
      </trkpt>
      <trkpt lat="47.53228" lon="-2.29529">
        <ele>-55.400001525879</ele>
        <time>2020-05-24T08:56:25.000Z</time>
      </trkpt>
      <trkpt lat="47.53227" lon="-2.29532">
        <ele>-55</ele>
        <time>2020-05-24T08:56:26.000Z</time>
      </trkpt>
      <trkpt lat="47.53227" lon="-2.29535">
        <ele>-54.599998474121</ele>
        <time>2020-05-24T08:56:27.000Z</time>
      </trkpt>
      <trkpt lat="47.53227" lon="-2.29538">
        <ele>-54.200000762939</ele>
        <time>2020-05-24T08:56:28.000Z</time>
      </trkpt>
      <trkpt lat="47.53226" lon="-2.29547">
        <ele>-53.799999237061</ele>
        <time>2020-05-24T08:56:31.000Z</time>
      </trkpt>
      <trkpt lat="47.53226" lon="-2.29549">
        <ele>-53.400001525879</ele>
        <time>2020-05-24T08:56:32.000Z</time>
      </trkpt>
      <trkpt lat="47.53226" lon="-2.29552">
        <ele>-53</ele>
        <time>2020-05-24T08:56:33.000Z</time>
      </trkpt>
      <trkpt lat="47.53226" lon="-2.29554">
        <ele>-52.599998474121</ele>
        <time>2020-05-24T08:56:34.000Z</time>
      </trkpt>
      <trkpt lat="47.53225" lon="-2.29556">
        <ele>-52.200000762939</ele>
        <time>2020-05-24T08:56:35.000Z</time>
      </trkpt>
      <trkpt lat="47.53224" lon="-2.29563">
        <ele>-51.799999237061</ele>
        <time>2020-05-24T08:56:38.000Z</time>
      </trkpt>
      <trkpt lat="47.53224" lon="-2.29565">
        <ele>-51.400001525879</ele>
        <time>2020-05-24T08:56:39.000Z</time>
      </trkpt>
      <trkpt lat="47.53224" lon="-2.29568">
        <ele>-51</ele>
        <time>2020-05-24T08:56:40.000Z</time>
      </trkpt>
      <trkpt lat="47.53223" lon="-2.2957">
        <ele>-50.400001525879</ele>
        <time>2020-05-24T08:56:41.000Z</time>
      </trkpt>
      <trkpt lat="47.53223" lon="-2.29574">
        <ele>-50</ele>
        <time>2020-05-24T08:56:42.000Z</time>
      </trkpt>
      <trkpt lat="47.53222" lon="-2.29581">
        <ele>-50</ele>
        <time>2020-05-24T08:56:45.000Z</time>
      </trkpt>
      <trkpt lat="47.53222" lon="-2.29586">
        <ele>-49.599998474121</ele>
        <time>2020-05-24T08:56:47.000Z</time>
      </trkpt>
      <trkpt lat="47.53222" lon="-2.29587">
        <ele>-49.200000762939</ele>
        <time>2020-05-24T08:56:48.000Z</time>
      </trkpt>
      <trkpt lat="47.53222" lon="-2.29589">
        <ele>-48.799999237061</ele>
        <time>2020-05-24T08:56:49.000Z</time>
      </trkpt>
      <trkpt lat="47.53222" lon="-2.29592">
        <ele>-48.400001525879</ele>
        <time>2020-05-24T08:56:50.000Z</time>
      </trkpt>
      <trkpt lat="47.53222" lon="-2.29594">
        <ele>-48</ele>
        <time>2020-05-24T08:56:51.000Z</time>
      </trkpt>
      <trkpt lat="47.53222" lon="-2.296">
        <ele>-48</ele>
        <time>2020-05-24T08:56:53.000Z</time>
      </trkpt>
      <trkpt lat="47.53221" lon="-2.29619">
        <ele>-48</ele>
        <time>2020-05-24T08:56:59.000Z</time>
      </trkpt>
      <trkpt lat="47.53221" lon="-2.29622">
        <ele>-47</ele>
        <time>2020-05-24T08:57:00.000Z</time>
      </trkpt>
      <trkpt lat="47.53221" lon="-2.29625">
        <ele>-46.599998474121</ele>
        <time>2020-05-24T08:57:01.000Z</time>
      </trkpt>
      <trkpt lat="47.5322" lon="-2.29629">
        <ele>-46.200000762939</ele>
        <time>2020-05-24T08:57:02.000Z</time>
      </trkpt>
      <trkpt lat="47.5322" lon="-2.29631">
        <ele>-45.799999237061</ele>
        <time>2020-05-24T08:57:03.000Z</time>
      </trkpt>
      <trkpt lat="47.5322" lon="-2.29641">
        <ele>-45.799999237061</ele>
        <time>2020-05-24T08:57:06.000Z</time>
      </trkpt>
      <trkpt lat="47.53221" lon="-2.2966">
        <ele>-45.400001525879</ele>
        <time>2020-05-24T08:57:13.000Z</time>
      </trkpt>
      <trkpt lat="47.53222" lon="-2.29662">
        <ele>-45</ele>
        <time>2020-05-24T08:57:14.000Z</time>
      </trkpt>
      <trkpt lat="47.53222" lon="-2.29664">
        <ele>-44.599998474121</ele>
        <time>2020-05-24T08:57:15.000Z</time>
      </trkpt>
      <trkpt lat="47.53222" lon="-2.29667">
        <ele>-44.200000762939</ele>
        <time>2020-05-24T08:57:16.000Z</time>
      </trkpt>
      <trkpt lat="47.53222" lon="-2.29669">
        <ele>-43.799999237061</ele>
        <time>2020-05-24T08:57:17.000Z</time>
      </trkpt>
      <trkpt lat="47.53223" lon="-2.29674">
        <ele>-43.799999237061</ele>
        <time>2020-05-24T08:57:19.000Z</time>
      </trkpt>
      <trkpt lat="47.53223" lon="-2.29676">
        <ele>-43.799999237061</ele>
        <time>2020-05-24T08:57:21.000Z</time>
      </trkpt>
      <trkpt lat="47.53222" lon="-2.29676">
        <ele>-43.799999237061</ele>
        <time>2020-05-24T08:57:22.000Z</time>
      </trkpt>
      <trkpt lat="47.53224" lon="-2.29679">
        <ele>-43.799999237061</ele>
        <time>2020-05-24T08:58:02.000Z</time>
      </trkpt>
      <trkpt lat="47.53228" lon="-2.29682">
        <ele>-43.799999237061</ele>
        <time>2020-05-24T08:58:04.000Z</time>
      </trkpt>
      <trkpt lat="47.53236" lon="-2.29693">
        <ele>-43.799999237061</ele>
        <time>2020-05-24T08:58:09.000Z</time>
      </trkpt>
      <trkpt lat="47.53247" lon="-2.29695">
        <ele>-44.599998474121</ele>
        <time>2020-05-24T08:58:14.000Z</time>
      </trkpt>
      <trkpt lat="47.53249" lon="-2.29695">
        <ele>-45.200000762939</ele>
        <time>2020-05-24T08:58:15.000Z</time>
      </trkpt>
      <trkpt lat="47.53252" lon="-2.29694">
        <ele>-45.599998474121</ele>
        <time>2020-05-24T08:58:16.000Z</time>
      </trkpt>
      <trkpt lat="47.53254" lon="-2.29694">
        <ele>-46.200000762939</ele>
        <time>2020-05-24T08:58:17.000Z</time>
      </trkpt>
      <trkpt lat="47.53257" lon="-2.29695">
        <ele>-46.799999237061</ele>
        <time>2020-05-24T08:58:18.000Z</time>
      </trkpt>
      <trkpt lat="47.53262" lon="-2.29696">
        <ele>-47.400001525879</ele>
        <time>2020-05-24T08:58:19.000Z</time>
      </trkpt>
      <trkpt lat="47.53265" lon="-2.29696">
        <ele>-48</ele>
        <time>2020-05-24T08:58:20.000Z</time>
      </trkpt>
      <trkpt lat="47.53268" lon="-2.29695">
        <ele>-48.400001525879</ele>
        <time>2020-05-24T08:58:21.000Z</time>
      </trkpt>
      <trkpt lat="47.5327" lon="-2.29695">
        <ele>-49</ele>
        <time>2020-05-24T08:58:22.000Z</time>
      </trkpt>
      <trkpt lat="47.53273" lon="-2.29695">
        <ele>-49.599998474121</ele>
        <time>2020-05-24T08:58:23.000Z</time>
      </trkpt>
      <trkpt lat="47.53276" lon="-2.29694">
        <ele>-50.200000762939</ele>
        <time>2020-05-24T08:58:24.000Z</time>
      </trkpt>
      <trkpt lat="47.53279" lon="-2.29694">
        <ele>-50.799999237061</ele>
        <time>2020-05-24T08:58:25.000Z</time>
      </trkpt>
      <trkpt lat="47.53282" lon="-2.29694">
        <ele>-51.400001525879</ele>
        <time>2020-05-24T08:58:26.000Z</time>
      </trkpt>
      <trkpt lat="47.53288" lon="-2.29694">
        <ele>-52</ele>
        <time>2020-05-24T08:58:27.000Z</time>
      </trkpt>
      <trkpt lat="47.53293" lon="-2.29695">
        <ele>-52.599998474121</ele>
        <time>2020-05-24T08:58:28.000Z</time>
      </trkpt>
      <trkpt lat="47.53298" lon="-2.29697">
        <ele>-53.200000762939</ele>
        <time>2020-05-24T08:58:29.000Z</time>
      </trkpt>
      <trkpt lat="47.53301" lon="-2.297">
        <ele>-53.799999237061</ele>
        <time>2020-05-24T08:58:30.000Z</time>
      </trkpt>
      <trkpt lat="47.53303" lon="-2.29702">
        <ele>-54.599998474121</ele>
        <time>2020-05-24T08:58:31.000Z</time>
      </trkpt>
      <trkpt lat="47.53304" lon="-2.29703">
        <ele>-55.200000762939</ele>
        <time>2020-05-24T08:58:32.000Z</time>
      </trkpt>
      <trkpt lat="47.53306" lon="-2.29705">
        <ele>-55.599998474121</ele>
        <time>2020-05-24T08:58:33.000Z</time>
      </trkpt>
      <trkpt lat="47.53308" lon="-2.29706">
        <ele>-56</ele>
        <time>2020-05-24T08:58:34.000Z</time>
      </trkpt>
      <trkpt lat="47.5331" lon="-2.29707">
        <ele>-56.400001525879</ele>
        <time>2020-05-24T08:58:35.000Z</time>
      </trkpt>
      <trkpt lat="47.53312" lon="-2.29708">
        <ele>-56.799999237061</ele>
        <time>2020-05-24T08:58:36.000Z</time>
      </trkpt>
      <trkpt lat="47.53314" lon="-2.29708">
        <ele>-57.400001525879</ele>
        <time>2020-05-24T08:58:37.000Z</time>
      </trkpt>
      <trkpt lat="47.53317" lon="-2.29709">
        <ele>-58.200000762939</ele>
        <time>2020-05-24T08:58:38.000Z</time>
      </trkpt>
      <trkpt lat="47.53319" lon="-2.2971">
        <ele>-58.599998474121</ele>
        <time>2020-05-24T08:58:39.000Z</time>
      </trkpt>
      <trkpt lat="47.53321" lon="-2.29712">
        <ele>-59.200000762939</ele>
        <time>2020-05-24T08:58:40.000Z</time>
      </trkpt>
      <trkpt lat="47.53323" lon="-2.29714">
        <ele>-59.599998474121</ele>
        <time>2020-05-24T08:58:41.000Z</time>
      </trkpt>
      <trkpt lat="47.53326" lon="-2.29715">
        <ele>-60.200000762939</ele>
        <time>2020-05-24T08:58:42.000Z</time>
      </trkpt>
      <trkpt lat="47.53329" lon="-2.29717">
        <ele>-60.799999237061</ele>
        <time>2020-05-24T08:58:43.000Z</time>
      </trkpt>
      <trkpt lat="47.53332" lon="-2.29718">
        <ele>-61.400001525879</ele>
        <time>2020-05-24T08:58:44.000Z</time>
      </trkpt>
      <trkpt lat="47.53334" lon="-2.2972">
        <ele>-61.799999237061</ele>
        <time>2020-05-24T08:58:45.000Z</time>
      </trkpt>
      <trkpt lat="47.53337" lon="-2.29722">
        <ele>-62.400001525879</ele>
        <time>2020-05-24T08:58:46.000Z</time>
      </trkpt>
      <trkpt lat="47.5334" lon="-2.29723">
        <ele>-63</ele>
        <time>2020-05-24T08:58:47.000Z</time>
      </trkpt>
      <trkpt lat="47.53343" lon="-2.29724">
        <ele>-63.400001525879</ele>
        <time>2020-05-24T08:58:48.000Z</time>
      </trkpt>
      <trkpt lat="47.53344" lon="-2.29725">
        <ele>-64</ele>
        <time>2020-05-24T08:58:49.000Z</time>
      </trkpt>
      <trkpt lat="47.53345" lon="-2.29726">
        <ele>-64</ele>
        <time>2020-05-24T08:58:50.000Z</time>
      </trkpt>
      <trkpt lat="47.53354" lon="-2.29731">
        <ele>-66.199996948242</ele>
        <time>2020-05-24T08:58:58.000Z</time>
      </trkpt>
      <trkpt lat="47.53359" lon="-2.29733">
        <ele>-66.199996948242</ele>
        <time>2020-05-24T08:59:00.000Z</time>
      </trkpt>
      <trkpt lat="47.5336" lon="-2.29733">
        <ele>-66.599998474121</ele>
        <time>2020-05-24T08:59:01.000Z</time>
      </trkpt>
      <trkpt lat="47.53362" lon="-2.29734">
        <ele>-67</ele>
        <time>2020-05-24T08:59:02.000Z</time>
      </trkpt>
      <trkpt lat="47.53364" lon="-2.29734">
        <ele>-67.800003051758</ele>
        <time>2020-05-24T08:59:03.000Z</time>
      </trkpt>
      <trkpt lat="47.53367" lon="-2.29735">
        <ele>-68.400001525879</ele>
        <time>2020-05-24T08:59:04.000Z</time>
      </trkpt>
      <trkpt lat="47.5337" lon="-2.29736">
        <ele>-68.800003051758</ele>
        <time>2020-05-24T08:59:05.000Z</time>
      </trkpt>
      <trkpt lat="47.53373" lon="-2.29738">
        <ele>-69.199996948242</ele>
        <time>2020-05-24T08:59:06.000Z</time>
      </trkpt>
      <trkpt lat="47.53375" lon="-2.2974">
        <ele>-69.800003051758</ele>
        <time>2020-05-24T08:59:07.000Z</time>
      </trkpt>
      <trkpt lat="47.53376" lon="-2.29741">
        <ele>-70.199996948242</ele>
        <time>2020-05-24T08:59:08.000Z</time>
      </trkpt>
      <trkpt lat="47.53377" lon="-2.29741">
        <ele>-70.800003051758</ele>
        <time>2020-05-24T08:59:09.000Z</time>
      </trkpt>
      <trkpt lat="47.53378" lon="-2.29741">
        <ele>-70.800003051758</ele>
        <time>2020-05-24T08:59:10.000Z</time>
      </trkpt>
      <trkpt lat="47.53381" lon="-2.2975">
        <ele>-70.800003051758</ele>
        <time>2020-05-24T08:59:19.000Z</time>
      </trkpt>
      <trkpt lat="47.53383" lon="-2.29754">
        <ele>-70.800003051758</ele>
        <time>2020-05-24T08:59:21.000Z</time>
      </trkpt>
      <trkpt lat="47.53386" lon="-2.29772">
        <ele>-70.800003051758</ele>
        <time>2020-05-24T08:59:26.000Z</time>
      </trkpt>
      <trkpt lat="47.53391" lon="-2.29796">
        <ele>-70.800003051758</ele>
        <time>2020-05-24T08:59:32.000Z</time>
      </trkpt>
      <trkpt lat="47.53398" lon="-2.29821">
        <ele>-70.800003051758</ele>
        <time>2020-05-24T08:59:37.000Z</time>
      </trkpt>
      <trkpt lat="47.534" lon="-2.29841">
        <ele>-70.800003051758</ele>
        <time>2020-05-24T08:59:42.000Z</time>
      </trkpt>
      <trkpt lat="47.53398" lon="-2.29848">
        <ele>-70.800003051758</ele>
        <time>2020-05-24T08:59:47.000Z</time>
      </trkpt>
      <trkpt lat="47.53398" lon="-2.29855">
        <ele>-70.800003051758</ele>
        <time>2020-05-24T08:59:55.000Z</time>
      </trkpt>
      <trkpt lat="47.53401" lon="-2.29863">
        <ele>-70.800003051758</ele>
        <time>2020-05-24T08:59:58.000Z</time>
      </trkpt>
      <trkpt lat="47.53405" lon="-2.29867">
        <ele>-70.800003051758</ele>
        <time>2020-05-24T09:00:00.000Z</time>
      </trkpt>
      <trkpt lat="47.53418" lon="-2.29864">
        <ele>-71.199996948242</ele>
        <time>2020-05-24T09:00:04.000Z</time>
      </trkpt>
      <trkpt lat="47.5342" lon="-2.2986">
        <ele>-71.599998474121</ele>
        <time>2020-05-24T09:00:05.000Z</time>
      </trkpt>
      <trkpt lat="47.53422" lon="-2.29856">
        <ele>-72</ele>
        <time>2020-05-24T09:00:06.000Z</time>
      </trkpt>
      <trkpt lat="47.53423" lon="-2.29853">
        <ele>-72.400001525879</ele>
        <time>2020-05-24T09:00:07.000Z</time>
      </trkpt>
      <trkpt lat="47.53424" lon="-2.29849">
        <ele>-72.800003051758</ele>
        <time>2020-05-24T09:00:08.000Z</time>
      </trkpt>
      <trkpt lat="47.53426" lon="-2.29843">
        <ele>-72.800003051758</ele>
        <time>2020-05-24T09:00:10.000Z</time>
      </trkpt>
      <trkpt lat="47.53426" lon="-2.2984">
        <ele>-72.800003051758</ele>
        <time>2020-05-24T09:00:13.000Z</time>
      </trkpt>
      <trkpt lat="47.53429" lon="-2.29828">
        <ele>-72.800003051758</ele>
        <time>2020-05-24T09:00:21.000Z</time>
      </trkpt>
      <trkpt lat="47.5343" lon="-2.29826">
        <ele>-72.800003051758</ele>
        <time>2020-05-24T09:00:22.000Z</time>
      </trkpt>
      <trkpt lat="47.53435" lon="-2.29827">
        <ele>-72.800003051758</ele>
        <time>2020-05-24T09:00:25.000Z</time>
      </trkpt>
      <trkpt lat="47.53437" lon="-2.29829">
        <ele>-72.800003051758</ele>
        <time>2020-05-24T09:00:26.000Z</time>
      </trkpt>
      <trkpt lat="47.53447" lon="-2.29839">
        <ele>-72.800003051758</ele>
        <time>2020-05-24T09:00:29.000Z</time>
      </trkpt>
      <trkpt lat="47.53453" lon="-2.29852">
        <ele>-72.800003051758</ele>
        <time>2020-05-24T09:00:32.000Z</time>
      </trkpt>
      <trkpt lat="47.53453" lon="-2.29857">
        <ele>-72.800003051758</ele>
        <time>2020-05-24T09:00:33.000Z</time>
      </trkpt>
      <trkpt lat="47.53445" lon="-2.29875">
        <ele>-72.800003051758</ele>
        <time>2020-05-24T09:00:37.000Z</time>
      </trkpt>
      <trkpt lat="47.53436" lon="-2.29899">
        <ele>-72.800003051758</ele>
        <time>2020-05-24T09:00:42.000Z</time>
      </trkpt>
      <trkpt lat="47.53438" lon="-2.29924">
        <ele>-72.800003051758</ele>
        <time>2020-05-24T09:00:47.000Z</time>
      </trkpt>
      <trkpt lat="47.53443" lon="-2.29947">
        <ele>-72.800003051758</ele>
        <time>2020-05-24T09:00:52.000Z</time>
      </trkpt>
      <trkpt lat="47.53451" lon="-2.29967">
        <ele>-72.800003051758</ele>
        <time>2020-05-24T09:00:56.000Z</time>
      </trkpt>
      <trkpt lat="47.53453" lon="-2.29978">
        <ele>-72.800003051758</ele>
        <time>2020-05-24T09:00:58.000Z</time>
      </trkpt>
      <trkpt lat="47.53454" lon="-2.29996">
        <ele>-72.800003051758</ele>
        <time>2020-05-24T09:01:01.000Z</time>
      </trkpt>
      <trkpt lat="47.53457" lon="-2.30005">
        <ele>-72.800003051758</ele>
        <time>2020-05-24T09:01:03.000Z</time>
      </trkpt>
      <trkpt lat="47.53464" lon="-2.3001">
        <ele>-72.800003051758</ele>
        <time>2020-05-24T09:01:05.000Z</time>
      </trkpt>
      <trkpt lat="47.53475" lon="-2.30019">
        <ele>-72.800003051758</ele>
        <time>2020-05-24T09:01:08.000Z</time>
      </trkpt>
      <trkpt lat="47.53479" lon="-2.30021">
        <ele>-72.800003051758</ele>
        <time>2020-05-24T09:01:09.000Z</time>
      </trkpt>
      <trkpt lat="47.53495" lon="-2.30024">
        <ele>-72.800003051758</ele>
        <time>2020-05-24T09:01:13.000Z</time>
      </trkpt>
      <trkpt lat="47.53509" lon="-2.30017">
        <ele>-72.800003051758</ele>
        <time>2020-05-24T09:01:17.000Z</time>
      </trkpt>
      <trkpt lat="47.53536" lon="-2.29994">
        <ele>-72.800003051758</ele>
        <time>2020-05-24T09:01:24.000Z</time>
      </trkpt>
      <trkpt lat="47.5354" lon="-2.29992">
        <ele>-72.800003051758</ele>
        <time>2020-05-24T09:01:25.000Z</time>
      </trkpt>
      <trkpt lat="47.53562" lon="-2.2998">
        <ele>-72.800003051758</ele>
        <time>2020-05-24T09:01:30.000Z</time>
      </trkpt>
      <trkpt lat="47.53578" lon="-2.29965">
        <ele>-72.800003051758</ele>
        <time>2020-05-24T09:01:34.000Z</time>
      </trkpt>
      <trkpt lat="47.53582" lon="-2.29961">
        <ele>-72.800003051758</ele>
        <time>2020-05-24T09:01:35.000Z</time>
      </trkpt>
      <trkpt lat="47.53585" lon="-2.29957">
        <ele>-72.400001525879</ele>
        <time>2020-05-24T09:01:36.000Z</time>
      </trkpt>
      <trkpt lat="47.53587" lon="-2.29954">
        <ele>-72</ele>
        <time>2020-05-24T09:01:37.000Z</time>
      </trkpt>
      <trkpt lat="47.5359" lon="-2.29951">
        <ele>-71.400001525879</ele>
        <time>2020-05-24T09:01:38.000Z</time>
      </trkpt>
      <trkpt lat="47.53592" lon="-2.29948">
        <ele>-71</ele>
        <time>2020-05-24T09:01:39.000Z</time>
      </trkpt>
      <trkpt lat="47.53595" lon="-2.29943">
        <ele>-70.599998474121</ele>
        <time>2020-05-24T09:01:40.000Z</time>
      </trkpt>
      <trkpt lat="47.53599" lon="-2.29937">
        <ele>-70.599998474121</ele>
        <time>2020-05-24T09:01:41.000Z</time>
      </trkpt>
      <trkpt lat="47.53608" lon="-2.29912">
        <ele>-70.599998474121</ele>
        <time>2020-05-24T09:01:44.000Z</time>
      </trkpt>
      <trkpt lat="47.5361" lon="-2.29887">
        <ele>-70.599998474121</ele>
        <time>2020-05-24T09:01:47.000Z</time>
      </trkpt>
      <trkpt lat="47.53611" lon="-2.29878">
        <ele>-70.599998474121</ele>
        <time>2020-05-24T09:01:48.000Z</time>
      </trkpt>
      <trkpt lat="47.5361" lon="-2.29869">
        <ele>-70.599998474121</ele>
        <time>2020-05-24T09:01:49.000Z</time>
      </trkpt>
      <trkpt lat="47.53603" lon="-2.29808">
        <ele>-70.599998474121</ele>
        <time>2020-05-24T09:01:56.000Z</time>
      </trkpt>
      <trkpt lat="47.53601" lon="-2.29758">
        <ele>-70.599998474121</ele>
        <time>2020-05-24T09:02:02.000Z</time>
      </trkpt>
      <trkpt lat="47.53605" lon="-2.2973">
        <ele>-70.599998474121</ele>
        <time>2020-05-24T09:02:05.000Z</time>
      </trkpt>
      <trkpt lat="47.5361" lon="-2.29712">
        <ele>-70.599998474121</ele>
        <time>2020-05-24T09:02:07.000Z</time>
      </trkpt>
      <trkpt lat="47.53631" lon="-2.29661">
        <ele>-70.599998474121</ele>
        <time>2020-05-24T09:02:14.000Z</time>
      </trkpt>
      <trkpt lat="47.53652" lon="-2.29628">
        <ele>-70.599998474121</ele>
        <time>2020-05-24T09:02:20.000Z</time>
      </trkpt>
      <trkpt lat="47.53685" lon="-2.29579">
        <ele>-70.599998474121</ele>
        <time>2020-05-24T09:02:28.000Z</time>
      </trkpt>
      <trkpt lat="47.53714" lon="-2.2953">
        <ele>-70.599998474121</ele>
        <time>2020-05-24T09:02:36.000Z</time>
      </trkpt>
      <trkpt lat="47.53727" lon="-2.29509">
        <ele>-70.199996948242</ele>
        <time>2020-05-24T09:02:40.000Z</time>
      </trkpt>
      <trkpt lat="47.53729" lon="-2.29504">
        <ele>-69.800003051758</ele>
        <time>2020-05-24T09:02:41.000Z</time>
      </trkpt>
      <trkpt lat="47.53731" lon="-2.295">
        <ele>-69.400001525879</ele>
        <time>2020-05-24T09:02:42.000Z</time>
      </trkpt>
      <trkpt lat="47.53733" lon="-2.29496">
        <ele>-69</ele>
        <time>2020-05-24T09:02:43.000Z</time>
      </trkpt>
      <trkpt lat="47.53735" lon="-2.29493">
        <ele>-68.599998474121</ele>
        <time>2020-05-24T09:02:44.000Z</time>
      </trkpt>
      <trkpt lat="47.53745" lon="-2.29484">
        <ele>-68.599998474121</ele>
        <time>2020-05-24T09:02:47.000Z</time>
      </trkpt>
      <trkpt lat="47.53761" lon="-2.29476">
        <ele>-68.599998474121</ele>
        <time>2020-05-24T09:02:51.000Z</time>
      </trkpt>
      <trkpt lat="47.53765" lon="-2.29475">
        <ele>-68.599998474121</ele>
        <time>2020-05-24T09:02:52.000Z</time>
      </trkpt>
      <trkpt lat="47.53782" lon="-2.29476">
        <ele>-68.599998474121</ele>
        <time>2020-05-24T09:02:57.000Z</time>
      </trkpt>
      <trkpt lat="47.5379" lon="-2.29475">
        <ele>-68.599998474121</ele>
        <time>2020-05-24T09:03:03.000Z</time>
      </trkpt>
      <trkpt lat="47.53794" lon="-2.29475">
        <ele>-68.599998474121</ele>
        <time>2020-05-24T09:03:08.000Z</time>
      </trkpt>
      <trkpt lat="47.53807" lon="-2.29489">
        <ele>-66.800003051758</ele>
        <time>2020-05-24T09:04:29.000Z</time>
      </trkpt>
      <trkpt lat="47.53808" lon="-2.29492">
        <ele>-66.400001525879</ele>
        <time>2020-05-24T09:04:30.000Z</time>
      </trkpt>
      <trkpt lat="47.53809" lon="-2.295">
        <ele>-66</ele>
        <time>2020-05-24T09:04:34.000Z</time>
      </trkpt>
      <trkpt lat="47.53809" lon="-2.29502">
        <ele>-65.599998474121</ele>
        <time>2020-05-24T09:04:35.000Z</time>
      </trkpt>
      <trkpt lat="47.5381" lon="-2.29504">
        <ele>-65</ele>
        <time>2020-05-24T09:04:36.000Z</time>
      </trkpt>
      <trkpt lat="47.5381" lon="-2.29506">
        <ele>-64.599998474121</ele>
        <time>2020-05-24T09:04:37.000Z</time>
      </trkpt>
      <trkpt lat="47.53811" lon="-2.29508">
        <ele>-64.199996948242</ele>
        <time>2020-05-24T09:04:38.000Z</time>
      </trkpt>
      <trkpt lat="47.53812" lon="-2.29512">
        <ele>-63.599998474121</ele>
        <time>2020-05-24T09:04:40.000Z</time>
      </trkpt>
      <trkpt lat="47.53812" lon="-2.29515">
        <ele>-63.200000762939</ele>
        <time>2020-05-24T09:04:41.000Z</time>
      </trkpt>
      <trkpt lat="47.53813" lon="-2.29517">
        <ele>-62.799999237061</ele>
        <time>2020-05-24T09:04:42.000Z</time>
      </trkpt>
      <trkpt lat="47.53813" lon="-2.29523">
        <ele>-62.200000762939</ele>
        <time>2020-05-24T09:04:43.000Z</time>
      </trkpt>
      <trkpt lat="47.53814" lon="-2.29528">
        <ele>-61.799999237061</ele>
        <time>2020-05-24T09:04:44.000Z</time>
      </trkpt>
      <trkpt lat="47.53815" lon="-2.29531">
        <ele>-61.400001525879</ele>
        <time>2020-05-24T09:04:45.000Z</time>
      </trkpt>
      <trkpt lat="47.53816" lon="-2.29535">
        <ele>-61</ele>
        <time>2020-05-24T09:04:46.000Z</time>
      </trkpt>
      <trkpt lat="47.53816" lon="-2.29538">
        <ele>-60.599998474121</ele>
        <time>2020-05-24T09:04:47.000Z</time>
      </trkpt>
      <trkpt lat="47.53817" lon="-2.29542">
        <ele>-60.200000762939</ele>
        <time>2020-05-24T09:04:48.000Z</time>
      </trkpt>
      <trkpt lat="47.53817" lon="-2.29546">
        <ele>-59.599998474121</ele>
        <time>2020-05-24T09:04:49.000Z</time>
      </trkpt>
      <trkpt lat="47.53819" lon="-2.29564">
        <ele>-59.599998474121</ele>
        <time>2020-05-24T09:04:54.000Z</time>
      </trkpt>
      <trkpt lat="47.53823" lon="-2.29576">
        <ele>-59.200000762939</ele>
        <time>2020-05-24T09:04:58.000Z</time>
      </trkpt>
      <trkpt lat="47.53824" lon="-2.29579">
        <ele>-58.799999237061</ele>
        <time>2020-05-24T09:04:59.000Z</time>
      </trkpt>
      <trkpt lat="47.53825" lon="-2.29582">
        <ele>-58.400001525879</ele>
        <time>2020-05-24T09:05:00.000Z</time>
      </trkpt>
      <trkpt lat="47.53827" lon="-2.29584">
        <ele>-58</ele>
        <time>2020-05-24T09:05:01.000Z</time>
      </trkpt>
      <trkpt lat="47.53828" lon="-2.29587">
        <ele>-57.599998474121</ele>
        <time>2020-05-24T09:05:02.000Z</time>
      </trkpt>
      <trkpt lat="47.53835" lon="-2.296">
        <ele>-57.599998474121</ele>
        <time>2020-05-24T09:05:07.000Z</time>
      </trkpt>
      <trkpt lat="47.53841" lon="-2.29622">
        <ele>-57.599998474121</ele>
        <time>2020-05-24T09:05:14.000Z</time>
      </trkpt>
      <trkpt lat="47.53842" lon="-2.29626">
        <ele>-57.599998474121</ele>
        <time>2020-05-24T09:05:17.000Z</time>
      </trkpt>
      <trkpt lat="47.53843" lon="-2.29631">
        <ele>-57.599998474121</ele>
        <time>2020-05-24T09:06:52.000Z</time>
      </trkpt>
      <trkpt lat="47.53842" lon="-2.29635">
        <ele>-57.599998474121</ele>
        <time>2020-05-24T09:06:53.000Z</time>
      </trkpt>
      <trkpt lat="47.53834" lon="-2.29646">
        <ele>-57.599998474121</ele>
        <time>2020-05-24T09:06:58.000Z</time>
      </trkpt>
      <trkpt lat="47.53816" lon="-2.29656">
        <ele>-57.599998474121</ele>
        <time>2020-05-24T09:07:04.000Z</time>
      </trkpt>
      <trkpt lat="47.53788" lon="-2.29666">
        <ele>-57.599998474121</ele>
        <time>2020-05-24T09:07:11.000Z</time>
      </trkpt>
      <trkpt lat="47.53779" lon="-2.29666">
        <ele>-57.599998474121</ele>
        <time>2020-05-24T09:07:13.000Z</time>
      </trkpt>
      <trkpt lat="47.5377" lon="-2.29674">
        <ele>-57.599998474121</ele>
        <time>2020-05-24T09:07:16.000Z</time>
      </trkpt>
      <trkpt lat="47.53772" lon="-2.29695">
        <ele>-57.599998474121</ele>
        <time>2020-05-24T09:07:20.000Z</time>
      </trkpt>
      <trkpt lat="47.5378" lon="-2.29715">
        <ele>-57.599998474121</ele>
        <time>2020-05-24T09:07:23.000Z</time>
      </trkpt>
      <trkpt lat="47.53783" lon="-2.29729">
        <ele>-57.599998474121</ele>
        <time>2020-05-24T09:07:25.000Z</time>
      </trkpt>
      <trkpt lat="47.53794" lon="-2.29772">
        <ele>-57.599998474121</ele>
        <time>2020-05-24T09:07:32.000Z</time>
      </trkpt>
      <trkpt lat="47.53806" lon="-2.29817">
        <ele>-57.599998474121</ele>
        <time>2020-05-24T09:07:39.000Z</time>
      </trkpt>
      <trkpt lat="47.53825" lon="-2.29876">
        <ele>-57.599998474121</ele>
        <time>2020-05-24T09:07:47.000Z</time>
      </trkpt>
      <trkpt lat="47.53835" lon="-2.29928">
        <ele>-58</ele>
        <time>2020-05-24T09:07:53.000Z</time>
      </trkpt>
      <trkpt lat="47.53837" lon="-2.29937">
        <ele>-58.400001525879</ele>
        <time>2020-05-24T09:07:54.000Z</time>
      </trkpt>
      <trkpt lat="47.53839" lon="-2.29946">
        <ele>-58.799999237061</ele>
        <time>2020-05-24T09:07:55.000Z</time>
      </trkpt>
      <trkpt lat="47.53841" lon="-2.29954">
        <ele>-59.200000762939</ele>
        <time>2020-05-24T09:07:56.000Z</time>
      </trkpt>
      <trkpt lat="47.53843" lon="-2.29962">
        <ele>-59.599998474121</ele>
        <time>2020-05-24T09:07:57.000Z</time>
      </trkpt>
      <trkpt lat="47.53849" lon="-2.29984">
        <ele>-59.599998474121</ele>
        <time>2020-05-24T09:08:00.000Z</time>
      </trkpt>
      <trkpt lat="47.53851" lon="-2.2999">
        <ele>-60.200000762939</ele>
        <time>2020-05-24T09:08:01.000Z</time>
      </trkpt>
      <trkpt lat="47.53853" lon="-2.29996">
        <ele>-60.599998474121</ele>
        <time>2020-05-24T09:08:02.000Z</time>
      </trkpt>
      <trkpt lat="47.53857" lon="-2.3">
        <ele>-61.200000762939</ele>
        <time>2020-05-24T09:08:03.000Z</time>
      </trkpt>
      <trkpt lat="47.53861" lon="-2.30002">
        <ele>-61.599998474121</ele>
        <time>2020-05-24T09:08:04.000Z</time>
      </trkpt>
      <trkpt lat="47.53865" lon="-2.30002">
        <ele>-62</ele>
        <time>2020-05-24T09:08:05.000Z</time>
      </trkpt>
      <trkpt lat="47.53873" lon="-2.29997">
        <ele>-62</ele>
        <time>2020-05-24T09:08:07.000Z</time>
      </trkpt>
      <trkpt lat="47.53877" lon="-2.29994">
        <ele>-62</ele>
        <time>2020-05-24T09:08:08.000Z</time>
      </trkpt>
      <trkpt lat="47.539" lon="-2.29976">
        <ele>-62</ele>
        <time>2020-05-24T09:08:13.000Z</time>
      </trkpt>
      <trkpt lat="47.53923" lon="-2.29961">
        <ele>-62</ele>
        <time>2020-05-24T09:08:19.000Z</time>
      </trkpt>
      <trkpt lat="47.53942" lon="-2.29943">
        <ele>-62</ele>
        <time>2020-05-24T09:08:26.000Z</time>
      </trkpt>
      <trkpt lat="47.53955" lon="-2.29934">
        <ele>-61.200000762939</ele>
        <time>2020-05-24T09:08:31.000Z</time>
      </trkpt>
      <trkpt lat="47.53958" lon="-2.29933">
        <ele>-60.799999237061</ele>
        <time>2020-05-24T09:08:32.000Z</time>
      </trkpt>
      <trkpt lat="47.5396" lon="-2.29931">
        <ele>-60.400001525879</ele>
        <time>2020-05-24T09:08:33.000Z</time>
      </trkpt>
      <trkpt lat="47.53962" lon="-2.2993">
        <ele>-60</ele>
        <time>2020-05-24T09:08:34.000Z</time>
      </trkpt>
      <trkpt lat="47.53974" lon="-2.29921">
        <ele>-60</ele>
        <time>2020-05-24T09:08:40.000Z</time>
      </trkpt>
      <trkpt lat="47.53983" lon="-2.29924">
        <ele>-60</ele>
        <time>2020-05-24T09:08:44.000Z</time>
      </trkpt>
      <trkpt lat="47.53989" lon="-2.29943">
        <ele>-60</ele>
        <time>2020-05-24T09:08:48.000Z</time>
      </trkpt>
      <trkpt lat="47.5399" lon="-2.2995">
        <ele>-60</ele>
        <time>2020-05-24T09:08:49.000Z</time>
      </trkpt>
      <trkpt lat="47.53997" lon="-2.29982">
        <ele>-60</ele>
        <time>2020-05-24T09:08:53.000Z</time>
      </trkpt>
      <trkpt lat="47.54005" lon="-2.30026">
        <ele>-60</ele>
        <time>2020-05-24T09:08:59.000Z</time>
      </trkpt>
      <trkpt lat="47.54011" lon="-2.30059">
        <ele>-60.400001525879</ele>
        <time>2020-05-24T09:09:04.000Z</time>
      </trkpt>
      <trkpt lat="47.54012" lon="-2.30065">
        <ele>-60.799999237061</ele>
        <time>2020-05-24T09:09:05.000Z</time>
      </trkpt>
      <trkpt lat="47.54014" lon="-2.30072">
        <ele>-61.200000762939</ele>
        <time>2020-05-24T09:09:06.000Z</time>
      </trkpt>
      <trkpt lat="47.54015" lon="-2.30078">
        <ele>-61.599998474121</ele>
        <time>2020-05-24T09:09:07.000Z</time>
      </trkpt>
      <trkpt lat="47.54016" lon="-2.30084">
        <ele>-62</ele>
        <time>2020-05-24T09:09:08.000Z</time>
      </trkpt>
      <trkpt lat="47.5402" lon="-2.30107">
        <ele>-62</ele>
        <time>2020-05-24T09:09:12.000Z</time>
      </trkpt>
      <trkpt lat="47.5403" lon="-2.30154">
        <ele>-62</ele>
        <time>2020-05-24T09:09:19.000Z</time>
      </trkpt>
      <trkpt lat="47.54038" lon="-2.30203">
        <ele>-62</ele>
        <time>2020-05-24T09:09:26.000Z</time>
      </trkpt>
      <trkpt lat="47.54044" lon="-2.30227">
        <ele>-62</ele>
        <time>2020-05-24T09:09:30.000Z</time>
      </trkpt>
      <trkpt lat="47.5405" lon="-2.30237">
        <ele>-62</ele>
        <time>2020-05-24T09:09:32.000Z</time>
      </trkpt>
      <trkpt lat="47.54063" lon="-2.30244">
        <ele>-62</ele>
        <time>2020-05-24T09:09:35.000Z</time>
      </trkpt>
      <trkpt lat="47.54068" lon="-2.30244">
        <ele>-62</ele>
        <time>2020-05-24T09:09:36.000Z</time>
      </trkpt>
      <trkpt lat="47.54073" lon="-2.30244">
        <ele>-62</ele>
        <time>2020-05-24T09:09:37.000Z</time>
      </trkpt>
      <trkpt lat="47.54085" lon="-2.3024">
        <ele>-62</ele>
        <time>2020-05-24T09:09:40.000Z</time>
      </trkpt>
      <trkpt lat="47.54111" lon="-2.3023">
        <ele>-62</ele>
        <time>2020-05-24T09:09:46.000Z</time>
      </trkpt>
      <trkpt lat="47.54115" lon="-2.30227">
        <ele>-61.599998474121</ele>
        <time>2020-05-24T09:09:47.000Z</time>
      </trkpt>
      <trkpt lat="47.54119" lon="-2.30225">
        <ele>-61.200000762939</ele>
        <time>2020-05-24T09:09:48.000Z</time>
      </trkpt>
      <trkpt lat="47.54123" lon="-2.30223">
        <ele>-60.799999237061</ele>
        <time>2020-05-24T09:09:49.000Z</time>
      </trkpt>
      <trkpt lat="47.54126" lon="-2.3022">
        <ele>-60.400001525879</ele>
        <time>2020-05-24T09:09:50.000Z</time>
      </trkpt>
      <trkpt lat="47.5413" lon="-2.30217">
        <ele>-60</ele>
        <time>2020-05-24T09:09:51.000Z</time>
      </trkpt>
      <trkpt lat="47.54137" lon="-2.30212">
        <ele>-60</ele>
        <time>2020-05-24T09:09:53.000Z</time>
      </trkpt>
      <trkpt lat="47.54146" lon="-2.30207">
        <ele>-59.400001525879</ele>
        <time>2020-05-24T09:09:56.000Z</time>
      </trkpt>
      <trkpt lat="47.5415" lon="-2.30205">
        <ele>-59</ele>
        <time>2020-05-24T09:09:57.000Z</time>
      </trkpt>
      <trkpt lat="47.54153" lon="-2.30203">
        <ele>-58.599998474121</ele>
        <time>2020-05-24T09:09:58.000Z</time>
      </trkpt>
      <trkpt lat="47.54156" lon="-2.30203">
        <ele>-58.200000762939</ele>
        <time>2020-05-24T09:09:59.000Z</time>
      </trkpt>
      <trkpt lat="47.5416" lon="-2.30202">
        <ele>-57.799999237061</ele>
        <time>2020-05-24T09:10:00.000Z</time>
      </trkpt>
      <trkpt lat="47.54178" lon="-2.302">
        <ele>-57.799999237061</ele>
        <time>2020-05-24T09:10:05.000Z</time>
      </trkpt>
      <trkpt lat="47.54201" lon="-2.302">
        <ele>-57.799999237061</ele>
        <time>2020-05-24T09:10:11.000Z</time>
      </trkpt>
      <trkpt lat="47.54221" lon="-2.302">
        <ele>-57.799999237061</ele>
        <time>2020-05-24T09:10:17.000Z</time>
      </trkpt>
      <trkpt lat="47.54241" lon="-2.30198">
        <ele>-57.799999237061</ele>
        <time>2020-05-24T09:10:22.000Z</time>
      </trkpt>
      <trkpt lat="47.54246" lon="-2.30197">
        <ele>-57.799999237061</ele>
        <time>2020-05-24T09:10:23.000Z</time>
      </trkpt>
      <trkpt lat="47.54251" lon="-2.30197">
        <ele>-58.200000762939</ele>
        <time>2020-05-24T09:10:24.000Z</time>
      </trkpt>
      <trkpt lat="47.54257" lon="-2.30196">
        <ele>-58.599998474121</ele>
        <time>2020-05-24T09:10:25.000Z</time>
      </trkpt>
      <trkpt lat="47.54262" lon="-2.30196">
        <ele>-59.200000762939</ele>
        <time>2020-05-24T09:10:26.000Z</time>
      </trkpt>
      <trkpt lat="47.54268" lon="-2.30196">
        <ele>-59.599998474121</ele>
        <time>2020-05-24T09:10:27.000Z</time>
      </trkpt>
      <trkpt lat="47.54273" lon="-2.30196">
        <ele>-60</ele>
        <time>2020-05-24T09:10:28.000Z</time>
      </trkpt>
      <trkpt lat="47.54304" lon="-2.30197">
        <ele>-60</ele>
        <time>2020-05-24T09:10:33.000Z</time>
      </trkpt>
      <trkpt lat="47.5434" lon="-2.30198">
        <ele>-60</ele>
        <time>2020-05-24T09:10:40.000Z</time>
      </trkpt>
      <trkpt lat="47.54345" lon="-2.30199">
        <ele>-60</ele>
        <time>2020-05-24T09:10:41.000Z</time>
      </trkpt>
      <trkpt lat="47.54368" lon="-2.30199">
        <ele>-60</ele>
        <time>2020-05-24T09:10:46.000Z</time>
      </trkpt>
      <trkpt lat="47.54401" lon="-2.30198">
        <ele>-60</ele>
        <time>2020-05-24T09:10:52.000Z</time>
      </trkpt>
      <trkpt lat="47.54433" lon="-2.30198">
        <ele>-60.400001525879</ele>
        <time>2020-05-24T09:10:57.000Z</time>
      </trkpt>
      <trkpt lat="47.5444" lon="-2.30197">
        <ele>-60.799999237061</ele>
        <time>2020-05-24T09:10:58.000Z</time>
      </trkpt>
      <trkpt lat="47.54447" lon="-2.30198">
        <ele>-61.200000762939</ele>
        <time>2020-05-24T09:10:59.000Z</time>
      </trkpt>
      <trkpt lat="47.54454" lon="-2.30198">
        <ele>-62</ele>
        <time>2020-05-24T09:11:00.000Z</time>
      </trkpt>
      <trkpt lat="47.54461" lon="-2.30198">
        <ele>-62.599998474121</ele>
        <time>2020-05-24T09:11:01.000Z</time>
      </trkpt>
      <trkpt lat="47.54468" lon="-2.30198">
        <ele>-63</ele>
        <time>2020-05-24T09:11:02.000Z</time>
      </trkpt>
      <trkpt lat="47.54474" lon="-2.30198">
        <ele>-63.400001525879</ele>
        <time>2020-05-24T09:11:03.000Z</time>
      </trkpt>
      <trkpt lat="47.54479" lon="-2.30198">
        <ele>-63.799999237061</ele>
        <time>2020-05-24T09:11:04.000Z</time>
      </trkpt>
      <trkpt lat="47.54485" lon="-2.30198">
        <ele>-64.199996948242</ele>
        <time>2020-05-24T09:11:05.000Z</time>
      </trkpt>
      <trkpt lat="47.54494" lon="-2.30197">
        <ele>-64.199996948242</ele>
        <time>2020-05-24T09:11:07.000Z</time>
      </trkpt>
      <trkpt lat="47.54502" lon="-2.30191">
        <ele>-64.199996948242</ele>
        <time>2020-05-24T09:11:09.000Z</time>
      </trkpt>
      <trkpt lat="47.54507" lon="-2.30174">
        <ele>-64.199996948242</ele>
        <time>2020-05-24T09:11:13.000Z</time>
      </trkpt>
      <trkpt lat="47.54507" lon="-2.30168">
        <ele>-64.199996948242</ele>
        <time>2020-05-24T09:11:14.000Z</time>
      </trkpt>
      <trkpt lat="47.54505" lon="-2.30152">
        <ele>-63.799999237061</ele>
        <time>2020-05-24T09:11:17.000Z</time>
      </trkpt>
      <trkpt lat="47.54505" lon="-2.30147">
        <ele>-63.400001525879</ele>
        <time>2020-05-24T09:11:18.000Z</time>
      </trkpt>
      <trkpt lat="47.54505" lon="-2.30142">
        <ele>-63</ele>
        <time>2020-05-24T09:11:19.000Z</time>
      </trkpt>
      <trkpt lat="47.54505" lon="-2.30138">
        <ele>-62.400001525879</ele>
        <time>2020-05-24T09:11:20.000Z</time>
      </trkpt>
      <trkpt lat="47.54505" lon="-2.30132">
        <ele>-61.599998474121</ele>
        <time>2020-05-24T09:11:22.000Z</time>
      </trkpt>
      <trkpt lat="47.54505" lon="-2.30126">
        <ele>-61.200000762939</ele>
        <time>2020-05-24T09:11:23.000Z</time>
      </trkpt>
      <trkpt lat="47.54505" lon="-2.30121">
        <ele>-60.799999237061</ele>
        <time>2020-05-24T09:11:24.000Z</time>
      </trkpt>
      <trkpt lat="47.54505" lon="-2.30116">
        <ele>-60.400001525879</ele>
        <time>2020-05-24T09:11:25.000Z</time>
      </trkpt>
      <trkpt lat="47.54505" lon="-2.30112">
        <ele>-60</ele>
        <time>2020-05-24T09:11:26.000Z</time>
      </trkpt>
      <trkpt lat="47.54506" lon="-2.30107">
        <ele>-60</ele>
        <time>2020-05-24T09:11:27.000Z</time>
      </trkpt>
      <trkpt lat="47.54506" lon="-2.30103">
        <ele>-59.599998474121</ele>
        <time>2020-05-24T09:11:28.000Z</time>
      </trkpt>
      <trkpt lat="47.54506" lon="-2.30098">
        <ele>-59.200000762939</ele>
        <time>2020-05-24T09:11:29.000Z</time>
      </trkpt>
      <trkpt lat="47.54505" lon="-2.30093">
        <ele>-58.799999237061</ele>
        <time>2020-05-24T09:11:30.000Z</time>
      </trkpt>
      <trkpt lat="47.54505" lon="-2.30088">
        <ele>-58.400001525879</ele>
        <time>2020-05-24T09:11:31.000Z</time>
      </trkpt>
      <trkpt lat="47.54505" lon="-2.30083">
        <ele>-58</ele>
        <time>2020-05-24T09:11:32.000Z</time>
      </trkpt>
      <trkpt lat="47.54506" lon="-2.30078">
        <ele>-57.599998474121</ele>
        <time>2020-05-24T09:11:33.000Z</time>
      </trkpt>
      <trkpt lat="47.54506" lon="-2.30073">
        <ele>-57.200000762939</ele>
        <time>2020-05-24T09:11:34.000Z</time>
      </trkpt>
      <trkpt lat="47.54506" lon="-2.30068">
        <ele>-56.599998474121</ele>
        <time>2020-05-24T09:11:35.000Z</time>
      </trkpt>
      <trkpt lat="47.54505" lon="-2.30063">
        <ele>-56.200000762939</ele>
        <time>2020-05-24T09:11:36.000Z</time>
      </trkpt>
      <trkpt lat="47.54505" lon="-2.30058">
        <ele>-55.799999237061</ele>
        <time>2020-05-24T09:11:37.000Z</time>
      </trkpt>
      <trkpt lat="47.54505" lon="-2.30048">
        <ele>-55.400001525879</ele>
        <time>2020-05-24T09:11:39.000Z</time>
      </trkpt>
      <trkpt lat="47.54505" lon="-2.30043">
        <ele>-55</ele>
        <time>2020-05-24T09:11:40.000Z</time>
      </trkpt>
      <trkpt lat="47.54506" lon="-2.30038">
        <ele>-54.599998474121</ele>
        <time>2020-05-24T09:11:41.000Z</time>
      </trkpt>
      <trkpt lat="47.54505" lon="-2.30033">
        <ele>-54.200000762939</ele>
        <time>2020-05-24T09:11:42.000Z</time>
      </trkpt>
      <trkpt lat="47.54505" lon="-2.30028">
        <ele>-53.799999237061</ele>
        <time>2020-05-24T09:11:43.000Z</time>
      </trkpt>
      <trkpt lat="47.54505" lon="-2.30015">
        <ele>-53.400001525879</ele>
        <time>2020-05-24T09:11:46.000Z</time>
      </trkpt>
      <trkpt lat="47.54505" lon="-2.3001">
        <ele>-53</ele>
        <time>2020-05-24T09:11:47.000Z</time>
      </trkpt>
      <trkpt lat="47.54505" lon="-2.30005">
        <ele>-52.599998474121</ele>
        <time>2020-05-24T09:11:48.000Z</time>
      </trkpt>
      <trkpt lat="47.54505" lon="-2.30001">
        <ele>-52.200000762939</ele>
        <time>2020-05-24T09:11:49.000Z</time>
      </trkpt>
      <trkpt lat="47.54506" lon="-2.29996">
        <ele>-51.599998474121</ele>
        <time>2020-05-24T09:11:50.000Z</time>
      </trkpt>
      <trkpt lat="47.54507" lon="-2.2997">
        <ele>-51.200000762939</ele>
        <time>2020-05-24T09:11:56.000Z</time>
      </trkpt>
      <trkpt lat="47.54507" lon="-2.29966">
        <ele>-50.799999237061</ele>
        <time>2020-05-24T09:11:57.000Z</time>
      </trkpt>
      <trkpt lat="47.54507" lon="-2.29962">
        <ele>-50.400001525879</ele>
        <time>2020-05-24T09:11:58.000Z</time>
      </trkpt>
      <trkpt lat="47.54507" lon="-2.29958">
        <ele>-50</ele>
        <time>2020-05-24T09:11:59.000Z</time>
      </trkpt>
      <trkpt lat="47.54507" lon="-2.29954">
        <ele>-49.599998474121</ele>
        <time>2020-05-24T09:12:00.000Z</time>
      </trkpt>
      <trkpt lat="47.54509" lon="-2.29927">
        <ele>-49.200000762939</ele>
        <time>2020-05-24T09:12:06.000Z</time>
      </trkpt>
      <trkpt lat="47.54509" lon="-2.29922">
        <ele>-48.799999237061</ele>
        <time>2020-05-24T09:12:07.000Z</time>
      </trkpt>
      <trkpt lat="47.54508" lon="-2.29917">
        <ele>-48.400001525879</ele>
        <time>2020-05-24T09:12:08.000Z</time>
      </trkpt>
      <trkpt lat="47.54508" lon="-2.29912">
        <ele>-47.599998474121</ele>
        <time>2020-05-24T09:12:09.000Z</time>
      </trkpt>
      <trkpt lat="47.54509" lon="-2.29898">
        <ele>-47.599998474121</ele>
        <time>2020-05-24T09:12:12.000Z</time>
      </trkpt>
      <trkpt lat="47.5451" lon="-2.29874">
        <ele>-47.599998474121</ele>
        <time>2020-05-24T09:12:17.000Z</time>
      </trkpt>
      <trkpt lat="47.5451" lon="-2.29869">
        <ele>-47.200000762939</ele>
        <time>2020-05-24T09:12:18.000Z</time>
      </trkpt>
      <trkpt lat="47.54511" lon="-2.29865">
        <ele>-46.799999237061</ele>
        <time>2020-05-24T09:12:19.000Z</time>
      </trkpt>
      <trkpt lat="47.54512" lon="-2.2986">
        <ele>-46.400001525879</ele>
        <time>2020-05-24T09:12:20.000Z</time>
      </trkpt>
      <trkpt lat="47.54512" lon="-2.29856">
        <ele>-46</ele>
        <time>2020-05-24T09:12:21.000Z</time>
      </trkpt>
      <trkpt lat="47.54513" lon="-2.29851">
        <ele>-45.599998474121</ele>
        <time>2020-05-24T09:12:22.000Z</time>
      </trkpt>
      <trkpt lat="47.54519" lon="-2.29832">
        <ele>-45.599998474121</ele>
        <time>2020-05-24T09:12:26.000Z</time>
      </trkpt>
      <trkpt lat="47.54531" lon="-2.29807">
        <ele>-45.599998474121</ele>
        <time>2020-05-24T09:12:33.000Z</time>
      </trkpt>
      <trkpt lat="47.54535" lon="-2.29803">
        <ele>-45.200000762939</ele>
        <time>2020-05-24T09:12:35.000Z</time>
      </trkpt>
      <trkpt lat="47.54537" lon="-2.29801">
        <ele>-44.599998474121</ele>
        <time>2020-05-24T09:12:36.000Z</time>
      </trkpt>
      <trkpt lat="47.54539" lon="-2.298">
        <ele>-44.200000762939</ele>
        <time>2020-05-24T09:12:37.000Z</time>
      </trkpt>
      <trkpt lat="47.5454" lon="-2.29799">
        <ele>-43.799999237061</ele>
        <time>2020-05-24T09:12:38.000Z</time>
      </trkpt>
      <trkpt lat="47.54542" lon="-2.29797">
        <ele>-43.400001525879</ele>
        <time>2020-05-24T09:12:39.000Z</time>
      </trkpt>
      <trkpt lat="47.54545" lon="-2.29797">
        <ele>-43.400001525879</ele>
        <time>2020-05-24T09:12:41.000Z</time>
      </trkpt>
      <trkpt lat="47.5455" lon="-2.298">
        <ele>-43.400001525879</ele>
        <time>2020-05-24T09:12:43.000Z</time>
      </trkpt>
      <trkpt lat="47.54567" lon="-2.29806">
        <ele>-43.400001525879</ele>
        <time>2020-05-24T09:12:50.000Z</time>
      </trkpt>
      <trkpt lat="47.54573" lon="-2.29807">
        <ele>-43</ele>
        <time>2020-05-24T09:12:52.000Z</time>
      </trkpt>
      <trkpt lat="47.54576" lon="-2.29808">
        <ele>-42.599998474121</ele>
        <time>2020-05-24T09:12:53.000Z</time>
      </trkpt>
      <trkpt lat="47.54579" lon="-2.29809">
        <ele>-42.200000762939</ele>
        <time>2020-05-24T09:12:54.000Z</time>
      </trkpt>
      <trkpt lat="47.54582" lon="-2.29809">
        <ele>-41.799999237061</ele>
        <time>2020-05-24T09:12:55.000Z</time>
      </trkpt>
      <trkpt lat="47.54585" lon="-2.29809">
        <ele>-41.200000762939</ele>
        <time>2020-05-24T09:12:56.000Z</time>
      </trkpt>
      <trkpt lat="47.54601" lon="-2.29812">
        <ele>-41.200000762939</ele>
        <time>2020-05-24T09:13:01.000Z</time>
      </trkpt>
      <trkpt lat="47.54618" lon="-2.29817">
        <ele>-40.799999237061</ele>
        <time>2020-05-24T09:13:06.000Z</time>
      </trkpt>
      <trkpt lat="47.54621" lon="-2.29817">
        <ele>-40.400001525879</ele>
        <time>2020-05-24T09:13:07.000Z</time>
      </trkpt>
      <trkpt lat="47.54625" lon="-2.29818">
        <ele>-40</ele>
        <time>2020-05-24T09:13:08.000Z</time>
      </trkpt>
      <trkpt lat="47.54628" lon="-2.29819">
        <ele>-39.599998474121</ele>
        <time>2020-05-24T09:13:09.000Z</time>
      </trkpt>
      <trkpt lat="47.54632" lon="-2.2982">
        <ele>-39.200000762939</ele>
        <time>2020-05-24T09:13:10.000Z</time>
      </trkpt>
      <trkpt lat="47.54652" lon="-2.29824">
        <ele>-39.200000762939</ele>
        <time>2020-05-24T09:13:16.000Z</time>
      </trkpt>
      <trkpt lat="47.54671" lon="-2.29829">
        <ele>-39.200000762939</ele>
        <time>2020-05-24T09:13:22.000Z</time>
      </trkpt>
      <trkpt lat="47.54688" lon="-2.29833">
        <ele>-39.200000762939</ele>
        <time>2020-05-24T09:13:30.000Z</time>
      </trkpt>
      <trkpt lat="47.54692" lon="-2.29837">
        <ele>-38.799999237061</ele>
        <time>2020-05-24T09:13:33.000Z</time>
      </trkpt>
      <trkpt lat="47.54693" lon="-2.29838">
        <ele>-38.400001525879</ele>
        <time>2020-05-24T09:13:34.000Z</time>
      </trkpt>
      <trkpt lat="47.54693" lon="-2.29838">
        <ele>-38</ele>
        <time>2020-05-24T09:13:35.000Z</time>
      </trkpt>
      <trkpt lat="47.54693" lon="-2.2984">
        <ele>-37.200000762939</ele>
        <time>2020-05-24T09:14:47.000Z</time>
      </trkpt>
      <trkpt lat="47.54695" lon="-2.29855">
        <ele>-37.200000762939</ele>
        <time>2020-05-24T09:14:53.000Z</time>
      </trkpt>
      <trkpt lat="47.54698" lon="-2.29885">
        <ele>-37.200000762939</ele>
        <time>2020-05-24T09:15:00.000Z</time>
      </trkpt>
      <trkpt lat="47.54701" lon="-2.29925">
        <ele>-37.200000762939</ele>
        <time>2020-05-24T09:15:06.000Z</time>
      </trkpt>
      <trkpt lat="47.54704" lon="-2.29975">
        <ele>-37.799999237061</ele>
        <time>2020-05-24T09:15:12.000Z</time>
      </trkpt>
      <trkpt lat="47.54705" lon="-2.29984">
        <ele>-38.200000762939</ele>
        <time>2020-05-24T09:15:13.000Z</time>
      </trkpt>
      <trkpt lat="47.54706" lon="-2.29994">
        <ele>-38.799999237061</ele>
        <time>2020-05-24T09:15:14.000Z</time>
      </trkpt>
      <trkpt lat="47.54707" lon="-2.30004">
        <ele>-39.200000762939</ele>
        <time>2020-05-24T09:15:15.000Z</time>
      </trkpt>
      <trkpt lat="47.54707" lon="-2.30015">
        <ele>-39.799999237061</ele>
        <time>2020-05-24T09:15:16.000Z</time>
      </trkpt>
      <trkpt lat="47.54709" lon="-2.30037">
        <ele>-40.200000762939</ele>
        <time>2020-05-24T09:15:18.000Z</time>
      </trkpt>
      <trkpt lat="47.54709" lon="-2.30047">
        <ele>-40.599998474121</ele>
        <time>2020-05-24T09:15:19.000Z</time>
      </trkpt>
      <trkpt lat="47.5471" lon="-2.30057">
        <ele>-41.200000762939</ele>
        <time>2020-05-24T09:15:20.000Z</time>
      </trkpt>
      <trkpt lat="47.54711" lon="-2.30066">
        <ele>-41.799999237061</ele>
        <time>2020-05-24T09:15:21.000Z</time>
      </trkpt>
      <trkpt lat="47.54712" lon="-2.30076">
        <ele>-42.599998474121</ele>
        <time>2020-05-24T09:15:22.000Z</time>
      </trkpt>
      <trkpt lat="47.54713" lon="-2.30086">
        <ele>-43.200000762939</ele>
        <time>2020-05-24T09:15:23.000Z</time>
      </trkpt>
      <trkpt lat="47.54713" lon="-2.30096">
        <ele>-44</ele>
        <time>2020-05-24T09:15:24.000Z</time>
      </trkpt>
      <trkpt lat="47.54714" lon="-2.30106">
        <ele>-44.599998474121</ele>
        <time>2020-05-24T09:15:25.000Z</time>
      </trkpt>
      <trkpt lat="47.54715" lon="-2.30116">
        <ele>-45</ele>
        <time>2020-05-24T09:15:26.000Z</time>
      </trkpt>
      <trkpt lat="47.54716" lon="-2.30126">
        <ele>-46.400001525879</ele>
        <time>2020-05-24T09:15:27.000Z</time>
      </trkpt>
      <trkpt lat="47.54717" lon="-2.30138">
        <ele>-47</ele>
        <time>2020-05-24T09:15:28.000Z</time>
      </trkpt>
      <trkpt lat="47.54718" lon="-2.30149">
        <ele>-47.599998474121</ele>
        <time>2020-05-24T09:15:29.000Z</time>
      </trkpt>
      <trkpt lat="47.54719" lon="-2.3016">
        <ele>-48.400001525879</ele>
        <time>2020-05-24T09:15:30.000Z</time>
      </trkpt>
      <trkpt lat="47.5472" lon="-2.30171">
        <ele>-49</ele>
        <time>2020-05-24T09:15:31.000Z</time>
      </trkpt>
      <trkpt lat="47.54721" lon="-2.30184">
        <ele>-50</ele>
        <time>2020-05-24T09:15:32.000Z</time>
      </trkpt>
      <trkpt lat="47.54722" lon="-2.30196">
        <ele>-51</ele>
        <time>2020-05-24T09:15:33.000Z</time>
      </trkpt>
      <trkpt lat="47.54723" lon="-2.30208">
        <ele>-52</ele>
        <time>2020-05-24T09:15:34.000Z</time>
      </trkpt>
      <trkpt lat="47.54725" lon="-2.3022">
        <ele>-52.599998474121</ele>
        <time>2020-05-24T09:15:35.000Z</time>
      </trkpt>
      <trkpt lat="47.54727" lon="-2.30231">
        <ele>-53.400001525879</ele>
        <time>2020-05-24T09:15:36.000Z</time>
      </trkpt>
      <trkpt lat="47.54729" lon="-2.30242">
        <ele>-54.400001525879</ele>
        <time>2020-05-24T09:15:37.000Z</time>
      </trkpt>
      <trkpt lat="47.54731" lon="-2.30251">
        <ele>-55.400001525879</ele>
        <time>2020-05-24T09:15:38.000Z</time>
      </trkpt>
      <trkpt lat="47.54735" lon="-2.3026">
        <ele>-56.599998474121</ele>
        <time>2020-05-24T09:15:39.000Z</time>
      </trkpt>
      <trkpt lat="47.54739" lon="-2.30268">
        <ele>-57.599998474121</ele>
        <time>2020-05-24T09:15:40.000Z</time>
      </trkpt>
      <trkpt lat="47.54743" lon="-2.30275">
        <ele>-58.599998474121</ele>
        <time>2020-05-24T09:15:41.000Z</time>
      </trkpt>
      <trkpt lat="47.54757" lon="-2.3029">
        <ele>-58.599998474121</ele>
        <time>2020-05-24T09:15:44.000Z</time>
      </trkpt>
      <trkpt lat="47.54763" lon="-2.30294">
        <ele>-58.599998474121</ele>
        <time>2020-05-24T09:15:45.000Z</time>
      </trkpt>
      <trkpt lat="47.5478" lon="-2.30299">
        <ele>-58.599998474121</ele>
        <time>2020-05-24T09:15:48.000Z</time>
      </trkpt>
      <trkpt lat="47.54785" lon="-2.30298">
        <ele>-58.599998474121</ele>
        <time>2020-05-24T09:15:49.000Z</time>
      </trkpt>
      <trkpt lat="47.54811" lon="-2.30293">
        <ele>-58.599998474121</ele>
        <time>2020-05-24T09:15:54.000Z</time>
      </trkpt>
      <trkpt lat="47.54844" lon="-2.30278">
        <ele>-58.599998474121</ele>
        <time>2020-05-24T09:15:59.000Z</time>
      </trkpt>
      <trkpt lat="47.54885" lon="-2.30248">
        <ele>-58.599998474121</ele>
        <time>2020-05-24T09:16:05.000Z</time>
      </trkpt>
      <trkpt lat="47.5492" lon="-2.30223">
        <ele>-58.599998474121</ele>
        <time>2020-05-24T09:16:11.000Z</time>
      </trkpt>
      <trkpt lat="47.5493" lon="-2.30214">
        <ele>-58.599998474121</ele>
        <time>2020-05-24T09:16:13.000Z</time>
      </trkpt>
      <trkpt lat="47.54946" lon="-2.30199">
        <ele>-58.599998474121</ele>
        <time>2020-05-24T09:16:16.000Z</time>
      </trkpt>
      <trkpt lat="47.54962" lon="-2.30183">
        <ele>-59</ele>
        <time>2020-05-24T09:16:19.000Z</time>
      </trkpt>
      <trkpt lat="47.54969" lon="-2.30177">
        <ele>-59.400001525879</ele>
        <time>2020-05-24T09:16:20.000Z</time>
      </trkpt>
      <trkpt lat="47.54976" lon="-2.30171">
        <ele>-60</ele>
        <time>2020-05-24T09:16:21.000Z</time>
      </trkpt>
      <trkpt lat="47.54983" lon="-2.30164">
        <ele>-60.599998474121</ele>
        <time>2020-05-24T09:16:22.000Z</time>
      </trkpt>
      <trkpt lat="47.54991" lon="-2.30157">
        <ele>-61.200000762939</ele>
        <time>2020-05-24T09:16:23.000Z</time>
      </trkpt>
      <trkpt lat="47.54998" lon="-2.30149">
        <ele>-62.200000762939</ele>
        <time>2020-05-24T09:16:24.000Z</time>
      </trkpt>
      <trkpt lat="47.55006" lon="-2.30141">
        <ele>-63</ele>
        <time>2020-05-24T09:16:25.000Z</time>
      </trkpt>
      <trkpt lat="47.55015" lon="-2.30133">
        <ele>-64</ele>
        <time>2020-05-24T09:16:26.000Z</time>
      </trkpt>
      <trkpt lat="47.55025" lon="-2.30125">
        <ele>-65</ele>
        <time>2020-05-24T09:16:27.000Z</time>
      </trkpt>
      <trkpt lat="47.55034" lon="-2.30118">
        <ele>-65.800003051758</ele>
        <time>2020-05-24T09:16:28.000Z</time>
      </trkpt>
      <trkpt lat="47.55041" lon="-2.30113">
        <ele>-66.800003051758</ele>
        <time>2020-05-24T09:16:29.000Z</time>
      </trkpt>
      <trkpt lat="47.55049" lon="-2.3011">
        <ele>-67.599998474121</ele>
        <time>2020-05-24T09:16:30.000Z</time>
      </trkpt>
      <trkpt lat="47.55053" lon="-2.30109">
        <ele>-68.599998474121</ele>
        <time>2020-05-24T09:16:31.000Z</time>
      </trkpt>
      <trkpt lat="47.55056" lon="-2.30109">
        <ele>-69.599998474121</ele>
        <time>2020-05-24T09:16:32.000Z</time>
      </trkpt>
      <trkpt lat="47.55058" lon="-2.30107">
        <ele>-70.400001525879</ele>
        <time>2020-05-24T09:16:33.000Z</time>
      </trkpt>
      <trkpt lat="47.5506" lon="-2.30107">
        <ele>-71.199996948242</ele>
        <time>2020-05-24T09:16:34.000Z</time>
      </trkpt>
      <trkpt lat="47.55062" lon="-2.30107">
        <ele>-72</ele>
        <time>2020-05-24T09:16:35.000Z</time>
      </trkpt>
      <trkpt lat="47.55063" lon="-2.30107">
        <ele>-72.800003051758</ele>
        <time>2020-05-24T09:16:36.000Z</time>
      </trkpt>
      <trkpt lat="47.55063" lon="-2.30107">
        <ele>-73.599998474121</ele>
        <time>2020-05-24T09:16:37.000Z</time>
      </trkpt>
      <trkpt lat="47.55064" lon="-2.30107">
        <ele>-73.599998474121</ele>
        <time>2020-05-24T09:16:38.000Z</time>
      </trkpt>
      <trkpt lat="47.55073" lon="-2.30098">
        <ele>-73.599998474121</ele>
        <time>2020-05-24T09:16:55.000Z</time>
      </trkpt>
      <trkpt lat="47.55077" lon="-2.30095">
        <ele>-73.599998474121</ele>
        <time>2020-05-24T09:16:57.000Z</time>
      </trkpt>
      <trkpt lat="47.55093" lon="-2.30083">
        <ele>-73.599998474121</ele>
        <time>2020-05-24T09:17:02.000Z</time>
      </trkpt>
      <trkpt lat="47.55123" lon="-2.30058">
        <ele>-73.599998474121</ele>
        <time>2020-05-24T09:17:09.000Z</time>
      </trkpt>
      <trkpt lat="47.55151" lon="-2.30037">
        <ele>-73.599998474121</ele>
        <time>2020-05-24T09:17:15.000Z</time>
      </trkpt>
      <trkpt lat="47.55184" lon="-2.3001">
        <ele>-73.599998474121</ele>
        <time>2020-05-24T09:17:23.000Z</time>
      </trkpt>
      <trkpt lat="47.55214" lon="-2.29986">
        <ele>-73.599998474121</ele>
        <time>2020-05-24T09:17:31.000Z</time>
      </trkpt>
      <trkpt lat="47.55235" lon="-2.2997">
        <ele>-73.599998474121</ele>
        <time>2020-05-24T09:17:38.000Z</time>
      </trkpt>
      <trkpt lat="47.55239" lon="-2.29962">
        <ele>-73.599998474121</ele>
        <time>2020-05-24T09:17:42.000Z</time>
      </trkpt>
      <trkpt lat="47.55238" lon="-2.2996">
        <ele>-73.599998474121</ele>
        <time>2020-05-24T09:17:43.000Z</time>
      </trkpt>
      <trkpt lat="47.55234" lon="-2.29948">
        <ele>-73.599998474121</ele>
        <time>2020-05-24T09:17:46.000Z</time>
      </trkpt>
      <trkpt lat="47.55234" lon="-2.29944">
        <ele>-73.599998474121</ele>
        <time>2020-05-24T09:17:47.000Z</time>
      </trkpt>
      <trkpt lat="47.55241" lon="-2.29936">
        <ele>-73.599998474121</ele>
        <time>2020-05-24T09:17:50.000Z</time>
      </trkpt>
      <trkpt lat="47.55244" lon="-2.29932">
        <ele>-73.599998474121</ele>
        <time>2020-05-24T09:17:51.000Z</time>
      </trkpt>
      <trkpt lat="47.55264" lon="-2.29916">
        <ele>-73.599998474121</ele>
        <time>2020-05-24T09:17:57.000Z</time>
      </trkpt>
      <trkpt lat="47.55282" lon="-2.29915">
        <ele>-73.599998474121</ele>
        <time>2020-05-24T09:18:02.000Z</time>
      </trkpt>
      <trkpt lat="47.55304" lon="-2.29913">
        <ele>-73.599998474121</ele>
        <time>2020-05-24T09:18:08.000Z</time>
      </trkpt>
      <trkpt lat="47.55326" lon="-2.29916">
        <ele>-73.599998474121</ele>
        <time>2020-05-24T09:18:15.000Z</time>
      </trkpt>
      <trkpt lat="47.55341" lon="-2.29913">
        <ele>-73.599998474121</ele>
        <time>2020-05-24T09:18:21.000Z</time>
      </trkpt>
      <trkpt lat="47.55341" lon="-2.29899">
        <ele>-73.599998474121</ele>
        <time>2020-05-24T09:18:25.000Z</time>
      </trkpt>
      <trkpt lat="47.55343" lon="-2.29876">
        <ele>-73.599998474121</ele>
        <time>2020-05-24T09:18:30.000Z</time>
      </trkpt>
      <trkpt lat="47.55344" lon="-2.29849">
        <ele>-73.599998474121</ele>
        <time>2020-05-24T09:18:35.000Z</time>
      </trkpt>
      <trkpt lat="47.55344" lon="-2.29831">
        <ele>-73.599998474121</ele>
        <time>2020-05-24T09:18:40.000Z</time>
      </trkpt>
      <trkpt lat="47.55346" lon="-2.29805">
        <ele>-73.599998474121</ele>
        <time>2020-05-24T09:18:47.000Z</time>
      </trkpt>
      <trkpt lat="47.55347" lon="-2.29796">
        <ele>-73.199996948242</ele>
        <time>2020-05-24T09:18:49.000Z</time>
      </trkpt>
      <trkpt lat="47.55347" lon="-2.29792">
        <ele>-72.800003051758</ele>
        <time>2020-05-24T09:18:50.000Z</time>
      </trkpt>
      <trkpt lat="47.55347" lon="-2.29787">
        <ele>-72.199996948242</ele>
        <time>2020-05-24T09:18:51.000Z</time>
      </trkpt>
      <trkpt lat="47.55347" lon="-2.29783">
        <ele>-71.800003051758</ele>
        <time>2020-05-24T09:18:52.000Z</time>
      </trkpt>
      <trkpt lat="47.55348" lon="-2.29778">
        <ele>-71.400001525879</ele>
        <time>2020-05-24T09:18:53.000Z</time>
      </trkpt>
      <trkpt lat="47.55347" lon="-2.29773">
        <ele>-71.400001525879</ele>
        <time>2020-05-24T09:18:54.000Z</time>
      </trkpt>
      <trkpt lat="47.55348" lon="-2.29764">
        <ele>-71</ele>
        <time>2020-05-24T09:18:56.000Z</time>
      </trkpt>
      <trkpt lat="47.55348" lon="-2.29759">
        <ele>-70.599998474121</ele>
        <time>2020-05-24T09:18:57.000Z</time>
      </trkpt>
      <trkpt lat="47.55348" lon="-2.29755">
        <ele>-70.199996948242</ele>
        <time>2020-05-24T09:18:58.000Z</time>
      </trkpt>
      <trkpt lat="47.5535" lon="-2.29751">
        <ele>-69.800003051758</ele>
        <time>2020-05-24T09:18:59.000Z</time>
      </trkpt>
      <trkpt lat="47.55351" lon="-2.29748">
        <ele>-69.400001525879</ele>
        <time>2020-05-24T09:19:00.000Z</time>
      </trkpt>
      <trkpt lat="47.55361" lon="-2.29738">
        <ele>-69</ele>
        <time>2020-05-24T09:19:05.000Z</time>
      </trkpt>
      <trkpt lat="47.55363" lon="-2.29736">
        <ele>-68.599998474121</ele>
        <time>2020-05-24T09:19:06.000Z</time>
      </trkpt>
      <trkpt lat="47.55366" lon="-2.29735">
        <ele>-68.199996948242</ele>
        <time>2020-05-24T09:19:07.000Z</time>
      </trkpt>
      <trkpt lat="47.55368" lon="-2.29733">
        <ele>-67.800003051758</ele>
        <time>2020-05-24T09:19:08.000Z</time>
      </trkpt>
      <trkpt lat="47.55371" lon="-2.29731">
        <ele>-67.400001525879</ele>
        <time>2020-05-24T09:19:09.000Z</time>
      </trkpt>
      <trkpt lat="47.55385" lon="-2.29723">
        <ele>-67.400001525879</ele>
        <time>2020-05-24T09:19:14.000Z</time>
      </trkpt>
      <trkpt lat="47.55398" lon="-2.29716">
        <ele>-67</ele>
        <time>2020-05-24T09:19:18.000Z</time>
      </trkpt>
      <trkpt lat="47.55402" lon="-2.29714">
        <ele>-66.400001525879</ele>
        <time>2020-05-24T09:19:19.000Z</time>
      </trkpt>
      <trkpt lat="47.55405" lon="-2.29713">
        <ele>-66</ele>
        <time>2020-05-24T09:19:20.000Z</time>
      </trkpt>
      <trkpt lat="47.55409" lon="-2.29712">
        <ele>-65.599998474121</ele>
        <time>2020-05-24T09:19:21.000Z</time>
      </trkpt>
      <trkpt lat="47.55412" lon="-2.29711">
        <ele>-65.199996948242</ele>
        <time>2020-05-24T09:19:22.000Z</time>
      </trkpt>
      <trkpt lat="47.5543" lon="-2.29703">
        <ele>-65.199996948242</ele>
        <time>2020-05-24T09:19:28.000Z</time>
      </trkpt>
      <trkpt lat="47.55441" lon="-2.29696">
        <ele>-64.800003051758</ele>
        <time>2020-05-24T09:19:32.000Z</time>
      </trkpt>
      <trkpt lat="47.55443" lon="-2.29693">
        <ele>-64.400001525879</ele>
        <time>2020-05-24T09:19:33.000Z</time>
      </trkpt>
      <trkpt lat="47.55445" lon="-2.2969">
        <ele>-63.599998474121</ele>
        <time>2020-05-24T09:19:34.000Z</time>
      </trkpt>
      <trkpt lat="47.55447" lon="-2.29688">
        <ele>-63.200000762939</ele>
        <time>2020-05-24T09:19:35.000Z</time>
      </trkpt>
      <trkpt lat="47.55449" lon="-2.29677">
        <ele>-63.200000762939</ele>
        <time>2020-05-24T09:19:38.000Z</time>
      </trkpt>
      <trkpt lat="47.55447" lon="-2.29665">
        <ele>-63.200000762939</ele>
        <time>2020-05-24T09:19:41.000Z</time>
      </trkpt>
      <trkpt lat="47.55442" lon="-2.2963">
        <ele>-63.200000762939</ele>
        <time>2020-05-24T09:19:49.000Z</time>
      </trkpt>
      <trkpt lat="47.5544" lon="-2.2962">
        <ele>-62.799999237061</ele>
        <time>2020-05-24T09:19:51.000Z</time>
      </trkpt>
      <trkpt lat="47.55439" lon="-2.29615">
        <ele>-62.400001525879</ele>
        <time>2020-05-24T09:19:52.000Z</time>
      </trkpt>
      <trkpt lat="47.55438" lon="-2.29611">
        <ele>-62</ele>
        <time>2020-05-24T09:19:53.000Z</time>
      </trkpt>
      <trkpt lat="47.55437" lon="-2.29607">
        <ele>-61.599998474121</ele>
        <time>2020-05-24T09:19:54.000Z</time>
      </trkpt>
      <trkpt lat="47.55436" lon="-2.29603">
        <ele>-61</ele>
        <time>2020-05-24T09:19:55.000Z</time>
      </trkpt>
      <trkpt lat="47.55435" lon="-2.29595">
        <ele>-61</ele>
        <time>2020-05-24T09:19:57.000Z</time>
      </trkpt>
      <trkpt lat="47.55436" lon="-2.29582">
        <ele>-61</ele>
        <time>2020-05-24T09:20:00.000Z</time>
      </trkpt>
      <trkpt lat="47.5544" lon="-2.29573">
        <ele>-61</ele>
        <time>2020-05-24T09:20:03.000Z</time>
      </trkpt>
      <trkpt lat="47.55451" lon="-2.29558">
        <ele>-61</ele>
        <time>2020-05-24T09:20:09.000Z</time>
      </trkpt>
      <trkpt lat="47.55459" lon="-2.29556">
        <ele>-61</ele>
        <time>2020-05-24T09:20:11.000Z</time>
      </trkpt>
      <trkpt lat="47.5547" lon="-2.29552">
        <ele>-61</ele>
        <time>2020-05-24T09:20:15.000Z</time>
      </trkpt>
      <trkpt lat="47.55485" lon="-2.29546">
        <ele>-61</ele>
        <time>2020-05-24T09:20:20.000Z</time>
      </trkpt>
      <trkpt lat="47.55511" lon="-2.29533">
        <ele>-61</ele>
        <time>2020-05-24T09:20:29.000Z</time>
      </trkpt>
      <trkpt lat="47.55518" lon="-2.29528">
        <ele>-60.599998474121</ele>
        <time>2020-05-24T09:20:32.000Z</time>
      </trkpt>
      <trkpt lat="47.55521" lon="-2.29527">
        <ele>-60.200000762939</ele>
        <time>2020-05-24T09:20:33.000Z</time>
      </trkpt>
      <trkpt lat="47.55524" lon="-2.29525">
        <ele>-59.799999237061</ele>
        <time>2020-05-24T09:20:34.000Z</time>
      </trkpt>
      <trkpt lat="47.55527" lon="-2.29523">
        <ele>-59.400001525879</ele>
        <time>2020-05-24T09:20:35.000Z</time>
      </trkpt>
      <trkpt lat="47.5553" lon="-2.29523">
        <ele>-59</ele>
        <time>2020-05-24T09:20:36.000Z</time>
      </trkpt>
      <trkpt lat="47.55532" lon="-2.29522">
        <ele>-59</ele>
        <time>2020-05-24T09:20:37.000Z</time>
      </trkpt>
      <trkpt lat="47.55543" lon="-2.29514">
        <ele>-59</ele>
        <time>2020-05-24T09:20:43.000Z</time>
      </trkpt>
      <trkpt lat="47.5555" lon="-2.29507">
        <ele>-59</ele>
        <time>2020-05-24T09:20:49.000Z</time>
      </trkpt>
      <trkpt lat="47.55556" lon="-2.29496">
        <ele>-59</ele>
        <time>2020-05-24T09:20:55.000Z</time>
      </trkpt>
      <trkpt lat="47.5556" lon="-2.29487">
        <ele>-58.599998474121</ele>
        <time>2020-05-24T09:21:01.000Z</time>
      </trkpt>
      <trkpt lat="47.5556" lon="-2.29486">
        <ele>-58.200000762939</ele>
        <time>2020-05-24T09:21:02.000Z</time>
      </trkpt>
      <trkpt lat="47.55561" lon="-2.29485">
        <ele>-57.799999237061</ele>
        <time>2020-05-24T09:21:03.000Z</time>
      </trkpt>
      <trkpt lat="47.55562" lon="-2.29483">
        <ele>-57.400001525879</ele>
        <time>2020-05-24T09:21:04.000Z</time>
      </trkpt>
      <trkpt lat="47.55564" lon="-2.29482">
        <ele>-57</ele>
        <time>2020-05-24T09:21:05.000Z</time>
      </trkpt>
      <trkpt lat="47.55567" lon="-2.29478">
        <ele>-57</ele>
        <time>2020-05-24T09:21:08.000Z</time>
      </trkpt>
      <trkpt lat="47.55574" lon="-2.29465">
        <ele>-57</ele>
        <time>2020-05-24T09:21:16.000Z</time>
      </trkpt>
      <trkpt lat="47.5559" lon="-2.29441">
        <ele>-57</ele>
        <time>2020-05-24T09:21:22.000Z</time>
      </trkpt>
      <trkpt lat="47.55597" lon="-2.29433">
        <ele>-56.599998474121</ele>
        <time>2020-05-24T09:21:25.000Z</time>
      </trkpt>
      <trkpt lat="47.55599" lon="-2.2943">
        <ele>-56.200000762939</ele>
        <time>2020-05-24T09:21:26.000Z</time>
      </trkpt>
      <trkpt lat="47.55601" lon="-2.29427">
        <ele>-55.799999237061</ele>
        <time>2020-05-24T09:21:27.000Z</time>
      </trkpt>
      <trkpt lat="47.55602" lon="-2.29425">
        <ele>-55.400001525879</ele>
        <time>2020-05-24T09:21:28.000Z</time>
      </trkpt>
      <trkpt lat="47.55602" lon="-2.29422">
        <ele>-55</ele>
        <time>2020-05-24T09:21:29.000Z</time>
      </trkpt>
      <trkpt lat="47.5561" lon="-2.29411">
        <ele>-55</ele>
        <time>2020-05-24T09:21:34.000Z</time>
      </trkpt>
      <trkpt lat="47.55625" lon="-2.29392">
        <ele>-55</ele>
        <time>2020-05-24T09:21:42.000Z</time>
      </trkpt>
      <trkpt lat="47.55637" lon="-2.29369">
        <ele>-55</ele>
        <time>2020-05-24T09:21:48.000Z</time>
      </trkpt>
      <trkpt lat="47.55651" lon="-2.29342">
        <ele>-55</ele>
        <time>2020-05-24T09:21:56.000Z</time>
      </trkpt>
      <trkpt lat="47.55655" lon="-2.29328">
        <ele>-55.400001525879</ele>
        <time>2020-05-24T09:21:59.000Z</time>
      </trkpt>
      <trkpt lat="47.55658" lon="-2.29322">
        <ele>-55.799999237061</ele>
        <time>2020-05-24T09:22:00.000Z</time>
      </trkpt>
      <trkpt lat="47.55661" lon="-2.29315">
        <ele>-56.400001525879</ele>
        <time>2020-05-24T09:22:01.000Z</time>
      </trkpt>
      <trkpt lat="47.55663" lon="-2.29309">
        <ele>-56.799999237061</ele>
        <time>2020-05-24T09:22:02.000Z</time>
      </trkpt>
      <trkpt lat="47.55665" lon="-2.29305">
        <ele>-57.200000762939</ele>
        <time>2020-05-24T09:22:03.000Z</time>
      </trkpt>
      <trkpt lat="47.55669" lon="-2.29284">
        <ele>-57.200000762939</ele>
        <time>2020-05-24T09:22:07.000Z</time>
      </trkpt>
      <trkpt lat="47.55676" lon="-2.29249">
        <ele>-57.200000762939</ele>
        <time>2020-05-24T09:22:14.000Z</time>
      </trkpt>
      <trkpt lat="47.55677" lon="-2.29244">
        <ele>-56.799999237061</ele>
        <time>2020-05-24T09:22:15.000Z</time>
      </trkpt>
      <trkpt lat="47.55676" lon="-2.2924">
        <ele>-56.400001525879</ele>
        <time>2020-05-24T09:22:16.000Z</time>
      </trkpt>
      <trkpt lat="47.55676" lon="-2.29236">
        <ele>-55.799999237061</ele>
        <time>2020-05-24T09:22:17.000Z</time>
      </trkpt>
      <trkpt lat="47.55675" lon="-2.29233">
        <ele>-55.400001525879</ele>
        <time>2020-05-24T09:22:18.000Z</time>
      </trkpt>
      <trkpt lat="47.55673" lon="-2.29228">
        <ele>-55</ele>
        <time>2020-05-24T09:22:19.000Z</time>
      </trkpt>
      <trkpt lat="47.55672" lon="-2.29224">
        <ele>-55</ele>
        <time>2020-05-24T09:22:20.000Z</time>
      </trkpt>
      <trkpt lat="47.5567" lon="-2.29219">
        <ele>-54.599998474121</ele>
        <time>2020-05-24T09:22:21.000Z</time>
      </trkpt>
      <trkpt lat="47.55669" lon="-2.29214">
        <ele>-54</ele>
        <time>2020-05-24T09:22:22.000Z</time>
      </trkpt>
      <trkpt lat="47.55668" lon="-2.29209">
        <ele>-53.599998474121</ele>
        <time>2020-05-24T09:22:23.000Z</time>
      </trkpt>
      <trkpt lat="47.55667" lon="-2.29203">
        <ele>-53.200000762939</ele>
        <time>2020-05-24T09:22:24.000Z</time>
      </trkpt>
      <trkpt lat="47.55666" lon="-2.29199">
        <ele>-52.799999237061</ele>
        <time>2020-05-24T09:22:25.000Z</time>
      </trkpt>
      <trkpt lat="47.55664" lon="-2.2919">
        <ele>-52.799999237061</ele>
        <time>2020-05-24T09:22:27.000Z</time>
      </trkpt>
      <trkpt lat="47.55662" lon="-2.29186">
        <ele>-51.799999237061</ele>
        <time>2020-05-24T09:22:28.000Z</time>
      </trkpt>
      <trkpt lat="47.55661" lon="-2.29181">
        <ele>-51.200000762939</ele>
        <time>2020-05-24T09:22:29.000Z</time>
      </trkpt>
      <trkpt lat="47.5566" lon="-2.29176">
        <ele>-50.799999237061</ele>
        <time>2020-05-24T09:22:30.000Z</time>
      </trkpt>
      <trkpt lat="47.55659" lon="-2.29171">
        <ele>-50.200000762939</ele>
        <time>2020-05-24T09:22:31.000Z</time>
      </trkpt>
      <trkpt lat="47.55655" lon="-2.29156">
        <ele>-50.200000762939</ele>
        <time>2020-05-24T09:22:35.000Z</time>
      </trkpt>
      <trkpt lat="47.55655" lon="-2.29152">
        <ele>-49.799999237061</ele>
        <time>2020-05-24T09:22:36.000Z</time>
      </trkpt>
      <trkpt lat="47.55654" lon="-2.29148">
        <ele>-49.400001525879</ele>
        <time>2020-05-24T09:22:37.000Z</time>
      </trkpt>
      <trkpt lat="47.55653" lon="-2.29145">
        <ele>-49</ele>
        <time>2020-05-24T09:22:38.000Z</time>
      </trkpt>
      <trkpt lat="47.55652" lon="-2.29141">
        <ele>-48.599998474121</ele>
        <time>2020-05-24T09:22:39.000Z</time>
      </trkpt>
      <trkpt lat="47.55652" lon="-2.29138">
        <ele>-48.200000762939</ele>
        <time>2020-05-24T09:22:40.000Z</time>
      </trkpt>
      <trkpt lat="47.5565" lon="-2.2913">
        <ele>-48.200000762939</ele>
        <time>2020-05-24T09:22:42.000Z</time>
      </trkpt>
      <trkpt lat="47.55646" lon="-2.29115">
        <ele>-47.799999237061</ele>
        <time>2020-05-24T09:22:46.000Z</time>
      </trkpt>
      <trkpt lat="47.55645" lon="-2.29112">
        <ele>-47.400001525879</ele>
        <time>2020-05-24T09:22:47.000Z</time>
      </trkpt>
      <trkpt lat="47.55644" lon="-2.29108">
        <ele>-46.799999237061</ele>
        <time>2020-05-24T09:22:48.000Z</time>
      </trkpt>
      <trkpt lat="47.55643" lon="-2.29105">
        <ele>-46.400001525879</ele>
        <time>2020-05-24T09:22:49.000Z</time>
      </trkpt>
      <trkpt lat="47.55642" lon="-2.29101">
        <ele>-46</ele>
        <time>2020-05-24T09:22:50.000Z</time>
      </trkpt>
      <trkpt lat="47.55637" lon="-2.29086">
        <ele>-45.599998474121</ele>
        <time>2020-05-24T09:22:54.000Z</time>
      </trkpt>
      <trkpt lat="47.55636" lon="-2.29081">
        <ele>-45.200000762939</ele>
        <time>2020-05-24T09:22:55.000Z</time>
      </trkpt>
      <trkpt lat="47.55635" lon="-2.29077">
        <ele>-44.799999237061</ele>
        <time>2020-05-24T09:22:56.000Z</time>
      </trkpt>
      <trkpt lat="47.55634" lon="-2.29073">
        <ele>-44.400001525879</ele>
        <time>2020-05-24T09:22:57.000Z</time>
      </trkpt>
      <trkpt lat="47.55633" lon="-2.29069">
        <ele>-44</ele>
        <time>2020-05-24T09:22:58.000Z</time>
      </trkpt>
      <trkpt lat="47.55627" lon="-2.29046">
        <ele>-44</ele>
        <time>2020-05-24T09:23:04.000Z</time>
      </trkpt>
      <trkpt lat="47.55624" lon="-2.29039">
        <ele>-43.599998474121</ele>
        <time>2020-05-24T09:23:06.000Z</time>
      </trkpt>
      <trkpt lat="47.55623" lon="-2.29034">
        <ele>-43.200000762939</ele>
        <time>2020-05-24T09:23:07.000Z</time>
      </trkpt>
      <trkpt lat="47.55621" lon="-2.29031">
        <ele>-42.799999237061</ele>
        <time>2020-05-24T09:23:08.000Z</time>
      </trkpt>
      <trkpt lat="47.5562" lon="-2.29027">
        <ele>-42.400001525879</ele>
        <time>2020-05-24T09:23:09.000Z</time>
      </trkpt>
      <trkpt lat="47.55619" lon="-2.29023">
        <ele>-42</ele>
        <time>2020-05-24T09:23:10.000Z</time>
      </trkpt>
      <trkpt lat="47.55616" lon="-2.29009">
        <ele>-42</ele>
        <time>2020-05-24T09:23:13.000Z</time>
      </trkpt>
      <trkpt lat="47.55613" lon="-2.28996">
        <ele>-41.599998474121</ele>
        <time>2020-05-24T09:23:16.000Z</time>
      </trkpt>
      <trkpt lat="47.55611" lon="-2.28992">
        <ele>-40.599998474121</ele>
        <time>2020-05-24T09:23:17.000Z</time>
      </trkpt>
      <trkpt lat="47.55609" lon="-2.28988">
        <ele>-40.200000762939</ele>
        <time>2020-05-24T09:23:18.000Z</time>
      </trkpt>
      <trkpt lat="47.55608" lon="-2.28984">
        <ele>-39.799999237061</ele>
        <time>2020-05-24T09:23:19.000Z</time>
      </trkpt>
      <trkpt lat="47.55606" lon="-2.28976">
        <ele>-39.799999237061</ele>
        <time>2020-05-24T09:23:21.000Z</time>
      </trkpt>
      <trkpt lat="47.556" lon="-2.28949">
        <ele>-39.400001525879</ele>
        <time>2020-05-24T09:23:27.000Z</time>
      </trkpt>
      <trkpt lat="47.55599" lon="-2.28944">
        <ele>-39</ele>
        <time>2020-05-24T09:23:28.000Z</time>
      </trkpt>
      <trkpt lat="47.55599" lon="-2.2894">
        <ele>-38.599998474121</ele>
        <time>2020-05-24T09:23:29.000Z</time>
      </trkpt>
      <trkpt lat="47.55598" lon="-2.28936">
        <ele>-38.200000762939</ele>
        <time>2020-05-24T09:23:30.000Z</time>
      </trkpt>
      <trkpt lat="47.55597" lon="-2.28932">
        <ele>-37.799999237061</ele>
        <time>2020-05-24T09:23:31.000Z</time>
      </trkpt>
      <trkpt lat="47.55596" lon="-2.28919">
        <ele>-37.799999237061</ele>
        <time>2020-05-24T09:23:34.000Z</time>
      </trkpt>
      <trkpt lat="47.55592" lon="-2.28893">
        <ele>-37.200000762939</ele>
        <time>2020-05-24T09:23:40.000Z</time>
      </trkpt>
      <trkpt lat="47.55591" lon="-2.28889">
        <ele>-36.799999237061</ele>
        <time>2020-05-24T09:23:41.000Z</time>
      </trkpt>
      <trkpt lat="47.55591" lon="-2.28884">
        <ele>-36</ele>
        <time>2020-05-24T09:23:42.000Z</time>
      </trkpt>
      <trkpt lat="47.5559" lon="-2.2888">
        <ele>-35.599998474121</ele>
        <time>2020-05-24T09:23:43.000Z</time>
      </trkpt>
      <trkpt lat="47.55588" lon="-2.28858">
        <ele>-35.599998474121</ele>
        <time>2020-05-24T09:23:49.000Z</time>
      </trkpt>
      <trkpt lat="47.55584" lon="-2.28837">
        <ele>-35.599998474121</ele>
        <time>2020-05-24T09:23:57.000Z</time>
      </trkpt>
      <trkpt lat="47.55582" lon="-2.28817">
        <ele>-35.599998474121</ele>
        <time>2020-05-24T09:24:04.000Z</time>
      </trkpt>
      <trkpt lat="47.55578" lon="-2.28798">
        <ele>-35.599998474121</ele>
        <time>2020-05-24T09:24:09.000Z</time>
      </trkpt>
      <trkpt lat="47.55578" lon="-2.28776">
        <ele>-35.599998474121</ele>
        <time>2020-05-24T09:24:14.000Z</time>
      </trkpt>
      <trkpt lat="47.55578" lon="-2.28761">
        <ele>-35.200000762939</ele>
        <time>2020-05-24T09:24:17.000Z</time>
      </trkpt>
      <trkpt lat="47.55578" lon="-2.28757">
        <ele>-34.799999237061</ele>
        <time>2020-05-24T09:24:18.000Z</time>
      </trkpt>
      <trkpt lat="47.55578" lon="-2.28752">
        <ele>-34.400001525879</ele>
        <time>2020-05-24T09:24:19.000Z</time>
      </trkpt>
      <trkpt lat="47.55578" lon="-2.28748">
        <ele>-34</ele>
        <time>2020-05-24T09:24:20.000Z</time>
      </trkpt>
      <trkpt lat="47.55579" lon="-2.28743">
        <ele>-33.599998474121</ele>
        <time>2020-05-24T09:24:21.000Z</time>
      </trkpt>
      <trkpt lat="47.55581" lon="-2.28699">
        <ele>-33.599998474121</ele>
        <time>2020-05-24T09:24:29.000Z</time>
      </trkpt>
      <trkpt lat="47.55582" lon="-2.28652">
        <ele>-33.200000762939</ele>
        <time>2020-05-24T09:24:37.000Z</time>
      </trkpt>
      <trkpt lat="47.55582" lon="-2.28646">
        <ele>-32.599998474121</ele>
        <time>2020-05-24T09:24:38.000Z</time>
      </trkpt>
      <trkpt lat="47.55583" lon="-2.28641">
        <ele>-32.200000762939</ele>
        <time>2020-05-24T09:24:39.000Z</time>
      </trkpt>
      <trkpt lat="47.55583" lon="-2.28634">
        <ele>-31.799999237061</ele>
        <time>2020-05-24T09:24:40.000Z</time>
      </trkpt>
      <trkpt lat="47.55585" lon="-2.28629">
        <ele>-31.39999961853</ele>
        <time>2020-05-24T09:24:41.000Z</time>
      </trkpt>
      <trkpt lat="47.55586" lon="-2.28617">
        <ele>-31.39999961853</ele>
        <time>2020-05-24T09:24:43.000Z</time>
      </trkpt>
      <trkpt lat="47.55585" lon="-2.28588">
        <ele>-31.39999961853</ele>
        <time>2020-05-24T09:24:48.000Z</time>
      </trkpt>
      <trkpt lat="47.55585" lon="-2.28554">
        <ele>-31.39999961853</ele>
        <time>2020-05-24T09:24:55.000Z</time>
      </trkpt>
      <trkpt lat="47.55585" lon="-2.28536">
        <ele>-31.39999961853</ele>
        <time>2020-05-24T09:24:58.000Z</time>
      </trkpt>
      <trkpt lat="47.55587" lon="-2.28519">
        <ele>-31.39999961853</ele>
        <time>2020-05-24T09:25:00.000Z</time>
      </trkpt>
      <trkpt lat="47.55591" lon="-2.28467">
        <ele>-31.39999961853</ele>
        <time>2020-05-24T09:25:06.000Z</time>
      </trkpt>
      <trkpt lat="47.55593" lon="-2.28428">
        <ele>-31.799999237061</ele>
        <time>2020-05-24T09:25:10.000Z</time>
      </trkpt>
      <trkpt lat="47.55593" lon="-2.28418">
        <ele>-32.400001525879</ele>
        <time>2020-05-24T09:25:11.000Z</time>
      </trkpt>
      <trkpt lat="47.55594" lon="-2.28409">
        <ele>-32.799999237061</ele>
        <time>2020-05-24T09:25:12.000Z</time>
      </trkpt>
      <trkpt lat="47.55594" lon="-2.28399">
        <ele>-33.200000762939</ele>
        <time>2020-05-24T09:25:13.000Z</time>
      </trkpt>
      <trkpt lat="47.55595" lon="-2.2839">
        <ele>-33.799999237061</ele>
        <time>2020-05-24T09:25:14.000Z</time>
      </trkpt>
      <trkpt lat="47.55603" lon="-2.28333">
        <ele>-34.599998474121</ele>
        <time>2020-05-24T09:25:20.000Z</time>
      </trkpt>
      <trkpt lat="47.55604" lon="-2.28324">
        <ele>-35</ele>
        <time>2020-05-24T09:25:21.000Z</time>
      </trkpt>
      <trkpt lat="47.55606" lon="-2.28316">
        <ele>-35.400001525879</ele>
        <time>2020-05-24T09:25:22.000Z</time>
      </trkpt>
      <trkpt lat="47.55609" lon="-2.28305">
        <ele>-35.799999237061</ele>
        <time>2020-05-24T09:25:23.000Z</time>
      </trkpt>
      <trkpt lat="47.55618" lon="-2.2827">
        <ele>-35.799999237061</ele>
        <time>2020-05-24T09:25:27.000Z</time>
      </trkpt>
      <trkpt lat="47.55638" lon="-2.28221">
        <ele>-35.799999237061</ele>
        <time>2020-05-24T09:25:34.000Z</time>
      </trkpt>
      <trkpt lat="47.55648" lon="-2.28189">
        <ele>-35.799999237061</ele>
        <time>2020-05-24T09:25:40.000Z</time>
      </trkpt>
      <trkpt lat="47.55651" lon="-2.28167">
        <ele>-35.799999237061</ele>
        <time>2020-05-24T09:25:46.000Z</time>
      </trkpt>
      <trkpt lat="47.55653" lon="-2.28145">
        <ele>-35.799999237061</ele>
        <time>2020-05-24T09:25:53.000Z</time>
      </trkpt>
      <trkpt lat="47.55654" lon="-2.28131">
        <ele>-35.400001525879</ele>
        <time>2020-05-24T09:25:56.000Z</time>
      </trkpt>
      <trkpt lat="47.55655" lon="-2.28126">
        <ele>-35</ele>
        <time>2020-05-24T09:25:57.000Z</time>
      </trkpt>
      <trkpt lat="47.55655" lon="-2.28121">
        <ele>-34.599998474121</ele>
        <time>2020-05-24T09:25:58.000Z</time>
      </trkpt>
      <trkpt lat="47.55656" lon="-2.28115">
        <ele>-34.200000762939</ele>
        <time>2020-05-24T09:25:59.000Z</time>
      </trkpt>
      <trkpt lat="47.55656" lon="-2.28111">
        <ele>-33.599998474121</ele>
        <time>2020-05-24T09:26:00.000Z</time>
      </trkpt>
      <trkpt lat="47.55659" lon="-2.28085">
        <ele>-33.599998474121</ele>
        <time>2020-05-24T09:26:05.000Z</time>
      </trkpt>
      <trkpt lat="47.55661" lon="-2.28054">
        <ele>-33.599998474121</ele>
        <time>2020-05-24T09:26:13.000Z</time>
      </trkpt>
      <trkpt lat="47.55661" lon="-2.28048">
        <ele>-33.200000762939</ele>
        <time>2020-05-24T09:26:14.000Z</time>
      </trkpt>
      <trkpt lat="47.55662" lon="-2.28043">
        <ele>-32.799999237061</ele>
        <time>2020-05-24T09:26:15.000Z</time>
      </trkpt>
      <trkpt lat="47.55662" lon="-2.28038">
        <ele>-32.400001525879</ele>
        <time>2020-05-24T09:26:16.000Z</time>
      </trkpt>
      <trkpt lat="47.55663" lon="-2.28034">
        <ele>-32</ele>
        <time>2020-05-24T09:26:17.000Z</time>
      </trkpt>
      <trkpt lat="47.55663" lon="-2.2803">
        <ele>-31.60000038147</ele>
        <time>2020-05-24T09:26:18.000Z</time>
      </trkpt>
      <trkpt lat="47.55664" lon="-2.28007">
        <ele>-31.60000038147</ele>
        <time>2020-05-24T09:26:23.000Z</time>
      </trkpt>
      <trkpt lat="47.55664" lon="-2.27998">
        <ele>-31.200000762939</ele>
        <time>2020-05-24T09:26:25.000Z</time>
      </trkpt>
      <trkpt lat="47.55664" lon="-2.27994">
        <ele>-30.799999237061</ele>
        <time>2020-05-24T09:26:26.000Z</time>
      </trkpt>
      <trkpt lat="47.55665" lon="-2.2799">
        <ele>-30.39999961853</ele>
        <time>2020-05-24T09:26:27.000Z</time>
      </trkpt>
      <trkpt lat="47.55665" lon="-2.27985">
        <ele>-30</ele>
        <time>2020-05-24T09:26:28.000Z</time>
      </trkpt>
      <trkpt lat="47.55666" lon="-2.27982">
        <ele>-29.60000038147</ele>
        <time>2020-05-24T09:26:29.000Z</time>
      </trkpt>
      <trkpt lat="47.55668" lon="-2.27972">
        <ele>-29.60000038147</ele>
        <time>2020-05-24T09:26:32.000Z</time>
      </trkpt>
      <trkpt lat="47.55672" lon="-2.27955">
        <ele>-29.60000038147</ele>
        <time>2020-05-24T09:26:39.000Z</time>
      </trkpt>
      <trkpt lat="47.55676" lon="-2.27943">
        <ele>-29.60000038147</ele>
        <time>2020-05-24T09:37:11.000Z</time>
      </trkpt>
      <trkpt lat="47.55678" lon="-2.27936">
        <ele>-29.60000038147</ele>
        <time>2020-05-24T09:37:14.000Z</time>
      </trkpt>
      <trkpt lat="47.55682" lon="-2.27921">
        <ele>-29.60000038147</ele>
        <time>2020-05-24T09:37:21.000Z</time>
      </trkpt>
      <trkpt lat="47.55693" lon="-2.27904">
        <ele>-29.60000038147</ele>
        <time>2020-05-24T09:37:28.000Z</time>
      </trkpt>
      <trkpt lat="47.55707" lon="-2.27899">
        <ele>-29.60000038147</ele>
        <time>2020-05-24T09:37:33.000Z</time>
      </trkpt>
      <trkpt lat="47.55716" lon="-2.2789">
        <ele>-29.60000038147</ele>
        <time>2020-05-24T09:37:36.000Z</time>
      </trkpt>
      <trkpt lat="47.5572" lon="-2.27887">
        <ele>-29.60000038147</ele>
        <time>2020-05-24T09:37:38.000Z</time>
      </trkpt>
      <trkpt lat="47.55722" lon="-2.27889">
        <ele>-29.60000038147</ele>
        <time>2020-05-24T09:37:40.000Z</time>
      </trkpt>
      <trkpt lat="47.55725" lon="-2.27894">
        <ele>-29.60000038147</ele>
        <time>2020-05-24T09:37:42.000Z</time>
      </trkpt>
      <trkpt lat="47.55728" lon="-2.27895">
        <ele>-29.60000038147</ele>
        <time>2020-05-24T09:37:43.000Z</time>
      </trkpt>
      <trkpt lat="47.55736" lon="-2.27894">
        <ele>-29.60000038147</ele>
        <time>2020-05-24T09:37:46.000Z</time>
      </trkpt>
      <trkpt lat="47.55741" lon="-2.27887">
        <ele>-30</ele>
        <time>2020-05-24T09:37:48.000Z</time>
      </trkpt>
      <trkpt lat="47.55743" lon="-2.27882">
        <ele>-30.39999961853</ele>
        <time>2020-05-24T09:37:49.000Z</time>
      </trkpt>
      <trkpt lat="47.55745" lon="-2.27879">
        <ele>-30.799999237061</ele>
        <time>2020-05-24T09:37:50.000Z</time>
      </trkpt>
      <trkpt lat="47.55747" lon="-2.27875">
        <ele>-31.200000762939</ele>
        <time>2020-05-24T09:37:51.000Z</time>
      </trkpt>
      <trkpt lat="47.55749" lon="-2.27872">
        <ele>-31.799999237061</ele>
        <time>2020-05-24T09:37:52.000Z</time>
      </trkpt>
      <trkpt lat="47.55751" lon="-2.2787">
        <ele>-31.799999237061</ele>
        <time>2020-05-24T09:37:53.000Z</time>
      </trkpt>
      <trkpt lat="47.55753" lon="-2.27866">
        <ele>-31.799999237061</ele>
        <time>2020-05-24T09:37:54.000Z</time>
      </trkpt>
      <trkpt lat="47.55758" lon="-2.2786">
        <ele>-31.799999237061</ele>
        <time>2020-05-24T09:37:56.000Z</time>
      </trkpt>
      <trkpt lat="47.55765" lon="-2.27858">
        <ele>-31.799999237061</ele>
        <time>2020-05-24T09:37:58.000Z</time>
      </trkpt>
      <trkpt lat="47.55774" lon="-2.27856">
        <ele>-32.200000762939</ele>
        <time>2020-05-24T09:38:00.000Z</time>
      </trkpt>
      <trkpt lat="47.55777" lon="-2.27854">
        <ele>-32.599998474121</ele>
        <time>2020-05-24T09:38:01.000Z</time>
      </trkpt>
      <trkpt lat="47.5578" lon="-2.27852">
        <ele>-33</ele>
        <time>2020-05-24T09:38:02.000Z</time>
      </trkpt>
      <trkpt lat="47.55783" lon="-2.27851">
        <ele>-33.400001525879</ele>
        <time>2020-05-24T09:38:03.000Z</time>
      </trkpt>
      <trkpt lat="47.55785" lon="-2.27849">
        <ele>-34.200000762939</ele>
        <time>2020-05-24T09:38:04.000Z</time>
      </trkpt>
      <trkpt lat="47.55787" lon="-2.27846">
        <ele>-34.799999237061</ele>
        <time>2020-05-24T09:38:05.000Z</time>
      </trkpt>
      <trkpt lat="47.55789" lon="-2.27843">
        <ele>-35.200000762939</ele>
        <time>2020-05-24T09:38:06.000Z</time>
      </trkpt>
      <trkpt lat="47.55792" lon="-2.27838">
        <ele>-35.599998474121</ele>
        <time>2020-05-24T09:38:07.000Z</time>
      </trkpt>
      <trkpt lat="47.55794" lon="-2.27832">
        <ele>-36</ele>
        <time>2020-05-24T09:38:08.000Z</time>
      </trkpt>
      <trkpt lat="47.55793" lon="-2.27826">
        <ele>-36</ele>
        <time>2020-05-24T09:38:09.000Z</time>
      </trkpt>
      <trkpt lat="47.55792" lon="-2.27817">
        <ele>-36</ele>
        <time>2020-05-24T09:38:11.000Z</time>
      </trkpt>
      <trkpt lat="47.55795" lon="-2.27803">
        <ele>-36</ele>
        <time>2020-05-24T09:38:15.000Z</time>
      </trkpt>
      <trkpt lat="47.55797" lon="-2.27799">
        <ele>-36.400001525879</ele>
        <time>2020-05-24T09:38:16.000Z</time>
      </trkpt>
      <trkpt lat="47.55798" lon="-2.27795">
        <ele>-36.799999237061</ele>
        <time>2020-05-24T09:38:17.000Z</time>
      </trkpt>
      <trkpt lat="47.558" lon="-2.27791">
        <ele>-37.200000762939</ele>
        <time>2020-05-24T09:38:18.000Z</time>
      </trkpt>
      <trkpt lat="47.55801" lon="-2.27785">
        <ele>-37.599998474121</ele>
        <time>2020-05-24T09:38:19.000Z</time>
      </trkpt>
      <trkpt lat="47.55802" lon="-2.2778">
        <ele>-38</ele>
        <time>2020-05-24T09:38:20.000Z</time>
      </trkpt>
      <trkpt lat="47.55802" lon="-2.27776">
        <ele>-38</ele>
        <time>2020-05-24T09:38:21.000Z</time>
      </trkpt>
      <trkpt lat="47.55804" lon="-2.27771">
        <ele>-38.400001525879</ele>
        <time>2020-05-24T09:38:22.000Z</time>
      </trkpt>
      <trkpt lat="47.55805" lon="-2.27766">
        <ele>-39</ele>
        <time>2020-05-24T09:38:23.000Z</time>
      </trkpt>
      <trkpt lat="47.55805" lon="-2.27761">
        <ele>-39.400001525879</ele>
        <time>2020-05-24T09:38:24.000Z</time>
      </trkpt>
      <trkpt lat="47.55805" lon="-2.27757">
        <ele>-39.799999237061</ele>
        <time>2020-05-24T09:38:25.000Z</time>
      </trkpt>
      <trkpt lat="47.55804" lon="-2.27755">
        <ele>-40.200000762939</ele>
        <time>2020-05-24T09:38:26.000Z</time>
      </trkpt>
      <trkpt lat="47.55799" lon="-2.2774">
        <ele>-39.799999237061</ele>
        <time>2020-05-24T09:38:32.000Z</time>
      </trkpt>
      <trkpt lat="47.55799" lon="-2.27737">
        <ele>-39.400001525879</ele>
        <time>2020-05-24T09:38:33.000Z</time>
      </trkpt>
      <trkpt lat="47.55799" lon="-2.27734">
        <ele>-39</ele>
        <time>2020-05-24T09:38:34.000Z</time>
      </trkpt>
      <trkpt lat="47.55799" lon="-2.27731">
        <ele>-38.599998474121</ele>
        <time>2020-05-24T09:38:35.000Z</time>
      </trkpt>
      <trkpt lat="47.55799" lon="-2.27727">
        <ele>-38.200000762939</ele>
        <time>2020-05-24T09:38:36.000Z</time>
      </trkpt>
      <trkpt lat="47.55799" lon="-2.27724">
        <ele>-38.200000762939</ele>
        <time>2020-05-24T09:38:37.000Z</time>
      </trkpt>
      <trkpt lat="47.55799" lon="-2.27705">
        <ele>-38.200000762939</ele>
        <time>2020-05-24T09:38:42.000Z</time>
      </trkpt>
      <trkpt lat="47.55801" lon="-2.27693">
        <ele>-38.200000762939</ele>
        <time>2020-05-24T09:38:46.000Z</time>
      </trkpt>
      <trkpt lat="47.55819" lon="-2.27693">
        <ele>-43.799999237061</ele>
        <time>2020-05-24T09:39:43.000Z</time>
      </trkpt>
      <trkpt lat="47.55823" lon="-2.27692">
        <ele>-44.400001525879</ele>
        <time>2020-05-24T09:39:44.000Z</time>
      </trkpt>
      <trkpt lat="47.55826" lon="-2.2769">
        <ele>-44.799999237061</ele>
        <time>2020-05-24T09:39:45.000Z</time>
      </trkpt>
      <trkpt lat="47.55828" lon="-2.27688">
        <ele>-45.400001525879</ele>
        <time>2020-05-24T09:39:46.000Z</time>
      </trkpt>
      <trkpt lat="47.55831" lon="-2.27687">
        <ele>-45.799999237061</ele>
        <time>2020-05-24T09:39:47.000Z</time>
      </trkpt>
      <trkpt lat="47.55834" lon="-2.27688">
        <ele>-46.400001525879</ele>
        <time>2020-05-24T09:39:48.000Z</time>
      </trkpt>
      <trkpt lat="47.55836" lon="-2.27691">
        <ele>-47</ele>
        <time>2020-05-24T09:39:49.000Z</time>
      </trkpt>
      <trkpt lat="47.55838" lon="-2.27699">
        <ele>-47.400001525879</ele>
        <time>2020-05-24T09:39:51.000Z</time>
      </trkpt>
      <trkpt lat="47.55837" lon="-2.27705">
        <ele>-47.799999237061</ele>
        <time>2020-05-24T09:39:52.000Z</time>
      </trkpt>
      <trkpt lat="47.55836" lon="-2.2771">
        <ele>-48.200000762939</ele>
        <time>2020-05-24T09:39:53.000Z</time>
      </trkpt>
      <trkpt lat="47.55835" lon="-2.27715">
        <ele>-48.599998474121</ele>
        <time>2020-05-24T09:39:54.000Z</time>
      </trkpt>
      <trkpt lat="47.55835" lon="-2.27719">
        <ele>-49</ele>
        <time>2020-05-24T09:39:55.000Z</time>
      </trkpt>
      <trkpt lat="47.55837" lon="-2.27733">
        <ele>-49</ele>
        <time>2020-05-24T09:39:58.000Z</time>
      </trkpt>
      <trkpt lat="47.55838" lon="-2.27739">
        <ele>-49</ele>
        <time>2020-05-24T09:40:00.000Z</time>
      </trkpt>
      <trkpt lat="47.55845" lon="-2.27744">
        <ele>-49.400001525879</ele>
        <time>2020-05-24T09:40:04.000Z</time>
      </trkpt>
      <trkpt lat="47.55847" lon="-2.27742">
        <ele>-49.799999237061</ele>
        <time>2020-05-24T09:40:05.000Z</time>
      </trkpt>
      <trkpt lat="47.55849" lon="-2.2774">
        <ele>-50.200000762939</ele>
        <time>2020-05-24T09:40:06.000Z</time>
      </trkpt>
      <trkpt lat="47.5585" lon="-2.27738">
        <ele>-51.200000762939</ele>
        <time>2020-05-24T09:40:07.000Z</time>
      </trkpt>
      <trkpt lat="47.55858" lon="-2.27732">
        <ele>-51.200000762939</ele>
        <time>2020-05-24T09:40:12.000Z</time>
      </trkpt>
      <trkpt lat="47.55858" lon="-2.27732">
        <ele>-50.799999237061</ele>
        <time>2020-05-24T09:40:13.000Z</time>
      </trkpt>
      <trkpt lat="47.55859" lon="-2.27732">
        <ele>-50.400001525879</ele>
        <time>2020-05-24T09:40:14.000Z</time>
      </trkpt>
      <trkpt lat="47.5586" lon="-2.27731">
        <ele>-49.799999237061</ele>
        <time>2020-05-24T09:40:15.000Z</time>
      </trkpt>
      <trkpt lat="47.55861" lon="-2.2773">
        <ele>-49.400001525879</ele>
        <time>2020-05-24T09:40:16.000Z</time>
      </trkpt>
      <trkpt lat="47.55862" lon="-2.2773">
        <ele>-49</ele>
        <time>2020-05-24T09:40:17.000Z</time>
      </trkpt>
      <trkpt lat="47.55862" lon="-2.2773">
        <ele>-49</ele>
        <time>2020-05-24T09:40:18.000Z</time>
      </trkpt>
      <trkpt lat="47.55889" lon="-2.27715">
        <ele>-41.799999237061</ele>
        <time>2020-05-24T09:41:03.000Z</time>
      </trkpt>
      <trkpt lat="47.5589" lon="-2.27714">
        <ele>-41.400001525879</ele>
        <time>2020-05-24T09:41:04.000Z</time>
      </trkpt>
      <trkpt lat="47.55892" lon="-2.27714">
        <ele>-41</ele>
        <time>2020-05-24T09:41:05.000Z</time>
      </trkpt>
      <trkpt lat="47.55894" lon="-2.27713">
        <ele>-40.599998474121</ele>
        <time>2020-05-24T09:41:06.000Z</time>
      </trkpt>
      <trkpt lat="47.55901" lon="-2.27707">
        <ele>-40.599998474121</ele>
        <time>2020-05-24T09:41:11.000Z</time>
      </trkpt>
      <trkpt lat="47.55914" lon="-2.27699">
        <ele>-40.599998474121</ele>
        <time>2020-05-24T09:41:18.000Z</time>
      </trkpt>
      <trkpt lat="47.55916" lon="-2.27698">
        <ele>-40.200000762939</ele>
        <time>2020-05-24T09:41:19.000Z</time>
      </trkpt>
      <trkpt lat="47.55919" lon="-2.27697">
        <ele>-39.799999237061</ele>
        <time>2020-05-24T09:41:20.000Z</time>
      </trkpt>
      <trkpt lat="47.5592" lon="-2.27695">
        <ele>-39.400001525879</ele>
        <time>2020-05-24T09:41:21.000Z</time>
      </trkpt>
      <trkpt lat="47.55922" lon="-2.27694">
        <ele>-38.599998474121</ele>
        <time>2020-05-24T09:41:22.000Z</time>
      </trkpt>
      <trkpt lat="47.55928" lon="-2.2769">
        <ele>-38.599998474121</ele>
        <time>2020-05-24T09:41:25.000Z</time>
      </trkpt>
      <trkpt lat="47.55936" lon="-2.27682">
        <ele>-38.599998474121</ele>
        <time>2020-05-24T09:41:31.000Z</time>
      </trkpt>
      <trkpt lat="47.55941" lon="-2.27681">
        <ele>-38.200000762939</ele>
        <time>2020-05-24T09:41:33.000Z</time>
      </trkpt>
      <trkpt lat="47.55943" lon="-2.27681">
        <ele>-37.799999237061</ele>
        <time>2020-05-24T09:41:34.000Z</time>
      </trkpt>
      <trkpt lat="47.55945" lon="-2.2768">
        <ele>-37.400001525879</ele>
        <time>2020-05-24T09:41:35.000Z</time>
      </trkpt>
      <trkpt lat="47.55947" lon="-2.27679">
        <ele>-37</ele>
        <time>2020-05-24T09:41:36.000Z</time>
      </trkpt>
      <trkpt lat="47.55949" lon="-2.27677">
        <ele>-36.599998474121</ele>
        <time>2020-05-24T09:41:37.000Z</time>
      </trkpt>
      <trkpt lat="47.55964" lon="-2.27666">
        <ele>-36.200000762939</ele>
        <time>2020-05-24T09:41:44.000Z</time>
      </trkpt>
      <trkpt lat="47.55966" lon="-2.27665">
        <ele>-35.799999237061</ele>
        <time>2020-05-24T09:41:45.000Z</time>
      </trkpt>
      <trkpt lat="47.55967" lon="-2.27664">
        <ele>-35.400001525879</ele>
        <time>2020-05-24T09:41:46.000Z</time>
      </trkpt>
      <trkpt lat="47.55969" lon="-2.27662">
        <ele>-34.599998474121</ele>
        <time>2020-05-24T09:41:47.000Z</time>
      </trkpt>
      <trkpt lat="47.55976" lon="-2.27657">
        <ele>-34.599998474121</ele>
        <time>2020-05-24T09:41:51.000Z</time>
      </trkpt>
      <trkpt lat="47.5598" lon="-2.27655">
        <ele>-34.200000762939</ele>
        <time>2020-05-24T09:41:53.000Z</time>
      </trkpt>
      <trkpt lat="47.55982" lon="-2.27655">
        <ele>-33.799999237061</ele>
        <time>2020-05-24T09:41:54.000Z</time>
      </trkpt>
      <trkpt lat="47.55984" lon="-2.27654">
        <ele>-33.200000762939</ele>
        <time>2020-05-24T09:41:55.000Z</time>
      </trkpt>
      <trkpt lat="47.55985" lon="-2.27652">
        <ele>-32.799999237061</ele>
        <time>2020-05-24T09:41:56.000Z</time>
      </trkpt>
      <trkpt lat="47.55987" lon="-2.27651">
        <ele>-32.400001525879</ele>
        <time>2020-05-24T09:41:57.000Z</time>
      </trkpt>
      <trkpt lat="47.55991" lon="-2.27648">
        <ele>-32.400001525879</ele>
        <time>2020-05-24T09:41:59.000Z</time>
      </trkpt>
      <trkpt lat="47.55996" lon="-2.27646">
        <ele>-32.400001525879</ele>
        <time>2020-05-24T09:42:02.000Z</time>
      </trkpt>
      <trkpt lat="47.56" lon="-2.27647">
        <ele>-32.400001525879</ele>
        <time>2020-05-24T09:42:05.000Z</time>
      </trkpt>
      <trkpt lat="47.56009" lon="-2.27648">
        <ele>-32.400001525879</ele>
        <time>2020-05-24T09:42:11.000Z</time>
      </trkpt>
      <trkpt lat="47.56017" lon="-2.27647">
        <ele>-32.400001525879</ele>
        <time>2020-05-24T09:42:15.000Z</time>
      </trkpt>
      <trkpt lat="47.56022" lon="-2.27651">
        <ele>-32.400001525879</ele>
        <time>2020-05-24T09:42:17.000Z</time>
      </trkpt>
      <trkpt lat="47.56035" lon="-2.27655">
        <ele>-32.400001525879</ele>
        <time>2020-05-24T09:42:21.000Z</time>
      </trkpt>
      <trkpt lat="47.56039" lon="-2.27655">
        <ele>-32.400001525879</ele>
        <time>2020-05-24T09:42:22.000Z</time>
      </trkpt>
      <trkpt lat="47.56059" lon="-2.27664">
        <ele>-32.400001525879</ele>
        <time>2020-05-24T09:42:28.000Z</time>
      </trkpt>
      <trkpt lat="47.56073" lon="-2.27667">
        <ele>-32.400001525879</ele>
        <time>2020-05-24T09:42:33.000Z</time>
      </trkpt>
      <trkpt lat="47.56082" lon="-2.27669">
        <ele>-32.799999237061</ele>
        <time>2020-05-24T09:42:36.000Z</time>
      </trkpt>
      <trkpt lat="47.56085" lon="-2.2767">
        <ele>-33.400001525879</ele>
        <time>2020-05-24T09:42:37.000Z</time>
      </trkpt>
      <trkpt lat="47.56089" lon="-2.27672">
        <ele>-33.799999237061</ele>
        <time>2020-05-24T09:42:38.000Z</time>
      </trkpt>
      <trkpt lat="47.56091" lon="-2.27674">
        <ele>-34.200000762939</ele>
        <time>2020-05-24T09:42:39.000Z</time>
      </trkpt>
      <trkpt lat="47.56093" lon="-2.27677">
        <ele>-34.599998474121</ele>
        <time>2020-05-24T09:42:40.000Z</time>
      </trkpt>
      <trkpt lat="47.56098" lon="-2.2768">
        <ele>-34.599998474121</ele>
        <time>2020-05-24T09:42:42.000Z</time>
      </trkpt>
      <trkpt lat="47.56103" lon="-2.27681">
        <ele>-35</ele>
        <time>2020-05-24T09:42:44.000Z</time>
      </trkpt>
      <trkpt lat="47.56106" lon="-2.27683">
        <ele>-35.400001525879</ele>
        <time>2020-05-24T09:42:45.000Z</time>
      </trkpt>
      <trkpt lat="47.56109" lon="-2.27686">
        <ele>-35.799999237061</ele>
        <time>2020-05-24T09:42:46.000Z</time>
      </trkpt>
      <trkpt lat="47.56112" lon="-2.27688">
        <ele>-36.200000762939</ele>
        <time>2020-05-24T09:42:47.000Z</time>
      </trkpt>
      <trkpt lat="47.56115" lon="-2.2769">
        <ele>-36.599998474121</ele>
        <time>2020-05-24T09:42:48.000Z</time>
      </trkpt>
      <trkpt lat="47.5612" lon="-2.27694">
        <ele>-37.200000762939</ele>
        <time>2020-05-24T09:42:50.000Z</time>
      </trkpt>
      <trkpt lat="47.56122" lon="-2.27697">
        <ele>-37.599998474121</ele>
        <time>2020-05-24T09:42:51.000Z</time>
      </trkpt>
      <trkpt lat="47.56124" lon="-2.27699">
        <ele>-38</ele>
        <time>2020-05-24T09:42:52.000Z</time>
      </trkpt>
      <trkpt lat="47.56127" lon="-2.27702">
        <ele>-38.400001525879</ele>
        <time>2020-05-24T09:42:53.000Z</time>
      </trkpt>
      <trkpt lat="47.56129" lon="-2.27704">
        <ele>-38.799999237061</ele>
        <time>2020-05-24T09:42:54.000Z</time>
      </trkpt>
      <trkpt lat="47.56135" lon="-2.27708">
        <ele>-39.400001525879</ele>
        <time>2020-05-24T09:42:57.000Z</time>
      </trkpt>
      <trkpt lat="47.56137" lon="-2.27707">
        <ele>-39.799999237061</ele>
        <time>2020-05-24T09:42:58.000Z</time>
      </trkpt>
      <trkpt lat="47.5614" lon="-2.27706">
        <ele>-40.200000762939</ele>
        <time>2020-05-24T09:42:59.000Z</time>
      </trkpt>
      <trkpt lat="47.56142" lon="-2.27704">
        <ele>-40.599998474121</ele>
        <time>2020-05-24T09:43:00.000Z</time>
      </trkpt>
      <trkpt lat="47.56144" lon="-2.27701">
        <ele>-41.799999237061</ele>
        <time>2020-05-24T09:43:01.000Z</time>
      </trkpt>
      <trkpt lat="47.56146" lon="-2.27699">
        <ele>-42.400001525879</ele>
        <time>2020-05-24T09:43:02.000Z</time>
      </trkpt>
      <trkpt lat="47.56148" lon="-2.27696">
        <ele>-43</ele>
        <time>2020-05-24T09:43:03.000Z</time>
      </trkpt>
      <trkpt lat="47.56149" lon="-2.27695">
        <ele>-43.799999237061</ele>
        <time>2020-05-24T09:43:04.000Z</time>
      </trkpt>
      <trkpt lat="47.56151" lon="-2.27694">
        <ele>-44.400001525879</ele>
        <time>2020-05-24T09:43:05.000Z</time>
      </trkpt>
      <trkpt lat="47.56153" lon="-2.27695">
        <ele>-45.200000762939</ele>
        <time>2020-05-24T09:43:06.000Z</time>
      </trkpt>
      <trkpt lat="47.56155" lon="-2.27696">
        <ele>-45.799999237061</ele>
        <time>2020-05-24T09:43:07.000Z</time>
      </trkpt>
      <trkpt lat="47.56156" lon="-2.27697">
        <ele>-46.400001525879</ele>
        <time>2020-05-24T09:43:08.000Z</time>
      </trkpt>
      <trkpt lat="47.56158" lon="-2.27701">
        <ele>-46.799999237061</ele>
        <time>2020-05-24T09:43:09.000Z</time>
      </trkpt>
      <trkpt lat="47.5616" lon="-2.27704">
        <ele>-47.400001525879</ele>
        <time>2020-05-24T09:43:10.000Z</time>
      </trkpt>
      <trkpt lat="47.56162" lon="-2.27706">
        <ele>-47.799999237061</ele>
        <time>2020-05-24T09:43:11.000Z</time>
      </trkpt>
      <trkpt lat="47.56163" lon="-2.2771">
        <ele>-48.400001525879</ele>
        <time>2020-05-24T09:43:12.000Z</time>
      </trkpt>
      <trkpt lat="47.56164" lon="-2.27713">
        <ele>-48.799999237061</ele>
        <time>2020-05-24T09:43:13.000Z</time>
      </trkpt>
      <trkpt lat="47.56166" lon="-2.27716">
        <ele>-49.200000762939</ele>
        <time>2020-05-24T09:43:14.000Z</time>
      </trkpt>
      <trkpt lat="47.56169" lon="-2.27718">
        <ele>-49.599998474121</ele>
        <time>2020-05-24T09:43:15.000Z</time>
      </trkpt>
      <trkpt lat="47.56173" lon="-2.2772">
        <ele>-50</ele>
        <time>2020-05-24T09:43:16.000Z</time>
      </trkpt>
      <trkpt lat="47.56176" lon="-2.27721">
        <ele>-50.400001525879</ele>
        <time>2020-05-24T09:43:17.000Z</time>
      </trkpt>
      <trkpt lat="47.56182" lon="-2.2772">
        <ele>-50.799999237061</ele>
        <time>2020-05-24T09:43:19.000Z</time>
      </trkpt>
      <trkpt lat="47.56184" lon="-2.27719">
        <ele>-51.400001525879</ele>
        <time>2020-05-24T09:43:20.000Z</time>
      </trkpt>
      <trkpt lat="47.56185" lon="-2.27717">
        <ele>-51.799999237061</ele>
        <time>2020-05-24T09:43:21.000Z</time>
      </trkpt>
      <trkpt lat="47.56185" lon="-2.27715">
        <ele>-52.200000762939</ele>
        <time>2020-05-24T09:43:22.000Z</time>
      </trkpt>
      <trkpt lat="47.56186" lon="-2.27712">
        <ele>-52.799999237061</ele>
        <time>2020-05-24T09:43:23.000Z</time>
      </trkpt>
      <trkpt lat="47.56186" lon="-2.27701">
        <ele>-52.799999237061</ele>
        <time>2020-05-24T09:43:26.000Z</time>
      </trkpt>
      <trkpt lat="47.56186" lon="-2.27695">
        <ele>-52.400001525879</ele>
        <time>2020-05-24T09:43:28.000Z</time>
      </trkpt>
      <trkpt lat="47.56186" lon="-2.27691">
        <ele>-51.799999237061</ele>
        <time>2020-05-24T09:43:29.000Z</time>
      </trkpt>
      <trkpt lat="47.56186" lon="-2.27688">
        <ele>-51.400001525879</ele>
        <time>2020-05-24T09:43:30.000Z</time>
      </trkpt>
      <trkpt lat="47.56186" lon="-2.27685">
        <ele>-51</ele>
        <time>2020-05-24T09:43:31.000Z</time>
      </trkpt>
      <trkpt lat="47.56186" lon="-2.27682">
        <ele>-50.599998474121</ele>
        <time>2020-05-24T09:43:32.000Z</time>
      </trkpt>
      <trkpt lat="47.5619" lon="-2.27672">
        <ele>-50</ele>
        <time>2020-05-24T09:43:36.000Z</time>
      </trkpt>
      <trkpt lat="47.5619" lon="-2.2767">
        <ele>-49.599998474121</ele>
        <time>2020-05-24T09:43:37.000Z</time>
      </trkpt>
      <trkpt lat="47.56191" lon="-2.27668">
        <ele>-49.200000762939</ele>
        <time>2020-05-24T09:43:38.000Z</time>
      </trkpt>
      <trkpt lat="47.56192" lon="-2.27665">
        <ele>-48.799999237061</ele>
        <time>2020-05-24T09:43:39.000Z</time>
      </trkpt>
      <trkpt lat="47.56193" lon="-2.27663">
        <ele>-48.400001525879</ele>
        <time>2020-05-24T09:43:40.000Z</time>
      </trkpt>
      <trkpt lat="47.56194" lon="-2.27651">
        <ele>-48.400001525879</ele>
        <time>2020-05-24T09:43:44.000Z</time>
      </trkpt>
      <trkpt lat="47.56197" lon="-2.27628">
        <ele>-47.599998474121</ele>
        <time>2020-05-24T09:43:50.000Z</time>
      </trkpt>
      <trkpt lat="47.56198" lon="-2.27624">
        <ele>-47.200000762939</ele>
        <time>2020-05-24T09:43:51.000Z</time>
      </trkpt>
      <trkpt lat="47.56198" lon="-2.2762">
        <ele>-46.799999237061</ele>
        <time>2020-05-24T09:43:52.000Z</time>
      </trkpt>
      <trkpt lat="47.56198" lon="-2.27616">
        <ele>-46.400001525879</ele>
        <time>2020-05-24T09:43:53.000Z</time>
      </trkpt>
      <trkpt lat="47.56201" lon="-2.27598">
        <ele>-46.400001525879</ele>
        <time>2020-05-24T09:43:58.000Z</time>
      </trkpt>
      <trkpt lat="47.56202" lon="-2.27593">
        <ele>-46.400001525879</ele>
        <time>2020-05-24T09:44:02.000Z</time>
      </trkpt>
      <trkpt lat="47.56205" lon="-2.2757">
        <ele>-46</ele>
        <time>2020-05-24T09:44:14.000Z</time>
      </trkpt>
      <trkpt lat="47.56206" lon="-2.27567">
        <ele>-45</ele>
        <time>2020-05-24T09:44:15.000Z</time>
      </trkpt>
      <trkpt lat="47.56207" lon="-2.27566">
        <ele>-44.599998474121</ele>
        <time>2020-05-24T09:44:16.000Z</time>
      </trkpt>
      <trkpt lat="47.56208" lon="-2.27564">
        <ele>-44.200000762939</ele>
        <time>2020-05-24T09:44:17.000Z</time>
      </trkpt>
      <trkpt lat="47.56209" lon="-2.27561">
        <ele>-43.799999237061</ele>
        <time>2020-05-24T09:44:18.000Z</time>
      </trkpt>
      <trkpt lat="47.56209" lon="-2.2756">
        <ele>-43.400001525879</ele>
        <time>2020-05-24T09:44:19.000Z</time>
      </trkpt>
      <trkpt lat="47.5621" lon="-2.27559">
        <ele>-42.799999237061</ele>
        <time>2020-05-24T09:44:20.000Z</time>
      </trkpt>
      <trkpt lat="47.56212" lon="-2.27557">
        <ele>-42.400001525879</ele>
        <time>2020-05-24T09:44:21.000Z</time>
      </trkpt>
      <trkpt lat="47.56213" lon="-2.27557">
        <ele>-42</ele>
        <time>2020-05-24T09:44:22.000Z</time>
      </trkpt>
      <trkpt lat="47.56219" lon="-2.27558">
        <ele>-41.599998474121</ele>
        <time>2020-05-24T09:44:26.000Z</time>
      </trkpt>
      <trkpt lat="47.5622" lon="-2.27557">
        <ele>-41.200000762939</ele>
        <time>2020-05-24T09:44:27.000Z</time>
      </trkpt>
      <trkpt lat="47.56221" lon="-2.27557">
        <ele>-40.599998474121</ele>
        <time>2020-05-24T09:44:28.000Z</time>
      </trkpt>
      <trkpt lat="47.56221" lon="-2.27556">
        <ele>-40.200000762939</ele>
        <time>2020-05-24T09:44:29.000Z</time>
      </trkpt>
      <trkpt lat="47.56222" lon="-2.27556">
        <ele>-39.799999237061</ele>
        <time>2020-05-24T09:44:30.000Z</time>
      </trkpt>
      <trkpt lat="47.5623" lon="-2.27554">
        <ele>-39.400001525879</ele>
        <time>2020-05-24T09:44:36.000Z</time>
      </trkpt>
      <trkpt lat="47.56231" lon="-2.27575">
        <ele>-37.799999237061</ele>
        <time>2020-05-24T09:44:48.000Z</time>
      </trkpt>
      <trkpt lat="47.56226" lon="-2.27586">
        <ele>-37.799999237061</ele>
        <time>2020-05-24T09:44:52.000Z</time>
      </trkpt>
      <trkpt lat="47.56229" lon="-2.27592">
        <ele>-37.799999237061</ele>
        <time>2020-05-24T09:44:54.000Z</time>
      </trkpt>
      <trkpt lat="47.56236" lon="-2.27597">
        <ele>-37.799999237061</ele>
        <time>2020-05-24T09:44:58.000Z</time>
      </trkpt>
      <trkpt lat="47.56237" lon="-2.27598">
        <ele>-37.799999237061</ele>
        <time>2020-05-24T09:44:59.000Z</time>
      </trkpt>
      <trkpt lat="47.56238" lon="-2.27609">
        <ele>-37.799999237061</ele>
        <time>2020-05-24T09:45:03.000Z</time>
      </trkpt>
      <trkpt lat="47.56238" lon="-2.27618">
        <ele>-37.799999237061</ele>
        <time>2020-05-24T09:45:06.000Z</time>
      </trkpt>
      <trkpt lat="47.56236" lon="-2.27621">
        <ele>-37.799999237061</ele>
        <time>2020-05-24T09:45:08.000Z</time>
      </trkpt>
      <trkpt lat="47.56229" lon="-2.27628">
        <ele>-38.200000762939</ele>
        <time>2020-05-24T09:45:13.000Z</time>
      </trkpt>
      <trkpt lat="47.56227" lon="-2.27629">
        <ele>-38.599998474121</ele>
        <time>2020-05-24T09:45:14.000Z</time>
      </trkpt>
      <trkpt lat="47.56226" lon="-2.27632">
        <ele>-39</ele>
        <time>2020-05-24T09:45:15.000Z</time>
      </trkpt>
      <trkpt lat="47.56225" lon="-2.27637">
        <ele>-39.400001525879</ele>
        <time>2020-05-24T09:45:16.000Z</time>
      </trkpt>
      <trkpt lat="47.56224" lon="-2.27641">
        <ele>-40</ele>
        <time>2020-05-24T09:45:17.000Z</time>
      </trkpt>
      <trkpt lat="47.56224" lon="-2.27645">
        <ele>-40</ele>
        <time>2020-05-24T09:45:18.000Z</time>
      </trkpt>
      <trkpt lat="47.56225" lon="-2.27649">
        <ele>-40</ele>
        <time>2020-05-24T09:45:19.000Z</time>
      </trkpt>
      <trkpt lat="47.56222" lon="-2.27665">
        <ele>-40</ele>
        <time>2020-05-24T09:45:24.000Z</time>
      </trkpt>
      <trkpt lat="47.5622" lon="-2.27668">
        <ele>-40.400001525879</ele>
        <time>2020-05-24T09:45:25.000Z</time>
      </trkpt>
      <trkpt lat="47.5622" lon="-2.2767">
        <ele>-40.799999237061</ele>
        <time>2020-05-24T09:45:26.000Z</time>
      </trkpt>
      <trkpt lat="47.5622" lon="-2.27671">
        <ele>-41.200000762939</ele>
        <time>2020-05-24T09:45:27.000Z</time>
      </trkpt>
      <trkpt lat="47.56221" lon="-2.27673">
        <ele>-41.599998474121</ele>
        <time>2020-05-24T09:45:28.000Z</time>
      </trkpt>
      <trkpt lat="47.56221" lon="-2.27675">
        <ele>-42</ele>
        <time>2020-05-24T09:45:29.000Z</time>
      </trkpt>
      <trkpt lat="47.5623" lon="-2.27682">
        <ele>-42</ele>
        <time>2020-05-24T09:45:33.000Z</time>
      </trkpt>
      <trkpt lat="47.56233" lon="-2.27683">
        <ele>-42</ele>
        <time>2020-05-24T09:45:36.000Z</time>
      </trkpt>
      <trkpt lat="47.56234" lon="-2.27683">
        <ele>-42</ele>
        <time>2020-05-24T09:45:37.000Z</time>
      </trkpt>
      <trkpt lat="47.56242" lon="-2.27682">
        <ele>-42</ele>
        <time>2020-05-24T09:45:42.000Z</time>
      </trkpt>
      <trkpt lat="47.56248" lon="-2.27681">
        <ele>-41.599998474121</ele>
        <time>2020-05-24T09:45:45.000Z</time>
      </trkpt>
      <trkpt lat="47.56249" lon="-2.27682">
        <ele>-41.200000762939</ele>
        <time>2020-05-24T09:45:46.000Z</time>
      </trkpt>
      <trkpt lat="47.56251" lon="-2.27682">
        <ele>-40.799999237061</ele>
        <time>2020-05-24T09:45:47.000Z</time>
      </trkpt>
      <trkpt lat="47.56252" lon="-2.27683">
        <ele>-40.400001525879</ele>
        <time>2020-05-24T09:45:48.000Z</time>
      </trkpt>
      <trkpt lat="47.56254" lon="-2.27683">
        <ele>-40</ele>
        <time>2020-05-24T09:45:49.000Z</time>
      </trkpt>
      <trkpt lat="47.56266" lon="-2.27685">
        <ele>-40</ele>
        <time>2020-05-24T09:45:54.000Z</time>
      </trkpt>
      <trkpt lat="47.56282" lon="-2.27685">
        <ele>-40</ele>
        <time>2020-05-24T09:46:01.000Z</time>
      </trkpt>
      <trkpt lat="47.56295" lon="-2.27684">
        <ele>-40</ele>
        <time>2020-05-24T09:46:06.000Z</time>
      </trkpt>
      <trkpt lat="47.56302" lon="-2.27684">
        <ele>-39.599998474121</ele>
        <time>2020-05-24T09:46:08.000Z</time>
      </trkpt>
      <trkpt lat="47.56305" lon="-2.27684">
        <ele>-39.200000762939</ele>
        <time>2020-05-24T09:46:09.000Z</time>
      </trkpt>
      <trkpt lat="47.56308" lon="-2.27685">
        <ele>-38.599998474121</ele>
        <time>2020-05-24T09:46:10.000Z</time>
      </trkpt>
      <trkpt lat="47.5631" lon="-2.27685">
        <ele>-38.200000762939</ele>
        <time>2020-05-24T09:46:11.000Z</time>
      </trkpt>
      <trkpt lat="47.56313" lon="-2.27686">
        <ele>-37.799999237061</ele>
        <time>2020-05-24T09:46:12.000Z</time>
      </trkpt>
      <trkpt lat="47.56333" lon="-2.2769">
        <ele>-37.799999237061</ele>
        <time>2020-05-24T09:46:18.000Z</time>
      </trkpt>
      <trkpt lat="47.56354" lon="-2.27688">
        <ele>-37.799999237061</ele>
        <time>2020-05-24T09:46:24.000Z</time>
      </trkpt>
      <trkpt lat="47.56372" lon="-2.27685">
        <ele>-37.799999237061</ele>
        <time>2020-05-24T09:46:30.000Z</time>
      </trkpt>
      <trkpt lat="47.56382" lon="-2.27686">
        <ele>-37.400001525879</ele>
        <time>2020-05-24T09:46:33.000Z</time>
      </trkpt>
      <trkpt lat="47.56385" lon="-2.27687">
        <ele>-37</ele>
        <time>2020-05-24T09:46:34.000Z</time>
      </trkpt>
      <trkpt lat="47.56388" lon="-2.27686">
        <ele>-36.599998474121</ele>
        <time>2020-05-24T09:46:35.000Z</time>
      </trkpt>
      <trkpt lat="47.56391" lon="-2.27686">
        <ele>-36.200000762939</ele>
        <time>2020-05-24T09:46:36.000Z</time>
      </trkpt>
      <trkpt lat="47.56394" lon="-2.27685">
        <ele>-35.799999237061</ele>
        <time>2020-05-24T09:46:37.000Z</time>
      </trkpt>
      <trkpt lat="47.56403" lon="-2.2768">
        <ele>-35.799999237061</ele>
        <time>2020-05-24T09:46:40.000Z</time>
      </trkpt>
      <trkpt lat="47.56411" lon="-2.27661">
        <ele>-35.400001525879</ele>
        <time>2020-05-24T09:46:45.000Z</time>
      </trkpt>
      <trkpt lat="47.56412" lon="-2.27658">
        <ele>-35</ele>
        <time>2020-05-24T09:46:46.000Z</time>
      </trkpt>
      <trkpt lat="47.56412" lon="-2.27655">
        <ele>-34.400001525879</ele>
        <time>2020-05-24T09:46:47.000Z</time>
      </trkpt>
      <trkpt lat="47.56413" lon="-2.27652">
        <ele>-34</ele>
        <time>2020-05-24T09:46:48.000Z</time>
      </trkpt>
      <trkpt lat="47.56414" lon="-2.27648">
        <ele>-33.599998474121</ele>
        <time>2020-05-24T09:46:49.000Z</time>
      </trkpt>
      <trkpt lat="47.56415" lon="-2.27642">
        <ele>-33.599998474121</ele>
        <time>2020-05-24T09:46:51.000Z</time>
      </trkpt>
      <trkpt lat="47.56416" lon="-2.27638">
        <ele>-33.200000762939</ele>
        <time>2020-05-24T09:46:52.000Z</time>
      </trkpt>
      <trkpt lat="47.56417" lon="-2.27634">
        <ele>-32.599998474121</ele>
        <time>2020-05-24T09:46:53.000Z</time>
      </trkpt>
      <trkpt lat="47.56419" lon="-2.2763">
        <ele>-32.200000762939</ele>
        <time>2020-05-24T09:46:54.000Z</time>
      </trkpt>
      <trkpt lat="47.5642" lon="-2.27627">
        <ele>-31.799999237061</ele>
        <time>2020-05-24T09:46:55.000Z</time>
      </trkpt>
      <trkpt lat="47.56422" lon="-2.27623">
        <ele>-31.39999961853</ele>
        <time>2020-05-24T09:46:56.000Z</time>
      </trkpt>
      <trkpt lat="47.56423" lon="-2.27619">
        <ele>-31.39999961853</ele>
        <time>2020-05-24T09:46:57.000Z</time>
      </trkpt>
      <trkpt lat="47.56427" lon="-2.27607">
        <ele>-31</ele>
        <time>2020-05-24T09:47:00.000Z</time>
      </trkpt>
      <trkpt lat="47.56428" lon="-2.27603">
        <ele>-30.60000038147</ele>
        <time>2020-05-24T09:47:01.000Z</time>
      </trkpt>
      <trkpt lat="47.56428" lon="-2.276">
        <ele>-30.200000762939</ele>
        <time>2020-05-24T09:47:02.000Z</time>
      </trkpt>
      <trkpt lat="47.56429" lon="-2.27596">
        <ele>-29.799999237061</ele>
        <time>2020-05-24T09:47:03.000Z</time>
      </trkpt>
      <trkpt lat="47.56428" lon="-2.27592">
        <ele>-29.39999961853</ele>
        <time>2020-05-24T09:47:04.000Z</time>
      </trkpt>
      <trkpt lat="47.56428" lon="-2.27585">
        <ele>-28.799999237061</ele>
        <time>2020-05-24T09:47:06.000Z</time>
      </trkpt>
      <trkpt lat="47.56428" lon="-2.27581">
        <ele>-28.39999961853</ele>
        <time>2020-05-24T09:47:07.000Z</time>
      </trkpt>
      <trkpt lat="47.56428" lon="-2.27578">
        <ele>-27.60000038147</ele>
        <time>2020-05-24T09:47:08.000Z</time>
      </trkpt>
      <trkpt lat="47.56428" lon="-2.27574">
        <ele>-27.200000762939</ele>
        <time>2020-05-24T09:47:09.000Z</time>
      </trkpt>
      <trkpt lat="47.5643" lon="-2.27565">
        <ele>-26.799999237061</ele>
        <time>2020-05-24T09:47:12.000Z</time>
      </trkpt>
      <trkpt lat="47.56429" lon="-2.27562">
        <ele>-26.39999961853</ele>
        <time>2020-05-24T09:47:13.000Z</time>
      </trkpt>
      <trkpt lat="47.56429" lon="-2.27558">
        <ele>-26</ele>
        <time>2020-05-24T09:47:14.000Z</time>
      </trkpt>
      <trkpt lat="47.56429" lon="-2.27554">
        <ele>-25.60000038147</ele>
        <time>2020-05-24T09:47:15.000Z</time>
      </trkpt>
      <trkpt lat="47.56429" lon="-2.2755">
        <ele>-25.200000762939</ele>
        <time>2020-05-24T09:47:16.000Z</time>
      </trkpt>
      <trkpt lat="47.56431" lon="-2.27533">
        <ele>-25.200000762939</ele>
        <time>2020-05-24T09:47:21.000Z</time>
      </trkpt>
      <trkpt lat="47.56431" lon="-2.27529">
        <ele>-24.799999237061</ele>
        <time>2020-05-24T09:47:23.000Z</time>
      </trkpt>
      <trkpt lat="47.5643" lon="-2.27526">
        <ele>-24.39999961853</ele>
        <time>2020-05-24T09:47:24.000Z</time>
      </trkpt>
      <trkpt lat="47.5643" lon="-2.27524">
        <ele>-24</ele>
        <time>2020-05-24T09:47:25.000Z</time>
      </trkpt>
      <trkpt lat="47.5643" lon="-2.27522">
        <ele>-23.60000038147</ele>
        <time>2020-05-24T09:47:26.000Z</time>
      </trkpt>
      <trkpt lat="47.5643" lon="-2.2752">
        <ele>-23.200000762939</ele>
        <time>2020-05-24T09:47:27.000Z</time>
      </trkpt>
      <trkpt lat="47.5643" lon="-2.27518">
        <ele>-23.200000762939</ele>
        <time>2020-05-24T09:47:28.000Z</time>
      </trkpt>
      <trkpt lat="47.5643" lon="-2.27503">
        <ele>-23.200000762939</ele>
        <time>2020-05-24T09:47:34.000Z</time>
      </trkpt>
      <trkpt lat="47.56425" lon="-2.27488">
        <ele>-22.799999237061</ele>
        <time>2020-05-24T09:47:40.000Z</time>
      </trkpt>
      <trkpt lat="47.56424" lon="-2.27487">
        <ele>-22.39999961853</ele>
        <time>2020-05-24T09:47:41.000Z</time>
      </trkpt>
      <trkpt lat="47.56422" lon="-2.27486">
        <ele>-22</ele>
        <time>2020-05-24T09:47:42.000Z</time>
      </trkpt>
      <trkpt lat="47.5642" lon="-2.27485">
        <ele>-21.60000038147</ele>
        <time>2020-05-24T09:47:43.000Z</time>
      </trkpt>
      <trkpt lat="47.56417" lon="-2.27484">
        <ele>-21.200000762939</ele>
        <time>2020-05-24T09:47:44.000Z</time>
      </trkpt>
      <trkpt lat="47.56414" lon="-2.27483">
        <ele>-21.200000762939</ele>
        <time>2020-05-24T09:47:45.000Z</time>
      </trkpt>
      <trkpt lat="47.56396" lon="-2.27473">
        <ele>-21.200000762939</ele>
        <time>2020-05-24T09:47:52.000Z</time>
      </trkpt>
      <trkpt lat="47.56395" lon="-2.27469">
        <ele>-21.200000762939</ele>
        <time>2020-05-24T09:47:53.000Z</time>
      </trkpt>
      <trkpt lat="47.56393" lon="-2.27455">
        <ele>-21.200000762939</ele>
        <time>2020-05-24T09:47:56.000Z</time>
      </trkpt>
      <trkpt lat="47.56393" lon="-2.2745">
        <ele>-21.200000762939</ele>
        <time>2020-05-24T09:47:57.000Z</time>
      </trkpt>
      <trkpt lat="47.56391" lon="-2.2742">
        <ele>-21.200000762939</ele>
        <time>2020-05-24T09:48:04.000Z</time>
      </trkpt>
      <trkpt lat="47.5639" lon="-2.27389">
        <ele>-21.200000762939</ele>
        <time>2020-05-24T09:48:11.000Z</time>
      </trkpt>
      <trkpt lat="47.56391" lon="-2.27343">
        <ele>-21.200000762939</ele>
        <time>2020-05-24T09:48:20.000Z</time>
      </trkpt>
      <trkpt lat="47.56391" lon="-2.27322">
        <ele>-21.200000762939</ele>
        <time>2020-05-24T09:48:26.000Z</time>
      </trkpt>
      <trkpt lat="47.56395" lon="-2.27315">
        <ele>-21.200000762939</ele>
        <time>2020-05-24T09:48:31.000Z</time>
      </trkpt>
      <trkpt lat="47.56397" lon="-2.27314">
        <ele>-21.200000762939</ele>
        <time>2020-05-24T09:48:33.000Z</time>
      </trkpt>
      <trkpt lat="47.564" lon="-2.2731">
        <ele>-21.200000762939</ele>
        <time>2020-05-24T09:48:37.000Z</time>
      </trkpt>
      <trkpt lat="47.56408" lon="-2.27307">
        <ele>-21.200000762939</ele>
        <time>2020-05-24T09:48:42.000Z</time>
      </trkpt>
      <trkpt lat="47.56411" lon="-2.27306">
        <ele>-21.200000762939</ele>
        <time>2020-05-24T09:48:44.000Z</time>
      </trkpt>
      <trkpt lat="47.56418" lon="-2.27302">
        <ele>-21.200000762939</ele>
        <time>2020-05-24T09:48:50.000Z</time>
      </trkpt>
      <trkpt lat="47.56426" lon="-2.27299">
        <ele>-21.200000762939</ele>
        <time>2020-05-24T09:48:58.000Z</time>
      </trkpt>
      <trkpt lat="47.56439" lon="-2.27296">
        <ele>-21.200000762939</ele>
        <time>2020-05-24T09:49:05.000Z</time>
      </trkpt>
      <trkpt lat="47.56459" lon="-2.27292">
        <ele>-21.200000762939</ele>
        <time>2020-05-24T09:49:12.000Z</time>
      </trkpt>
      <trkpt lat="47.56481" lon="-2.27288">
        <ele>-21.60000038147</ele>
        <time>2020-05-24T09:49:18.000Z</time>
      </trkpt>
      <trkpt lat="47.56484" lon="-2.27288">
        <ele>-22</ele>
        <time>2020-05-24T09:49:19.000Z</time>
      </trkpt>
      <trkpt lat="47.56487" lon="-2.27287">
        <ele>-22.39999961853</ele>
        <time>2020-05-24T09:49:20.000Z</time>
      </trkpt>
      <trkpt lat="47.56491" lon="-2.27286">
        <ele>-22.799999237061</ele>
        <time>2020-05-24T09:49:21.000Z</time>
      </trkpt>
      <trkpt lat="47.56494" lon="-2.27286">
        <ele>-23.200000762939</ele>
        <time>2020-05-24T09:49:22.000Z</time>
      </trkpt>
      <trkpt lat="47.56504" lon="-2.27284">
        <ele>-23.200000762939</ele>
        <time>2020-05-24T09:49:25.000Z</time>
      </trkpt>
      <trkpt lat="47.56512" lon="-2.27283">
        <ele>-23.200000762939</ele>
        <time>2020-05-24T09:49:27.000Z</time>
      </trkpt>
      <trkpt lat="47.56532" lon="-2.27279">
        <ele>-23.200000762939</ele>
        <time>2020-05-24T09:49:32.000Z</time>
      </trkpt>
      <trkpt lat="47.56541" lon="-2.27278">
        <ele>-23.60000038147</ele>
        <time>2020-05-24T09:49:34.000Z</time>
      </trkpt>
      <trkpt lat="47.56545" lon="-2.27277">
        <ele>-24</ele>
        <time>2020-05-24T09:49:35.000Z</time>
      </trkpt>
      <trkpt lat="47.56549" lon="-2.27276">
        <ele>-24.39999961853</ele>
        <time>2020-05-24T09:49:36.000Z</time>
      </trkpt>
      <trkpt lat="47.56553" lon="-2.27275">
        <ele>-24.799999237061</ele>
        <time>2020-05-24T09:49:37.000Z</time>
      </trkpt>
      <trkpt lat="47.56557" lon="-2.27274">
        <ele>-25.200000762939</ele>
        <time>2020-05-24T09:49:38.000Z</time>
      </trkpt>
      <trkpt lat="47.56561" lon="-2.27273">
        <ele>-25.200000762939</ele>
        <time>2020-05-24T09:49:39.000Z</time>
      </trkpt>
      <trkpt lat="47.56592" lon="-2.27268">
        <ele>-25.200000762939</ele>
        <time>2020-05-24T09:49:46.000Z</time>
      </trkpt>
      <trkpt lat="47.56612" lon="-2.27267">
        <ele>-25.60000038147</ele>
        <time>2020-05-24T09:49:50.000Z</time>
      </trkpt>
      <trkpt lat="47.56617" lon="-2.27268">
        <ele>-26.200000762939</ele>
        <time>2020-05-24T09:49:51.000Z</time>
      </trkpt>
      <trkpt lat="47.56623" lon="-2.2727">
        <ele>-26.60000038147</ele>
        <time>2020-05-24T09:49:52.000Z</time>
      </trkpt>
      <trkpt lat="47.56629" lon="-2.27271">
        <ele>-27</ele>
        <time>2020-05-24T09:49:53.000Z</time>
      </trkpt>
      <trkpt lat="47.56635" lon="-2.27272">
        <ele>-27.39999961853</ele>
        <time>2020-05-24T09:49:54.000Z</time>
      </trkpt>
      <trkpt lat="47.56657" lon="-2.27276">
        <ele>-27.799999237061</ele>
        <time>2020-05-24T09:49:57.000Z</time>
      </trkpt>
      <trkpt lat="47.56664" lon="-2.27278">
        <ele>-28.39999961853</ele>
        <time>2020-05-24T09:49:58.000Z</time>
      </trkpt>
      <trkpt lat="47.56671" lon="-2.27279">
        <ele>-28.799999237061</ele>
        <time>2020-05-24T09:49:59.000Z</time>
      </trkpt>
      <trkpt lat="47.56677" lon="-2.27281">
        <ele>-29.200000762939</ele>
        <time>2020-05-24T09:50:00.000Z</time>
      </trkpt>
      <trkpt lat="47.56684" lon="-2.27282">
        <ele>-29.60000038147</ele>
        <time>2020-05-24T09:50:01.000Z</time>
      </trkpt>
      <trkpt lat="47.56689" lon="-2.27283">
        <ele>-30.60000038147</ele>
        <time>2020-05-24T09:50:02.000Z</time>
      </trkpt>
      <trkpt lat="47.56694" lon="-2.27284">
        <ele>-31.200000762939</ele>
        <time>2020-05-24T09:50:03.000Z</time>
      </trkpt>
      <trkpt lat="47.567" lon="-2.27286">
        <ele>-31.60000038147</ele>
        <time>2020-05-24T09:50:04.000Z</time>
      </trkpt>
      <trkpt lat="47.56705" lon="-2.27287">
        <ele>-32.200000762939</ele>
        <time>2020-05-24T09:50:05.000Z</time>
      </trkpt>
      <trkpt lat="47.56711" lon="-2.27288">
        <ele>-32.599998474121</ele>
        <time>2020-05-24T09:50:06.000Z</time>
      </trkpt>
      <trkpt lat="47.56717" lon="-2.2729">
        <ele>-33</ele>
        <time>2020-05-24T09:50:07.000Z</time>
      </trkpt>
      <trkpt lat="47.56722" lon="-2.27291">
        <ele>-33.400001525879</ele>
        <time>2020-05-24T09:50:08.000Z</time>
      </trkpt>
      <trkpt lat="47.56727" lon="-2.27292">
        <ele>-34</ele>
        <time>2020-05-24T09:50:09.000Z</time>
      </trkpt>
      <trkpt lat="47.56736" lon="-2.27294">
        <ele>-34.400001525879</ele>
        <time>2020-05-24T09:50:11.000Z</time>
      </trkpt>
      <trkpt lat="47.5674" lon="-2.27294">
        <ele>-34.799999237061</ele>
        <time>2020-05-24T09:50:12.000Z</time>
      </trkpt>
      <trkpt lat="47.56745" lon="-2.27295">
        <ele>-35.200000762939</ele>
        <time>2020-05-24T09:50:13.000Z</time>
      </trkpt>
      <trkpt lat="47.56749" lon="-2.27296">
        <ele>-35.599998474121</ele>
        <time>2020-05-24T09:50:14.000Z</time>
      </trkpt>
      <trkpt lat="47.56753" lon="-2.27297">
        <ele>-36</ele>
        <time>2020-05-24T09:50:15.000Z</time>
      </trkpt>
      <trkpt lat="47.56768" lon="-2.27299">
        <ele>-36.599998474121</ele>
        <time>2020-05-24T09:50:18.000Z</time>
      </trkpt>
      <trkpt lat="47.56773" lon="-2.273">
        <ele>-37</ele>
        <time>2020-05-24T09:50:19.000Z</time>
      </trkpt>
      <trkpt lat="47.56779" lon="-2.27302">
        <ele>-37.400001525879</ele>
        <time>2020-05-24T09:50:20.000Z</time>
      </trkpt>
      <trkpt lat="47.56784" lon="-2.27303">
        <ele>-37.799999237061</ele>
        <time>2020-05-24T09:50:21.000Z</time>
      </trkpt>
      <trkpt lat="47.56789" lon="-2.27305">
        <ele>-38.200000762939</ele>
        <time>2020-05-24T09:50:22.000Z</time>
      </trkpt>
      <trkpt lat="47.56797" lon="-2.27307">
        <ele>-38.599998474121</ele>
        <time>2020-05-24T09:50:24.000Z</time>
      </trkpt>
      <trkpt lat="47.56801" lon="-2.27307">
        <ele>-39</ele>
        <time>2020-05-24T09:50:25.000Z</time>
      </trkpt>
      <trkpt lat="47.56805" lon="-2.27308">
        <ele>-39.599998474121</ele>
        <time>2020-05-24T09:50:26.000Z</time>
      </trkpt>
      <trkpt lat="47.56809" lon="-2.27309">
        <ele>-40.400001525879</ele>
        <time>2020-05-24T09:50:27.000Z</time>
      </trkpt>
      <trkpt lat="47.56823" lon="-2.27311">
        <ele>-40.400001525879</ele>
        <time>2020-05-24T09:50:30.000Z</time>
      </trkpt>
      <trkpt lat="47.56828" lon="-2.27313">
        <ele>-40.799999237061</ele>
        <time>2020-05-24T09:50:31.000Z</time>
      </trkpt>
      <trkpt lat="47.56832" lon="-2.27314">
        <ele>-41.200000762939</ele>
        <time>2020-05-24T09:50:32.000Z</time>
      </trkpt>
      <trkpt lat="47.56837" lon="-2.27316">
        <ele>-41.599998474121</ele>
        <time>2020-05-24T09:50:33.000Z</time>
      </trkpt>
      <trkpt lat="47.56842" lon="-2.27318">
        <ele>-42</ele>
        <time>2020-05-24T09:50:34.000Z</time>
      </trkpt>
      <trkpt lat="47.56846" lon="-2.2732">
        <ele>-42.400001525879</ele>
        <time>2020-05-24T09:50:35.000Z</time>
      </trkpt>
      <trkpt lat="47.5685" lon="-2.27321">
        <ele>-42.400001525879</ele>
        <time>2020-05-24T09:50:36.000Z</time>
      </trkpt>
      <trkpt lat="47.56855" lon="-2.27323">
        <ele>-42.799999237061</ele>
        <time>2020-05-24T09:50:37.000Z</time>
      </trkpt>
      <trkpt lat="47.56859" lon="-2.27324">
        <ele>-43.200000762939</ele>
        <time>2020-05-24T09:50:38.000Z</time>
      </trkpt>
      <trkpt lat="47.56863" lon="-2.27324">
        <ele>-43.599998474121</ele>
        <time>2020-05-24T09:50:39.000Z</time>
      </trkpt>
      <trkpt lat="47.56868" lon="-2.27325">
        <ele>-44</ele>
        <time>2020-05-24T09:50:40.000Z</time>
      </trkpt>
      <trkpt lat="47.56873" lon="-2.27327">
        <ele>-44.400001525879</ele>
        <time>2020-05-24T09:50:41.000Z</time>
      </trkpt>
      <trkpt lat="47.56878" lon="-2.27328">
        <ele>-44.400001525879</ele>
        <time>2020-05-24T09:50:42.000Z</time>
      </trkpt>
      <trkpt lat="47.56893" lon="-2.27334">
        <ele>-45</ele>
        <time>2020-05-24T09:50:45.000Z</time>
      </trkpt>
      <trkpt lat="47.56899" lon="-2.27336">
        <ele>-45.400001525879</ele>
        <time>2020-05-24T09:50:46.000Z</time>
      </trkpt>
      <trkpt lat="47.56904" lon="-2.27339">
        <ele>-45.799999237061</ele>
        <time>2020-05-24T09:50:47.000Z</time>
      </trkpt>
      <trkpt lat="47.5691" lon="-2.27341">
        <ele>-46.200000762939</ele>
        <time>2020-05-24T09:50:48.000Z</time>
      </trkpt>
      <trkpt lat="47.56916" lon="-2.27342">
        <ele>-46.599998474121</ele>
        <time>2020-05-24T09:50:49.000Z</time>
      </trkpt>
      <trkpt lat="47.56927" lon="-2.27345">
        <ele>-47.200000762939</ele>
        <time>2020-05-24T09:50:51.000Z</time>
      </trkpt>
      <trkpt lat="47.56932" lon="-2.27346">
        <ele>-48</ele>
        <time>2020-05-24T09:50:52.000Z</time>
      </trkpt>
      <trkpt lat="47.56936" lon="-2.27349">
        <ele>-48.599998474121</ele>
        <time>2020-05-24T09:50:53.000Z</time>
      </trkpt>
      <trkpt lat="47.56941" lon="-2.27351">
        <ele>-49</ele>
        <time>2020-05-24T09:50:54.000Z</time>
      </trkpt>
      <trkpt lat="47.56949" lon="-2.27358">
        <ele>-49.400001525879</ele>
        <time>2020-05-24T09:50:56.000Z</time>
      </trkpt>
      <trkpt lat="47.56952" lon="-2.27364">
        <ele>-49.799999237061</ele>
        <time>2020-05-24T09:50:57.000Z</time>
      </trkpt>
      <trkpt lat="47.56954" lon="-2.2737">
        <ele>-50.200000762939</ele>
        <time>2020-05-24T09:50:58.000Z</time>
      </trkpt>
      <trkpt lat="47.56955" lon="-2.27376">
        <ele>-50.599998474121</ele>
        <time>2020-05-24T09:50:59.000Z</time>
      </trkpt>
      <trkpt lat="47.56955" lon="-2.27382">
        <ele>-51</ele>
        <time>2020-05-24T09:51:00.000Z</time>
      </trkpt>
      <trkpt lat="47.56955" lon="-2.27389">
        <ele>-51.400001525879</ele>
        <time>2020-05-24T09:51:01.000Z</time>
      </trkpt>
      <trkpt lat="47.56954" lon="-2.27395">
        <ele>-51.799999237061</ele>
        <time>2020-05-24T09:51:02.000Z</time>
      </trkpt>
      <trkpt lat="47.56954" lon="-2.27401">
        <ele>-52.200000762939</ele>
        <time>2020-05-24T09:51:03.000Z</time>
      </trkpt>
      <trkpt lat="47.56954" lon="-2.27406">
        <ele>-52.799999237061</ele>
        <time>2020-05-24T09:51:04.000Z</time>
      </trkpt>
      <trkpt lat="47.56953" lon="-2.27409">
        <ele>-53.200000762939</ele>
        <time>2020-05-24T09:51:05.000Z</time>
      </trkpt>
      <trkpt lat="47.56953" lon="-2.27412">
        <ele>-53.200000762939</ele>
        <time>2020-05-24T09:51:06.000Z</time>
      </trkpt>
      <trkpt lat="47.56951" lon="-2.2742">
        <ele>-53.599998474121</ele>
        <time>2020-05-24T09:51:11.000Z</time>
      </trkpt>
      <trkpt lat="47.5695" lon="-2.27419">
        <ele>-54</ele>
        <time>2020-05-24T09:51:12.000Z</time>
      </trkpt>
      <trkpt lat="47.5695" lon="-2.27411">
        <ele>-55.200000762939</ele>
        <time>2020-05-24T09:51:57.000Z</time>
      </trkpt>
      <trkpt lat="47.56952" lon="-2.27401">
        <ele>-55.200000762939</ele>
        <time>2020-05-24T09:51:59.000Z</time>
      </trkpt>
      <trkpt lat="47.56958" lon="-2.27372">
        <ele>-55.200000762939</ele>
        <time>2020-05-24T09:52:05.000Z</time>
      </trkpt>
      <trkpt lat="47.56959" lon="-2.27369">
        <ele>-54.799999237061</ele>
        <time>2020-05-24T09:52:06.000Z</time>
      </trkpt>
      <trkpt lat="47.56961" lon="-2.27367">
        <ele>-54.400001525879</ele>
        <time>2020-05-24T09:52:07.000Z</time>
      </trkpt>
      <trkpt lat="47.56963" lon="-2.27366">
        <ele>-54</ele>
        <time>2020-05-24T09:52:08.000Z</time>
      </trkpt>
      <trkpt lat="47.56966" lon="-2.27365">
        <ele>-53.599998474121</ele>
        <time>2020-05-24T09:52:09.000Z</time>
      </trkpt>
      <trkpt lat="47.56969" lon="-2.27364">
        <ele>-53.200000762939</ele>
        <time>2020-05-24T09:52:10.000Z</time>
      </trkpt>
      <trkpt lat="47.56984" lon="-2.27366">
        <ele>-53.200000762939</ele>
        <time>2020-05-24T09:52:14.000Z</time>
      </trkpt>
      <trkpt lat="47.57014" lon="-2.27374">
        <ele>-53.200000762939</ele>
        <time>2020-05-24T09:52:19.000Z</time>
      </trkpt>
      <trkpt lat="47.57054" lon="-2.27386">
        <ele>-53.599998474121</ele>
        <time>2020-05-24T09:52:24.000Z</time>
      </trkpt>
      <trkpt lat="47.57062" lon="-2.27389">
        <ele>-54</ele>
        <time>2020-05-24T09:52:25.000Z</time>
      </trkpt>
      <trkpt lat="47.5707" lon="-2.27392">
        <ele>-54.599998474121</ele>
        <time>2020-05-24T09:52:26.000Z</time>
      </trkpt>
      <trkpt lat="47.57078" lon="-2.27396">
        <ele>-55</ele>
        <time>2020-05-24T09:52:27.000Z</time>
      </trkpt>
      <trkpt lat="47.57086" lon="-2.274">
        <ele>-55.599998474121</ele>
        <time>2020-05-24T09:52:28.000Z</time>
      </trkpt>
      <trkpt lat="47.57102" lon="-2.27411">
        <ele>-55.599998474121</ele>
        <time>2020-05-24T09:52:30.000Z</time>
      </trkpt>
      <trkpt lat="47.5711" lon="-2.2742">
        <ele>-56.400001525879</ele>
        <time>2020-05-24T09:52:31.000Z</time>
      </trkpt>
      <trkpt lat="47.57116" lon="-2.2743">
        <ele>-56.799999237061</ele>
        <time>2020-05-24T09:52:32.000Z</time>
      </trkpt>
      <trkpt lat="47.57122" lon="-2.2744">
        <ele>-57.200000762939</ele>
        <time>2020-05-24T09:52:33.000Z</time>
      </trkpt>
      <trkpt lat="47.57127" lon="-2.27449">
        <ele>-57.599998474121</ele>
        <time>2020-05-24T09:52:34.000Z</time>
      </trkpt>
      <trkpt lat="47.57143" lon="-2.27485">
        <ele>-57.599998474121</ele>
        <time>2020-05-24T09:52:38.000Z</time>
      </trkpt>
      <trkpt lat="47.57155" lon="-2.2752">
        <ele>-57.599998474121</ele>
        <time>2020-05-24T09:52:42.000Z</time>
      </trkpt>
      <trkpt lat="47.57159" lon="-2.27538">
        <ele>-58</ele>
        <time>2020-05-24T09:52:44.000Z</time>
      </trkpt>
      <trkpt lat="47.5716" lon="-2.27545">
        <ele>-58.599998474121</ele>
        <time>2020-05-24T09:52:45.000Z</time>
      </trkpt>
      <trkpt lat="47.57161" lon="-2.27553">
        <ele>-59</ele>
        <time>2020-05-24T09:52:46.000Z</time>
      </trkpt>
      <trkpt lat="47.57161" lon="-2.27561">
        <ele>-59.400001525879</ele>
        <time>2020-05-24T09:52:47.000Z</time>
      </trkpt>
      <trkpt lat="47.57161" lon="-2.27569">
        <ele>-59.799999237061</ele>
        <time>2020-05-24T09:52:48.000Z</time>
      </trkpt>
      <trkpt lat="47.5716" lon="-2.27575">
        <ele>-59.799999237061</ele>
        <time>2020-05-24T09:52:49.000Z</time>
      </trkpt>
      <trkpt lat="47.57158" lon="-2.27593">
        <ele>-59.799999237061</ele>
        <time>2020-05-24T09:52:52.000Z</time>
      </trkpt>
      <trkpt lat="47.57156" lon="-2.27602">
        <ele>-59.799999237061</ele>
        <time>2020-05-24T09:52:54.000Z</time>
      </trkpt>
      <trkpt lat="47.57149" lon="-2.2764">
        <ele>-59.799999237061</ele>
        <time>2020-05-24T09:53:01.000Z</time>
      </trkpt>
      <trkpt lat="47.57144" lon="-2.2767">
        <ele>-59.799999237061</ele>
        <time>2020-05-24T09:53:07.000Z</time>
      </trkpt>
      <trkpt lat="47.57142" lon="-2.277">
        <ele>-59.799999237061</ele>
        <time>2020-05-24T09:53:13.000Z</time>
      </trkpt>
      <trkpt lat="47.57138" lon="-2.27724">
        <ele>-59.799999237061</ele>
        <time>2020-05-24T09:53:18.000Z</time>
      </trkpt>
      <trkpt lat="47.57137" lon="-2.27755">
        <ele>-59.799999237061</ele>
        <time>2020-05-24T09:53:25.000Z</time>
      </trkpt>
      <trkpt lat="47.5714" lon="-2.27783">
        <ele>-59.799999237061</ele>
        <time>2020-05-24T09:53:30.000Z</time>
      </trkpt>
      <trkpt lat="47.57147" lon="-2.27815">
        <ele>-59.799999237061</ele>
        <time>2020-05-24T09:53:36.000Z</time>
      </trkpt>
      <trkpt lat="47.5715" lon="-2.27822">
        <ele>-59.799999237061</ele>
        <time>2020-05-24T09:53:37.000Z</time>
      </trkpt>
      <trkpt lat="47.57156" lon="-2.27835">
        <ele>-59.799999237061</ele>
        <time>2020-05-24T09:53:39.000Z</time>
      </trkpt>
      <trkpt lat="47.57162" lon="-2.27848">
        <ele>-59.799999237061</ele>
        <time>2020-05-24T09:53:41.000Z</time>
      </trkpt>
      <trkpt lat="47.57166" lon="-2.27855">
        <ele>-60.200000762939</ele>
        <time>2020-05-24T09:53:42.000Z</time>
      </trkpt>
      <trkpt lat="47.57169" lon="-2.27861">
        <ele>-60.599998474121</ele>
        <time>2020-05-24T09:53:43.000Z</time>
      </trkpt>
      <trkpt lat="47.57173" lon="-2.27868">
        <ele>-61.200000762939</ele>
        <time>2020-05-24T09:53:44.000Z</time>
      </trkpt>
      <trkpt lat="47.57177" lon="-2.27874">
        <ele>-62</ele>
        <time>2020-05-24T09:53:45.000Z</time>
      </trkpt>
      <trkpt lat="47.57189" lon="-2.27895">
        <ele>-62.400001525879</ele>
        <time>2020-05-24T09:53:48.000Z</time>
      </trkpt>
      <trkpt lat="47.57192" lon="-2.27903">
        <ele>-62.799999237061</ele>
        <time>2020-05-24T09:53:49.000Z</time>
      </trkpt>
      <trkpt lat="47.57196" lon="-2.27911">
        <ele>-63.200000762939</ele>
        <time>2020-05-24T09:53:50.000Z</time>
      </trkpt>
      <trkpt lat="47.57199" lon="-2.27919">
        <ele>-63.599998474121</ele>
        <time>2020-05-24T09:53:51.000Z</time>
      </trkpt>
      <trkpt lat="47.57202" lon="-2.27926">
        <ele>-64</ele>
        <time>2020-05-24T09:53:52.000Z</time>
      </trkpt>
      <trkpt lat="47.57214" lon="-2.27957">
        <ele>-64</ele>
        <time>2020-05-24T09:53:56.000Z</time>
      </trkpt>
      <trkpt lat="47.5722" lon="-2.27979">
        <ele>-64</ele>
        <time>2020-05-24T09:53:59.000Z</time>
      </trkpt>
      <trkpt lat="47.57224" lon="-2.27991">
        <ele>-64</ele>
        <time>2020-05-24T09:54:01.000Z</time>
      </trkpt>
      <trkpt lat="47.57236" lon="-2.2802">
        <ele>-64</ele>
        <time>2020-05-24T09:54:07.000Z</time>
      </trkpt>
      <trkpt lat="47.57258" lon="-2.28057">
        <ele>-64</ele>
        <time>2020-05-24T09:54:13.000Z</time>
      </trkpt>
      <trkpt lat="47.57265" lon="-2.28066">
        <ele>-64</ele>
        <time>2020-05-24T09:54:15.000Z</time>
      </trkpt>
      <trkpt lat="47.57275" lon="-2.28074">
        <ele>-64.400001525879</ele>
        <time>2020-05-24T09:54:17.000Z</time>
      </trkpt>
      <trkpt lat="47.5728" lon="-2.28078">
        <ele>-64.800003051758</ele>
        <time>2020-05-24T09:54:18.000Z</time>
      </trkpt>
      <trkpt lat="47.57285" lon="-2.2808">
        <ele>-65.199996948242</ele>
        <time>2020-05-24T09:54:19.000Z</time>
      </trkpt>
      <trkpt lat="47.5729" lon="-2.28082">
        <ele>-65.599998474121</ele>
        <time>2020-05-24T09:54:20.000Z</time>
      </trkpt>
      <trkpt lat="47.57295" lon="-2.28084">
        <ele>-66</ele>
        <time>2020-05-24T09:54:21.000Z</time>
      </trkpt>
      <trkpt lat="47.57307" lon="-2.28087">
        <ele>-66</ele>
        <time>2020-05-24T09:54:23.000Z</time>
      </trkpt>
      <trkpt lat="47.57314" lon="-2.28089">
        <ele>-66.599998474121</ele>
        <time>2020-05-24T09:54:24.000Z</time>
      </trkpt>
      <trkpt lat="47.5732" lon="-2.28091">
        <ele>-67</ele>
        <time>2020-05-24T09:54:25.000Z</time>
      </trkpt>
      <trkpt lat="47.57326" lon="-2.28093">
        <ele>-67.400001525879</ele>
        <time>2020-05-24T09:54:26.000Z</time>
      </trkpt>
      <trkpt lat="47.57332" lon="-2.28095">
        <ele>-67.800003051758</ele>
        <time>2020-05-24T09:54:27.000Z</time>
      </trkpt>
      <trkpt lat="47.57336" lon="-2.28097">
        <ele>-68.199996948242</ele>
        <time>2020-05-24T09:54:28.000Z</time>
      </trkpt>
      <trkpt lat="47.57341" lon="-2.28098">
        <ele>-68.599998474121</ele>
        <time>2020-05-24T09:54:29.000Z</time>
      </trkpt>
      <trkpt lat="47.57347" lon="-2.28101">
        <ele>-69</ele>
        <time>2020-05-24T09:54:30.000Z</time>
      </trkpt>
      <trkpt lat="47.57351" lon="-2.28103">
        <ele>-69.400001525879</ele>
        <time>2020-05-24T09:54:31.000Z</time>
      </trkpt>
      <trkpt lat="47.57356" lon="-2.28105">
        <ele>-69.800003051758</ele>
        <time>2020-05-24T09:54:32.000Z</time>
      </trkpt>
      <trkpt lat="47.5736" lon="-2.28107">
        <ele>-70.199996948242</ele>
        <time>2020-05-24T09:54:33.000Z</time>
      </trkpt>
      <trkpt lat="47.57369" lon="-2.2811">
        <ele>-70.199996948242</ele>
        <time>2020-05-24T09:54:35.000Z</time>
      </trkpt>
      <trkpt lat="47.57401" lon="-2.2812">
        <ele>-70.800003051758</ele>
        <time>2020-05-24T09:54:43.000Z</time>
      </trkpt>
      <trkpt lat="47.57405" lon="-2.28121">
        <ele>-71.199996948242</ele>
        <time>2020-05-24T09:54:44.000Z</time>
      </trkpt>
      <trkpt lat="47.57409" lon="-2.28122">
        <ele>-71.599998474121</ele>
        <time>2020-05-24T09:54:45.000Z</time>
      </trkpt>
      <trkpt lat="47.57413" lon="-2.28123">
        <ele>-72</ele>
        <time>2020-05-24T09:54:46.000Z</time>
      </trkpt>
      <trkpt lat="47.57416" lon="-2.28124">
        <ele>-72.400001525879</ele>
        <time>2020-05-24T09:54:47.000Z</time>
      </trkpt>
      <trkpt lat="47.57427" lon="-2.28126">
        <ele>-72.400001525879</ele>
        <time>2020-05-24T09:54:50.000Z</time>
      </trkpt>
      <trkpt lat="47.57438" lon="-2.28116">
        <ele>-72.400001525879</ele>
        <time>2020-05-24T09:54:55.000Z</time>
      </trkpt>
      <trkpt lat="47.57451" lon="-2.2811">
        <ele>-72.400001525879</ele>
        <time>2020-05-24T09:55:01.000Z</time>
      </trkpt>
      <trkpt lat="47.57462" lon="-2.28107">
        <ele>-72.400001525879</ele>
        <time>2020-05-24T09:55:07.000Z</time>
      </trkpt>
      <trkpt lat="47.57475" lon="-2.28111">
        <ele>-72.400001525879</ele>
        <time>2020-05-24T09:55:13.000Z</time>
      </trkpt>
      <trkpt lat="47.57487" lon="-2.28107">
        <ele>-72.400001525879</ele>
        <time>2020-05-24T09:55:17.000Z</time>
      </trkpt>
      <trkpt lat="47.57499" lon="-2.281">
        <ele>-72.400001525879</ele>
        <time>2020-05-24T09:55:23.000Z</time>
      </trkpt>
      <trkpt lat="47.57503" lon="-2.28101">
        <ele>-72.400001525879</ele>
        <time>2020-05-24T09:55:27.000Z</time>
      </trkpt>
      <trkpt lat="47.57503" lon="-2.28101">
        <ele>-72.400001525879</ele>
        <time>2020-05-24T09:55:28.000Z</time>
      </trkpt>
      <trkpt lat="47.57503" lon="-2.28101">
        <ele>-72.400001525879</ele>
        <time>2020-05-24T09:56:26.000Z</time>
      </trkpt>
      <trkpt lat="47.575" lon="-2.28101">
        <ele>-72.400001525879</ele>
        <time>2020-05-24T09:56:28.000Z</time>
      </trkpt>
      <trkpt lat="47.57486" lon="-2.28108">
        <ele>-72.400001525879</ele>
        <time>2020-05-24T09:56:35.000Z</time>
      </trkpt>
      <trkpt lat="47.57471" lon="-2.28115">
        <ele>-72.400001525879</ele>
        <time>2020-05-24T09:56:41.000Z</time>
      </trkpt>
      <trkpt lat="47.57449" lon="-2.28116">
        <ele>-72.400001525879</ele>
        <time>2020-05-24T09:56:49.000Z</time>
      </trkpt>
      <trkpt lat="47.57439" lon="-2.28117">
        <ele>-72.400001525879</ele>
        <time>2020-05-24T09:56:53.000Z</time>
      </trkpt>
      <trkpt lat="47.57434" lon="-2.28129">
        <ele>-72.400001525879</ele>
        <time>2020-05-24T09:56:58.000Z</time>
      </trkpt>
      <trkpt lat="47.57429" lon="-2.28132">
        <ele>-72.400001525879</ele>
        <time>2020-05-24T09:57:02.000Z</time>
      </trkpt>
      <trkpt lat="47.57423" lon="-2.28127">
        <ele>-72.400001525879</ele>
        <time>2020-05-24T09:57:06.000Z</time>
      </trkpt>
      <trkpt lat="47.57421" lon="-2.28125">
        <ele>-72.400001525879</ele>
        <time>2020-05-24T09:57:07.000Z</time>
      </trkpt>
      <trkpt lat="47.57408" lon="-2.2812">
        <ele>-72.400001525879</ele>
        <time>2020-05-24T09:57:12.000Z</time>
      </trkpt>
      <trkpt lat="47.57382" lon="-2.28115">
        <ele>-72.400001525879</ele>
        <time>2020-05-24T09:57:20.000Z</time>
      </trkpt>
      <trkpt lat="47.57359" lon="-2.28108">
        <ele>-72.400001525879</ele>
        <time>2020-05-24T09:57:27.000Z</time>
      </trkpt>
      <trkpt lat="47.57336" lon="-2.28103">
        <ele>-72.400001525879</ele>
        <time>2020-05-24T09:57:34.000Z</time>
      </trkpt>
      <trkpt lat="47.5732" lon="-2.281">
        <ele>-72</ele>
        <time>2020-05-24T09:57:39.000Z</time>
      </trkpt>
      <trkpt lat="47.57318" lon="-2.28099">
        <ele>-71.599998474121</ele>
        <time>2020-05-24T09:57:40.000Z</time>
      </trkpt>
      <trkpt lat="47.57315" lon="-2.28098">
        <ele>-71.199996948242</ele>
        <time>2020-05-24T09:57:41.000Z</time>
      </trkpt>
      <trkpt lat="47.57312" lon="-2.28098">
        <ele>-70.800003051758</ele>
        <time>2020-05-24T09:57:42.000Z</time>
      </trkpt>
      <trkpt lat="47.5731" lon="-2.28098">
        <ele>-70.400001525879</ele>
        <time>2020-05-24T09:57:43.000Z</time>
      </trkpt>
      <trkpt lat="47.57299" lon="-2.28094">
        <ele>-70</ele>
        <time>2020-05-24T09:57:47.000Z</time>
      </trkpt>
      <trkpt lat="47.57296" lon="-2.28092">
        <ele>-69.599998474121</ele>
        <time>2020-05-24T09:57:48.000Z</time>
      </trkpt>
      <trkpt lat="47.57293" lon="-2.2809">
        <ele>-69</ele>
        <time>2020-05-24T09:57:49.000Z</time>
      </trkpt>
      <trkpt lat="47.57291" lon="-2.28089">
        <ele>-68.599998474121</ele>
        <time>2020-05-24T09:57:50.000Z</time>
      </trkpt>
      <trkpt lat="47.57288" lon="-2.28087">
        <ele>-68.199996948242</ele>
        <time>2020-05-24T09:57:51.000Z</time>
      </trkpt>
      <trkpt lat="47.57283" lon="-2.28084">
        <ele>-68.199996948242</ele>
        <time>2020-05-24T09:57:53.000Z</time>
      </trkpt>
      <trkpt lat="47.5727" lon="-2.28072">
        <ele>-67.800003051758</ele>
        <time>2020-05-24T09:57:58.000Z</time>
      </trkpt>
      <trkpt lat="47.57266" lon="-2.28068">
        <ele>-67.400001525879</ele>
        <time>2020-05-24T09:57:59.000Z</time>
      </trkpt>
      <trkpt lat="47.57263" lon="-2.28062">
        <ele>-67</ele>
        <time>2020-05-24T09:58:00.000Z</time>
      </trkpt>
      <trkpt lat="47.5726" lon="-2.28057">
        <ele>-66.599998474121</ele>
        <time>2020-05-24T09:58:01.000Z</time>
      </trkpt>
      <trkpt lat="47.57256" lon="-2.28052">
        <ele>-66.199996948242</ele>
        <time>2020-05-24T09:58:02.000Z</time>
      </trkpt>
      <trkpt lat="47.57245" lon="-2.28032">
        <ele>-66.199996948242</ele>
        <time>2020-05-24T09:58:06.000Z</time>
      </trkpt>
      <trkpt lat="47.57235" lon="-2.2801">
        <ele>-66.199996948242</ele>
        <time>2020-05-24T09:58:11.000Z</time>
      </trkpt>
      <trkpt lat="47.57226" lon="-2.2799">
        <ele>-66.199996948242</ele>
        <time>2020-05-24T09:58:15.000Z</time>
      </trkpt>
      <trkpt lat="47.57224" lon="-2.27983">
        <ele>-66.199996948242</ele>
        <time>2020-05-24T09:58:16.000Z</time>
      </trkpt>
      <trkpt lat="47.57211" lon="-2.27948">
        <ele>-66.199996948242</ele>
        <time>2020-05-24T09:58:22.000Z</time>
      </trkpt>
      <trkpt lat="47.57191" lon="-2.27909">
        <ele>-66.199996948242</ele>
        <time>2020-05-24T09:58:29.000Z</time>
      </trkpt>
      <trkpt lat="47.57186" lon="-2.279">
        <ele>-65.800003051758</ele>
        <time>2020-05-24T09:58:31.000Z</time>
      </trkpt>
      <trkpt lat="47.57184" lon="-2.27896">
        <ele>-65.400001525879</ele>
        <time>2020-05-24T09:58:32.000Z</time>
      </trkpt>
      <trkpt lat="47.57182" lon="-2.27892">
        <ele>-65</ele>
        <time>2020-05-24T09:58:33.000Z</time>
      </trkpt>
      <trkpt lat="47.5718" lon="-2.27888">
        <ele>-64.599998474121</ele>
        <time>2020-05-24T09:58:34.000Z</time>
      </trkpt>
      <trkpt lat="47.57177" lon="-2.27882">
        <ele>-64.199996948242</ele>
        <time>2020-05-24T09:58:35.000Z</time>
      </trkpt>
      <trkpt lat="47.57158" lon="-2.27847">
        <ele>-63.599998474121</ele>
        <time>2020-05-24T09:58:42.000Z</time>
      </trkpt>
      <trkpt lat="47.57156" lon="-2.27842">
        <ele>-63.200000762939</ele>
        <time>2020-05-24T09:58:43.000Z</time>
      </trkpt>
      <trkpt lat="47.57154" lon="-2.27837">
        <ele>-62.799999237061</ele>
        <time>2020-05-24T09:58:44.000Z</time>
      </trkpt>
      <trkpt lat="47.57152" lon="-2.27832">
        <ele>-62.400001525879</ele>
        <time>2020-05-24T09:58:45.000Z</time>
      </trkpt>
      <trkpt lat="47.5715" lon="-2.27827">
        <ele>-62</ele>
        <time>2020-05-24T09:58:46.000Z</time>
      </trkpt>
      <trkpt lat="47.57145" lon="-2.2781">
        <ele>-62</ele>
        <time>2020-05-24T09:58:49.000Z</time>
      </trkpt>
      <trkpt lat="47.57141" lon="-2.27773">
        <ele>-62</ele>
        <time>2020-05-24T09:58:54.000Z</time>
      </trkpt>
      <trkpt lat="47.57139" lon="-2.27722">
        <ele>-62</ele>
        <time>2020-05-24T09:59:01.000Z</time>
      </trkpt>
      <trkpt lat="47.57142" lon="-2.27704">
        <ele>-61.200000762939</ele>
        <time>2020-05-24T09:59:04.000Z</time>
      </trkpt>
      <trkpt lat="47.57142" lon="-2.27694">
        <ele>-60.799999237061</ele>
        <time>2020-05-24T09:59:05.000Z</time>
      </trkpt>
      <trkpt lat="47.57142" lon="-2.27686">
        <ele>-60.400001525879</ele>
        <time>2020-05-24T09:59:06.000Z</time>
      </trkpt>
      <trkpt lat="47.57143" lon="-2.27677">
        <ele>-60</ele>
        <time>2020-05-24T09:59:07.000Z</time>
      </trkpt>
      <trkpt lat="47.57148" lon="-2.27612">
        <ele>-60</ele>
        <time>2020-05-24T09:59:14.000Z</time>
      </trkpt>
      <trkpt lat="47.5715" lon="-2.27594">
        <ele>-60</ele>
        <time>2020-05-24T09:59:16.000Z</time>
      </trkpt>
      <trkpt lat="47.57153" lon="-2.27561">
        <ele>-60</ele>
        <time>2020-05-24T09:59:20.000Z</time>
      </trkpt>
      <trkpt lat="47.57151" lon="-2.27518">
        <ele>-60</ele>
        <time>2020-05-24T09:59:25.000Z</time>
      </trkpt>
      <trkpt lat="47.57149" lon="-2.2751">
        <ele>-60</ele>
        <time>2020-05-24T09:59:26.000Z</time>
      </trkpt>
      <trkpt lat="47.57141" lon="-2.27488">
        <ele>-60</ele>
        <time>2020-05-24T09:59:29.000Z</time>
      </trkpt>
      <trkpt lat="47.57138" lon="-2.2748">
        <ele>-60</ele>
        <time>2020-05-24T09:59:30.000Z</time>
      </trkpt>
      <trkpt lat="47.57117" lon="-2.27437">
        <ele>-60</ele>
        <time>2020-05-24T09:59:36.000Z</time>
      </trkpt>
      <trkpt lat="47.57109" lon="-2.27425">
        <ele>-60</ele>
        <time>2020-05-24T09:59:38.000Z</time>
      </trkpt>
      <trkpt lat="47.57094" lon="-2.27411">
        <ele>-60</ele>
        <time>2020-05-24T09:59:41.000Z</time>
      </trkpt>
      <trkpt lat="47.57071" lon="-2.27398">
        <ele>-60</ele>
        <time>2020-05-24T09:59:46.000Z</time>
      </trkpt>
      <trkpt lat="47.57047" lon="-2.2739">
        <ele>-60</ele>
        <time>2020-05-24T09:59:51.000Z</time>
      </trkpt>
      <trkpt lat="47.57043" lon="-2.27389">
        <ele>-59.400001525879</ele>
        <time>2020-05-24T09:59:52.000Z</time>
      </trkpt>
      <trkpt lat="47.57038" lon="-2.27387">
        <ele>-58.599998474121</ele>
        <time>2020-05-24T09:59:53.000Z</time>
      </trkpt>
      <trkpt lat="47.57034" lon="-2.27385">
        <ele>-58.200000762939</ele>
        <time>2020-05-24T09:59:54.000Z</time>
      </trkpt>
      <trkpt lat="47.57029" lon="-2.27384">
        <ele>-57.799999237061</ele>
        <time>2020-05-24T09:59:55.000Z</time>
      </trkpt>
      <trkpt lat="47.57009" lon="-2.27377">
        <ele>-57.400001525879</ele>
        <time>2020-05-24T10:00:00.000Z</time>
      </trkpt>
      <trkpt lat="47.57005" lon="-2.27376">
        <ele>-57</ele>
        <time>2020-05-24T10:00:01.000Z</time>
      </trkpt>
      <trkpt lat="47.57001" lon="-2.27374">
        <ele>-56.599998474121</ele>
        <time>2020-05-24T10:00:02.000Z</time>
      </trkpt>
      <trkpt lat="47.56997" lon="-2.27373">
        <ele>-56.200000762939</ele>
        <time>2020-05-24T10:00:03.000Z</time>
      </trkpt>
      <trkpt lat="47.56993" lon="-2.27372">
        <ele>-55.599998474121</ele>
        <time>2020-05-24T10:00:04.000Z</time>
      </trkpt>
      <trkpt lat="47.56978" lon="-2.27367">
        <ele>-55.599998474121</ele>
        <time>2020-05-24T10:00:08.000Z</time>
      </trkpt>
      <trkpt lat="47.56976" lon="-2.27365">
        <ele>-55.200000762939</ele>
        <time>2020-05-24T10:00:09.000Z</time>
      </trkpt>
      <trkpt lat="47.56973" lon="-2.27364">
        <ele>-54.799999237061</ele>
        <time>2020-05-24T10:00:10.000Z</time>
      </trkpt>
      <trkpt lat="47.56969" lon="-2.27364">
        <ele>-54.400001525879</ele>
        <time>2020-05-24T10:00:11.000Z</time>
      </trkpt>
      <trkpt lat="47.56967" lon="-2.27364">
        <ele>-54</ele>
        <time>2020-05-24T10:00:12.000Z</time>
      </trkpt>
      <trkpt lat="47.56962" lon="-2.27368">
        <ele>-53.599998474121</ele>
        <time>2020-05-24T10:00:13.000Z</time>
      </trkpt>
      <trkpt lat="47.56949" lon="-2.27396">
        <ele>-53.599998474121</ele>
        <time>2020-05-24T10:00:18.000Z</time>
      </trkpt>
      <trkpt lat="47.56944" lon="-2.27422">
        <ele>-53.599998474121</ele>
        <time>2020-05-24T10:00:22.000Z</time>
      </trkpt>
      <trkpt lat="47.56937" lon="-2.27425">
        <ele>-53.599998474121</ele>
        <time>2020-05-24T10:00:25.000Z</time>
      </trkpt>
      <trkpt lat="47.56934" lon="-2.27424">
        <ele>-53.599998474121</ele>
        <time>2020-05-24T10:00:26.000Z</time>
      </trkpt>
      <trkpt lat="47.56911" lon="-2.27417">
        <ele>-53.599998474121</ele>
        <time>2020-05-24T10:00:34.000Z</time>
      </trkpt>
      <trkpt lat="47.56903" lon="-2.27413">
        <ele>-53</ele>
        <time>2020-05-24T10:00:37.000Z</time>
      </trkpt>
      <trkpt lat="47.56901" lon="-2.27411">
        <ele>-52.599998474121</ele>
        <time>2020-05-24T10:00:38.000Z</time>
      </trkpt>
      <trkpt lat="47.569" lon="-2.27409">
        <ele>-52.200000762939</ele>
        <time>2020-05-24T10:00:39.000Z</time>
      </trkpt>
      <trkpt lat="47.56899" lon="-2.27408">
        <ele>-51.799999237061</ele>
        <time>2020-05-24T10:00:40.000Z</time>
      </trkpt>
      <trkpt lat="47.56898" lon="-2.27407">
        <ele>-51.400001525879</ele>
        <time>2020-05-24T10:00:41.000Z</time>
      </trkpt>
      <trkpt lat="47.56897" lon="-2.27407">
        <ele>-51.400001525879</ele>
        <time>2020-05-24T10:00:43.000Z</time>
      </trkpt>
    </trkseg>
  </trk>
</gpx>